# Wetter Temperatur Luftdruck Luftfeuchtigkeit Sichtweite Windgeschwindigkeit Windrichtung Zeit
1 Clouds 15 999 65 10000 2.87 124 12:48 22.04.2021
2 Clouds 16 999 62 10000 0.45 0 12:29 22.04.2021
3 Clear 16 1014 63 10000 2 130 11:48 22.04.2021
4 Clear 16 1014 63 10000 3 160 11:24 22.04.2021
5 Clear 16 1014 63 10000 3 170 10:46 22.04.2021
6 Clear 17 1014 63 10000 4 150 10:27 22.04.2021
7 Clouds 17 999 55 10000 3.24 102 09:58 22.04.2021
8 Clouds 17 998 57 10000 3.34 93 09:31 22.04.2021
9 Clear 17 1014 59 10000 3 150 08:45 22.04.2021
10 Clear 17 1014 59 10000 3 130 08:23 22.04.2021
11 Clear 16 1015 59 10000 2 140 07:46 22.04.2021
12 Clear 16 1015 67 10000 3 170 07:27 22.04.2021
13 Clouds 15 1016 67 10000 1 0 06:41 22.04.2021
14 Clouds 14 1001 64 10000 2.67 102 05:53 22.04.2021
15 Rain 14 1002 67 10000 2.86 101 05:20 22.04.2021
16 Rain 12 1016 66 10000 2 100 01:41 22.04.2021
17 Rain 13 1015 76 10000 1 0 23:54 21.04.2021
18 Rain 13 1000 81 10000 3.52 87 23:35 21.04.2021
19 Rain 14 1000 79 10000 3.43 89 22:45 21.04.2021
20 Rain 14 1000 80 10000 2.76 103 22:25 21.04.2021
21 Rain 14 1000 78 10000 2.76 103 21:57 21.04.2021
22 Rain 14 1000 76 10000 2.76 103 21:38 21.04.2021
23 Rain 14 1000 76 10000 0.45 0 21:18 21.04.2021
24 Rain 14 1000 76 10000 0.89 0 20:23 21.04.2021
25 Rain 15 1000 71 10000 0.45 0 19:46 21.04.2021
26 Rain 15 1000 68 10000 0.45 180 19:27 21.04.2021
27 Clouds 15 1001 64 10000 0.89 135 18:50 21.04.2021
28 Clouds 15 1001 60 10000 0.89 0 18:31 21.04.2021
29 Clouds 15 1001 60 10000 0.89 0 18:31 21.04.2021
30 Clouds 16 1001 53 10000 2.84 158 17:57 21.04.2021
31 Clouds 16 1001 53 10000 2.84 158 17:39 21.04.2021
32 Rain 16 1017 59 10000 2 130 17:19 21.04.2021
33 Rain 17 1016 48 10000 4 140 16:32 21.04.2021
34 Clear 18 1016 45 10000 5 130 15:43 21.04.2021
35 Clear 18 1016 39 10000 4 130 15:18 21.04.2021
36 Clear 17 1016 39 10000 4 140 14:44 21.04.2021
37 Rain 17 1016 59 10000 1 120 14:23 21.04.2021
38 Rain 17 1015 55 10000 1 150 13:48 21.04.2021
39 Rain 17 1015 55 10000 1 120 13:21 21.04.2021
40 Clear 20 1015 42 10000 2 210 12:40 21.04.2021
41 Clear 20 1015 42 10000 3 210 11:59 21.04.2021
42 Clear 20 1015 45 10000 4 200 11:41 21.04.2021
43 Clear 20 1015 45 10000 4 200 11:41 21.04.2021
44 Clear 20 1015 45 10000 4 200 11:22 21.04.2021
45 Clear 20 1016 40 10000 4 150 10:38 21.04.2021
46 Clear 21 1016 40 10000 5 180 09:56 21.04.2021
47 Rain 21 1016 40 10000 5 180 09:20 21.04.2021
48 Rain 21 1016 37 10000 6 170 08:44 21.04.2021
49 Rain 21 1017 37 10000 6 180 08:23 21.04.2021
50 Rain 21 1017 37 10000 5 190 07:50 21.04.2021
51 Rain 21 1017 46 10000 3 150 07:26 21.04.2021
52 Rain 21 1003 46 10000 1.79 45 05:57 21.04.2021
53 Clouds 16 1018 72 6000 1 0 01:51 21.04.2021
54 Clouds 14 1017 82 8000 2 90 00:20 21.04.2021
55 Clear 13 1017 82 10000 1 40 23:38 20.04.2021
56 Clear 14 1017 82 10000 1 90 22:46 20.04.2021
57 Clear 13 1017 82 10000 1 0 22:23 20.04.2021
58 Clear 14 1017 76 10000 1 0 21:49 20.04.2021
59 Clear 15 1017 76 10000 1 0 21:29 20.04.2021
60 Rain 14 1017 82 10000 2 60 20:59 20.04.2021
61 Clear 15 1017 82 10000 1 60 20:38 20.04.2021
62 Clear 15 1017 82 10000 1 60 20:18 20.04.2021
63 Clear 16 1017 76 10000 1 60 19:45 20.04.2021
64 Clear 16 1017 76 10000 1 60 19:45 20.04.2021
65 Clouds 17 1002 59 10000 4.43 203 19:27 20.04.2021
66 Clouds 18 1002 57 10000 0.89 45 18:42 20.04.2021
67 Clouds 17 1002 57 10000 1.34 45 18:23 20.04.2021
68 Clouds 19 1002 55 10000 0.89 135 17:41 20.04.2021
69 Clouds 19 1002 56 10000 1.34 90 16:50 20.04.2021
70 Clear 19 1017 39 10000 2 150 16:25 20.04.2021
71 Clear 20 1017 39 10000 2 150 15:30 20.04.2021
72 Clear 20 1016 37 10000 3 170 14:59 20.04.2021
73 Clear 21 1016 32 10000 4 180 14:36 20.04.2021
74 Clear 22 1015 28 10000 5 180 13:55 20.04.2021
75 Clear 23 1015 28 10000 6 180 13:26 20.04.2021
76 Clouds 25 1000 35 10000 2.24 90 12:51 20.04.2021
77 Clouds 25 999 33 10000 2.68 45 12:23 20.04.2021
78 Clear 26 1014 19 10000 6 180 11:46 20.04.2021
79 Clear 26 1014 19 10000 6 180 11:25 20.04.2021
80 Clear 27 1014 22 10000 7 180 10:47 20.04.2021
81 Clear 27 1014 26 10000 6 200 10:24 20.04.2021
82 Clear 27 1014 26 10000 6 180 09:45 20.04.2021
83 Clear 27 1014 24 10000 7 180 08:59 20.04.2021
84 Clear 27 1015 24 10000 7 190 08:34 20.04.2021
85 Clouds 27 1000 31 10000 0.45 90 07:52 20.04.2021
86 Clouds 27 1000 34 10000 1.79 180 07:21 20.04.2021
87 Clear 24 1017 43 10000 3 150 05:42 20.04.2021
88 Clouds 25 1001 43 10000 2.36 175 04:43 20.04.2021
89 Clouds 20 1016 56 7000 3 150 02:58 20.04.2021
90 Clouds 18 999 55 10000 0.79 87 00:50 20.04.2021
91 Clouds 16 1014 77 8000 1 0 23:52 19.04.2021
92 Clear 16 1014 67 10000 2 80 23:29 19.04.2021
93 Rain 16 1013 72 10000 1 0 22:38 19.04.2021
94 Clear 16 1013 72 10000 1 0 22:19 19.04.2021
95 Rain 16 1013 72 10000 2 50 21:38 19.04.2021
96 Clear 16 1013 72 10000 2 50 21:19 19.04.2021
97 Clear 17 1013 63 10000 1 0 20:40 19.04.2021
98 Clear 17 1013 63 10000 1 0 20:20 19.04.2021
99 Clear 18 1013 59 10000 1 0 19:44 19.04.2021
100 Clear 18 1013 55 10000 3 100 19:25 19.04.2021
101 Clear 19 1013 55 10000 3 90 18:48 19.04.2021
102 Clear 18 1012 59 10000 2 100 18:24 19.04.2021
103 Clear 18 1012 67 10000 1 90 17:56 19.04.2021
104 Clear 18 1012 67 10000 1 0 17:35 19.04.2021
105 Clear 18 1012 67 10000 1 0 16:59 19.04.2021
106 Clear 18 1012 67 10000 1 0 16:40 19.04.2021
107 Clear 19 1012 67 10000 1 0 16:21 19.04.2021
108 Rain 19 1011 59 10000 2 150 15:40 19.04.2021
109 Clear 19 1011 59 10000 2 150 15:22 19.04.2021
110 Clear 22 1011 42 10000 2 180 14:38 19.04.2021
111 Clouds 23 995 47 10000 0.45 0 14:19 19.04.2021
112 Rain 23 995 44 10000 0.89 90 13:44 19.04.2021
113 Clouds 24 995 43 10000 0.89 45 13:24 19.04.2021
114 Clouds 25 995 40 10000 0.89 90 12:43 19.04.2021
115 Clear 27 1009 25 10000 4 200 12:23 19.04.2021
116 Clear 27 1009 22 10000 5 180 11:54 19.04.2021
117 Clouds 28 994 35 10000 0.89 45 11:26 19.04.2021
118 Clouds 28 994 31 10000 0.89 45 10:47 19.04.2021
119 Clouds 28 994 29 10000 0.89 135 10:25 19.04.2021
120 Clouds 28 994 30 10000 1.34 90 09:50 19.04.2021
121 Clouds 28 994 28 10000 0.45 45 09:30 19.04.2021
122 Clouds 29 994 24 10000 1.34 45 08:58 19.04.2021
123 Clouds 28 994 25 10000 2.35 187 08:28 19.04.2021
124 Clouds 27 995 26 10000 1.34 45 07:48 19.04.2021
125 Clouds 27 995 26 10000 1.34 90 07:19 19.04.2021
126 Clouds 26 995 28 10000 0.45 45 06:36 19.04.2021
127 Clear 18 1012 48 10000 2 10 02:35 19.04.2021
128 Clear 14 1012 81 10000 1 40 00:49 19.04.2021
129 Clear 11 1011 87 10000 1 60 23:55 18.04.2021
130 Clear 11 1011 76 10000 1 20 23:18 18.04.2021
131 Clear 11 1011 76 10000 1 360 22:48 18.04.2021
132 Clear 12 1011 66 10000 1 70 22:29 18.04.2021
133 Clear 12 1011 66 10000 2 70 21:40 18.04.2021
134 Clear 12 1011 66 10000 2 70 21:18 18.04.2021
135 Clear 13 1011 71 10000 1 0 20:40 18.04.2021
136 Clear 13 1011 71 10000 1 0 20:20 18.04.2021
137 Clear 14 1011 58 10000 1 140 19:45 18.04.2021
138 Clear 14 1011 54 10000 1 0 19:27 18.04.2021
139 Clear 16 1011 51 10000 2 130 18:54 18.04.2021
140 Clear 17 996 45 10000 0.45 45 18:31 18.04.2021
141 Clear 19 996 43 10000 1.34 90 17:55 18.04.2021
142 Clear 19 996 41 10000 1.34 90 17:37 18.04.2021
143 Clouds 19 996 40 10000 1.34 90 17:18 18.04.2021
144 Clear 19 1012 26 10000 3 210 16:41 18.04.2021
145 Clear 19 1011 36 10000 2 150 15:59 18.04.2021
146 Clear 20 1011 23 10000 3 200 15:38 18.04.2021
147 Clear 20 1011 23 10000 3 200 15:18 18.04.2021
148 Clear 20 1011 24 10000 3 180 14:41 18.04.2021
149 Clear 21 996 30 10000 0.89 180 14:19 18.04.2021
150 Clear 21 996 29 10000 1.34 135 13:49 18.04.2021
151 Clear 21 996 29 10000 1.34 135 13:49 18.04.2021
152 Clear 22 996 29 10000 1.34 90 13:29 18.04.2021
153 Clear 23 1010 16 10000 7 200 12:38 18.04.2021
154 Clear 25 995 22 10000 1.79 45 11:58 18.04.2021
155 Clear 25 995 22 10000 1.34 45 11:39 18.04.2021
156 Clear 25 995 21 10000 1.79 90 11:20 18.04.2021
157 Clear 24 995 20 10000 2.24 90 10:41 18.04.2021
158 Clear 24 995 18 10000 2.24 90 10:18 18.04.2021
159 Clear 24 996 18 10000 1.34 90 09:39 18.04.2021
160 Clear 25 1012 13 10000 7 210 09:20 18.04.2021
161 Clear 25 997 22 10000 3.13 0 08:44 18.04.2021
162 Clear 24 997 22 10000 1.34 45 08:24 18.04.2021
163 Clear 24 998 21 10000 2.24 45 07:40 18.04.2021
164 Clear 22 1015 17 10000 4 180 06:54 18.04.2021
165 Clear 21 1017 21 10000 2 0 05:26 18.04.2021
166 Clear 16 1018 25 10000 2 120 04:31 18.04.2021
167 Clear 12 1019 35 10000 2 20 02:23 18.04.2021
168 Clear 7 1019 75 10000 1 0 00:58 18.04.2021
169 Clear 7 1019 80 10000 1 0 23:57 17.04.2021
170 Clear 6 1019 75 10000 2 360 23:24 17.04.2021
171 Clear 7 1019 75 10000 0.44 73 22:44 17.04.2021
172 Clear 7 1019 75 10000 1 10 22:22 17.04.2021
173 Clear 8 1019 65 10000 1 0 21:43 17.04.2021
174 Clear 8 1019 65 10000 1 0 21:22 17.04.2021
175 Clear 9 1019 60 10000 0.41 337 20:37 17.04.2021
176 Clear 9 1019 60 10000 0.64 276 20:19 17.04.2021
177 Clear 9 1019 60 10000 1 0 19:39 17.04.2021
178 Clear 9 1019 60 10000 1 0 19:19 17.04.2021
179 Clear 9 1019 56 10000 1 0 18:46 17.04.2021
180 Clear 10 1019 52 10000 1 0 18:21 17.04.2021
181 Clear 12 1019 37 10000 1.16 234 17:41 17.04.2021
182 Clear 11 1019 39 10000 1 0 16:56 17.04.2021
183 Clear 13 1019 32 10000 2 160 16:37 17.04.2021
184 Clear 13 1019 32 10000 2 160 16:18 17.04.2021
185 Clear 16 1019 16 10000 4 200 15:19 17.04.2021
186 Clear 14 1018 26 10000 3 170 14:42 17.04.2021
187 Clear 14 1018 26 10000 3 170 14:19 17.04.2021
188 Clear 16 1017 21 10000 1 0 13:41 17.04.2021
189 Clear 18 1017 9 10000 2 10 12:47 17.04.2021
190 Clear 20 1016 7 10000 3 310 12:23 17.04.2021
191 Clear 21 1016 7 10000 5 300 11:51 17.04.2021
192 Clear 22 1016 9 10000 5 320 11:32 17.04.2021
193 Clear 21 1017 9 10000 3 300 10:48 17.04.2021
194 Clear 21 1017 9 10000 5 280 10:29 17.04.2021
195 Clear 21 1017 9 10000 5 290 09:46 17.04.2021
196 Clear 20 1018 11 10000 6 280 08:54 17.04.2021
197 Clear 20 1019 12 10000 4 300 08:28 17.04.2021
198 Clear 20 1019 12 10000 5 300 07:45 17.04.2021
199 Clear 16 1021 15 10000 8 340 04:51 17.04.2021
200 Clear 15 1022 19 10000 7 310 03:40 17.04.2021
201 Clear 9 1022 29 10000 6 290 00:55 17.04.2021
202 Clear 10 1007 30 10000 0.89 135 00:30 17.04.2021
203 Clear 9 1006 32 10000 0.45 180 23:55 16.04.2021
204 Clear 9 1006 32 10000 4.72 306 23:32 16.04.2021
205 Clear 9 1020 27 10000 3 300 22:51 16.04.2021
206 Clear 9 1020 27 10000 3 300 22:51 16.04.2021
207 Clear 7 1020 38 10000 2 10 22:22 16.04.2021
208 Clear 8 1020 26 10000 2 310 21:56 16.04.2021
209 Clear 8 1020 26 10000 2 320 21:38 16.04.2021
210 Clear 10 1020 20 10000 3 300 20:55 16.04.2021
211 Clear 10 1020 20 10000 4 300 20:35 16.04.2021
212 Clear 11 1005 22 10000 4.3 310 19:56 16.04.2021
213 Clear 11 1005 21 10000 0.45 180 19:37 16.04.2021
214 Clear 11 1005 19 10000 0.45 225 18:47 16.04.2021
215 Clear 12 1005 20 10000 4.46 313 18:21 16.04.2021
216 Clear 12 1020 13 10000 7 310 17:47 16.04.2021
217 Clear 12 1005 19 10000 0.89 180 17:47 16.04.2021
218 Clear 12 1020 13 10000 7 310 17:19 16.04.2021
219 Clear 12 1020 13 10000 7 310 17:19 16.04.2021
220 Clear 12 1004 18 10000 0.89 135 16:44 16.04.2021
221 Clear 12 1004 17 10000 1.34 135 16:26 16.04.2021
222 Clear 12 1004 17 10000 1.34 90 15:52 16.04.2021
223 Clear 11 1019 25 10000 3 350 15:28 16.04.2021
224 Clear 11 1018 29 10000 2 350 14:43 16.04.2021
225 Clear 11 1018 29 10000 2 350 14:20 16.04.2021
226 Clouds 12 1002 30 10000 5 331 13:54 16.04.2021
227 Clouds 13 1002 30 10000 0.45 45 13:22 16.04.2021
228 Clouds 14 1001 30 10000 5.73 325 12:53 16.04.2021
229 Clouds 14 1001 30 10000 5.73 325 12:30 16.04.2021
230 Rain 15 1016 19 10000 12 310 11:58 16.04.2021
231 Clear 15 1016 18 10000 10 320 11:38 16.04.2021
232 Clear 16 1016 18 10000 10 320 11:19 16.04.2021
233 Clear 16 1015 18 10000 11 320 10:40 16.04.2021
234 Clear 16 1015 18 10000 11 320 10:19 16.04.2021
235 Clouds 17 1007 26 10000 0.45 135 09:43 16.04.2021
236 Clouds 17 1007 26 10000 0.45 135 09:20 16.04.2021
237 Clouds 17 1007 26 10000 0.45 135 08:42 16.04.2021
238 Clouds 18 1007 26 10000 5.21 291 08:18 16.04.2021
239 Clouds 17 1007 27 10000 0.89 0 07:37 16.04.2021
240 Clouds 16 1007 27 10000 0.89 0 06:59 16.04.2021
241 Clouds 16 1006 27 10000 0.89 315 06:28 16.04.2021
242 Clouds 16 1008 37 10000 1.34 315 04:23 16.04.2021
243 Clear 10 1013 49 10000 1 0 01:38 16.04.2021
244 Clear 10 1013 42 10000 2 80 00:42 16.04.2021
245 Clear 10 1013 42 10000 2 80 00:20 16.04.2021
246 Clear 9 1012 45 10000 1 0 23:45 15.04.2021
247 Clear 10 1006 32 10000 3.1 280 23:25 15.04.2021
248 Clear 11 1006 32 10000 3.1 280 22:47 15.04.2021
249 Clear 11 1006 32 10000 3.44 286 22:23 15.04.2021
250 Clear 12 1005 29 10000 3.44 286 21:43 15.04.2021
251 Clear 12 1005 31 10000 3.85 297 21:24 15.04.2021
252 Clear 12 1005 28 10000 3.86 297 20:47 15.04.2021
253 Clear 12 1005 28 10000 4.93 304 20:25 15.04.2021
254 Clear 12 1005 28 10000 4.93 304 19:47 15.04.2021
255 Clear 13 1006 28 10000 0.45 0 19:28 15.04.2021
256 Clear 13 1006 28 10000 0.45 135 18:46 15.04.2021
257 Clear 13 1006 28 10000 5.6 309 18:22 15.04.2021
258 Clear 13 1005 27 10000 0.45 0 17:58 15.04.2021
259 Clear 13 1005 26 10000 1.79 45 17:39 15.04.2021
260 Clear 13 1006 26 10000 5.96 311 17:21 15.04.2021
261 Clear 13 1006 26 10000 0.45 0 16:43 15.04.2021
262 Clear 13 1006 27 10000 1.34 315 16:23 15.04.2021
263 Clear 14 1012 19 10000 11 300 15:47 15.04.2021
264 Clear 14 1011 23 10000 9 300 15:27 15.04.2021
265 Clear 14 1010 20 10000 9 300 14:43 15.04.2021
266 Clouds 15 1003 29 10000 0.89 45 14:25 15.04.2021
267 Clouds 16 1002 26 10000 1.34 0 13:48 15.04.2021
268 Clouds 16 1001 25 10000 2.24 0 13:23 15.04.2021
269 Clouds 16 1000 22 10000 0.89 338 12:47 15.04.2021
270 Clouds 18 999 21 10000 0.89 0 12:26 15.04.2021
271 Clouds 18 999 21 10000 0.89 0 12:26 15.04.2021
272 Clouds 19 997 24 10000 0.89 0 11:48 15.04.2021
273 Dust 19 1004 31 3000 6 320 11:27 15.04.2021
274 Dust 18 1004 39 3000 10 320 10:58 15.04.2021
275 Rain 18 1004 39 4000 13 280 10:39 15.04.2021
276 Rain 19 1004 39 4000 13 280 10:20 15.04.2021
277 Rain 24 1002 35 8000 3 0 09:29 15.04.2021
278 Clouds 24 1002 37 8000 4 190 08:52 15.04.2021
279 Rain 24 993 26 10000 7.36 205 08:29 15.04.2021
280 Clear 24 995 38 10000 0.45 135 07:33 15.04.2021
281 Clear 23 996 38 10000 6.29 203 06:56 15.04.2021
282 Clear 24 997 41 10000 6.29 203 06:33 15.04.2021
283 Clear 24 997 41 10000 6.29 203 06:33 15.04.2021
284 Clear 18 999 46 10000 3.56 202 04:54 15.04.2021
285 Clear 17 1000 47 10000 2.86 196 03:58 15.04.2021
286 Clouds 11 1001 50 10000 1.91 175 23:51 14.04.2021
287 Clouds 11 1001 48 10000 1.91 175 23:30 14.04.2021
288 Clouds 12 1001 46 10000 1.95 178 22:47 14.04.2021
289 Rain 12 1001 45 10000 2.41 196 22:29 14.04.2021
290 Rain 12 1001 45 10000 2.41 196 21:56 14.04.2021
291 Clear 12 1002 44 10000 2.41 196 21:37 14.04.2021
292 Clear 12 1002 43 10000 3.05 202 21:18 14.04.2021
293 Rain 13 1002 40 10000 3.36 202 20:37 14.04.2021
294 Clear 13 1002 40 10000 4.06 207 20:19 14.04.2021
295 Clear 14 1003 37 10000 4.06 207 19:39 14.04.2021
296 Clear 14 1003 36 10000 5.03 210 19:18 14.04.2021
297 Clear 15 1003 36 10000 5.03 210 18:50 14.04.2021
298 Clear 16 1004 35 10000 5.92 208 18:19 14.04.2021
299 Clear 15 1004 34 10000 5.92 208 17:55 14.04.2021
300 Clear 17 1003 33 10000 6.5 207 17:24 14.04.2021
301 Clear 16 1004 31 10000 6.5 207 16:43 14.04.2021
302 Clear 16 1004 30 10000 0.45 180 16:22 14.04.2021
303 Clear 17 1004 30 10000 5.97 203 15:40 14.04.2021
304 Clear 19 1004 29 10000 4.93 198 15:22 14.04.2021
305 Clear 18 1004 28 10000 0.45 135 14:42 14.04.2021
306 Clouds 18 1004 25 10000 5.37 199 14:22 14.04.2021
307 Clouds 18 1004 26 10000 5.37 199 13:48 14.04.2021
308 Clouds 22 1003 24 10000 0.45 180 12:58 14.04.2021
309 Clouds 21 1003 23 10000 5.73 198 12:35 14.04.2021
310 Clouds 23 1003 20 10000 4.68 194 11:42 14.04.2021
311 Clear 23 1003 20 10000 4.2 193 11:24 14.04.2021
312 Clear 23 1003 18 10000 0.45 225 10:35 14.04.2021
313 Clear 23 1004 18 10000 4.21 195 09:59 14.04.2021
314 Clear 23 1004 17 10000 4.21 195 09:41 14.04.2021
315 Clear 22 1012 13 10000 7 190 09:18 14.04.2021
316 Clear 23 1013 12 10000 7 200 08:33 14.04.2021
317 Clear 23 1006 17 10000 0.89 180 07:53 14.04.2021
318 Clear 22 1007 15 10000 3.33 201 06:46 14.04.2021
319 Clear 20 1016 11 10000 4 200 06:23 14.04.2021
320 Clear 17 1018 25 10000 1 0 03:58 14.04.2021
321 Clear 14 1012 46 10000 0.88 333 01:40 14.04.2021
322 Clear 9 1012 58 10000 0.99 342 00:34 14.04.2021
323 Clear 6 1018 75 10000 1 0 23:39 13.04.2021
324 Rain 6 1018 70 10000 1 0 22:56 13.04.2021
325 Clear 7 1018 70 10000 1 0 22:37 13.04.2021
326 Clear 7 1018 70 10000 1 0 22:18 13.04.2021
327 Clear 7 1018 60 10000 1 0 21:44 13.04.2021
328 Rain 8 1011 52 10000 1.14 265 21:24 13.04.2021
329 Clear 9 1011 48 10000 1.43 283 20:41 13.04.2021
330 Clear 9 1011 47 10000 1.82 258 20:21 13.04.2021
331 Clear 9 1011 44 10000 1.82 258 19:40 13.04.2021
332 Rain 10 1011 43 10000 2.19 236 19:22 13.04.2021
333 Rain 11 1012 39 10000 2.19 236 18:36 13.04.2021
334 Clear 11 1012 36 10000 2.37 226 17:47 13.04.2021
335 Clear 11 1011 34 10000 2.54 219 17:23 13.04.2021
336 Rain 12 1011 34 10000 2.54 219 16:59 13.04.2021
337 Rain 12 1011 34 10000 2.54 219 16:41 13.04.2021
338 Clear 13 1011 33 10000 2.54 222 16:20 13.04.2021
339 Clear 12 1012 32 10000 2.54 222 15:40 13.04.2021
340 Clear 14 1012 32 10000 2.55 220 15:18 13.04.2021
341 Clear 13 1012 30 10000 2.55 220 14:41 13.04.2021
342 Clear 15 1011 29 10000 2.69 228 14:18 13.04.2021
343 Rain 14 1011 28 10000 2.69 228 13:45 13.04.2021
344 Clear 14 1010 18 10000 2.68 247 13:23 13.04.2021
345 Clear 15 1010 17 10000 2.68 247 12:53 13.04.2021
346 Clear 17 1010 16 10000 2.96 277 12:24 13.04.2021
347 Clear 18 1010 16 10000 2.96 277 11:50 13.04.2021
348 Clear 16 1010 15 10000 4.13 289 11:29 13.04.2021
349 Clear 17 1011 15 10000 4.13 289 10:45 13.04.2021
350 Clear 17 1011 14 10000 1.34 0 10:20 13.04.2021
351 Clear 17 1011 14 10000 1.34 0 10:20 13.04.2021
352 Clear 16 1011 13 10000 0.89 23 09:53 13.04.2021
353 Clear 16 1011 14 10000 1.34 0 09:34 13.04.2021
354 Clear 17 1012 14 10000 5.24 308 08:51 13.04.2021
355 Clear 16 1012 13 10000 0.89 0 08:26 13.04.2021
356 Clear 16 1013 12 10000 0.89 0 07:59 13.04.2021
357 Clear 16 1013 13 10000 0.89 0 07:35 13.04.2021
358 Clear 15 1014 14 10000 0.45 315 06:29 13.04.2021
359 Clear 13 1017 19 10000 0.89 0 04:27 13.04.2021
360 Clear 8 1026 29 10000 3 350 01:37 13.04.2021
361 Clear 6 1025 38 10000 3 350 23:59 12.04.2021
362 Clear 6 1025 38 10000 3 350 23:39 12.04.2021
363 Clear 6 1025 38 10000 3 350 23:18 12.04.2021
364 Clear 7 1019 28 10000 0.89 0 22:38 12.04.2021
365 Clear 7 1025 41 10000 2 360 21:56 12.04.2021
366 Clear 7 1025 38 10000 1 350 21:36 12.04.2021
367 Clear 8 1018 31 10000 0.45 338 21:18 12.04.2021
368 Clear 8 1024 33 10000 3 360 20:38 12.04.2021
369 Clouds 8 1018 32 10000 0.45 0 20:20 12.04.2021
370 Clear 8 1024 31 10000 3 360 19:42 12.04.2021
371 Clouds 9 1017 33 10000 5.1 350 19:21 12.04.2021
372 Clouds 9 1017 32 10000 1.34 0 18:56 12.04.2021
373 Clouds 9 1017 31 10000 0.89 0 18:37 12.04.2021
374 Clouds 11 1017 31 10000 0.89 338 18:18 12.04.2021
375 Clouds 12 1017 31 10000 0.89 338 17:42 12.04.2021
376 Clouds 13 1014 21 10000 5.75 353 17:20 12.04.2021
377 Clouds 12 1017 34 10000 1.79 0 16:43 12.04.2021
378 Clouds 13 1014 22 10000 6.38 349 16:24 12.04.2021
379 Clouds 13 1015 33 10000 1.34 0 15:47 12.04.2021
380 Clear 14 1021 26 10000 10 330 15:21 12.04.2021
381 Clear 13 1021 28 10000 10 320 14:49 12.04.2021
382 Clear 15 1020 28 10000 10 320 14:29 12.04.2021
383 Clear 15 1019 28 10000 10 320 13:43 12.04.2021
384 Clear 16 1018 28 10000 10 320 13:21 12.04.2021
385 Clear 17 1017 26 10000 11 320 12:44 12.04.2021
386 Clouds 18 1008 24 10000 7.13 340 12:23 12.04.2021
387 Clouds 18 1007 25 10000 7.13 340 11:47 12.04.2021
388 Clear 18 1015 39 10000 8 280 10:54 12.04.2021
389 Clear 18 1015 47 10000 9 290 10:28 12.04.2021
390 Clear 18 1015 51 10000 8 290 09:59 12.04.2021
391 Clouds 18 1016 58 10000 8 290 09:40 12.04.2021
392 Rain 18 1016 51 10000 9 300 08:59 12.04.2021
393 Rain 20 1015 45 10000 9 290 08:30 12.04.2021
394 Clouds 20 1015 55 6000 1 0 07:31 12.04.2021
395 Clouds 18 1015 52 6000 1 0 06:49 12.04.2021
396 Clouds 18 1008 52 10000 1.88 348 05:50 12.04.2021
397 Clouds 14 1010 70 10000 0.84 36 03:58 12.04.2021
398 Clouds 12 1009 78 10000 1.54 58 00:50 12.04.2021
399 Clouds 12 1009 78 10000 1.32 52 00:23 12.04.2021
400 Clouds 12 1009 77 10000 1.32 52 23:45 11.04.2021
401 Clouds 12 1009 76 10000 1.32 77 23:23 11.04.2021
402 Clouds 12 1010 73 10000 1.32 77 22:41 11.04.2021
403 Clouds 12 1010 72 10000 1.61 105 22:22 11.04.2021
404 Clouds 13 1010 70 10000 1.61 105 21:45 11.04.2021
405 Clouds 13 1010 68 10000 1.92 113 21:26 11.04.2021
406 Clouds 13 1010 65 10000 2.05 116 20:52 11.04.2021
407 Clouds 13 1011 63 10000 2.05 132 20:27 11.04.2021
408 Clouds 14 1011 62 10000 2.05 132 19:44 11.04.2021
409 Clouds 14 1012 61 10000 1.95 141 19:22 11.04.2021
410 Clouds 14 1012 58 10000 1.95 141 19:00 11.04.2021
411 Clouds 14 1012 58 10000 1.95 141 18:41 11.04.2021
412 Clouds 15 1012 57 10000 2.16 160 18:22 11.04.2021
413 Clouds 15 1012 58 10000 2.16 160 17:44 11.04.2021
414 Clouds 15 1012 58 10000 2.98 169 17:24 11.04.2021
415 Clouds 15 1012 56 10000 2.98 169 16:46 11.04.2021
416 Rain 16 1012 55 10000 3.66 163 16:22 11.04.2021
417 Clouds 16 1013 55 10000 3.66 163 15:48 11.04.2021
418 Rain 17 1013 53 10000 4.13 154 15:27 11.04.2021
419 Clouds 17 1013 53 10000 4.13 154 14:54 11.04.2021
420 Rain 17 1013 52 10000 4.13 154 14:31 11.04.2021
421 Clouds 18 1012 49 10000 2.92 142 13:51 11.04.2021
422 Clouds 18 1012 48 10000 2.26 163 13:30 11.04.2021
423 Clouds 18 1012 49 10000 2.26 163 12:49 11.04.2021
424 Clouds 19 1012 46 10000 2.68 174 12:21 11.04.2021
425 Rain 19 1012 44 10000 2.68 174 11:50 11.04.2021
426 Clouds 20 1012 42 10000 3.24 176 11:23 11.04.2021
427 Clouds 20 1012 40 10000 3.24 176 10:48 11.04.2021
428 Clouds 20 1012 38 10000 3.24 176 10:30 11.04.2021
429 Clouds 20 1013 38 10000 3.98 185 09:56 11.04.2021
430 Clouds 20 1013 40 10000 3.98 185 09:33 11.04.2021
431 Clouds 21 1013 36 10000 3.71 185 08:51 11.04.2021
432 Clouds 21 1014 37 10000 3.94 196 08:24 11.04.2021
433 Clouds 21 1014 38 10000 4.11 200 07:22 11.04.2021
434 Clouds 20 1014 39 10000 4.11 200 06:51 11.04.2021
435 Clouds 19 1015 43 10000 4.43 200 05:42 11.04.2021
436 Clear 19 1023 39 10000 4 170 05:20 11.04.2021
437 Clouds 18 1016 45 10000 4.52 199 04:34 11.04.2021
438 Clouds 14 1016 53 10000 4.1 188 01:49 11.04.2021
439 Rain 14 1015 57 10000 3.57 182 00:34 11.04.2021
440 Clear 13 1022 58 10000 3 140 23:48 10.04.2021
441 Clear 13 1022 54 10000 3 140 23:25 10.04.2021
442 Clear 13 1022 54 10000 3 140 23:25 10.04.2021
443 Clear 13 1022 54 10000 3 140 22:43 10.04.2021
444 Clear 13 1022 62 10000 3 160 22:20 10.04.2021
445 Rain 14 1022 54 10000 3 130 21:41 10.04.2021
446 Clear 14 1022 54 10000 3 130 21:21 10.04.2021
447 Clear 14 1022 54 10000 2 130 20:44 10.04.2021
448 Rain 15 1022 51 10000 3 120 20:23 10.04.2021
449 Rain 15 1022 51 10000 3 120 20:23 10.04.2021
450 Clear 15 1023 51 10000 2 120 19:44 10.04.2021
451 Clear 16 1022 44 10000 3 140 19:25 10.04.2021
452 Rain 16 1022 44 10000 2 150 18:51 10.04.2021
453 Rain 16 1022 51 10000 2 140 18:29 10.04.2021
454 Clouds 16 1023 51 8000 2 160 17:38 10.04.2021
455 Clouds 16 1023 51 8000 2 160 17:18 10.04.2021
456 Rain 17 1015 51 10000 4.51 198 16:28 10.04.2021
457 Clouds 17 1015 52 10000 4.51 198 15:55 10.04.2021
458 Rain 17 1015 51 10000 4.34 194 15:29 10.04.2021
459 Clouds 17 1022 58 8000 1 160 14:45 10.04.2021
460 Clouds 20 1015 48 10000 4.35 190 14:19 10.04.2021
461 Rain 20 1014 47 10000 4.35 190 13:43 10.04.2021
462 Clouds 20 1014 45 10000 4.46 198 12:54 10.04.2021
463 Clouds 21 1014 43 10000 4.61 212 12:29 10.04.2021
464 Clouds 21 1014 41 10000 4.61 212 11:50 10.04.2021
465 Clouds 22 1012 26 10000 5.25 219 11:26 10.04.2021
466 Clouds 22 1013 39 10000 5.25 219 10:52 10.04.2021
467 Clouds 21 1013 38 10000 5.25 219 10:31 10.04.2021
468 Clear 21 1021 34 10000 4 170 09:50 10.04.2021
469 Clouds 21 1014 36 10000 4.94 215 09:23 10.04.2021
470 Clouds 21 1014 33 10000 4.94 215 08:49 10.04.2021
471 Clouds 20 1015 31 10000 3.65 219 08:29 10.04.2021
472 Clouds 20 1015 31 10000 3.65 219 08:29 10.04.2021
473 Clouds 20 1015 26 10000 3.65 219 07:40 10.04.2021
474 Clear 19 1024 27 10000 2 0 07:21 10.04.2021
475 Clear 19 1025 25 10000 2 90 06:24 10.04.2021
476 Clouds 15 1018 28 10000 1.53 119 04:26 10.04.2021
477 Clouds 13 1019 31 10000 1.64 104 02:53 10.04.2021
478 Clouds 12 1019 31 10000 1.64 104 02:34 10.04.2021
479 Clouds 11 1018 32 10000 1.18 95 00:45 10.04.2021
480 Clouds 10 1018 34 10000 1.14 92 00:26 10.04.2021
481 Clouds 10 1018 40 10000 1.14 92 23:42 09.04.2021
482 Clouds 10 1018 38 10000 1.14 86 22:59 09.04.2021
483 Clear 8 1025 70 10000 1 350 22:38 09.04.2021
484 Clouds 10 1018 38 10000 1.14 86 22:38 09.04.2021
485 Clouds 10 1018 39 10000 1.2 78 21:59 09.04.2021
486 Rain 10 1018 39 10000 1.2 78 21:38 09.04.2021
487 Rain 10 1018 40 10000 1.3 70 21:19 09.04.2021
488 Rain 10 1018 40 10000 1.3 70 21:19 09.04.2021
489 Rain 10 1018 37 10000 1.3 70 20:43 09.04.2021
490 Rain 9 1025 56 10000 1 10 20:23 09.04.2021
491 Rain 11 1018 37 10000 1.85 61 19:54 09.04.2021
492 Clouds 11 1018 35 10000 1.85 61 19:36 09.04.2021
493 Clouds 11 1018 36 10000 2.28 63 19:18 09.04.2021
494 Clouds 11 1018 35 10000 2.27 63 18:41 09.04.2021
495 Clouds 11 1019 36 10000 2.34 78 18:19 09.04.2021
496 Clouds 12 1018 34 10000 2.34 78 17:40 09.04.2021
497 Clouds 12 1018 34 10000 2.67 100 16:56 09.04.2021
498 Clouds 12 1018 35 10000 2.67 100 16:36 09.04.2021
499 Clouds 13 1018 37 10000 3.13 116 15:57 09.04.2021
500 Clouds 13 1018 37 10000 3.13 116 15:37 09.04.2021
501 Clouds 14 1018 36 10000 3.55 119 15:18 09.04.2021
502 Clouds 14 1017 35 10000 3.55 119 14:40 09.04.2021
503 Rain 15 1023 34 10000 4.28 124 13:53 09.04.2021
504 Clouds 15 1016 34 10000 5 125 13:26 09.04.2021
505 Clouds 16 1016 34 10000 5 125 12:54 09.04.2021
506 Clouds 16 1015 33 10000 5 125 12:36 09.04.2021
507 Clouds 18 1015 31 10000 3.37 141 11:46 09.04.2021
508 Clouds 18 1015 31 10000 3.26 132 11:23 09.04.2021
509 Clouds 18 1015 31 10000 3.26 132 11:23 09.04.2021
510 Clouds 19 1015 29 10000 3.26 132 10:47 09.04.2021
511 Clear 19 1015 29 10000 3.21 130 10:29 09.04.2021
512 Clear 20 1015 26 10000 3.21 130 09:49 09.04.2021
513 Clear 19 1015 25 10000 3.08 133 09:22 09.04.2021
514 Clear 20 1015 25 10000 3.08 133 08:51 09.04.2021
515 Clouds 19 1016 25 10000 0.45 0 07:39 09.04.2021
516 Clouds 19 1017 24 10000 3.02 123 06:56 09.04.2021
517 Clouds 18 1017 24 10000 2.99 120 05:56 09.04.2021
518 Clouds 15 1019 28 10000 3.11 98 03:53 09.04.2021
519 Clouds 13 1018 36 10000 2.75 77 01:35 09.04.2021
520 Clouds 12 1018 39 10000 2.61 71 00:37 09.04.2021
521 Clouds 12 1017 39 10000 2.53 66 00:19 09.04.2021
522 Clouds 12 1017 41 10000 2.85 69 23:24 08.04.2021
523 Clouds 12 1016 42 10000 2.85 69 22:43 08.04.2021
524 Clouds 12 1016 44 10000 2.68 73 22:22 08.04.2021
525 Clouds 12 1016 46 10000 2.68 73 21:56 08.04.2021
526 Clouds 11 1016 48 10000 2.68 73 21:37 08.04.2021
527 Clouds 12 1016 47 10000 2.4 72 21:18 08.04.2021
528 Clouds 12 1015 47 10000 2.4 72 20:52 08.04.2021
529 Clouds 12 1015 45 10000 2.4 72 20:30 08.04.2021
530 Clouds 12 1015 46 10000 2.1 94 19:46 08.04.2021
531 Clouds 13 1014 48 10000 2.32 128 19:20 08.04.2021
532 Clouds 13 1014 51 10000 2.32 128 18:51 08.04.2021
533 Clouds 14 1014 50 10000 2.96 143 18:21 08.04.2021
534 Clouds 14 1014 49 10000 2.96 143 17:50 08.04.2021
535 Clouds 15 1014 48 10000 3.25 149 17:26 08.04.2021
536 Clouds 15 1014 50 10000 3.25 149 16:54 08.04.2021
537 Clouds 15 1014 53 10000 3.25 149 16:34 08.04.2021
538 Clear 14 1021 54 10000 2 100 15:49 08.04.2021
539 Clear 15 1013 48 10000 2.99 150 15:29 08.04.2021
540 Clear 15 1021 44 10000 2 170 14:58 08.04.2021
541 Clear 15 1020 47 10000 1 140 14:36 08.04.2021
542 Clear 15 1020 47 10000 2 130 14:18 08.04.2021
543 Clear 16 1019 41 10000 2 140 13:43 08.04.2021
544 Clear 19 1012 41 10000 2.85 173 13:23 08.04.2021
545 Clear 19 1012 40 10000 2.85 173 12:44 08.04.2021
546 Clear 20 1012 39 10000 3.2 191 12:25 08.04.2021
547 Clear 20 1012 38 10000 3.2 191 11:43 08.04.2021
548 Clear 20 1012 36 10000 2.65 197 11:18 08.04.2021
549 Clear 20 1012 34 10000 2.65 197 10:42 08.04.2021
550 Clear 20 1012 32 10000 2.12 204 10:19 08.04.2021
551 Clear 20 1012 30 10000 2.12 204 09:43 08.04.2021
552 Clear 19 1005 32 10000 1.34 90 08:47 08.04.2021
553 Clear 20 1006 30 10000 2.45 211 08:28 08.04.2021
554 Clear 19 1006 31 10000 1.34 135 07:59 08.04.2021
555 Clear 20 1014 26 10000 2.45 211 07:35 08.04.2021
556 Clear 16 1018 30 10000 1.49 192 04:44 08.04.2021
557 Clouds 10 1018 45 10000 1.21 99 01:21 08.04.2021
558 Clouds 8 1018 48 10000 1.28 104 00:29 08.04.2021
559 Clouds 8 1018 48 10000 1.28 104 23:45 07.04.2021
560 Clouds 8 1018 49 10000 1.51 129 23:22 07.04.2021
561 Clouds 8 1018 45 10000 1.51 129 22:54 07.04.2021
562 Clouds 8 1017 46 10000 1.51 129 22:35 07.04.2021
563 Clear 8 1025 56 10000 1 50 21:48 07.04.2021
564 Clear 8 1025 56 10000 2.13 154 21:26 07.04.2021
565 Clear 9 1025 52 10000 1 150 20:47 07.04.2021
566 Clear 9 1025 52 10000 1 90 20:27 07.04.2021
567 Clear 8 1025 65 10000 2 70 19:46 07.04.2021
568 Clear 8 1025 60 10000 1 0 19:28 07.04.2021
569 Clear 9 1026 52 10000 1 110 18:53 07.04.2021
570 Clear 10 1018 36 10000 2.22 160 18:21 07.04.2021
571 Clear 10 1018 37 10000 2.22 160 17:57 07.04.2021
572 Clear 10 1018 37 10000 2.22 160 17:39 07.04.2021
573 Clear 11 1018 37 10000 2.83 172 16:59 07.04.2021
574 Clear 11 1018 35 10000 2.83 172 16:39 07.04.2021
575 Clear 11 1025 37 10000 3 130 16:20 07.04.2021
576 Clear 12 1025 32 10000 3 150 15:50 07.04.2021
577 Clear 13 1024 35 10000 4 160 15:25 07.04.2021
578 Clear 13 1024 35 10000 4 160 15:25 07.04.2021
579 Clear 14 1023 30 10000 5 180 14:35 07.04.2021
580 Clear 14 1016 37 10000 4.91 197 13:55 07.04.2021
581 Clear 15 1016 38 10000 5.51 185 13:28 07.04.2021
582 Clear 15 1015 37 10000 5.51 185 12:58 07.04.2021
583 Clear 18 1013 23 10000 5.85 180 12:26 07.04.2021
584 Clear 17 1015 35 10000 5.85 180 11:59 07.04.2021
585 Clear 18 1014 34 10000 5.85 180 11:39 07.04.2021
586 Clear 19 1014 33 10000 0.45 225 11:20 07.04.2021
587 Clear 20 1014 32 10000 0.45 135 10:33 07.04.2021
588 Clear 21 1014 31 10000 3.97 165 09:46 07.04.2021
589 Clear 21 1014 32 10000 3.12 152 09:28 07.04.2021
590 Clear 21 1014 32 10000 0.45 180 08:48 07.04.2021
591 Clear 21 1008 35 10000 0.45 45 08:26 07.04.2021
592 Clear 21 1008 35 10000 0.45 45 07:46 07.04.2021
593 Clear 20 1008 35 10000 0.45 45 07:26 07.04.2021
594 Clear 21 1016 29 10000 2.53 133 06:36 07.04.2021
595 Clear 19 1025 24 10000 6 120 04:24 07.04.2021
596 Clear 12 1024 81 10000 2 360 01:21 07.04.2021
597 Clear 11 1015 57 10000 2.91 49 23:47 06.04.2021
598 Clear 11 1015 58 10000 2.85 40 23:22 06.04.2021
599 Clear 11 1015 63 10000 2.85 40 22:48 06.04.2021
600 Clear 11 1014 62 10000 2.05 24 22:20 06.04.2021
601 Clear 10 1021 87 10000 2 340 21:43 06.04.2021
602 Rain 12 1014 62 10000 1.14 356 21:23 06.04.2021
603 Clear 12 1014 59 10000 1.14 356 20:55 06.04.2021
604 Rain 12 1014 59 10000 0.5 261 20:26 06.04.2021
605 Rain 12 1014 59 10000 0.5 261 19:59 06.04.2021
606 Rain 12 1014 58 10000 0.5 261 19:38 06.04.2021
607 Rain 13 1014 56 10000 1.4 218 19:19 06.04.2021
608 Clear 13 1014 55 10000 1.4 218 18:41 06.04.2021
609 Rain 13 1014 55 10000 2.07 210 18:19 06.04.2021
610 Rain 15 1014 50 10000 2.07 210 17:44 06.04.2021
611 Rain 15 1014 49 10000 3.19 213 17:19 06.04.2021
612 Clear 15 1014 46 10000 3.19 213 16:46 06.04.2021
613 Clear 16 1014 45 10000 4.01 207 16:26 06.04.2021
614 Rain 17 1014 42 10000 3.9 202 15:27 06.04.2021
615 Clear 17 1014 39 10000 3.9 202 14:45 06.04.2021
616 Rain 17 1014 39 10000 3.86 197 14:26 06.04.2021
617 Rain 18 1013 38 10000 3.86 197 13:47 06.04.2021
618 Rain 19 1013 37 10000 3.02 197 13:27 06.04.2021
619 Clouds 19 1013 36 10000 3.02 197 12:55 06.04.2021
620 Clouds 19 1012 35 10000 3.02 197 12:36 06.04.2021
621 Clouds 20 1012 34 10000 3.04 204 12:18 06.04.2021
622 Clouds 21 1012 32 10000 3.04 204 11:43 06.04.2021
623 Clouds 21 1012 30 10000 2.91 207 11:19 06.04.2021
624 Clouds 22 1012 29 10000 2.91 207 10:43 06.04.2021
625 Clouds 23 1012 30 10000 0.45 135 10:22 06.04.2021
626 Clouds 22 1012 29 10000 2.13 193 09:45 06.04.2021
627 Clouds 22 1012 28 10000 1.34 184 09:23 06.04.2021
628 Clouds 22 1005 28 10000 0.45 0 08:29 06.04.2021
629 Clouds 22 1013 28 10000 0.45 0 07:32 06.04.2021
630 Clouds 22 1014 31 10000 0.45 180 06:54 06.04.2021
631 Clear 17 1023 34 10000 2 350 03:55 06.04.2021
632 Clouds 12 1015 60 10000 1.49 33 00:51 06.04.2021
633 Clear 9 1022 81 10000 3 360 00:22 06.04.2021
634 Clear 8 1021 87 10000 1 0 23:58 05.04.2021
635 Clear 8 1021 81 10000 0.78 339 23:39 05.04.2021
636 Clear 8 1021 81 10000 0.5 317 23:18 05.04.2021
637 Clear 8 1020 75 10000 0.5 317 22:40 05.04.2021
638 Clear 9 1020 70 10000 0.42 22 21:56 05.04.2021
639 Rain 9 1020 70 10000 0.42 22 21:37 05.04.2021
640 Clear 10 1020 70 10000 1 60 21:18 05.04.2021
641 Clear 10 1020 61 10000 1 0 20:41 05.04.2021
642 Clouds 11 1013 58 10000 0.8 220 20:22 05.04.2021
643 Clouds 11 1013 52 10000 0.8 220 19:37 05.04.2021
644 Clouds 11 1014 53 10000 1.29 212 19:18 05.04.2021
645 Clouds 12 1013 49 10000 1.29 212 18:41 05.04.2021
646 Clouds 13 1013 47 10000 2.17 196 18:19 05.04.2021
647 Clouds 13 1014 46 10000 2.17 196 17:47 05.04.2021
648 Clouds 13 1014 46 10000 2.89 196 17:23 05.04.2021
649 Clouds 13 1014 45 10000 2.89 196 16:47 05.04.2021
650 Clouds 14 1014 44 10000 3.3 190 16:22 05.04.2021
651 Clouds 14 1014 44 10000 3.3 190 15:58 05.04.2021
652 Rain 14 1014 43 10000 3.3 190 15:35 05.04.2021
653 Clouds 15 1014 42 10000 3.29 187 14:59 05.04.2021
654 Clouds 15 1014 41 10000 0.45 180 14:36 05.04.2021
655 Clouds 15 1013 39 10000 0.89 180 13:52 05.04.2021
656 Clouds 16 1013 39 10000 0.45 248 13:27 05.04.2021
657 Rain 16 1012 37 10000 4.39 196 12:47 05.04.2021
658 Rain 16 1011 34 10000 0.89 225 12:25 05.04.2021
659 Rain 17 1011 36 10000 4.78 200 11:48 05.04.2021
660 Rain 18 1011 35 10000 4.78 200 11:30 05.04.2021
661 Rain 18 1011 35 10000 0.45 135 10:55 05.04.2021
662 Rain 17 1011 33 10000 5.39 204 10:35 05.04.2021
663 Clouds 18 1011 27 10000 5.88 206 09:48 05.04.2021
664 Rain 19 1011 27 10000 5.96 207 09:26 05.04.2021
665 Rain 19 1011 31 10000 0.45 135 08:47 05.04.2021
666 Clouds 19 1011 32 10000 5.99 209 08:26 05.04.2021
667 Clouds 19 1012 27 10000 5.8 205 07:57 05.04.2021
668 Clouds 19 1012 28 10000 5.58 206 07:29 05.04.2021
669 Clouds 16 1015 32 10000 2.77 218 03:42 05.04.2021
670 Clouds 12 1015 45 10000 0.84 225 00:54 05.04.2021
671 Clear 7 1022 75 10000 1 0 23:53 04.04.2021
672 Rain 10 1022 70 10000 1 0 23:31 04.04.2021
673 Rain 7 1022 70 10000 1 20 22:57 04.04.2021
674 Clear 8 1022 65 10000 1 340 22:34 04.04.2021
675 Clear 8 1022 70 10000 1 10 21:56 04.04.2021
676 Clear 8 1023 60 10000 1 0 21:21 04.04.2021
677 Clear 10 1023 56 10000 1 0 20:42 04.04.2021
678 Clear 9 1023 56 10000 1 0 20:21 04.04.2021
679 Clouds 11 1016 39 10000 2.31 217 19:40 04.04.2021
680 Clouds 12 1016 37 10000 2.87 214 19:19 04.04.2021
681 Clouds 12 1016 35 10000 2.87 214 18:51 04.04.2021
682 Clouds 12 1016 34 10000 3.33 211 18:25 04.04.2021
683 Clouds 13 1016 32 10000 3.33 211 17:58 04.04.2021
684 Clear 13 1024 26 10000 2 160 17:25 04.04.2021
685 Rain 13 1024 28 10000 2 150 16:57 04.04.2021
686 Rain 14 1024 22 10000 3 170 16:38 04.04.2021
687 Rain 15 1016 25 10000 3.71 210 15:54 04.04.2021
688 Rain 15 1016 24 10000 3.71 210 15:31 04.04.2021
689 Rain 16 1023 17 10000 3 190 14:40 04.04.2021
690 Clear 16 1023 17 10000 3 190 14:20 04.04.2021
691 Rain 17 1015 20 10000 4.02 203 13:27 04.04.2021
692 Clouds 17 1015 19 10000 4.02 203 12:52 04.04.2021
693 Clouds 18 1014 19 10000 3.98 202 12:28 04.04.2021
694 Clouds 19 1014 18 10000 3.98 202 11:50 04.04.2021
695 Clouds 20 1013 14 10000 3.67 202 11:30 04.04.2021
696 Clouds 20 1015 15 10000 3.67 202 10:49 04.04.2021
697 Clouds 21 1015 14 10000 0.45 180 10:29 04.04.2021
698 Clouds 21 1015 14 10000 2.7 205 09:48 04.04.2021
699 Clouds 21 1015 14 10000 2.1 216 09:21 04.04.2021
700 Clouds 22 1016 13 10000 2.1 216 08:45 04.04.2021
701 Clouds 21 1008 13 10000 0.89 90 08:26 04.04.2021
702 Clear 19 1026 11 10000 2 290 06:40 04.04.2021
703 Clear 19 1027 14 10000 2 290 05:44 04.04.2021
704 Clear 19 1027 14 10000 2 290 05:44 04.04.2021
705 Clear 14 1028 21 10000 3 320 02:59 04.04.2021
706 Clear 8 1028 48 10000 1 360 00:55 04.04.2021
707 Clear 8 1027 64 10000 2 360 00:19 04.04.2021
708 Clear 9 1027 36 10000 2 340 23:42 03.04.2021
709 Clear 9 1027 38 10000 2 340 22:58 03.04.2021
710 Clear 9 1027 45 10000 2 350 22:40 03.04.2021
711 Clear 9 1027 45 10000 2 350 22:19 03.04.2021
712 Clear 10 1027 33 10000 2 310 21:46 03.04.2021
713 Clear 10 1027 33 10000 3 310 21:23 03.04.2021
714 Clear 10 1027 48 10000 2 320 20:48 03.04.2021
715 Clear 10 1027 56 10000 2 350 20:26 03.04.2021
716 Clear 10 1027 45 10000 2 330 19:48 03.04.2021
717 Clear 10 1027 60 10000 1 0 19:24 03.04.2021
718 Clear 10 1026 65 10000 2 350 18:46 03.04.2021
719 Clear 10 1026 65 10000 2 360 18:23 03.04.2021
720 Clear 11 1026 56 10000 1 50 17:50 03.04.2021
721 Clear 12 1026 56 10000 2 80 17:21 03.04.2021
722 Clear 11 1026 56 10000 2 80 16:45 03.04.2021
723 Clear 13 1026 43 10000 1 0 16:21 03.04.2021
724 Clouds 14 1018 27 10000 1.18 44 15:46 03.04.2021
725 Rain 14 1018 26 10000 1.6 47 15:22 03.04.2021
726 Rain 14 1017 25 10000 1.6 47 14:44 03.04.2021
727 Rain 14 1017 21 10000 2.4 72 14:22 03.04.2021
728 Rain 16 1016 18 10000 2.4 72 13:49 03.04.2021
729 Rain 16 1016 17 10000 3.25 76 13:23 03.04.2021
730 Clouds 17 1016 16 10000 3.25 76 12:52 03.04.2021
731 Clouds 18 1016 16 10000 4.01 62 12:21 03.04.2021
732 Clouds 18 1015 14 10000 4.01 62 11:39 03.04.2021
733 Clouds 20 1015 14 10000 4.6 45 10:56 03.04.2021
734 Clouds 20 1015 13 10000 4.6 45 10:36 03.04.2021
735 Clouds 20 1015 13 10000 0.45 315 10:18 03.04.2021
736 Clear 19 1023 10 10000 4 40 09:28 03.04.2021
737 Clear 19 1023 10 10000 4 40 08:54 03.04.2021
738 Clear 19 1024 9 10000 5 30 08:28 03.04.2021
739 Clouds 19 1017 15 10000 0.45 0 07:29 03.04.2021
740 Clouds 18 1017 16 10000 5.16 33 06:39 03.04.2021
741 Clouds 16 1020 22 10000 0.45 0 03:53 03.04.2021
742 Clouds 16 1020 26 10000 6.07 19 02:51 03.04.2021
743 Clouds 14 1020 34 10000 0.45 0 02:26 03.04.2021
744 Clouds 12 1018 43 10000 4.44 37 00:23 03.04.2021
745 Clouds 12 1017 46 10000 4.44 37 23:50 02.04.2021
746 Clouds 12 1017 42 10000 2.76 44 23:24 02.04.2021
747 Clouds 12 1016 49 10000 2.76 44 22:55 02.04.2021
748 Clouds 13 1016 66 10000 2.76 44 22:36 02.04.2021
749 Clouds 12 1016 74 10000 1.35 53 21:46 02.04.2021
750 Clouds 12 1016 73 10000 0.77 123 21:26 02.04.2021
751 Clouds 12 1016 71 10000 0.77 123 20:53 02.04.2021
752 Clouds 12 1015 70 10000 1.4 85 20:34 02.04.2021
753 Rain 13 1015 73 10000 1.3 145 19:59 02.04.2021
754 Clouds 13 1015 73 10000 1.3 145 19:39 02.04.2021
755 Rain 13 1022 76 10000 1 60 19:21 02.04.2021
756 Rain 13 1015 72 10000 2.37 135 18:40 02.04.2021
757 Rain 13 1015 71 10000 2.81 144 18:20 02.04.2021
758 Rain 13 1015 70 10000 2.81 144 17:40 02.04.2021
759 Rain 13 1015 67 10000 2.48 162 16:53 02.04.2021
760 Rain 13 1014 67 10000 2.48 201 16:22 02.04.2021
761 Rain 14 1014 66 10000 2.48 201 15:42 02.04.2021
762 Clear 14 1020 67 10000 2 160 14:57 02.04.2021
763 Clear 14 1020 62 10000 1 140 14:33 02.04.2021
764 Clouds 15 1013 60 10000 3.04 181 13:44 02.04.2021
765 Clouds 15 1012 60 10000 3.93 159 13:25 02.04.2021
766 Clouds 15 1012 58 10000 3.93 159 12:42 02.04.2021
767 Rain 17 1012 57 10000 3.36 143 12:20 02.04.2021
768 Rain 17 1012 57 10000 3.36 143 11:57 02.04.2021
769 Clouds 17 1009 33 10000 2.27 118 11:21 02.04.2021
770 Clouds 16 1011 56 10000 2.27 118 10:51 02.04.2021
771 Clear 17 1018 51 10000 4 160 10:32 02.04.2021
772 Clouds 17 1011 52 10000 2.04 104 09:53 02.04.2021
773 Clouds 17 1011 52 10000 1.83 84 09:27 02.04.2021
774 Clouds 18 1011 49 10000 1.83 84 08:59 02.04.2021
775 Clouds 18 1011 49 10000 1.65 87 08:34 02.04.2021
776 Rain 17 1012 53 10000 0.93 53 07:31 02.04.2021
777 Rain 17 1012 57 10000 0.92 41 06:58 02.04.2021
778 Clouds 17 1012 57 10000 0.45 315 05:59 02.04.2021
779 Clouds 17 1012 57 10000 0.45 315 05:59 02.04.2021
780 Rain 16 1013 55 10000 0.45 0 02:47 02.04.2021
781 Clouds 14 1012 55 10000 1.03 64 00:54 02.04.2021
782 Clouds 14 1011 56 10000 1.14 54 00:24 02.04.2021
783 Rain 14 1011 56 10000 1.14 54 23:41 01.04.2021
784 Rain 14 1011 56 10000 1.04 37 23:21 01.04.2021
785 Clouds 14 1010 55 10000 0.76 73 22:22 01.04.2021
786 Clouds 14 1010 57 10000 0.76 73 21:51 01.04.2021
787 Clouds 15 1010 57 10000 0.47 89 21:29 01.04.2021
788 Clouds 15 1010 56 10000 0.47 89 20:58 01.04.2021
789 Rain 15 1010 56 10000 1.18 97 20:29 01.04.2021
790 Rain 15 1011 55 10000 1.18 97 19:57 01.04.2021
791 Clouds 15 1011 55 10000 1.18 97 19:37 01.04.2021
792 Clouds 15 1011 54 10000 0.48 114 18:49 01.04.2021
793 Clouds 15 1011 53 10000 0.71 198 18:19 01.04.2021
794 Rain 16 1011 53 10000 0.71 198 17:57 01.04.2021
795 Clouds 16 1011 53 10000 0.45 0 17:38 01.04.2021
796 Clouds 16 1011 51 10000 1.3 196 17:19 01.04.2021
797 Rain 16 1011 49 10000 0.89 0 16:41 01.04.2021
798 Rain 16 1010 45 10000 1.49 188 15:49 01.04.2021
799 Clouds 16 1010 41 10000 1.1 176 15:21 01.04.2021
800 Clouds 16 1010 40 10000 1.1 176 14:51 01.04.2021
801 Clouds 16 1010 38 10000 1.24 192 14:29 01.04.2021
802 Rain 17 1010 38 10000 1.81 163 13:58 01.04.2021
803 Rain 17 1009 37 10000 1.81 163 13:32 01.04.2021
804 Rain 17 1009 35 10000 2.32 142 12:58 01.04.2021
805 Rain 17 1010 35 10000 2.32 142 12:37 01.04.2021
806 Rain 18 1010 34 10000 2.35 161 12:18 01.04.2021
807 Rain 19 1010 34 10000 2.35 161 11:42 01.04.2021
808 Clouds 19 1010 33 10000 3.26 152 11:18 01.04.2021
809 Rain 19 1010 32 10000 3.26 152 10:46 01.04.2021
810 Rain 20 1010 33 10000 3.63 156 10:25 01.04.2021
811 Rain 19 1010 32 10000 3.63 156 09:32 01.04.2021
812 Clouds 20 1010 32 10000 3.38 154 08:54 01.04.2021
813 Rain 20 1010 32 10000 2.3 159 08:32 01.04.2021
814 Clouds 20 1010 32 10000 2.83 130 07:22 01.04.2021
815 Clouds 20 1011 31 10000 2.83 130 06:56 01.04.2021
816 Clouds 20 1011 31 10000 2.25 127 05:34 01.04.2021
817 Clear 17 1019 33 10000 3 160 03:20 01.04.2021
818 Clouds 13 1011 54 10000 1.3 67 00:19 01.04.2021
819 Clouds 13 1011 55 10000 1.3 67 23:40 31.03.2021
820 Clouds 14 1010 53 10000 1.07 49 22:45 31.03.2021
821 Clouds 14 1010 54 10000 1.09 5 22:23 31.03.2021
822 Clouds 14 1010 56 10000 1.09 5 21:57 31.03.2021
823 Clouds 14 1010 55 10000 1.09 5 21:39 31.03.2021
824 Clouds 14 1009 52 10000 1 65 21:19 31.03.2021
825 Clouds 14 1009 54 10000 1 65 20:41 31.03.2021
826 Clouds 14 1009 53 10000 0.85 69 20:21 31.03.2021
827 Clouds 15 1009 51 10000 0.85 69 19:42 31.03.2021
828 Clouds 15 1009 50 10000 1.61 83 19:21 31.03.2021
829 Clouds 16 1009 50 10000 1.61 83 18:55 31.03.2021
830 Rain 16 1009 49 10000 1.61 83 18:35 31.03.2021
831 Clouds 17 1008 43 10000 2.52 101 17:44 31.03.2021
832 Clouds 17 1008 40 10000 3.59 105 17:21 31.03.2021
833 Clouds 17 1008 38 10000 3.59 105 16:55 31.03.2021
834 Clouds 17 1007 36 10000 3.59 105 16:35 31.03.2021
835 Clear 17 1014 54 10000 2 140 15:54 31.03.2021
836 Clear 17 1013 38 10000 1 170 15:22 31.03.2021
837 Clear 17 1013 35 10000 1 150 14:53 31.03.2021
838 Rain 20 1006 33 10000 2.12 32 14:26 31.03.2021
839 Rain 20 1005 30 10000 2.21 34 13:57 31.03.2021
840 Rain 21 1005 25 10000 2.49 38 13:24 31.03.2021
841 Clouds 21 1004 22 10000 2.49 38 12:41 31.03.2021
842 Clouds 22 1003 20 10000 2.6 53 12:19 31.03.2021
843 Clouds 24 1003 18 10000 2.6 53 11:39 31.03.2021
844 Clouds 24 1003 18 10000 3.54 59 11:19 31.03.2021
845 Clouds 25 1003 17 10000 3.54 59 10:44 31.03.2021
846 Clear 25 1003 18 10000 3.76 54 10:22 31.03.2021
847 Clear 25 995 18 10000 3.76 54 09:33 31.03.2021
848 Clear 25 995 18 10000 3.76 54 09:33 31.03.2021
849 Clear 26 995 20 10000 0.89 225 08:48 31.03.2021
850 Clear 26 1003 18 10000 0.45 338 08:30 31.03.2021
851 Clear 26 1003 18 10000 0.45 338 08:30 31.03.2021
852 Clouds 25 996 20 10000 1.34 135 07:41 31.03.2021
853 Clouds 24 1005 30 10000 2.77 36 05:55 31.03.2021
854 Clouds 15 1014 41 8000 5 330 02:44 31.03.2021
855 Clear 12 1006 65 10000 1.78 26 00:54 31.03.2021
856 Clear 12 1005 66 10000 2.25 17 00:26 31.03.2021
857 Clear 11 1005 67 10000 2.25 17 23:58 30.03.2021
858 Rain 11 1004 66 10000 2.02 20 23:27 30.03.2021
859 Clear 11 1004 67 10000 2.02 20 22:55 30.03.2021
860 Clear 12 1004 66 10000 2.02 20 22:37 30.03.2021
861 Clear 12 1004 66 10000 1.45 19 22:19 30.03.2021
862 Clear 12 1004 64 10000 1.45 19 21:38 30.03.2021
863 Clear 12 1011 62 10000 1 0 21:18 30.03.2021
864 Clear 14 1004 58 10000 1.19 20 20:45 30.03.2021
865 Clear 14 1004 58 10000 0.62 15 20:26 30.03.2021
866 Clear 14 1004 57 10000 0.62 15 19:43 30.03.2021
867 Clear 14 1003 55 10000 0.41 205 19:18 30.03.2021
868 Rain 15 1004 50 10000 0.41 205 18:33 30.03.2021
869 Clear 15 1003 49 10000 1.55 199 17:49 30.03.2021
870 Clear 15 1003 49 10000 1.55 199 17:49 30.03.2021
871 Clear 16 1003 49 10000 1.55 199 17:31 30.03.2021
872 Clear 16 1003 47 10000 2.82 199 16:47 30.03.2021
873 Clear 17 1003 46 10000 3.66 196 16:28 30.03.2021
874 Clear 17 1002 45 10000 3.66 196 15:43 30.03.2021
875 Clear 18 1002 44 10000 4.15 195 15:20 30.03.2021
876 Clear 19 1002 42 10000 4.15 195 14:46 30.03.2021
877 Clouds 19 1002 41 10000 3.84 191 14:21 30.03.2021
878 Clouds 19 1002 41 10000 3.84 191 13:51 30.03.2021
879 Rain 18 1008 34 10000 5 180 13:30 30.03.2021
880 Clouds 20 1001 39 10000 4.13 196 12:42 30.03.2021
881 Clouds 21 1001 39 10000 0.45 135 12:23 30.03.2021
882 Clouds 20 1001 37 10000 4.72 201 11:48 30.03.2021
883 Clouds 22 999 24 10000 5.48 207 11:21 30.03.2021
884 Clouds 21 1000 35 10000 0.45 270 10:43 30.03.2021
885 Clouds 21 1000 35 10000 0.45 270 10:43 30.03.2021
886 Clouds 21 1000 34 10000 0.45 248 10:19 30.03.2021
887 Clouds 22 1000 33 10000 5.83 205 09:43 30.03.2021
888 Clouds 22 1000 33 10000 5.83 205 09:43 30.03.2021
889 Clouds 21 1000 33 10000 0.89 180 09:24 30.03.2021
890 Clouds 21 1001 36 10000 0.45 180 08:51 30.03.2021
891 Clouds 21 1008 36 10000 0.45 180 08:32 30.03.2021
892 Clouds 21 1002 36 10000 4.95 209 07:50 30.03.2021
893 Clear 21 1010 26 10000 5 190 07:21 30.03.2021
894 Clear 18 1012 25 10000 3 190 05:25 30.03.2021
895 Clear 14 1013 26 10000 1 0 03:23 30.03.2021
896 Clouds 9 1005 51 10000 1.04 29 00:22 30.03.2021
897 Rain 8 1011 52 10000 2 350 23:28 29.03.2021
898 Clear 8 1011 60 10000 2 330 22:43 29.03.2021
899 Clouds 9 1004 49 10000 0.89 334 21:59 29.03.2021
900 Rain 8 1011 65 10000 1 0 21:37 29.03.2021
901 Rain 9 1004 47 10000 0.7 321 20:59 29.03.2021
902 Rain 10 1004 46 10000 0.7 321 20:38 29.03.2021
903 Rain 10 1004 44 10000 0.91 274 20:20 29.03.2021
904 Rain 11 1004 46 10000 0.91 274 19:45 29.03.2021
905 Clouds 11 1003 44 10000 1.09 240 19:18 29.03.2021
906 Clouds 11 1003 45 10000 1.09 240 18:40 29.03.2021
907 Rain 10 1010 56 10000 1 60 18:20 29.03.2021
908 Rain 12 1003 43 10000 1.43 245 17:39 29.03.2021
909 Rain 13 1003 43 10000 2.14 234 16:59 29.03.2021
910 Rain 14 1003 39 10000 2.14 234 16:35 29.03.2021
911 Rain 15 1002 36 10000 2.65 218 15:52 29.03.2021
912 Rain 15 1002 34 10000 2.65 218 15:34 29.03.2021
913 Rain 15 1009 20 10000 2 190 14:55 29.03.2021
914 Rain 16 1002 30 10000 2.32 214 14:33 29.03.2021
915 Clouds 16 1001 28 10000 2.39 207 13:52 29.03.2021
916 Clouds 16 1000 28 10000 2.5 206 13:26 29.03.2021
917 Clouds 17 1000 26 10000 2.5 206 12:50 29.03.2021
918 Clouds 17 1000 23 10000 2.15 205 11:53 29.03.2021
919 Clouds 17 1000 23 10000 2.15 205 11:35 29.03.2021
920 Clouds 18 1000 23 10000 1.85 212 10:59 29.03.2021
921 Clouds 18 1000 21 10000 1.85 212 10:36 29.03.2021
922 Clouds 18 1000 18 10000 1.69 222 09:44 29.03.2021
923 Clouds 19 1001 16 10000 2.08 225 08:58 29.03.2021
924 Clear 19 1009 8 10000 2 0 08:28 29.03.2021
925 Clear 19 1010 8 10000 4 340 07:41 29.03.2021
926 Clear 19 1011 8 10000 5 330 06:42 29.03.2021
927 Clear 16 1012 10 10000 6 300 03:59 29.03.2021
928 Clouds 13 1005 17 10000 1.97 324 01:58 29.03.2021
929 Clouds 11 1004 21 10000 2.44 346 00:23 29.03.2021
930 Clouds 11 1004 21 10000 2.44 346 23:50 28.03.2021
931 Clouds 11 1004 19 10000 2.49 326 23:19 28.03.2021
932 Clouds 12 1004 20 10000 2.49 326 22:41 28.03.2021
933 Clouds 12 1004 20 10000 3.45 326 22:21 28.03.2021
934 Clouds 12 1004 20 10000 3.45 326 21:42 28.03.2021
935 Clouds 12 1004 20 10000 4.32 326 21:23 28.03.2021
936 Clouds 13 1004 21 10000 4.32 326 20:50 28.03.2021
937 Clouds 13 1004 20 10000 4.32 324 20:31 28.03.2021
938 Clouds 13 1004 21 10000 3.82 316 19:46 28.03.2021
939 Clouds 13 1004 21 10000 3.78 315 19:23 28.03.2021
940 Clouds 13 1004 20 10000 3.78 315 18:58 28.03.2021
941 Clouds 13 1003 19 10000 4.06 322 18:32 28.03.2021
942 Clouds 14 1003 19 10000 4.06 322 17:55 28.03.2021
943 Clouds 14 1003 19 10000 4.06 322 17:32 28.03.2021
944 Clouds 13 1002 19 10000 4.32 322 16:47 28.03.2021
945 Clouds 13 1002 19 10000 4.32 322 16:47 28.03.2021
946 Clouds 14 1002 19 10000 4.96 320 16:23 28.03.2021
947 Clouds 14 1002 17 10000 0.45 315 15:43 28.03.2021
948 Clear 15 1002 17 10000 4.91 321 15:22 28.03.2021
949 Clear 16 1002 16 10000 4.91 321 14:38 28.03.2021
950 Clear 16 1001 15 10000 0.45 0 13:52 28.03.2021
951 Clear 16 1000 14 10000 0.45 315 13:33 28.03.2021
952 Clear 16 1000 14 10000 1.34 0 12:53 28.03.2021
953 Clear 17 999 13 10000 1.34 0 12:33 28.03.2021
954 Clear 18 999 14 10000 0.45 315 11:49 28.03.2021
955 Clear 18 999 13 10000 0.89 315 11:26 28.03.2021
956 Clear 19 998 13 10000 0.89 315 10:45 28.03.2021
957 Clear 19 998 14 10000 0.89 45 10:27 28.03.2021
958 Clear 19 998 15 10000 1.34 315 09:49 28.03.2021
959 Clear 18 998 17 10000 0.89 0 09:25 28.03.2021
960 Clear 18 1005 13 8000 10 290 08:47 28.03.2021
961 Clear 18 999 19 10000 0.89 315 07:52 28.03.2021
962 Clear 17 999 20 10000 1.34 0 07:34 28.03.2021
963 Clear 15 1001 24 10000 1.34 90 05:19 28.03.2021
964 Sand 14 1005 19 1400 8 300 01:50 28.03.2021
965 Clouds 14 998 27 10000 0.89 270 00:25 28.03.2021
966 Clouds 13 998 25 10000 1.34 315 23:44 27.03.2021
967 Clouds 13 997 25 10000 1.34 0 23:21 27.03.2021
968 Clouds 14 996 27 10000 1.34 315 22:38 27.03.2021
969 Clouds 12 996 93 10000 6.01 320 22:18 27.03.2021
970 Clouds 13 995 93 10000 6.01 320 21:41 27.03.2021
971 Clouds 13 995 92 10000 2 17 21:20 27.03.2021
972 Clouds 13 995 92 10000 2 17 20:50 27.03.2021
973 Clouds 13 995 92 10000 2 17 20:31 27.03.2021
974 Rain 13 996 92 10000 3.16 27 19:45 27.03.2021
975 Rain 13 996 91 10000 2.39 29 19:23 27.03.2021
976 Rain 13 996 90 10000 2.39 29 18:50 27.03.2021
977 Rain 13 996 89 10000 2.39 29 18:32 27.03.2021
978 Rain 13 996 84 10000 2.42 135 17:56 27.03.2021
979 Rain 13 995 83 10000 2.91 150 17:26 27.03.2021
980 Rain 14 996 82 10000 2.91 150 16:53 27.03.2021
981 Rain 14 996 80 10000 2.91 150 16:30 27.03.2021
982 Rain 14 996 77 10000 3.32 162 15:58 27.03.2021
983 Rain 15 996 74 10000 3.32 162 15:36 27.03.2021
984 Rain 15 997 72 10000 3.95 172 14:54 27.03.2021
985 Clear 16 997 71 10000 4.24 177 14:19 27.03.2021
986 Clouds 17 997 72 10000 4.27 182 13:27 27.03.2021
987 Haze 17 1004 67 4700 3 140 13:00 27.03.2021
988 Haze 17 1004 67 4500 3 130 12:33 27.03.2021
989 Haze 17 1004 67 4500 3 140 11:47 27.03.2021
990 Haze 18 1004 67 4500 3 130 11:27 27.03.2021
991 Haze 18 1004 67 3700 3 140 10:48 27.03.2021
992 Haze 19 1004 67 3700 4 130 10:28 27.03.2021
993 Haze 19 1004 63 3700 4 150 09:41 27.03.2021
994 Haze 19 1004 63 3700 4 150 09:18 27.03.2021
995 Clouds 20 998 61 10000 3.74 191 08:33 27.03.2021
996 Clouds 19 998 58 10000 3.06 193 07:36 27.03.2021
997 Clouds 19 999 58 10000 2.63 203 06:58 27.03.2021
998 Clouds 19 999 57 10000 2.63 203 06:34 27.03.2021
999 Clouds 19 1002 58 10000 1.62 198 04:40 27.03.2021
1000 Clouds 13 1004 85 10000 0.94 334 00:56 27.03.2021
1001 Clouds 13 1004 92 10000 0.94 334 00:31 27.03.2021
1002 Clouds 12 1004 96 10000 0.79 330 23:58 26.03.2021
1003 Clouds 12 1003 98 10000 0.74 348 23:22 26.03.2021
1004 Clouds 12 1003 98 10000 0.74 348 22:36 26.03.2021
1005 Clouds 12 995 86 10000 0.79 347 21:40 26.03.2021
1006 Clouds 12 995 86 10000 1.02 350 21:22 26.03.2021
1007 Clouds 12 995 86 10000 1.02 350 20:49 26.03.2021
1008 Clouds 12 996 86 10000 0.95 4 20:30 26.03.2021
1009 Clouds 12 996 86 10000 0.95 4 20:30 26.03.2021
1010 Clouds 12 996 86 10000 0.95 4 20:30 26.03.2021
1011 Clouds 13 996 86 10000 0.95 4 19:50 26.03.2021
1012 Clouds 13 1005 93 10000 1.14 32 19:30 26.03.2021
1013 Clouds 13 1005 93 10000 1.08 26 18:47 26.03.2021
1014 Rain 13 1005 93 10000 0.54 21 18:28 26.03.2021
1015 Clouds 13 1006 93 10000 0.54 21 17:50 26.03.2021
1016 Clouds 13 1006 93 10000 0.54 156 17:18 26.03.2021
1017 Clouds 13 1006 93 10000 1 158 16:34 26.03.2021
1018 Clouds 13 1006 91 10000 1 158 15:58 26.03.2021
1019 Clouds 13 1006 91 10000 1.15 133 15:26 26.03.2021
1020 Clouds 13 998 86 10000 1.15 133 14:39 26.03.2021
1021 Clouds 13 1005 89 10000 1.48 141 13:43 26.03.2021
1022 Clouds 13 1005 89 10000 1.39 156 13:22 26.03.2021
1023 Rain 13 1005 89 10000 1.39 156 12:35 26.03.2021
1024 Clouds 14 1005 88 10000 1.36 161 11:47 26.03.2021
1025 Clouds 14 1005 88 10000 1.65 180 11:27 26.03.2021
1026 Clouds 14 1005 84 10000 1.65 180 10:42 26.03.2021
1027 Clouds 14 1005 83 10000 1.97 168 10:19 26.03.2021
1028 Clouds 14 1005 82 10000 1.97 168 09:40 26.03.2021
1029 Rain 14 1005 85 10000 2.17 190 08:46 26.03.2021
1030 Rain 14 1005 85 10000 2.32 187 08:25 26.03.2021
1031 Rain 14 1005 86 10000 2.43 191 07:42 26.03.2021
1032 Rain 14 1005 82 10000 2.66 192 07:21 26.03.2021
1033 Rain 14 1005 79 10000 2.66 192 06:55 26.03.2021
1034 Rain 17 1004 42 10000 2.32 200 05:31 26.03.2021
1035 Rain 14 1007 68 10000 0.23 41 03:19 26.03.2021
1036 Rain 14 1007 67 10000 0.43 85 00:33 26.03.2021
1037 Clouds 14 1007 66 10000 0.89 74 23:46 25.03.2021
1038 Rain 13 1006 64 10000 0.81 82 23:21 25.03.2021
1039 Rain 14 1007 61 10000 0.81 82 22:40 25.03.2021
1040 Rain 14 1007 60 10000 0.51 108 21:55 25.03.2021
1041 Clouds 14 1007 58 10000 0.51 108 21:35 25.03.2021
1042 Clouds 15 1007 57 10000 0.64 159 20:59 25.03.2021
1043 Rain 15 1007 57 10000 0.64 159 20:37 25.03.2021
1044 Rain 15 1007 56 10000 0.85 157 20:18 25.03.2021
1045 Rain 15 1007 54 10000 0.85 157 19:39 25.03.2021
1046 Rain 16 1008 54 10000 1.15 156 19:21 25.03.2021
1047 Rain 16 1008 52 10000 1.15 156 18:40 25.03.2021
1048 Rain 16 1008 52 10000 1.4 179 18:22 25.03.2021
1049 Clear 15 1016 62 10000 2 80 17:38 25.03.2021
1050 Clear 16 1016 50 10000 1 0 16:58 25.03.2021
1051 Clear 15 1016 50 10000 1 60 16:35 25.03.2021
1052 Clear 15 1016 47 10000 1 0 15:49 25.03.2021
1053 Clear 15 1016 58 10000 2 90 15:27 25.03.2021
1054 Clear 16 1016 54 10000 1 0 14:58 25.03.2021
1055 Clear 16 1016 44 10000 1 160 14:38 25.03.2021
1056 Clouds 17 1008 46 10000 2.52 192 13:29 25.03.2021
1057 Clouds 18 1008 45 10000 2.52 192 12:56 25.03.2021
1058 Rain 18 1008 44 10000 2.52 192 12:36 25.03.2021
1059 Clouds 19 1008 43 10000 3.32 194 12:18 25.03.2021
1060 Clouds 20 1008 40 10000 3.32 194 11:44 25.03.2021
1061 Clouds 21 1008 39 10000 4.02 198 11:25 25.03.2021
1062 Clouds 21 1007 36 10000 4.02 198 10:49 25.03.2021
1063 Clouds 22 1007 34 10000 4.65 201 10:21 25.03.2021
1064 Clouds 22 1007 32 10000 4.65 201 09:50 25.03.2021
1065 Clouds 22 1007 31 10000 4.75 205 09:31 25.03.2021
1066 Clouds 22 1008 28 10000 4.75 205 08:37 25.03.2021
1067 Clouds 22 1009 26 10000 0.45 180 07:51 25.03.2021
1068 Clouds 22 1009 28 10000 3.52 218 06:57 25.03.2021
1069 Clouds 20 1002 33 10000 1.34 315 06:24 25.03.2021
1070 Clear 18 1019 29 10000 2 0 05:21 25.03.2021
1071 Clear 13 1021 30 10000 1 0 02:28 25.03.2021
1072 Clear 7 1020 70 10000 1 0 00:21 25.03.2021
1073 Clear 9 1013 51 10000 0.45 20 23:48 24.03.2021
1074 Clear 8 1013 52 10000 0.02 100 23:23 24.03.2021
1075 Clear 8 1013 51 10000 0.02 100 22:41 24.03.2021
1076 Clear 9 1013 47 10000 0.64 165 22:19 24.03.2021
1077 Clear 9 1012 46 10000 0.64 165 21:41 24.03.2021
1078 Clear 9 1012 45 10000 1.24 178 21:20 24.03.2021
1079 Clear 10 1012 41 10000 1.24 179 20:41 24.03.2021
1080 Clear 10 1012 40 10000 1.87 188 20:19 24.03.2021
1081 Rain 10 1012 39 10000 1.87 188 19:34 24.03.2021
1082 Rain 10 1013 38 10000 2.88 193 18:57 24.03.2021
1083 Rain 11 1012 37 10000 2.88 193 18:39 24.03.2021
1084 Clear 11 1013 36 10000 3.46 197 18:19 24.03.2021
1085 Clear 11 1013 36 10000 3.46 197 18:19 24.03.2021
1086 Rain 11 1012 35 10000 3.46 197 17:40 24.03.2021
1087 Rain 12 1012 34 10000 3.92 198 17:22 24.03.2021
1088 Clear 12 1012 33 10000 3.92 198 16:41 24.03.2021
1089 Clear 14 1013 33 10000 4.44 198 16:22 24.03.2021
1090 Clear 13 1012 32 10000 4.44 198 15:43 24.03.2021
1091 Clear 14 1013 31 10000 4.74 196 15:23 24.03.2021
1092 Clear 14 1012 31 10000 4.74 196 14:42 24.03.2021
1093 Clear 15 1012 30 10000 4.84 196 14:23 24.03.2021
1094 Clear 15 1011 31 10000 0.45 135 13:50 24.03.2021
1095 Clear 17 1011 31 10000 2.86 189 13:25 24.03.2021
1096 Clear 16 1010 30 10000 0.45 135 12:41 24.03.2021
1097 Clear 17 1010 30 10000 2.56 193 12:21 24.03.2021
1098 Clear 18 1009 28 10000 2.56 193 11:42 24.03.2021
1099 Clear 19 1009 24 10000 2.63 185 10:53 24.03.2021
1100 Clear 20 1009 23 10000 2.63 185 10:35 24.03.2021
1101 Clear 22 1009 20 10000 0.45 135 09:58 24.03.2021
1102 Clear 22 1009 20 10000 2.24 165 09:37 24.03.2021
1103 Clear 22 1009 19 10000 1.46 137 09:18 24.03.2021
1104 Clear 22 1009 18 10000 1.46 137 08:46 24.03.2021
1105 Clear 22 1001 18 10000 0.45 90 08:24 24.03.2021
1106 Clear 21 1017 12 10000 1 0 07:25 24.03.2021
1107 Clear 21 1017 11 10000 1 0 06:49 24.03.2021
1108 Clear 18 1019 19 10000 7 20 03:19 24.03.2021
1109 Clouds 14 1010 36 10000 2.95 23 00:44 24.03.2021
1110 Clouds 13 1009 37 10000 2.67 24 23:53 23.03.2021
1111 Clouds 13 1008 38 10000 0.45 315 23:20 23.03.2021
1112 Clouds 12 1007 35 10000 2.79 36 22:51 23.03.2021
1113 Clouds 12 1007 42 10000 2.96 37 22:27 23.03.2021
1114 Clouds 12 1006 43 10000 2.96 37 21:47 23.03.2021
1115 Clouds 12 1005 43 10000 2.84 12 21:29 23.03.2021
1116 Clouds 12 1004 45 10000 2.84 12 20:47 23.03.2021
1117 Clear 12 1004 45 10000 2.74 3 20:26 23.03.2021
1118 Clear 11 1010 65 10000 1 30 19:55 23.03.2021
1119 Clear 12 1010 65 10000 1 20 19:26 23.03.2021
1120 Clear 12 1010 61 10000 4 350 18:59 23.03.2021
1121 Rain 12 1010 61 10000 2 10 18:37 23.03.2021
1122 Rain 12 1010 61 10000 2 10 18:18 23.03.2021
1123 Rain 13 1009 53 10000 2 80 17:42 23.03.2021
1124 Rain 15 1002 39 10000 1.46 335 17:20 23.03.2021
1125 Clear 16 1002 36 10000 0.96 279 16:25 23.03.2021
1126 Rain 15 1008 40 10000 1 150 15:48 23.03.2021
1127 Clear 16 1008 37 10000 1 0 15:23 23.03.2021
1128 Clear 16 1001 31 10000 1.84 239 14:45 23.03.2021
1129 Clear 17 1008 27 10000 2 80 14:19 23.03.2021
1130 Clear 18 1008 27 10000 2 80 13:47 23.03.2021
1131 Clear 18 1008 25 10000 2 160 13:24 23.03.2021
1132 Clouds 19 1000 29 10000 2.3 206 12:44 23.03.2021
1133 Clouds 19 1000 29 10000 2.25 198 12:24 23.03.2021
1134 Clouds 20 1000 28 10000 2.25 198 11:48 23.03.2021
1135 Clouds 21 1000 26 10000 2.04 193 11:18 23.03.2021
1136 Clouds 22 999 23 10000 2.04 193 10:42 23.03.2021
1137 Clouds 22 999 23 10000 2.07 203 10:20 23.03.2021
1138 Clouds 23 999 22 10000 2.07 203 09:49 23.03.2021
1139 Clear 23 992 20 10000 1.34 45 09:22 23.03.2021
1140 Clear 23 992 22 10000 1.34 225 08:55 23.03.2021
1141 Clear 23 1007 12 10000 4 190 08:37 23.03.2021
1142 Clear 23 1007 12 10000 4 190 08:18 23.03.2021
1143 Clear 23 1008 13 10000 4 180 07:27 23.03.2021
1144 Clear 22 1009 14 10000 3 190 06:52 23.03.2021
1145 Clear 14 1012 31 10000 1 0 03:24 23.03.2021
1146 Clear 12 1013 35 10000 1 0 02:29 23.03.2021
1147 Clear 7 1006 56 10000 1.03 336 23:47 22.03.2021
1148 Clear 6 1012 75 10000 1 0 22:59 22.03.2021
1149 Clear 6 1013 75 10000 1 0 22:40 22.03.2021
1150 Clear 6 1013 75 10000 1 0 22:20 22.03.2021
1151 Clear 6 1012 65 10000 1 0 21:46 22.03.2021
1152 Rain 7 1012 65 10000 1 0 21:26 22.03.2021
1153 Clear 8 1013 56 10000 1 0 20:42 22.03.2021
1154 Clear 8 1013 56 10000 1 0 20:24 22.03.2021
1155 Rain 9 1013 49 10000 2 0 19:58 22.03.2021
1156 Clear 9 1013 49 10000 2 0 19:58 22.03.2021
1157 Rain 9 1014 45 10000 1 180 19:38 22.03.2021
1158 Clear 10 1007 43 10000 1.23 226 19:19 22.03.2021
1159 Rain 11 1007 39 10000 1.15 239 18:40 22.03.2021
1160 Rain 12 1007 38 10000 0.7 290 18:22 22.03.2021
1161 Rain 12 1007 38 10000 0.7 290 18:22 22.03.2021
1162 Rain 12 1007 36 10000 0.7 290 17:49 22.03.2021
1163 Rain 12 1007 35 10000 0.45 225 17:22 22.03.2021
1164 Rain 13 1007 34 10000 0.66 275 16:55 22.03.2021
1165 Rain 13 1007 34 10000 0.66 275 16:36 22.03.2021
1166 Rain 13 1008 31 10000 1.3 233 15:42 22.03.2021
1167 Rain 13 1008 31 10000 1.3 233 15:42 22.03.2021
1168 Rain 14 1018 29 10000 1.76 231 15:22 22.03.2021
1169 Rain 14 1008 27 10000 1.76 231 14:57 22.03.2021
1170 Rain 15 1008 26 10000 1.76 231 14:34 22.03.2021
1171 Rain 15 1009 25 10000 2.21 218 13:50 22.03.2021
1172 Rain 15 1008 24 10000 2.53 201 13:29 22.03.2021
1173 Rain 15 1015 18 10000 4 190 12:58 22.03.2021
1174 Clear 16 1008 23 10000 1.91 204 12:26 22.03.2021
1175 Clear 16 1008 22 10000 1.91 204 11:51 22.03.2021
1176 Clear 17 1008 21 10000 1.91 204 11:30 22.03.2021
1177 Clear 18 1008 19 10000 1.54 221 10:57 22.03.2021
1178 Clear 18 1008 18 10000 1.54 221 10:37 22.03.2021
1179 Clear 19 1008 16 10000 2.88 234 10:18 22.03.2021
1180 Clear 20 1009 15 10000 2.88 234 09:34 22.03.2021
1181 Clear 20 1009 15 10000 3.63 222 08:55 22.03.2021
1182 Clear 20 1010 15 10000 3.63 222 08:37 22.03.2021
1183 Clear 20 1010 15 10000 3.4 229 08:19 22.03.2021
1184 Clear 19 1018 8 10000 7 280 07:41 22.03.2021
1185 Clear 18 1019 9 10000 5 280 06:52 22.03.2021
1186 Clear 14 1022 13 10000 6 300 03:24 22.03.2021
1187 Clear 10 1022 17 10000 5 290 00:55 22.03.2021
1188 Clear 9 1022 17 10000 5 290 00:20 22.03.2021
1189 Clear 8 1022 17 10000 6 280 23:47 21.03.2021
1190 Clear 7 1021 21 10000 5 270 23:18 21.03.2021
1191 Clear 7 1015 38 10000 1.79 268 22:53 21.03.2021
1192 Clear 7 1015 41 10000 1.76 262 21:44 21.03.2021
1193 Clear 7 1014 42 10000 1.79 254 21:25 21.03.2021
1194 Clear 7 1015 40 10000 1.79 254 20:57 21.03.2021
1195 Clear 7 1015 41 10000 1.79 254 20:39 21.03.2021
1196 Clear 7 1015 41 10000 2.15 247 20:21 21.03.2021
1197 Clear 7 1015 39 10000 2.15 247 19:48 21.03.2021
1198 Clear 7 1015 38 10000 2.51 254 19:20 21.03.2021
1199 Clear 7 1015 35 10000 2.85 266 18:45 21.03.2021
1200 Rain 7 1015 36 10000 2.75 279 18:26 21.03.2021
1201 Clear 8 1015 33 10000 2.75 279 17:44 21.03.2021
1202 Clear 8 1015 33 10000 2.65 272 17:19 21.03.2021
1203 Rain 8 1015 33 10000 2.65 272 16:54 21.03.2021
1204 Rain 9 1016 33 10000 2.4 262 16:28 21.03.2021
1205 Rain 9 1016 31 10000 2.4 262 15:49 21.03.2021
1206 Rain 9 1023 21 10000 3 200 15:23 21.03.2021
1207 Rain 8 1023 41 10000 2 170 14:59 21.03.2021
1208 Rain 8 1023 31 10000 2 190 14:40 21.03.2021
1209 Rain 9 1023 31 10000 2 190 14:21 21.03.2021
1210 Clear 10 1023 18 10000 2 240 13:52 21.03.2021
1211 Clear 9 1016 26 10000 1.91 265 12:46 21.03.2021
1212 Clear 10 1016 25 10000 1.86 292 12:26 21.03.2021
1213 Clear 11 1016 23 10000 1.86 292 11:49 21.03.2021
1214 Clear 11 1015 22 10000 0.45 315 11:27 21.03.2021
1215 Clear 13 1015 22 10000 0.45 0 10:54 21.03.2021
1216 Clear 13 1015 22 10000 0.45 315 10:33 21.03.2021
1217 Clear 13 1015 20 10000 0.45 315 09:57 21.03.2021
1218 Clear 13 1015 20 10000 0.89 0 09:38 21.03.2021
1219 Clear 13 1015 20 10000 0.89 0 09:38 21.03.2021
1220 Clear 13 1015 20 10000 0.89 0 09:38 21.03.2021
1221 Clear 13 1015 20 10000 0.89 0 09:38 21.03.2021
1222 Clear 12 1016 20 10000 1.34 0 09:19 21.03.2021
1223 Clear 13 1016 20 10000 1.79 315 08:39 21.03.2021
1224 Clear 13 1016 21 10000 0.45 0 08:20 21.03.2021
1225 Clear 12 1017 22 10000 1.34 315 07:36 21.03.2021
1226 Clear 12 1017 22 10000 1.34 315 06:50 21.03.2021
1227 Clear 10 1019 25 10000 0.89 315 04:58 21.03.2021
1228 Clear 10 1019 25 10000 0.89 315 04:58 21.03.2021
1229 Clear 6 1021 34 10000 5.1 321 01:00 21.03.2021
1230 Clear 5 1021 35 10000 0.45 0 00:39 21.03.2021
1231 Clear 4 1020 37 10000 0.89 315 00:21 21.03.2021
1232 Clear 4 1020 37 10000 0.45 0 23:47 20.03.2021
1233 Clear 4 1020 38 10000 0.45 315 23:20 20.03.2021
1234 Clear 4 1019 38 10000 0.45 0 22:50 20.03.2021
1235 Clear 4 1019 37 10000 0.89 315 22:21 20.03.2021
1236 Clear 4 1025 28 10000 8 320 21:45 20.03.2021
1237 Clear 4 1025 28 10000 9 320 21:24 20.03.2021
1238 Clear 4 1025 28 10000 11 320 20:44 20.03.2021
1239 Clear 4 1018 42 10000 0.89 0 20:22 20.03.2021
1240 Clear 5 1019 40 10000 0.89 0 19:48 20.03.2021
1241 Clear 5 1018 38 10000 0.45 315 19:26 20.03.2021
1242 Clear 5 1018 36 10000 0.89 0 18:49 20.03.2021
1243 Clear 5 1018 38 10000 0.45 315 18:26 20.03.2021
1244 Clear 5 1018 38 10000 4.32 338 17:54 20.03.2021
1245 Clear 5 1025 24 10000 11 330 17:32 20.03.2021
1246 Clear 6 1018 38 10000 4.7 344 16:46 20.03.2021
1247 Clear 6 1018 39 10000 5.34 335 16:21 20.03.2021
1248 Clear 6 1018 39 10000 5.34 335 16:21 20.03.2021
1249 Clear 6 1024 24 10000 10 310 15:59 20.03.2021
1250 Clear 6 1024 23 10000 10 310 15:39 20.03.2021
1251 Clear 7 1017 38 10000 0.45 0 14:48 20.03.2021
1252 Clear 7 1017 37 10000 6.65 327 14:28 20.03.2021
1253 Clear 8 1017 38 10000 0.89 270 13:40 20.03.2021
1254 Clear 8 1016 37 10000 0.45 0 12:59 20.03.2021
1255 Clear 9 1021 23 10000 9 310 12:27 20.03.2021
1256 Clear 9 1021 23 10000 9 310 12:27 20.03.2021
1257 Clear 9 1021 23 10000 9 310 12:27 20.03.2021
1258 Clear 9 1015 32 10000 7.28 316 11:50 20.03.2021
1259 Clear 11 1014 31 10000 0.45 0 11:29 20.03.2021
1260 Clear 11 1010 19 10000 7.8 310 10:56 20.03.2021
1261 Clear 11 1013 27 10000 0.45 270 10:37 20.03.2021
1262 Clear 13 1013 24 10000 0.89 315 10:18 20.03.2021
1263 Clear 13 1012 23 10000 1.34 315 09:29 20.03.2021
1264 Clear 12 1012 21 10000 1.79 315 08:58 20.03.2021
1265 Clear 13 1012 22 10000 1.34 315 08:37 20.03.2021
1266 Clear 13 1012 25 10000 2.24 45 07:54 20.03.2021
1267 Clear 13 1012 26 10000 1.34 0 07:32 20.03.2021
1268 Clear 13 1012 26 10000 1.79 0 06:55 20.03.2021
1269 Clear 13 1012 27 10000 1.34 0 06:27 20.03.2021
1270 Clear 13 1012 30 10000 0.89 0 04:23 20.03.2021
1271 Clear 13 1012 33 10000 1.34 45 03:42 20.03.2021
1272 Clouds 7 1009 55 10000 2.91 294 00:36 20.03.2021
1273 Clouds 4 1003 92 10000 2.13 225 23:32 19.03.2021
1274 Clouds 4 1003 92 10000 2.13 225 22:59 19.03.2021
1275 Clouds 4 1003 92 10000 2.13 225 22:38 19.03.2021
1276 Clouds 4 1003 92 10000 2.41 216 22:20 19.03.2021
1277 Clouds 4 1003 92 10000 2.41 216 22:20 19.03.2021
1278 Mist 5 1018 87 4000 2 210 21:23 19.03.2021
1279 Clouds 4 1003 92 10000 2.55 216 21:00 19.03.2021
1280 Clouds 4 1012 99 10000 2.55 216 20:40 19.03.2021
1281 Clouds 4 1011 99 10000 2.3 215 20:22 19.03.2021
1282 Clouds 4 1003 93 10000 2.3 215 19:46 19.03.2021
1283 Clouds 4 1012 99 10000 0.89 199 19:20 19.03.2021
1284 Clouds 4 1011 99 10000 2.02 204 18:41 19.03.2021
1285 Clouds 4 1012 99 10000 1.31 177 18:20 19.03.2021
1286 Clouds 4 1012 99 10000 1.31 177 17:55 19.03.2021
1287 Clouds 4 1012 99 10000 1.5 176 17:32 19.03.2021
1288 Clouds 4 1012 99 10000 1.5 176 16:55 19.03.2021
1289 Clouds 4 1012 99 10000 1.93 208 16:31 19.03.2021
1290 Clouds 4 1012 99 10000 1.5 176 16:31 19.03.2021
1291 Rain 4 1013 99 10000 1.93 208 15:58 19.03.2021
1292 Clouds 4 1013 99 10000 1.94 196 15:28 19.03.2021
1293 Rain 4 1014 99 10000 1.94 196 14:48 19.03.2021
1294 Rain 4 1013 99 8630 1.71 212 14:28 19.03.2021
1295 Rain 4 1013 99 8630 1.71 212 13:42 19.03.2021
1296 Rain 5 1013 99 6919 1.71 219 13:18 19.03.2021
1297 Rain 5 1019 81 5000 2 340 12:38 19.03.2021
1298 Mist 6 1019 81 5000 2 290 11:49 19.03.2021
1299 Rain 10 1018 87 5000 2 310 10:57 19.03.2021
1300 Rain 11 1019 76 6000 3 280 10:39 19.03.2021
1301 Rain 11 1019 71 8000 3 250 10:18 19.03.2021
1302 Rain 12 1019 57 8000 2 200 09:41 19.03.2021
1303 Rain 12 1019 57 8000 2 200 09:22 19.03.2021
1304 Rain 13 1018 46 8000 3 180 08:41 19.03.2021
1305 Rain 13 1018 46 8000 3 180 08:22 19.03.2021
1306 Rain 13 1018 46 8000 3 150 07:42 19.03.2021
1307 Rain 12 1009 32 10000 2.6 214 06:56 19.03.2021
1308 Rain 11 1013 52 10000 1.93 197 05:19 19.03.2021
1309 Clouds 7 1016 72 10000 0.45 327 00:58 19.03.2021
1310 Clouds 6 1017 72 10000 0.5 241 23:50 18.03.2021
1311 Clouds 6 1016 73 10000 1.34 238 23:26 18.03.2021
1312 Clouds 6 1017 73 10000 1.34 238 22:44 18.03.2021
1313 Clouds 6 1017 74 10000 1.43 212 22:25 18.03.2021
1314 Clouds 6 1016 75 10000 1.43 212 21:40 18.03.2021
1315 Clouds 5 1016 76 10000 2.01 216 21:21 18.03.2021
1316 Clouds 6 1016 79 10000 2.01 216 20:39 18.03.2021
1317 Clouds 5 1016 79 10000 2.54 213 20:20 18.03.2021
1318 Clouds 6 1016 80 10000 2.54 213 19:42 18.03.2021
1319 Clouds 6 1017 80 10000 2.86 211 19:22 18.03.2021
1320 Clouds 6 1017 81 10000 2.69 211 18:41 18.03.2021
1321 Clouds 6 1017 81 10000 2.88 207 17:54 18.03.2021
1322 Clouds 8 1024 75 7000 2 150 17:26 18.03.2021
1323 Clouds 7 1024 81 7000 2 150 16:52 18.03.2021
1324 Clouds 6 1024 81 7000 1 160 16:32 18.03.2021
1325 Clouds 7 1025 81 7000 1 150 15:58 18.03.2021
1326 Clouds 7 1025 81 7000 1 150 15:40 18.03.2021
1327 Clouds 8 1018 61 10000 2.33 202 15:18 18.03.2021
1328 Clouds 8 1018 64 10000 2.33 202 14:41 18.03.2021
1329 Clouds 7 1025 87 8000 1 120 14:18 18.03.2021
1330 Clouds 7 1024 81 8000 1 0 13:37 18.03.2021
1331 Clouds 7 1024 81 8000 1 0 13:19 18.03.2021
1332 Clouds 10 1024 65 8000 1 0 12:37 18.03.2021
1333 Clouds 11 1024 65 8000 1 0 12:19 18.03.2021
1334 Clouds 11 1023 61 8000 1 0 11:44 18.03.2021
1335 Clouds 11 1023 61 8000 1 0 11:20 18.03.2021
1336 Clouds 11 1023 53 8000 2 180 10:41 18.03.2021
1337 Clouds 12 1023 53 8000 2 180 10:23 18.03.2021
1338 Clouds 12 1024 53 8000 2 230 09:45 18.03.2021
1339 Clouds 12 1024 53 8000 2 220 09:26 18.03.2021
1340 Clear 13 1024 53 10000 3 220 08:45 18.03.2021
1341 Clear 13 1023 53 10000 1 0 08:23 18.03.2021
1342 Clear 12 1024 53 10000 2 210 07:45 18.03.2021
1343 Clouds 12 1015 40 10000 2.41 185 06:44 18.03.2021
1344 Clouds 12 1015 41 10000 1.9 176 06:25 18.03.2021
1345 Clouds 11 1016 41 10000 0.81 181 05:26 18.03.2021
1346 Rain 6 1020 93 10000 1.14 117 00:44 18.03.2021
1347 Rain 5 1019 99 10000 1.83 36 23:25 17.03.2021
1348 Rain 5 1019 99 10000 1.83 36 22:39 17.03.2021
1349 Rain 5 1019 91 10000 2.27 23 22:21 17.03.2021
1350 Rain 6 1018 75 10000 2.27 23 21:51 17.03.2021
1351 Rain 8 1018 63 10000 2.27 23 21:32 17.03.2021
1352 Rain 9 1017 58 10000 2.36 20 20:54 17.03.2021
1353 Rain 9 1017 62 10000 2.36 20 20:36 17.03.2021
1354 Rain 9 1017 62 10000 1.69 66 20:18 17.03.2021
1355 Rain 9 1017 63 10000 1.69 66 19:40 17.03.2021
1356 Rain 9 1017 63 10000 1.82 90 19:19 17.03.2021
1357 Rain 9 1017 64 10000 1.82 90 18:50 17.03.2021
1358 Rain 9 1017 63 10000 1.51 104 18:32 17.03.2021
1359 Clouds 9 1017 64 10000 1.74 105 17:42 17.03.2021
1360 Clouds 9 1017 64 10000 2.12 106 17:22 17.03.2021
1361 Rain 9 1017 63 10000 2.12 106 16:43 17.03.2021
1362 Rain 9 1017 63 10000 2.23 98 16:21 17.03.2021
1363 Rain 9 1017 63 10000 2.23 98 15:46 17.03.2021
1364 Clouds 9 1017 62 10000 2.39 95 15:28 17.03.2021
1365 Clouds 10 1017 58 10000 2.39 95 14:40 17.03.2021
1366 Clouds 10 1017 58 10000 0.45 0 14:20 17.03.2021
1367 Rain 10 1017 58 10000 2 91 13:55 17.03.2021
1368 Rain 10 1017 55 10000 0.88 81 13:25 17.03.2021
1369 Rain 11 1016 48 10000 0.45 315 12:48 17.03.2021
1370 Clouds 11 1016 42 10000 2.59 233 12:27 17.03.2021
1371 Rain 12 1016 37 10000 2.59 233 11:41 17.03.2021
1372 Rain 12 1016 37 10000 4.43 210 11:21 17.03.2021
1373 Rain 11 1022 35 10000 4 200 10:52 17.03.2021
1374 Clouds 12 1021 28 10000 5 190 10:24 17.03.2021
1375 Clear 13 1021 26 10000 3 180 09:46 17.03.2021
1376 Rain 13 1021 24 10000 3 180 09:20 17.03.2021
1377 Rain 13 1021 24 10000 3 190 08:53 17.03.2021
1378 Rain 13 1021 24 10000 4 170 08:33 17.03.2021
1379 Rain 14 1014 32 10000 1.4 176 07:46 17.03.2021
1380 Rain 14 1014 32 10000 1.29 161 06:59 17.03.2021
1381 Clouds 14 1014 31 10000 1.12 143 06:30 17.03.2021
1382 Clouds 12 1015 36 10000 1.24 86 04:19 17.03.2021
1383 Clouds 11 1016 46 10000 0.45 0 02:44 17.03.2021
1384 Clouds 8 1015 50 10000 1.55 45 00:39 17.03.2021
1385 Clouds 8 1014 49 10000 1.31 78 23:27 16.03.2021
1386 Clouds 8 1014 47 10000 1.31 78 22:47 16.03.2021
1387 Clouds 8 1014 46 10000 1.35 89 22:28 16.03.2021
1388 Clouds 9 1014 44 10000 1.35 89 21:45 16.03.2021
1389 Clouds 9 1014 43 10000 1.23 120 21:27 16.03.2021
1390 Rain 9 1014 43 10000 1.23 120 20:58 16.03.2021
1391 Clouds 9 1014 43 10000 1.58 141 20:20 16.03.2021
1392 Clouds 9 1013 43 10000 1.58 141 19:54 16.03.2021
1393 Rain 9 1014 42 10000 1.58 141 19:36 16.03.2021
1394 Rain 9 1014 40 10000 1.5 136 18:59 16.03.2021
1395 Rain 9 1014 39 10000 1.5 136 18:40 16.03.2021
1396 Rain 9 1014 38 10000 2.01 175 18:20 16.03.2021
1397 Rain 10 1014 36 10000 2.01 175 17:45 16.03.2021
1398 Rain 10 1015 35 10000 2.79 177 17:24 16.03.2021
1399 Rain 10 1015 33 10000 2.79 177 16:50 16.03.2021
1400 Rain 11 1015 30 10000 3.09 175 16:26 16.03.2021
1401 Clouds 11 1014 26 10000 3.09 175 15:46 16.03.2021
1402 Clouds 11 1014 25 10000 2.72 171 15:21 16.03.2021
1403 Rain 11 1014 24 10000 2.72 171 14:58 16.03.2021
1404 Rain 11 1014 24 10000 2.72 171 14:40 16.03.2021
1405 Clear 12 1021 24 10000 3 140 14:20 16.03.2021
1406 Clear 12 1020 20 10000 4 140 13:47 16.03.2021
1407 Clouds 12 1013 23 10000 1.68 162 13:25 16.03.2021
1408 Clouds 12 1013 22 10000 1.68 162 12:50 16.03.2021
1409 Clouds 12 1013 22 10000 2.01 156 12:31 16.03.2021
1410 Clouds 13 1012 20 10000 1.63 149 11:43 16.03.2021
1411 Clouds 13 1012 19 10000 1.56 171 11:22 16.03.2021
1412 Clouds 14 1012 17 10000 1.51 179 10:28 16.03.2021
1413 Clouds 15 1012 16 10000 1.51 179 09:57 16.03.2021
1414 Clouds 15 1012 15 10000 1.51 179 09:37 16.03.2021
1415 Clouds 15 1012 14 10000 1.04 174 09:18 16.03.2021
1416 Clouds 15 1012 14 10000 1.04 174 08:45 16.03.2021
1417 Clear 15 1020 9 10000 1 0 08:26 16.03.2021
1418 Clouds 15 1013 14 10000 0.45 248 07:36 16.03.2021
1419 Clear 14 1022 11 10000 3 320 06:40 16.03.2021
1420 Clear 12 1023 11 10000 3 320 05:59 16.03.2021
1421 Clear 13 1024 12 10000 2 320 05:34 16.03.2021
1422 Clear 9 1026 13 10000 3 340 02:45 16.03.2021
1423 Clear 8 1026 17 10000 4 10 02:24 16.03.2021
1424 Clear 4 1025 54 10000 2 50 23:59 15.03.2021
1425 Clear 3 1025 51 10000 3 10 23:29 15.03.2021
1426 Clear 4 1024 40 10000 2 340 22:55 15.03.2021
1427 Clear 4 1024 40 10000 2 360 22:36 15.03.2021
1428 Clear 5 1017 23 10000 0.45 0 21:58 15.03.2021
1429 Clear 5 1017 23 10000 2.38 10 21:38 15.03.2021
1430 Clear 5 1017 23 10000 0.89 0 21:20 15.03.2021
1431 Clear 6 1016 22 10000 1.34 45 20:43 15.03.2021
1432 Clear 6 1016 22 10000 1.34 45 20:43 15.03.2021
1433 Clear 5 1025 22 10000 1.34 0 20:24 15.03.2021
1434 Clear 6 1016 21 10000 0.89 0 19:53 15.03.2021
1435 Clear 6 1017 21 10000 0.45 338 19:34 15.03.2021
1436 Clear 7 1016 21 10000 1.34 315 18:57 15.03.2021
1437 Clear 7 1016 22 10000 0.89 0 18:33 15.03.2021
1438 Clouds 7 1016 20 10000 1.34 315 17:56 15.03.2021
1439 Clouds 7 1016 21 10000 4.52 349 17:38 15.03.2021
1440 Clouds 8 1015 20 10000 1.34 0 17:19 15.03.2021
1441 Clouds 8 1016 22 10000 0.89 315 16:41 15.03.2021
1442 Clouds 9 1016 22 10000 1.34 0 15:48 15.03.2021
1443 Clouds 9 1016 21 10000 0.89 270 15:27 15.03.2021
1444 Clouds 9 1016 22 10000 5.58 351 14:46 15.03.2021
1445 Clouds 10 1015 22 10000 5.23 346 14:28 15.03.2021
1446 Clouds 10 1014 20 10000 0.45 0 13:58 15.03.2021
1447 Clouds 10 1014 20 10000 0.45 45 13:35 15.03.2021
1448 Clouds 10 1013 19 10000 0.45 0 12:51 15.03.2021
1449 Clouds 11 1013 19 10000 0.89 45 12:20 15.03.2021
1450 Clouds 11 1013 19 10000 0.45 90 11:59 15.03.2021
1451 Clouds 11 1009 15 10000 5.87 340 11:40 15.03.2021
1452 Clouds 12 1012 20 10000 0.45 0 11:21 15.03.2021
1453 Clouds 12 1012 19 10000 6.05 333 10:39 15.03.2021
1454 Clouds 12 1009 15 10000 6.74 329 10:21 15.03.2021
1455 Clouds 12 1012 19 10000 0.45 315 09:40 15.03.2021
1456 Sand 12 1017 13 2200 8 280 09:20 15.03.2021
1457 Sand 12 1017 12 1800 9 290 08:42 15.03.2021
1458 Clouds 12 1011 18 10000 1.34 293 08:22 15.03.2021
1459 Clouds 12 1010 18 10000 1.79 0 07:34 15.03.2021
1460 Clouds 13 1010 19 10000 0.89 225 06:52 15.03.2021
1461 Clouds 11 1011 21 10000 1.34 0 05:36 15.03.2021
1462 Clear 11 1010 22 10000 2.68 0 03:20 15.03.2021
1463 Clouds 11 1006 73 10000 0.45 0 00:27 15.03.2021
1464 Clouds 11 1004 87 10000 2.87 350 23:24 14.03.2021
1465 Clouds 10 1004 88 10000 2.87 350 22:49 14.03.2021
1466 Clouds 10 1004 89 10000 2.7 350 22:28 14.03.2021
1467 Clouds 10 1004 89 10000 2.7 350 22:28 14.03.2021
1468 Clouds 10 1003 88 10000 2.7 350 21:53 14.03.2021
1469 Clouds 10 1003 91 10000 1.64 334 21:24 14.03.2021
1470 Clouds 11 1003 91 10000 1.64 334 20:52 14.03.2021
1471 Clouds 11 1003 91 10000 1.64 334 20:52 14.03.2021
1472 Clouds 11 1003 91 10000 1.64 334 20:31 14.03.2021
1473 Clear 11 1003 92 10000 0.71 267 19:59 14.03.2021
1474 Clear 11 1003 92 10000 0.71 267 19:59 14.03.2021
1475 Clear 10 1003 92 10000 0.71 267 19:41 14.03.2021
1476 Clouds 10 1003 92 10000 0.62 193 19:18 14.03.2021
1477 Clouds 10 1002 92 10000 1.33 185 19:18 14.03.2021
1478 Clouds 10 1003 90 10000 0.62 193 18:37 14.03.2021
1479 Clouds 10 1003 88 10000 0.71 186 17:54 14.03.2021
1480 Clouds 11 1003 87 10000 0.71 186 17:36 14.03.2021
1481 Clouds 11 1003 85 10000 0.96 183 17:18 14.03.2021
1482 Clouds 11 1003 83 10000 0.96 183 16:40 14.03.2021
1483 Clouds 11 1004 80 10000 1.04 195 16:20 14.03.2021
1484 Clouds 11 1004 78 10000 1.04 195 15:45 14.03.2021
1485 Clouds 11 1005 77 10000 2.06 183 14:52 14.03.2021
1486 Clouds 11 1005 78 10000 2.1 207 14:31 14.03.2021
1487 Clouds 12 1001 55 10000 2.1 207 13:55 14.03.2021
1488 Clouds 11 1004 77 10000 2.1 207 13:36 14.03.2021
1489 Clouds 13 1005 75 10000 3.01 200 12:59 14.03.2021
1490 Clouds 13 1005 75 10000 3.01 200 12:41 14.03.2021
1491 Clouds 12 1005 74 10000 0.45 135 12:22 14.03.2021
1492 Clouds 12 1005 75 10000 2.81 202 11:39 14.03.2021
1493 Clouds 12 1005 75 10000 2.63 200 11:19 14.03.2021
1494 Clouds 12 1005 77 10000 2.63 200 10:38 14.03.2021
1495 Clouds 12 1005 77 10000 3.42 191 10:19 14.03.2021
1496 Clouds 12 1005 76 10000 3.42 191 09:56 14.03.2021
1497 Clouds 12 1005 75 10000 3.42 191 09:38 14.03.2021
1498 Clouds 12 1005 74 10000 3.88 188 09:20 14.03.2021
1499 Clouds 13 1005 74 10000 3.88 188 08:36 14.03.2021
1500 Clouds 14 1006 74 10000 4.51 192 07:58 14.03.2021
1501 Clouds 14 1007 74 10000 4.21 193 07:28 14.03.2021
1502 Clouds 13 1008 77 10000 3.98 195 05:34 14.03.2021
1503 Clouds 10 1011 79 10000 1.06 141 01:27 14.03.2021
1504 Clouds 9 1011 79 10000 0.99 117 00:20 14.03.2021
1505 Clouds 9 1011 79 10000 0.99 117 23:59 13.03.2021
1506 Clouds 9 1011 78 10000 0.99 117 23:39 13.03.2021
1507 Clouds 10 1011 78 10000 1.17 113 23:18 13.03.2021
1508 Clouds 9 1010 78 10000 1.17 113 22:46 13.03.2021
1509 Clouds 10 1010 78 10000 1.24 134 22:18 13.03.2021
1510 Clouds 10 1010 77 10000 1.24 134 21:35 13.03.2021
1511 Clouds 10 1011 77 10000 1.25 156 20:59 13.03.2021
1512 Clouds 10 1011 77 10000 1.25 156 20:41 13.03.2021
1513 Clouds 10 1011 77 10000 1.25 156 20:41 13.03.2021
1514 Clouds 10 1011 77 10000 1.25 156 20:41 13.03.2021
1515 Clouds 10 1011 77 10000 0.93 159 20:22 13.03.2021
1516 Clouds 10 1011 77 10000 0.93 159 19:38 13.03.2021
1517 Clouds 10 1011 76 10000 1.13 154 19:20 13.03.2021
1518 Clouds 10 1012 78 10000 0.98 142 18:42 13.03.2021
1519 Clouds 9 1012 78 10000 1.07 150 18:20 13.03.2021
1520 Clouds 9 1012 77 10000 1.07 150 17:49 13.03.2021
1521 Clouds 9 1012 77 10000 1.07 150 17:49 13.03.2021
1522 Clouds 10 1012 76 10000 1.07 150 17:31 13.03.2021
1523 Clouds 10 1012 76 10000 1.07 150 17:31 13.03.2021
1524 Clouds 10 1013 77 10000 1.49 149 16:53 13.03.2021
1525 Clouds 10 1013 77 10000 1.49 149 16:35 13.03.2021
1526 Clouds 10 1013 76 10000 1.64 153 15:56 13.03.2021
1527 Clouds 10 1013 75 10000 1.55 148 15:18 13.03.2021
1528 Clouds 10 1013 74 10000 1.55 148 14:41 13.03.2021
1529 Clouds 11 1013 72 10000 1.59 157 14:21 13.03.2021
1530 Clouds 11 1013 71 10000 1.43 149 13:28 13.03.2021
1531 Clouds 12 1013 69 10000 1.43 149 12:52 13.03.2021
1532 Clouds 12 1013 68 10000 1.43 146 12:34 13.03.2021
1533 Clouds 13 1012 65 10000 1.45 164 11:54 13.03.2021
1534 Clouds 13 1012 65 10000 1.45 164 11:54 13.03.2021
1535 Clouds 13 1012 64 10000 1.45 164 11:33 13.03.2021
1536 Clouds 14 1012 60 10000 1.77 182 10:58 13.03.2021
1537 Clouds 14 1012 59 10000 1.77 182 10:31 13.03.2021
1538 Clouds 14 1012 59 10000 2.08 196 09:59 13.03.2021
1539 Clouds 16 1013 55 10000 2.08 196 09:32 13.03.2021
1540 Clouds 15 1013 58 10000 2.08 197 08:54 13.03.2021
1541 Clouds 16 1013 55 10000 1.98 206 08:21 13.03.2021
1542 Clouds 16 1014 51 10000 1.98 206 07:57 13.03.2021
1543 Clouds 16 1014 54 10000 1.98 206 07:30 13.03.2021
1544 Clouds 15 1016 57 10000 0.61 195 05:30 13.03.2021
1545 Clouds 9 1019 87 10000 0.77 25 02:20 13.03.2021
1546 Clouds 7 1010 87 10000 0.26 11 00:33 13.03.2021
1547 Clouds 7 1010 87 10000 0.45 0 23:38 12.03.2021
1548 Mist 7 1025 93 3200 1 10 23:20 12.03.2021
1549 Clouds 7 1018 93 10000 0.63 118 22:32 12.03.2021
1550 Clouds 7 1018 93 10000 0.58 122 21:56 12.03.2021
1551 Clouds 7 1018 94 10000 0.58 122 21:38 12.03.2021
1552 Clouds 7 1018 93 10000 0.85 131 21:18 12.03.2021
1553 Clouds 8 1018 94 10000 0.85 131 20:48 12.03.2021
1554 Clouds 8 1018 97 10000 1.12 127 20:23 12.03.2021
1555 Clouds 7 1019 99 10000 1.12 127 19:45 12.03.2021
1556 Clouds 7 1019 99 10000 1.12 127 19:45 12.03.2021
1557 Clouds 7 1019 99 10000 1.2 129 19:25 12.03.2021
1558 Clouds 7 1020 99 10000 0.96 104 18:50 12.03.2021
1559 Clouds 7 1020 99 10000 0.82 85 18:28 12.03.2021
1560 Clouds 7 1020 99 10000 0.82 84 17:44 12.03.2021
1561 Clouds 7 1020 99 10000 0.65 85 17:26 12.03.2021
1562 Clouds 7 1020 99 10000 0.65 85 16:44 12.03.2021
1563 Clouds 7 1020 99 10000 0.64 60 16:25 12.03.2021
1564 Clouds 7 1021 99 10000 0.64 60 15:38 12.03.2021
1565 Clouds 7 1020 99 10000 0.93 88 14:58 12.03.2021
1566 Clouds 7 1020 99 10000 0.93 88 14:38 12.03.2021
1567 Clouds 7 1020 99 10000 1.59 114 14:18 12.03.2021
1568 Clouds 7 1020 99 10000 1.59 114 13:38 12.03.2021
1569 Clouds 7 1020 99 10000 2.29 107 13:19 12.03.2021
1570 Clouds 7 1011 88 10000 0.45 45 12:49 12.03.2021
1571 Clouds 7 1011 88 10000 2.65 80 12:28 12.03.2021
1572 Clouds 9 1016 64 10000 2.65 80 11:54 12.03.2021
1573 Clouds 9 1015 65 10000 1.84 79 11:25 12.03.2021
1574 Mist 9 1025 87 1600 2 110 10:57 12.03.2021
1575 Mist 9 1024 87 1400 4 110 10:28 12.03.2021
1576 Mist 10 1024 93 1400 4 110 09:58 12.03.2021
1577 Mist 11 1024 93 1400 4 110 09:28 12.03.2021
1578 Rain 11 1025 93 1400 4 120 08:51 12.03.2021
1579 Rain 11 1025 93 1400 3 100 08:33 12.03.2021
1580 Rain 11 1025 93 1400 3 90 07:41 12.03.2021
1581 Rain 11 1025 93 1400 3 90 07:18 12.03.2021
1582 Rain 12 1026 87 1700 4 110 06:39 12.03.2021
1583 Rain 10 1019 80 10000 3.01 183 03:29 12.03.2021
1584 Clouds 10 1017 73 10000 2.14 185 00:52 12.03.2021
1585 Clouds 10 1017 71 10000 2.17 188 23:40 11.03.2021
1586 Clouds 11 1017 70 10000 2.64 192 22:58 11.03.2021
1587 Clouds 11 1016 69 10000 2.64 192 22:36 11.03.2021
1588 Clouds 11 1016 68 10000 2.93 189 21:59 11.03.2021
1589 Clouds 11 1016 68 10000 2.93 189 21:41 11.03.2021
1590 Clouds 12 1016 67 10000 2.89 185 21:20 11.03.2021
1591 Clouds 12 1016 67 10000 2.89 185 20:48 11.03.2021
1592 Clouds 12 1016 66 10000 2.66 182 20:21 11.03.2021
1593 Clouds 12 1016 66 10000 2.66 182 19:47 11.03.2021
1594 Clouds 12 1016 65 10000 2.92 185 19:29 11.03.2021
1595 Clouds 12 1016 64 10000 2.7 189 18:49 11.03.2021
1596 Rain 12 1016 65 10000 2.7 189 18:31 11.03.2021
1597 Clouds 13 1016 64 10000 3.14 195 17:45 11.03.2021
1598 Clouds 13 1016 64 10000 3.34 192 17:27 11.03.2021
1599 Rain 13 1016 64 10000 3.34 192 16:31 11.03.2021
1600 Clouds 14 1016 64 10000 3.36 189 15:50 11.03.2021
1601 Clouds 14 1016 63 10000 3.28 184 15:26 11.03.2021
1602 Clouds 14 1016 63 10000 3.28 184 14:57 11.03.2021
1603 Clear 14 1023 54 10000 2 140 14:37 11.03.2021
1604 Clear 14 1023 54 10000 2 140 14:18 11.03.2021
1605 Clear 15 1022 51 10000 3 140 13:42 11.03.2021
1606 Clear 15 1022 51 10000 3 140 13:20 11.03.2021
1607 Clear 15 1022 51 10000 3 160 12:44 11.03.2021
1608 Clear 15 1021 51 10000 3 170 12:26 11.03.2021
1609 Clouds 16 1014 59 10000 3.75 187 11:45 11.03.2021
1610 Clouds 16 1014 58 10000 3.97 186 11:27 11.03.2021
1611 Clouds 16 1014 56 10000 3.97 186 10:44 11.03.2021
1612 Clouds 16 1014 55 10000 4.17 181 10:21 11.03.2021
1613 Clouds 17 1014 54 10000 4.17 181 09:45 11.03.2021
1614 Clouds 17 1014 53 10000 3.84 180 09:23 11.03.2021
1615 Clouds 18 1014 53 10000 3.84 180 08:47 11.03.2021
1616 Clouds 18 1014 52 10000 3.34 182 08:20 11.03.2021
1617 Clouds 18 1014 52 10000 3.33 182 07:34 11.03.2021
1618 Clouds 17 1015 54 10000 2.21 202 06:50 11.03.2021
1619 Clouds 17 1015 54 10000 2.21 202 06:30 11.03.2021
1620 Clouds 15 1017 58 10000 1.43 218 04:44 11.03.2021
1621 -273 0 0 0 0 0 01:22 11.03.2021
1622 Rain 8 1023 87 5000 2 70 23:48 10.03.2021
1623 Rain 8 1023 87 5000 1 90 23:19 10.03.2021
1624 Rain 8 1023 87 5000 1 90 23:19 10.03.2021
1625 Clouds 8 1023 87 6000 1 50 22:39 10.03.2021
1626 Clouds 8 1023 87 6000 1 50 22:39 10.03.2021
1627 Rain 9 1023 87 6000 0.58 241 21:47 10.03.2021
1628 Rain 9 1023 87 6000 1 110 21:26 10.03.2021
1629 Clouds 9 1022 87 6000 2 70 20:58 10.03.2021
1630 Rain 9 1023 87 6000 1 100 20:37 10.03.2021
1631 Rain 9 1023 87 6000 1 100 20:19 10.03.2021
1632 Rain 9 1023 87 6000 1 60 19:39 10.03.2021
1633 Rain 9 1023 87 6000 1 60 19:20 10.03.2021
1634 Rain 9 1023 87 6000 1 140 18:37 10.03.2021
1635 Clouds 9 1023 87 6000 1 140 18:18 10.03.2021
1636 Clouds 10 1023 76 6000 2 150 17:41 10.03.2021
1637 Clouds 11 1016 73 10000 2.3 201 17:20 10.03.2021
1638 Clouds 11 1017 72 10000 2.3 201 16:52 10.03.2021
1639 Clouds 11 1017 71 10000 2.55 200 16:29 10.03.2021
1640 Clouds 12 1017 70 10000 2.55 200 15:59 10.03.2021
1641 Clouds 12 1017 70 10000 2.55 200 15:38 10.03.2021
1642 Clouds 12 1017 69 10000 2.56 196 15:20 10.03.2021
1643 Clouds 12 1016 66 10000 2.76 192 14:23 10.03.2021
1644 Clouds 12 1023 71 6000 2 160 13:58 10.03.2021
1645 Clouds 12 1023 71 6000 1 160 13:34 10.03.2021
1646 Clouds 13 1016 63 10000 3.23 192 12:53 10.03.2021
1647 Clouds 15 1016 61 10000 3.23 192 12:32 10.03.2021
1648 Clouds 15 1015 59 10000 3.36 190 11:56 10.03.2021
1649 Clouds 15 1015 57 10000 3.56 194 11:29 10.03.2021
1650 Clouds 16 1015 57 10000 3.56 194 10:56 10.03.2021
1651 Clouds 16 1015 56 10000 3.56 194 10:34 10.03.2021
1652 Clouds 17 1015 59 10000 4.33 198 09:57 10.03.2021
1653 Clouds 17 1015 59 10000 4.33 198 09:38 10.03.2021
1654 Clouds 17 1015 58 10000 4.86 199 09:19 10.03.2021
1655 Clouds 17 1015 57 10000 4.86 199 08:45 10.03.2021
1656 Clouds 17 1016 56 10000 4.6 200 08:27 10.03.2021
1657 Clouds 18 1016 54 10000 4.6 200 07:46 10.03.2021
1658 Clouds 16 1016 58 10000 4.52 205 07:25 10.03.2021
1659 Clouds 17 1016 57 10000 3.84 208 06:52 10.03.2021
1660 Clear 11 1020 73 10000 0.42 229 02:45 10.03.2021
1661 Clouds 6 1020 83 10000 0.67 53 00:39 10.03.2021
1662 Clouds 6 1020 84 10000 1.02 34 23:45 09.03.2021
1663 Clouds 6 1019 84 10000 0.98 36 22:56 09.03.2021
1664 Clouds 6 1019 82 10000 0.98 36 22:37 09.03.2021
1665 Clouds 6 1019 82 10000 1 43 22:18 09.03.2021
1666 Clouds 7 1019 79 10000 1 43 21:42 09.03.2021
1667 Mist 6 1025 93 3000 1 80 21:20 09.03.2021
1668 Mist 6 1026 87 3000 1 70 20:55 09.03.2021
1669 Rain 6 1026 87 3000 1 0 20:37 09.03.2021
1670 Mist 6 1026 87 3000 1 0 20:18 09.03.2021
1671 Rain 6 1026 93 3000 1 70 19:43 09.03.2021
1672 Mist 6 1026 87 3000 2 70 19:24 09.03.2021
1673 Mist 7 1026 81 3500 2 80 18:42 09.03.2021
1674 Mist 7 1026 81 3500 1 60 18:19 09.03.2021
1675 Mist 7 1026 81 3500 1 60 17:46 09.03.2021
1676 Rain 8 1026 81 4000 1 0 17:26 09.03.2021
1677 Rain 8 1026 81 4000 0.54 120 16:41 09.03.2021
1678 Mist 8 1026 81 4000 0.45 171 16:21 09.03.2021
1679 Mist 9 1026 75 4000 0.45 171 15:56 09.03.2021
1680 Mist 8 1026 81 4000 1 0 15:25 09.03.2021
1681 Haze 9 1026 75 4000 1 0 14:52 09.03.2021
1682 Haze 9 1025 75 4000 1 0 14:26 09.03.2021
1683 Haze 11 1025 57 4500 2 150 13:42 09.03.2021
1684 Haze 11 1025 57 4500 2 150 13:21 09.03.2021
1685 Clear 12 1018 58 10000 0.97 186 12:54 09.03.2021
1686 Clear 12 1018 57 10000 0.97 186 12:35 09.03.2021
1687 Clear 13 1017 54 10000 1.12 191 11:45 09.03.2021
1688 Clear 13 1017 53 10000 1.26 195 11:22 09.03.2021
1689 Clear 14 1017 51 10000 1.26 195 10:59 09.03.2021
1690 Clear 14 1016 50 10000 1.26 195 10:39 09.03.2021
1691 Clear 14 1016 48 10000 1.83 192 10:21 09.03.2021
1692 Clear 15 1016 45 10000 1.83 192 09:46 09.03.2021
1693 Clear 15 1016 44 10000 1.92 195 09:27 09.03.2021
1694 Clear 15 1016 42 10000 1.92 195 08:57 09.03.2021
1695 Clear 16 1016 40 10000 1.92 195 08:32 09.03.2021
1696 Clear 16 1016 37 10000 1.73 208 07:46 09.03.2021
1697 Clear 16 1016 38 10000 1.51 206 07:26 09.03.2021
1698 Clouds 16 1016 37 10000 1.14 211 06:55 09.03.2021
1699 Clouds 14 1017 38 10000 0.6 194 05:53 09.03.2021
1700 Clear 4 1026 69 8000 3 350 01:32 09.03.2021
1701 Clear 4 1019 72 10000 1.72 9 23:58 08.03.2021
1702 Clear 4 1018 73 10000 1.72 9 23:39 08.03.2021
1703 Clear 4 1018 71 10000 1.71 8 23:18 08.03.2021
1704 Clear 4 1018 69 10000 1.71 8 22:40 08.03.2021
1705 Clear 4 1018 69 10000 1.53 3 22:21 08.03.2021
1706 Clear 4 1018 70 10000 1.53 3 21:48 08.03.2021
1707 Clear 4 1018 68 10000 1.44 8 21:29 08.03.2021
1708 Clear 3 1024 86 10000 1 360 20:40 08.03.2021
1709 Clear 3 1024 86 10000 1 360 20:21 08.03.2021
1710 Clear 3 1025 86 10000 2 350 19:46 08.03.2021
1711 Clear 3 1025 86 10000 1 360 19:24 08.03.2021
1712 Clear 4 1025 75 10000 1 340 18:38 08.03.2021
1713 Clear 4 1025 75 10000 1 340 18:19 08.03.2021
1714 Clear 5 1025 80 10000 1 10 17:44 08.03.2021
1715 Clear 4 1025 80 10000 1 50 17:23 08.03.2021
1716 Clear 5 1025 75 10000 1 50 16:43 08.03.2021
1717 Clear 5 1025 80 10000 1 350 16:24 08.03.2021
1718 Clear 6 1025 69 10000 1 0 15:45 08.03.2021
1719 Clear 6 1025 69 10000 1 0 15:23 08.03.2021
1720 Clouds 7 1018 57 10000 0.34 181 14:22 08.03.2021
1721 Clouds 7 1018 56 10000 0.34 181 13:58 08.03.2021
1722 Clouds 8 1017 55 10000 0.74 168 13:24 08.03.2021
1723 Clouds 8 1017 54 10000 0.25 112 12:58 08.03.2021
1724 Clouds 8 1017 53 10000 0.25 112 12:35 08.03.2021
1725 Clouds 8 1017 52 10000 0.85 159 11:55 08.03.2021
1726 Clouds 9 1016 52 10000 1.06 184 11:34 08.03.2021
1727 Clouds 9 1016 50 10000 1.06 184 10:58 08.03.2021
1728 Clouds 9 1016 49 10000 1.06 184 10:40 08.03.2021
1729 Clouds 10 1016 48 10000 2.01 205 10:19 08.03.2021
1730 Clouds 11 1016 43 10000 2.03 216 09:29 08.03.2021
1731 Clouds 11 1016 40 10000 2.03 216 08:54 08.03.2021
1732 Clouds 11 1016 40 10000 2.2 219 08:25 08.03.2021
1733 Clouds 11 1017 38 10000 2.29 220 07:22 08.03.2021
1734 Clouds 10 1018 37 10000 2.24 218 06:33 08.03.2021
1735 Clouds 5 1021 64 10000 0.19 72 02:57 08.03.2021
1736 Clouds 2 1021 75 10000 0.1 73 00:43 08.03.2021
1737 Clouds 0 1027 93 7000 1 0 23:54 07.03.2021
1738 Clouds 1 1021 75 10000 0.21 128 23:23 07.03.2021
1739 Clouds 1 1021 76 10000 0.21 128 22:50 07.03.2021
1740 Clouds 1 1020 75 10000 0.34 158 22:29 07.03.2021
1741 Clouds 1 1020 74 10000 0.34 158 21:58 07.03.2021
1742 Clouds 1 1027 86 8000 1 30 21:39 07.03.2021
1743 Clouds 1 1027 86 8000 1 30 21:21 07.03.2021
1744 Clouds 1 1027 93 8000 1 70 20:41 07.03.2021
1745 Clear 2 1021 63 10000 0.78 179 20:23 07.03.2021
1746 Clear 2 1028 74 8000 1 0 19:56 07.03.2021
1747 Clear 2 1028 86 10000 1 0 19:37 07.03.2021
1748 Clear 2 1028 86 10000 1 0 19:19 07.03.2021
1749 Clear 2 1028 86 10000 1 70 18:40 07.03.2021
1750 Clear 1 1028 86 10000 1 70 18:19 07.03.2021
1751 Clear 2 1028 74 10000 2 140 17:39 07.03.2021
1752 Clear 3 1022 57 10000 1.67 189 17:20 07.03.2021
1753 Clear 3 1022 56 10000 1.67 189 16:54 07.03.2021
1754 Clear 3 1022 56 10000 1.67 189 16:36 07.03.2021
1755 Clear 3 1022 56 10000 1.67 189 16:36 07.03.2021
1756 Clear 4 1022 57 10000 2.31 191 16:18 07.03.2021
1757 Clear 4 1022 56 10000 2.31 191 15:41 07.03.2021
1758 Clear 4 1022 56 10000 2.41 185 15:20 07.03.2021
1759 Rain 4 1022 57 10000 2.41 185 14:30 07.03.2021
1760 Rain 4 1022 57 10000 2.41 185 14:30 07.03.2021
1761 Rain 5 1022 59 10000 2.28 178 13:57 07.03.2021
1762 Clear 5 1022 58 10000 2.28 178 13:38 07.03.2021
1763 Clear 5 1022 62 10000 1.87 173 13:18 07.03.2021
1764 Clear 6 1021 61 10000 1.87 173 12:40 07.03.2021
1765 Clear 6 1021 61 10000 1.87 173 12:40 07.03.2021
1766 Clear 6 1021 61 10000 1.88 177 12:21 07.03.2021
1767 Clear 7 1017 38 10000 2.21 196 11:24 07.03.2021
1768 Clear 7 1020 56 10000 2.21 196 10:59 07.03.2021
1769 Clear 8 1020 54 10000 2.21 196 10:38 07.03.2021
1770 Clear 8 1020 50 10000 2.54 207 09:59 07.03.2021
1771 Clear 8 1020 50 10000 2.54 207 09:39 07.03.2021
1772 Clear 9 1020 48 10000 2.53 211 09:20 07.03.2021
1773 Clear 9 1020 47 10000 2.53 211 08:45 07.03.2021
1774 Clear 9 1020 45 10000 2.29 212 08:22 07.03.2021
1775 Clear 9 1021 45 10000 1.97 212 07:23 07.03.2021
1776 Clear 3 1026 57 10000 0.2 278 02:40 07.03.2021
1777 Clear -1 1026 66 10000 0.25 202 00:36 07.03.2021
1778 Clear -2 1032 86 10000 2 70 23:41 06.03.2021
1779 Clear -2 1032 86 10000 2 70 23:22 06.03.2021
1780 Clear -2 1032 86 10000 1 60 22:47 06.03.2021
1781 Clear -2 1032 80 10000 1 90 22:25 06.03.2021
1782 Clear -1 1025 68 10000 1.03 208 21:52 06.03.2021
1783 Clear -1 1025 66 10000 1.27 216 21:21 06.03.2021
1784 Clear -1 1026 65 10000 1.27 216 20:45 06.03.2021
1785 Clear -1 1026 65 10000 1.69 213 20:21 06.03.2021
1786 Clear -1 1027 63 10000 1.69 213 19:41 06.03.2021
1787 Clear -1 1027 62 10000 1.96 205 19:18 06.03.2021
1788 Clear -1 1027 61 10000 2.03 205 18:43 06.03.2021
1789 Clear 0 1027 60 10000 2.23 193 18:23 06.03.2021
1790 Clear 0 1027 60 10000 2.23 193 17:55 06.03.2021
1791 Clear 0 1027 59 10000 2.23 193 17:37 06.03.2021
1792 Clear 1 1027 59 10000 2.15 184 17:18 06.03.2021
1793 Clear 1 1027 57 10000 2.15 184 16:39 06.03.2021
1794 Clear 1 1028 57 10000 2.06 175 16:20 06.03.2021
1795 Clear 1 1028 55 10000 2.06 175 15:41 06.03.2021
1796 Clear 1 1028 55 10000 2.14 169 15:23 06.03.2021
1797 Clear 2 1028 55 10000 2.14 169 14:33 06.03.2021
1798 Clear 2 1028 54 10000 2.48 170 13:57 06.03.2021
1799 Clear 2 1028 54 10000 2.48 170 13:39 06.03.2021
1800 Clouds 2 1028 54 10000 2.65 169 13:19 06.03.2021
1801 Clouds 2 1028 52 10000 2.73 170 12:44 06.03.2021
1802 Clouds 2 1028 52 10000 2.76 170 12:19 06.03.2021
1803 Clouds 2 1028 52 10000 2.76 170 11:48 06.03.2021
1804 Clouds 3 1028 49 10000 2.52 173 11:21 06.03.2021
1805 Clouds 3 1028 46 10000 0.45 180 10:48 06.03.2021
1806 Clouds 4 1027 43 10000 2.5 179 10:18 06.03.2021
1807 Clouds 4 1028 41 10000 0.45 180 09:41 06.03.2021
1808 Clouds 4 1028 40 10000 2.61 183 09:19 06.03.2021
1809 Clouds 5 1028 40 10000 2.61 183 08:36 06.03.2021
1810 Clouds 5 1028 39 10000 2.62 186 07:57 06.03.2021
1811 Clouds 5 1029 38 10000 2.75 189 07:23 06.03.2021
1812 Clouds 5 1029 39 10000 2.75 189 06:48 06.03.2021
1813 Clouds 4 1031 41 10000 2.72 188 05:34 06.03.2021
1814 Clear 2 1039 29 10000 4 180 02:25 06.03.2021
1815 Clouds 1 1032 37 10000 2.18 179 00:47 06.03.2021
1816 Clouds 1 1031 42 10000 1.96 163 23:53 05.03.2021
1817 Clouds 1 1031 41 10000 2.19 155 23:28 05.03.2021
1818 Clouds 1 1031 42 10000 2.19 155 22:46 05.03.2021
1819 Clouds 1 1030 43 10000 2.35 159 22:23 05.03.2021
1820 Clouds 1 1030 42 10000 2.35 159 21:54 05.03.2021
1821 Snow 1 1030 42 10000 2.35 159 21:34 05.03.2021
1822 Clouds 1 1030 40 10000 2.63 166 20:55 05.03.2021
1823 Clouds 1 1030 48 10000 2.63 166 20:37 05.03.2021
1824 Clouds 2 1030 47 10000 2.55 168 20:19 05.03.2021
1825 Clouds 2 1030 51 10000 2.44 148 19:27 05.03.2021
1826 Clouds 2 1030 46 10000 2.97 153 18:59 05.03.2021
1827 Clouds 2 1021 47 10000 1.79 45 18:41 05.03.2021
1828 Clouds 2 1021 54 10000 0.89 45 18:21 05.03.2021
1829 Clear 2 1035 38 10000 3 150 17:36 05.03.2021
1830 Clear 2 1035 44 10000 3 160 16:51 05.03.2021
1831 Clear 2 1035 48 10000 2 150 16:26 05.03.2021
1832 Clear 3 1034 44 10000 2 150 15:59 05.03.2021
1833 Clouds 3 1019 60 10000 0.45 45 15:41 05.03.2021
1834 Clouds 3 1028 49 10000 3.45 137 15:22 05.03.2021
1835 Clouds 3 1027 50 10000 3.07 139 14:39 05.03.2021
1836 Clouds 3 1027 57 10000 2.54 140 13:59 05.03.2021
1837 Clouds 3 1026 57 10000 2.11 157 13:22 05.03.2021
1838 Clouds 3 1026 57 10000 2.11 157 12:56 05.03.2021
1839 Rain 3 1025 60 10000 1.9 167 12:23 05.03.2021
1840 Rain 4 1024 67 10000 1.9 167 11:37 05.03.2021
1841 Clouds 4 1024 64 10000 2.1 138 11:18 05.03.2021
1842 Clouds 4 1023 64 10000 2.1 138 10:41 05.03.2021
1843 Clouds 4 1022 62 10000 2.94 132 10:23 05.03.2021
1844 Clouds 5 1022 65 10000 2.94 132 09:49 05.03.2021
1845 Clouds 5 1022 64 10000 4.02 126 09:27 05.03.2021
1846 Rain 5 1027 48 10000 4 160 08:45 05.03.2021
1847 Clouds 5 1012 79 10000 0.89 315 08:26 05.03.2021
1848 Clear 5 1026 49 10000 5 150 07:44 05.03.2021
1849 Rain 6 1025 52 6000 6 140 07:24 05.03.2021
1850 Haze 6 1024 70 2900 5 150 06:32 05.03.2021
1851 Haze 9 1020 62 3200 4 350 02:51 05.03.2021
1852 Clouds 7 1012 85 10000 2.93 26 00:49 05.03.2021
1853 Clouds 6 1011 87 10000 2.11 13 23:37 04.03.2021
1854 Clouds 5 1010 89 10000 1.94 6 22:47 04.03.2021
1855 Mist 5 1016 93 2100 1.66 13 22:25 04.03.2021
1856 Mist 5 1016 100 1700 1 40 21:47 04.03.2021
1857 Mist 5 1016 100 1400 2 350 21:28 04.03.2021
1858 Mist 5 1017 93 2000 1.92 17 20:41 04.03.2021
1859 Clear 5 1010 90 10000 1.59 19 20:23 04.03.2021
1860 Rain 5 1011 90 10000 1.59 19 19:57 04.03.2021
1861 Clear 5 1011 89 10000 1.59 19 19:38 04.03.2021
1862 Clear 6 1011 89 10000 1.81 17 19:18 04.03.2021
1863 Clear 6 1011 87 10000 1.81 17 18:41 04.03.2021
1864 Rain 5 1017 100 2800 1 340 18:20 04.03.2021
1865 Mist 5 1017 93 2800 1 360 17:43 04.03.2021
1866 Mist 5 1017 93 2800 1 360 17:22 04.03.2021
1867 Mist 5 1017 93 2800 1 0 16:44 04.03.2021
1868 Mist 6 1017 93 2800 1 0 16:24 04.03.2021
1869 Mist 6 1017 93 3200 1 10 15:49 04.03.2021
1870 Rain 6 1017 93 3200 1 0 15:31 04.03.2021
1871 Mist 6 1017 93 3200 1.02 54 14:46 04.03.2021
1872 Mist 7 1017 93 3200 1.22 62 14:25 04.03.2021
1873 Mist 7 1017 87 3200 1 100 13:46 04.03.2021
1874 Mist 7 1016 87 3200 1 90 13:25 04.03.2021
1875 Mist 7 1017 87 3200 1 90 12:49 04.03.2021
1876 Mist 8 1016 81 3200 1 110 12:31 04.03.2021
1877 Clouds 9 1010 75 10000 0.49 13 11:43 04.03.2021
1878 Clouds 10 1010 74 10000 0.32 304 11:23 04.03.2021
1879 Clouds 10 1009 71 10000 0.32 304 10:47 04.03.2021
1880 Clear 12 1009 69 10000 0.57 195 10:26 04.03.2021
1881 Clear 11 1009 65 10000 0.57 195 09:37 04.03.2021
1882 Clouds 12 1009 61 10000 0.82 182 08:59 04.03.2021
1883 Clouds 12 1009 62 10000 0.82 182 08:34 04.03.2021
1884 Clear 12 1009 61 10000 0.99 187 07:53 04.03.2021
1885 Clear 11 1009 62 10000 0.98 179 07:21 04.03.2021
1886 Clear 12 1010 63 10000 0.98 165 06:24 04.03.2021
1887 Clouds 7 1011 84 10000 1.21 54 02:49 04.03.2021
1888 Clouds 6 1010 90 10000 1.34 34 01:32 04.03.2021
1889 Clouds 6 1010 89 10000 1.08 33 22:44 03.03.2021
1890 Clouds 6 1010 90 10000 1.44 18 22:26 03.03.2021
1891 Clouds 6 1010 87 10000 1.44 18 21:43 03.03.2021
1892 Clouds 6 1010 87 10000 1.22 29 21:24 03.03.2021
1893 Clouds 6 1010 87 10000 1.22 29 20:58 03.03.2021
1894 Clouds 6 1010 86 10000 1.22 29 20:40 03.03.2021
1895 Clouds 6 1011 85 10000 1.24 26 19:59 03.03.2021
1896 Clouds 6 1011 85 10000 1.24 26 19:40 03.03.2021
1897 Clear 6 1011 85 10000 1.38 18 19:20 03.03.2021
1898 Clear 6 1011 85 10000 1.38 18 18:46 03.03.2021
1899 Clear 6 1011 84 10000 1.51 19 18:21 03.03.2021
1900 Clear 6 1011 81 10000 1.51 19 17:43 03.03.2021
1901 Clear 6 1011 81 10000 1.57 21 17:18 03.03.2021
1902 Clear 6 1012 75 10000 1.57 21 16:41 03.03.2021
1903 Clear 6 1012 77 10000 1.57 20 16:22 03.03.2021
1904 Clear 6 1012 78 10000 1.57 20 15:33 03.03.2021
1905 Clear 6 1012 77 10000 1.48 33 14:56 03.03.2021
1906 Mist 6 1018 81 3500 2 100 14:30 03.03.2021
1907 Mist 6 1018 81 3500 2 80 13:52 03.03.2021
1908 Mist 6 1018 81 3700 1 80 13:31 03.03.2021
1909 Mist 6 1018 81 3700 1 0 12:45 03.03.2021
1910 Haze 6 1018 75 3700 1 0 12:26 03.03.2021
1911 Haze 6 1018 70 3700 1 0 11:48 03.03.2021
1912 Clear 8 1011 74 10000 1.13 60 11:28 03.03.2021
1913 Haze 7 1017 70 3700 2 150 10:50 03.03.2021
1914 Haze 7 1017 65 3700 2 160 10:31 03.03.2021
1915 Haze 7 1017 65 3700 2 120 09:49 03.03.2021
1916 Haze 7 1017 61 3700 1 0 09:31 03.03.2021
1917 Haze 8 1017 61 3700 2 190 08:44 03.03.2021
1918 Clear 7 1011 68 10000 1.33 183 08:22 03.03.2021
1919 Clear 8 1011 65 10000 1.33 183 07:41 03.03.2021
1920 Haze 9 1018 65 3200 1 0 06:51 03.03.2021
1921 Haze 7 1019 65 2800 1 0 05:46 03.03.2021
1922 Haze 6 1020 70 3200 1 0 04:58 03.03.2021
1923 Clear 6 1013 72 10000 0.61 44 04:26 03.03.2021
1924 Clear 4 1015 86 10000 1.36 35 02:19 03.03.2021
1925 Clear 3 1014 88 10000 1.3 18 23:58 02.03.2021
1926 Clear 3 1014 88 10000 1.5 21 23:28 02.03.2021
1927 Clear 3 1015 87 10000 1.5 21 22:42 02.03.2021
1928 Clear 3 1015 87 10000 1.83 27 22:19 02.03.2021
1929 Clear 3 1015 86 10000 1.83 27 21:40 02.03.2021
1930 Clear 3 1015 86 10000 1.89 28 21:22 02.03.2021
1931 Clear 4 1015 84 10000 1.89 28 20:47 02.03.2021
1932 Clear 4 1015 84 10000 1.89 28 20:47 02.03.2021
1933 Clear 4 1015 84 10000 1.6 35 20:22 02.03.2021
1934 Clear 4 1016 84 10000 1.6 35 19:56 02.03.2021
1935 Clear 4 1016 84 10000 1.6 35 19:38 02.03.2021
1936 Clear 4 1017 83 10000 1.56 34 19:18 02.03.2021
1937 Clear 4 1017 84 10000 1.56 34 18:40 02.03.2021
1938 Clear 4 1017 84 10000 1.45 29 18:21 02.03.2021
1939 Clear 4 1017 83 10000 1.45 29 17:49 02.03.2021
1940 Clear 4 1017 83 10000 1.45 29 17:30 02.03.2021
1941 Clear 4 1017 84 10000 1.01 38 16:56 02.03.2021
1942 Clear 4 1017 83 10000 0.4 68 16:23 02.03.2021
1943 Clear 4 1018 82 10000 0.4 68 15:51 02.03.2021
1944 Clear 4 1018 82 10000 0.39 130 15:25 02.03.2021
1945 Clear 4 1018 81 10000 0.95 139 14:24 02.03.2021
1946 Clear 4 1018 81 10000 0.95 139 13:54 02.03.2021
1947 Clear 5 1018 80 10000 0.95 139 13:36 02.03.2021
1948 Clear 5 1015 54 10000 1.37 142 13:18 02.03.2021
1949 Clear 5 1018 78 10000 1.37 146 12:29 02.03.2021
1950 Clear 5 1015 54 10000 1.37 146 11:54 02.03.2021
1951 Clear 5 1015 54 10000 1.37 146 11:54 02.03.2021
1952 Clear 5 1018 79 10000 1.37 146 11:34 02.03.2021
1953 Haze 5 1024 70 5000 4 170 10:58 02.03.2021
1954 Haze 5 1024 70 5000 4 170 10:32 02.03.2021
1955 Haze 5 1025 70 5000 2 190 09:57 02.03.2021
1956 Haze 5 1025 70 5000 2 190 09:39 02.03.2021
1957 Haze 5 1025 70 5000 2 190 09:18 02.03.2021
1958 Haze 5 1026 70 5000 3 180 08:38 02.03.2021
1959 Haze 6 1026 70 5000 3 180 07:53 02.03.2021
1960 Clouds 6 1026 65 6000 4 200 07:26 02.03.2021
1961 Clouds 6 1027 65 7000 4 200 06:32 02.03.2021
1962 Clear 5 1021 73 10000 3.06 195 05:44 02.03.2021
1963 Clear 5 1022 74 10000 2.06 189 05:24 02.03.2021
1964 Clear 2 1022 75 10000 1.19 193 01:44 02.03.2021
1965 Clear 2 1022 75 10000 1.1 187 01:23 02.03.2021
1966 Clear 2 1022 79 10000 0.96 193 23:55 01.03.2021
1967 Clear 1 1021 79 10000 1.19 198 23:22 01.03.2021
1968 Clear 1 1021 79 10000 1.19 198 23:22 01.03.2021
1969 Clear 2 1021 79 10000 1.19 198 22:40 01.03.2021
1970 Clear 2 1021 79 10000 1.38 198 22:21 01.03.2021
1971 Clear 2 1021 80 10000 1.38 198 21:45 01.03.2021
1972 Clear 2 1021 80 10000 1.3 197 21:23 01.03.2021
1973 Clear 2 1021 81 10000 1.3 197 20:46 01.03.2021
1974 Clear 2 1021 81 10000 1.63 201 20:27 01.03.2021
1975 Clear 1 1021 81 10000 1.63 201 19:51 01.03.2021
1976 Clear 2 1021 80 10000 1.63 201 19:32 01.03.2021
1977 Clouds 2 1022 80 10000 1.69 192 18:45 01.03.2021
1978 Clouds 2 1022 80 10000 1.74 197 18:24 01.03.2021
1979 Clouds 2 1022 80 10000 1.74 197 17:49 01.03.2021
1980 Clouds 2 1022 81 10000 1.91 192 17:25 01.03.2021
1981 Clouds 2 1022 81 10000 1.91 192 16:57 01.03.2021
1982 Clouds 1 1022 82 10000 1.91 192 16:38 01.03.2021
1983 Clouds 2 1022 82 10000 2.49 191 16:20 01.03.2021
1984 Clouds 2 1022 79 10000 2.49 191 15:38 01.03.2021
1985 Clouds 2 1022 78 10000 2.43 189 15:18 01.03.2021
1986 Clouds 2 1028 69 10000 4 210 14:41 01.03.2021
1987 Clouds 2 1022 78 10000 2.47 198 14:22 01.03.2021
1988 Rain 2 1022 78 10000 0.45 180 13:39 01.03.2021
1989 Clouds 3 1022 77 10000 3.11 199 13:20 01.03.2021
1990 Clouds 3 1022 78 10000 3.11 199 12:43 01.03.2021
1991 Clouds 3 1018 55 10000 3.51 202 12:25 01.03.2021
1992 Clouds 3 1022 77 10000 3.51 202 11:57 01.03.2021
1993 Clouds 3 1021 77 10000 3.94 201 11:29 01.03.2021
1994 Clouds 4 1021 74 10000 3.94 201 10:42 01.03.2021
1995 Clouds 4 1021 72 10000 4.17 205 10:22 01.03.2021
1996 Clouds 4 1020 62 10000 4.17 205 09:53 01.03.2021
1997 Clouds 4 1021 63 10000 4.17 205 09:34 01.03.2021
1998 Clouds 5 1021 60 10000 3.46 207 08:56 01.03.2021
1999 Clouds 6 1021 57 10000 3.46 207 08:32 01.03.2021
2000 Clouds 6 1021 48 10000 0.45 315 07:32 01.03.2021
2001 Clear 4 1029 36 10000 1 0 06:25 01.03.2021
2002 Clear 0 1032 55 10000 4 40 02:40 01.03.2021
2003 Snow 0 1024 99 6903 1.97 163 23:49 28.02.2021
2004 Snow 0 1025 99 4767 1.97 117 23:20 28.02.2021
2005 Snow 0 1024 99 4767 1.97 117 22:42 28.02.2021
2006 Snow 0 1024 99 229 2.41 118 22:20 28.02.2021
2007 Snow 0 1023 99 229 2.41 118 21:45 28.02.2021
2008 Snow 1 1023 99 134 2.34 111 21:23 28.02.2021
2009 Snow 0 1023 99 134 2.34 111 20:46 28.02.2021
2010 Snow 0 1024 99 144 2.06 93 20:27 28.02.2021
2011 Snow 0 1024 99 144 2.06 93 19:46 28.02.2021
2012 Snow 0 1023 99 65 2.37 84 19:27 28.02.2021
2013 Snow 1 1023 99 67 2.16 108 18:47 28.02.2021
2014 Snow 1 1023 99 70 2.17 106 18:27 28.02.2021
2015 Snow 1 1023 99 70 2.17 106 17:56 28.02.2021
2016 Snow 1 1014 92 70 2.17 106 17:38 28.02.2021
2017 Snow 2 1022 99 70 2.44 113 17:20 28.02.2021
2018 Rain 2 1022 99 70 2.44 113 16:48 28.02.2021
2019 Rain 2 1022 99 49 3.25 112 16:29 28.02.2021
2020 Rain 3 1022 99 49 3.25 112 15:51 28.02.2021
2021 Rain 3 1022 99 66 3.68 102 15:28 28.02.2021
2022 Rain 4 1022 99 66 3.68 102 14:58 28.02.2021
2023 Rain 4 1022 99 66 3.68 102 14:35 28.02.2021
2024 Rain 4 1021 99 8690 3.48 84 13:59 28.02.2021
2025 Rain 4 1021 99 8690 3.48 84 13:38 28.02.2021
2026 Rain 5 1020 99 8869 2.66 77 13:19 28.02.2021
2027 Rain 5 1011 89 8869 2.66 77 12:53 28.02.2021
2028 Rain 5 1018 99 8869 2.66 77 12:35 28.02.2021
2029 Rain 5 1018 99 7991 1.79 82 11:57 28.02.2021
2030 Rain 5 1018 99 7991 1.79 82 11:39 28.02.2021
2031 Rain 5 1017 99 10000 2.04 77 11:19 28.02.2021
2032 Rain 5 1017 99 10000 2.04 77 10:40 28.02.2021
2033 Rain 5 1017 99 10000 1.75 87 10:20 28.02.2021
2034 Rain 5 1017 99 10000 1.75 87 09:39 28.02.2021
2035 Rain 5 1017 99 10000 0.45 315 09:20 28.02.2021
2036 Rain 5 1017 99 10000 1.94 83 08:43 28.02.2021
2037 Clouds 5 1017 99 10000 2 82 08:24 28.02.2021
2038 Rain 6 1023 81 3600 1 0 07:44 28.02.2021
2039 Rain 6 1023 81 3600 2 70 07:25 28.02.2021
2040 Rain 5 1017 99 10000 1.97 88 06:24 28.02.2021
2041 Rain 5 1019 99 10000 1.95 73 05:20 28.02.2021
2042 Rain 5 1017 86 10000 1.82 38 02:28 28.02.2021
2043 Mist 5 1023 75 4000 2 100 01:28 28.02.2021
2044 Rain 5 1022 65 5000 2 100 00:40 28.02.2021
2045 Rain 6 1015 73 10000 1.56 53 23:51 27.02.2021
2046 Clouds 6 1015 73 10000 1.51 67 23:22 27.02.2021
2047 Rain 6 1015 75 10000 1.51 67 22:50 27.02.2021
2048 Rain 6 1015 75 10000 1.27 33 22:25 27.02.2021
2049 Rain 6 1016 65 10000 1.27 33 21:59 27.02.2021
2050 Rain 6 1015 58 10000 1.27 33 21:38 27.02.2021
2051 Rain 7 1015 56 10000 0.86 83 20:58 27.02.2021
2052 Clouds 7 1014 54 10000 0.86 83 20:39 27.02.2021
2053 Rain 7 1014 54 10000 1.1 115 20:21 27.02.2021
2054 Clouds 7 1015 50 10000 1.1 115 19:43 27.02.2021
2055 Clouds 7 1015 50 10000 1.1 115 19:43 27.02.2021
2056 Rain 7 1015 49 10000 1.71 149 19:23 27.02.2021
2057 Clouds 6 1023 52 8000 1 0 18:41 27.02.2021
2058 Clouds 6 1023 52 8000 1 0 18:20 27.02.2021
2059 Clouds 6 1023 52 8000 2 90 17:44 27.02.2021
2060 Clouds 7 1015 49 10000 1.98 168 17:21 27.02.2021
2061 Clouds 7 1023 52 8000 1 0 16:56 27.02.2021
2062 Clouds 7 1023 55 8000 1 0 16:36 27.02.2021
2063 Clear 7 1023 52 8000 1 60 16:18 27.02.2021
2064 Clear 7 1023 48 8000 3.22 164 15:38 27.02.2021
2065 Clear 7 1023 52 8000 2 80 14:50 27.02.2021
2066 Clear 7 1023 52 8000 2 70 14:32 27.02.2021
2067 Clear 7 1023 56 8000 1 0 13:53 27.02.2021
2068 Clear 7 1023 51 8000 1 0 13:33 27.02.2021
2069 Clear 8 1023 42 8000 2 210 12:57 27.02.2021
2070 Clear 8 1022 45 8000 1 140 12:30 27.02.2021
2071 Clear 9 1016 46 10000 1.89 166 11:58 27.02.2021
2072 Clear 9 1015 45 10000 1.89 166 11:40 27.02.2021
2073 Clear 10 1015 44 10000 1.97 171 11:21 27.02.2021
2074 Clear 10 1015 42 10000 1.97 171 10:46 27.02.2021
2075 Clear 12 1014 41 10000 3.35 192 10:27 27.02.2021
2076 Clear 11 1014 37 10000 3.35 192 09:48 27.02.2021
2077 Clear 11 1015 38 10000 3.07 209 09:26 27.02.2021
2078 Clear 11 1015 37 10000 0.45 248 08:41 27.02.2021
2079 Clear 12 1015 33 10000 3.13 206 08:21 27.02.2021
2080 Clear 12 1016 36 10000 0.45 135 07:41 27.02.2021
2081 Clear 9 1018 39 10000 2.45 186 04:46 27.02.2021
2082 Clouds 3 1019 55 10000 0.98 89 00:54 27.02.2021
2083 Clouds 0 1018 58 10000 1.15 123 23:54 26.02.2021
2084 Clouds 1 1018 59 10000 1.45 145 23:27 26.02.2021
2085 Clouds 1 1019 58 10000 1.45 145 22:50 26.02.2021
2086 Clouds 1 1019 58 10000 1.49 145 22:29 26.02.2021
2087 Clouds 1 1018 58 10000 1.49 145 21:43 26.02.2021
2088 Clouds 1 1018 57 10000 1.53 141 21:24 26.02.2021
2089 Clouds 2 1018 56 10000 1.53 141 20:44 26.02.2021
2090 Clouds 2 1018 56 10000 1.6 146 20:21 26.02.2021
2091 Clouds 3 1019 55 10000 1.6 146 19:50 26.02.2021
2092 Clouds 2 1019 57 10000 1.9 159 19:25 26.02.2021
2093 Clouds 3 1020 58 10000 2.25 154 18:42 26.02.2021
2094 Clouds 3 1020 61 10000 1.91 171 18:23 26.02.2021
2095 Clouds 4 1020 62 10000 1.91 171 17:42 26.02.2021
2096 Clouds 4 1020 61 10000 2.35 188 17:24 26.02.2021
2097 Clouds 4 1020 60 10000 2.35 188 16:52 26.02.2021
2098 Clouds 5 1020 58 10000 3.02 191 16:32 26.02.2021
2099 Clouds 5 1020 60 10000 3.02 191 15:57 26.02.2021
2100 Clouds 5 1020 60 10000 3.02 191 15:38 26.02.2021
2101 Clouds 5 1020 59 10000 3.53 183 15:20 26.02.2021
2102 Clouds 6 1020 58 10000 3.53 183 14:45 26.02.2021
2103 Clouds 6 1019 58 10000 3.56 175 14:25 26.02.2021
2104 Clouds 6 1019 57 10000 3.54 176 13:46 26.02.2021
2105 Clear 7 1019 56 10000 2.59 167 13:25 26.02.2021
2106 Clear 7 1019 54 10000 2.59 167 12:40 26.02.2021
2107 Clear 8 1018 52 10000 1.91 165 11:58 26.02.2021
2108 Clear 8 1019 52 10000 1.91 165 11:38 26.02.2021
2109 Clear 9 1018 49 10000 1.83 166 10:54 26.02.2021
2110 Clear 11 1018 44 10000 0.45 135 09:59 26.02.2021
2111 Clear 11 1018 43 10000 2.08 174 09:39 26.02.2021
2112 Clear 11 1018 43 10000 1.94 175 09:21 26.02.2021
2113 Clear 12 1018 39 10000 1.78 181 08:29 26.02.2021
2114 Clear 11 1010 42 10000 1.34 90 07:52 26.02.2021
2115 Clear 11 1011 45 10000 0.45 45 06:43 26.02.2021
2116 Clear 11 1011 45 10000 0.45 45 06:43 26.02.2021
2117 Clear 10 1021 46 10000 0.63 168 05:32 26.02.2021
2118 Clear 7 1022 58 10000 0.64 81 03:49 26.02.2021
2119 Clear 6 1022 72 10000 0.37 356 02:36 26.02.2021
2120 Clear 0 1021 90 10000 0.39 36 00:23 26.02.2021
2121 Clear 0 1021 88 10000 0.73 50 23:29 25.02.2021
2122 Clear 0 1021 88 10000 0.73 50 22:50 25.02.2021
2123 Clear 0 1021 87 10000 0.73 50 22:31 25.02.2021
2124 Clear 0 1021 85 10000 0.19 102 21:45 25.02.2021
2125 Clear 0 1021 85 10000 0.94 205 21:27 25.02.2021
2126 Clear 0 1021 86 10000 0.94 205 20:42 25.02.2021
2127 Clear 0 1021 85 10000 0.94 192 20:23 25.02.2021
2128 Clear 1 1021 84 10000 0.94 192 19:52 25.02.2021
2129 Clear 1 1021 82 10000 0.93 160 19:22 25.02.2021
2130 Clear 1 1021 82 10000 0.93 160 18:58 25.02.2021
2131 Clear 1 1021 81 10000 0.92 147 18:31 25.02.2021
2132 Clear 1 1021 82 10000 0.92 147 17:51 25.02.2021
2133 Clear 1 1021 82 10000 1.02 147 17:29 25.02.2021
2134 Clear 2 1021 79 10000 1.02 147 16:52 25.02.2021
2135 Clear 2 1021 79 10000 2.07 162 16:26 25.02.2021
2136 Clear 2 1021 74 10000 2.07 162 15:36 25.02.2021
2137 Clear 3 1021 72 10000 1.85 151 15:18 25.02.2021
2138 Clear 4 1020 60 10000 0.78 129 14:28 25.02.2021
2139 Clear 5 1020 58 10000 0.78 129 13:56 25.02.2021
2140 Clear 5 1020 56 10000 0.78 129 13:36 25.02.2021
2141 Clear 5 1020 53 10000 0.51 350 13:18 25.02.2021
2142 Clear 6 1019 48 10000 0.87 325 12:23 25.02.2021
2143 Clear 6 1019 48 10000 0.87 325 11:48 25.02.2021
2144 Clear 7 1018 48 10000 0.6 303 11:22 25.02.2021
2145 Clear 8 1018 46 10000 0.6 303 10:47 25.02.2021
2146 Clear 8 1018 44 10000 0.31 189 10:29 25.02.2021
2147 Clear 10 1017 40 10000 0.31 189 09:45 25.02.2021
2148 Clear 10 1018 41 10000 0.48 58 09:19 25.02.2021
2149 Clear 9 1009 37 10000 0.45 90 08:28 25.02.2021
2150 Clear 11 1018 39 10000 0.88 34 07:58 25.02.2021
2151 Clear 10 1018 40 10000 0.88 34 07:37 25.02.2021
2152 Clear 10 1010 38 10000 0.65 24 06:56 25.02.2021
2153 Clear 4 1028 56 8000 2 300 03:23 25.02.2021
2154 Clear 3 1021 66 10000 1.64 33 01:39 25.02.2021
2155 Clouds 0 1020 73 10000 1.4 34 00:42 25.02.2021
2156 Clouds 0 1020 74 10000 1.31 28 23:54 24.02.2021
2157 Clouds -1 1020 75 10000 1.39 30 23:32 24.02.2021
2158 Clouds 0 1020 73 10000 1.39 30 22:46 24.02.2021
2159 Clouds 0 1020 74 10000 1.16 41 22:26 24.02.2021
2160 Clouds 0 1019 73 10000 1.16 41 21:48 24.02.2021
2161 Clouds 0 1019 72 10000 1.06 29 21:24 24.02.2021
2162 Clouds 0 1019 71 10000 1.06 29 20:48 24.02.2021
2163 Clouds 0 1019 71 10000 0.93 64 20:25 24.02.2021
2164 Clouds 0 1019 68 10000 0.93 64 19:40 24.02.2021
2165 Clouds 0 1019 67 10000 1.14 50 19:20 24.02.2021
2166 Clouds 0 1019 67 10000 1.14 50 19:20 24.02.2021
2167 Clouds 0 1019 65 10000 1.14 50 18:50 24.02.2021
2168 Clouds 1 1019 65 10000 1.09 44 18:29 24.02.2021
2169 Clouds 1 1019 63 10000 1.09 44 17:39 24.02.2021
2170 Clouds 1 1019 63 10000 1.33 59 17:21 24.02.2021
2171 Clouds 2 1019 60 10000 1.33 59 16:46 24.02.2021
2172 Clouds 2 1019 57 10000 1.5 67 16:20 24.02.2021
2173 Clouds 2 1018 57 10000 1.5 67 15:49 24.02.2021
2174 Clouds 2 1018 55 10000 1.32 52 15:26 24.02.2021
2175 Clouds 2 1018 53 10000 1.32 52 14:43 24.02.2021
2176 Clouds 3 1018 53 10000 1.14 36 14:25 24.02.2021
2177 Clouds 3 1017 54 10000 1.14 36 13:41 24.02.2021
2178 Clouds 3 1017 54 10000 1.56 24 13:22 24.02.2021
2179 Clouds 3 1017 53 10000 1.67 28 12:46 24.02.2021
2180 Clouds 3 1017 53 10000 1.13 18 12:27 24.02.2021
2181 Clouds 3 1017 53 10000 1.13 18 11:51 24.02.2021
2182 Clouds 3 1017 53 10000 0.28 261 11:24 24.02.2021
2183 Clouds 4 1017 50 10000 0.28 261 10:32 24.02.2021
2184 Clouds 5 1017 48 10000 1.28 203 09:56 24.02.2021
2185 Clouds 6 1017 47 10000 0.5 212 09:22 24.02.2021
2186 Clouds 6 1017 47 10000 0.5 212 08:37 24.02.2021
2187 Clouds 6 1008 42 10000 0.37 191 08:19 24.02.2021
2188 Clouds 5 1017 47 10000 0.31 210 07:21 24.02.2021
2189 Clouds 6 1017 48 10000 0.97 234 06:52 24.02.2021
2190 Clear 1 1028 51 10000 2 360 04:23 24.02.2021
2191 Clouds -2 1022 73 10000 0.97 77 00:43 24.02.2021
2192 Clouds -3 1022 75 10000 1.53 109 23:29 23.02.2021
2193 Clouds -3 1022 75 10000 1.53 109 22:40 23.02.2021
2194 Clouds -3 1022 74 10000 1.85 111 22:20 23.02.2021
2195 Clouds -2 1022 74 10000 1.85 111 21:46 23.02.2021
2196 Clouds -2 1022 74 10000 1.89 105 21:24 23.02.2021
2197 Clouds -2 1022 74 10000 1.89 105 20:49 23.02.2021
2198 Clouds -2 1022 74 10000 1.89 105 20:30 23.02.2021
2199 Clouds -1 1022 73 10000 1.98 101 19:49 23.02.2021
2200 Clouds -1 1022 72 10000 1.97 111 19:29 23.02.2021
2201 Clouds -1 1023 71 10000 1.97 111 18:59 23.02.2021
2202 Clouds -1 1023 70 10000 1.97 111 18:40 23.02.2021
2203 Clouds -1 1023 70 10000 1.87 115 18:20 23.02.2021
2204 Clouds -1 1023 68 10000 1.87 115 17:39 23.02.2021
2205 Clouds -1 1023 67 10000 1.92 134 17:18 23.02.2021
2206 Clouds -1 1023 66 10000 1.92 134 16:43 23.02.2021
2207 Clouds -1 1023 66 10000 2.11 135 16:20 23.02.2021
2208 Clouds 0 1023 65 10000 2.11 135 15:42 23.02.2021
2209 Clouds -1 1023 65 10000 2.78 136 15:23 23.02.2021
2210 Clouds -1 1023 64 10000 2.78 136 14:46 23.02.2021
2211 Clouds 0 1023 62 10000 3.55 136 14:26 23.02.2021
2212 Clouds 0 1023 61 10000 3.55 136 13:55 23.02.2021
2213 Clouds 1 1022 60 10000 3.55 136 13:31 23.02.2021
2214 Clouds 1 1022 58 10000 4.02 138 12:54 23.02.2021
2215 Clouds 1 1022 56 10000 4.67 141 12:22 23.02.2021
2216 Clouds 1 1022 56 10000 4.67 141 11:51 23.02.2021
2217 Clouds 2 1022 55 10000 4.87 145 11:23 23.02.2021
2218 Rain 2 1022 54 10000 4.87 145 10:53 23.02.2021
2219 Clouds 2 1022 53 10000 4.87 145 10:35 23.02.2021
2220 Rain 3 1022 50 10000 4.73 148 09:45 23.02.2021
2221 Clouds 3 1022 49 10000 4.03 147 09:25 23.02.2021
2222 Clouds 3 1022 48 10000 4.03 147 08:57 23.02.2021
2223 Rain 3 1022 46 10000 4.03 147 08:38 23.02.2021
2224 Clouds 4 1022 46 10000 3.51 148 08:19 23.02.2021
2225 Clouds 5 1023 51 10000 2.76 163 05:44 23.02.2021
2226 Clouds 4 1024 52 10000 2.6 156 05:19 23.02.2021
2227 Clouds 1 1026 67 10000 2.91 137 02:36 23.02.2021
2228 Snow 1 1025 61 10000 2.76 107 00:54 23.02.2021
2229 Clouds 1 1025 63 10000 2.4 101 00:18 23.02.2021
2230 Clouds 1 1025 66 10000 3.01 114 23:21 22.02.2021
2231 Clouds 2 1025 65 10000 3.01 114 22:41 22.02.2021
2232 Clouds 2 1025 65 10000 0.45 0 22:21 22.02.2021
2233 Clouds 2 1024 64 10000 2.97 111 21:46 22.02.2021
2234 Clouds 1 1024 65 10000 2.66 121 21:23 22.02.2021
2235 Rain 2 1024 65 10000 2.66 121 20:53 22.02.2021
2236 Clouds 2 1024 64 10000 2.66 121 20:31 22.02.2021
2237 Snow 2 1024 63 10000 2.39 128 19:54 22.02.2021
2238 Clouds 2 1024 62 10000 2.39 128 19:35 22.02.2021
2239 Clouds 2 1024 62 10000 2.84 153 18:58 22.02.2021
2240 Clouds 2 1024 61 10000 2.84 153 18:40 22.02.2021
2241 Clear 2 1024 60 10000 2.91 161 18:20 22.02.2021
2242 Clear 2 1024 63 10000 2.91 161 17:36 22.02.2021
2243 Clear 2 1023 62 10000 2.73 145 17:18 22.02.2021
2244 Clear 2 1023 60 10000 2.73 145 16:42 22.02.2021
2245 Clear 3 1023 57 10000 2.51 159 15:56 22.02.2021
2246 Clear 4 1022 54 10000 2.77 176 15:29 22.02.2021
2247 Clear 6 1021 49 10000 2.77 176 14:48 22.02.2021
2248 Clear 7 1021 46 10000 2.89 168 14:30 22.02.2021
2249 Clear 7 1020 46 10000 2.89 168 13:48 22.02.2021
2250 Clear 8 1027 39 10000 3 140 13:19 22.02.2021
2251 Clear 9 1019 43 10000 2.93 153 12:41 22.02.2021
2252 Clear 9 1019 43 10000 3.12 139 12:20 22.02.2021
2253 Clear 10 1018 41 10000 3.12 139 11:44 22.02.2021
2254 Clear 10 1018 39 10000 3.44 143 11:25 22.02.2021
2255 Clear 11 1017 35 10000 3.44 143 10:47 22.02.2021
2256 Clear 12 1017 33 10000 1.95 155 10:27 22.02.2021
2257 Clear 12 1024 16 10000 2 0 09:45 22.02.2021
2258 Clear 13 1017 25 10000 0.53 223 09:25 22.02.2021
2259 Clear 14 1017 24 10000 0.53 223 08:54 22.02.2021
2260 Clear 13 1008 28 10000 0.45 0 08:31 22.02.2021
2261 Clear 13 1008 27 10000 0.89 90 07:58 22.02.2021
2262 Clear 12 1025 17 10000 2 30 07:26 22.02.2021
2263 Clear 12 1025 16 10000 1 0 06:45 22.02.2021
2264 Clear 10 1026 18 10000 2 0 05:45 22.02.2021
2265 Clear 8 1027 23 10000 5 40 03:29 22.02.2021
2266 Clear 7 1027 24 10000 5 40 02:51 22.02.2021
2267 Clear 5 1025 36 10000 4 20 00:46 22.02.2021
2268 Clear 7 1017 47 10000 4.34 31 00:23 22.02.2021
2269 Clouds 8 1016 45 10000 0.45 315 23:33 21.02.2021
2270 Clouds 8 1015 46 10000 4.53 28 22:53 21.02.2021
2271 Clouds 8 1014 46 10000 4.3 32 22:23 21.02.2021
2272 Clouds 8 1014 44 10000 4.3 32 21:45 21.02.2021
2273 Clouds 8 1013 44 10000 0.45 315 21:27 21.02.2021
2274 Clouds 9 1012 45 10000 4.25 41 20:44 21.02.2021
2275 Clouds 9 1012 46 10000 4.71 53 20:20 21.02.2021
2276 Clouds 9 1011 44 10000 4.71 53 19:53 21.02.2021
2277 Clouds 10 1010 42 10000 4.61 57 19:33 21.02.2021
2278 Clouds 11 1001 36 10000 1.34 0 18:52 21.02.2021
2279 Clear 11 1015 35 10000 2 90 18:26 21.02.2021
2280 Clear 11 1015 35 10000 2 90 18:26 21.02.2021
2281 Clear 16 1013 17 10000 3 40 17:33 21.02.2021
2282 Clear 17 1012 14 10000 7 360 16:59 21.02.2021
2283 Clear 17 1011 16 10000 8 360 16:39 21.02.2021
2284 Clear 16 1011 16 10000 8 360 16:20 21.02.2021
2285 Clear 16 1010 18 10000 2 40 15:23 21.02.2021
2286 Clear 16 1009 17 10000 1 0 14:56 21.02.2021
2287 Clear 16 1009 17 10000 3 10 14:37 21.02.2021
2288 Clear 15 1008 17 10000 3 360 13:49 21.02.2021
2289 Clear 12 1007 22 10000 2 20 13:28 21.02.2021
2290 Clear 17 1006 17 10000 1 0 12:32 21.02.2021
2291 Clear 20 1005 11 10000 2 290 11:59 21.02.2021
2292 Clear 22 1004 10 10000 3 300 11:40 21.02.2021
2293 Clear 24 1004 9 10000 6 290 10:40 21.02.2021
2294 Clear 23 1004 9 10000 6 290 10:21 21.02.2021
2295 Clear 23 1003 7 10000 7 280 09:43 21.02.2021
2296 Clear 24 1003 7 10000 7 280 09:24 21.02.2021
2297 Clear 24 1003 7 10000 7 300 08:34 21.02.2021
2298 Clear 24 1002 7 10000 7 280 07:45 21.02.2021
2299 Clear 24 1002 7 10000 7 280 07:22 21.02.2021
2300 Clear 23 1004 6 10000 5 310 05:59 21.02.2021
2301 Clear 13 1004 39 10000 1 340 02:40 21.02.2021
2302 Clear 9 1002 33 10000 1 0 00:59 21.02.2021
2303 Clear 8 1002 42 10000 4 330 00:21 21.02.2021
2304 Clouds 10 995 37 10000 2.56 338 23:47 20.02.2021
2305 Clouds 10 995 37 10000 2.5 336 22:57 20.02.2021
2306 Clouds 10 994 36 10000 0.45 0 22:32 20.02.2021
2307 Clear 9 1001 42 10000 2 340 21:48 20.02.2021
2308 Clear 9 1001 41 10000 2 360 21:29 20.02.2021
2309 Clear 9 1001 48 10000 2 350 20:57 20.02.2021
2310 Clear 9 1001 45 10000 1 0 20:36 20.02.2021
2311 Clear 9 1001 45 10000 2 350 20:18 20.02.2021
2312 Clear 9 1001 45 10000 1 0 19:40 20.02.2021
2313 Clear 7 1001 48 10000 1 0 18:54 20.02.2021
2314 Clear 8 1001 41 10000 1 0 18:31 20.02.2021
2315 Clear 8 1001 41 10000 1 320 17:47 20.02.2021
2316 Clear 7 1001 44 10000 2 350 17:28 20.02.2021
2317 Clear 8 1001 41 10000 2 310 16:48 20.02.2021
2318 Clear 9 1001 41 10000 2 360 16:23 20.02.2021
2319 Clear 9 1001 38 10000 2 120 15:41 20.02.2021
2320 Clear 10 1001 38 10000 1 0 14:52 20.02.2021
2321 Clear 10 1001 36 10000 1 10 14:25 20.02.2021
2322 Clear 11 1001 29 10000 2 10 13:58 20.02.2021
2323 Clear 12 1001 31 10000 1 0 13:38 20.02.2021
2324 Clear 11 1001 31 10000 1 0 13:19 20.02.2021
2325 Clear 11 1001 31 10000 1 0 12:35 20.02.2021
2326 Clear 11 1001 23 10000 2 110 11:50 20.02.2021
2327 Clear 12 1001 22 10000 2 80 11:31 20.02.2021
2328 Clear 17 1001 14 10000 2 150 10:50 20.02.2021
2329 Clear 19 1001 12 10000 1 0 10:21 20.02.2021
2330 Clear 20 1001 11 10000 2 200 09:46 20.02.2021
2331 Clear 19 1001 11 10000 3 200 08:53 20.02.2021
2332 Clear 19 1001 12 10000 4 180 08:23 20.02.2021
2333 Clear 13 1006 19 10000 1 0 04:56 20.02.2021
2334 Clear 7 1008 31 10000 2 120 02:32 20.02.2021
2335 Clear 6 1008 48 10000 1 0 01:56 20.02.2021
2336 Clear 2 1008 68 10000 2 340 00:59 20.02.2021
2337 Clear 1 1007 68 10000 1 0 00:36 20.02.2021
2338 Clear 4 1007 63 10000 1 0 23:26 19.02.2021
2339 Clear 4 1007 63 10000 1 0 22:45 19.02.2021
2340 Clear 5 1007 68 10000 2 30 22:20 19.02.2021
2341 Clear 4 1007 59 10000 2 140 21:44 19.02.2021
2342 Clear 5 1007 59 10000 2 140 21:23 19.02.2021
2343 Clear 5 1007 54 10000 1 0 20:42 19.02.2021
2344 Clear 5 1007 54 10000 1 0 20:24 19.02.2021
2345 Clear 3 1008 55 10000 0.94 256 19:44 19.02.2021
2346 Clear 5 1008 51 10000 1 0 19:20 19.02.2021
2347 Clear 5 1008 51 10000 1 0 18:50 19.02.2021
2348 Clear 6 1008 48 10000 1 0 18:26 19.02.2021
2349 Clear 10 1001 36 10000 1.62 318 17:36 19.02.2021
2350 Clear 8 1008 33 10000 1 0 16:41 19.02.2021
2351 Clear 8 1008 33 10000 1 0 16:22 19.02.2021
2352 Clear 9 1008 33 10000 1 0 15:54 19.02.2021
2353 Clear 5 1008 30 10000 1 0 15:27 19.02.2021
2354 Clear 10 1008 31 10000 1 0 14:49 19.02.2021
2355 Clear 10 1008 30 10000 2 340 14:29 19.02.2021
2356 Clear 11 1007 22 10000 1 0 13:56 19.02.2021
2357 Clear 10 1008 20 10000 1 0 13:36 19.02.2021
2358 Clear 8 1007 23 10000 1 0 12:53 19.02.2021
2359 Clear 13 1007 17 10000 3 360 12:27 19.02.2021
2360 Clear 14 1000 28 10000 1.95 311 11:57 19.02.2021
2361 Clear 14 1005 14 10000 4 270 11:32 19.02.2021
2362 Clear 15 1005 13 10000 5 240 10:55 19.02.2021
2363 Clear 15 998 23 10000 2.01 300 10:33 19.02.2021
2364 Clear 17 997 20 10000 2.11 259 09:58 19.02.2021
2365 Clear 16 998 20 10000 2.44 229 09:27 19.02.2021
2366 Clear 17 990 19 10000 0.45 45 08:55 19.02.2021
2367 Clear 16 990 20 10000 0.45 315 08:28 19.02.2021
2368 Clear 15 1005 13 10000 4 210 07:54 19.02.2021
2369 Clear 15 1006 17 10000 3 200 07:36 19.02.2021
2370 Clear 14 1007 17 10000 2 180 06:58 19.02.2021
2371 Clear 11 1007 20 10000 1 0 06:29 19.02.2021
2372 Clouds 10 1002 27 10000 1.03 235 04:41 19.02.2021
2373 Clear 2 1011 37 10000 1 0 02:31 19.02.2021
2374 Clouds 0 1005 42 10000 0.84 342 00:59 19.02.2021
2375 Clouds -1 1004 42 10000 0.75 359 00:26 19.02.2021
2376 Clouds -1 1005 42 10000 0.75 359 23:43 18.02.2021
2377 Clouds -1 1005 42 10000 0.4 354 23:25 18.02.2021
2378 Clear -2 1013 68 10000 1 0 22:36 18.02.2021
2379 Clear -2 1013 68 10000 1 0 22:18 18.02.2021
2380 Clear -2 1014 73 10000 2 340 21:28 18.02.2021
2381 Clear -2 1014 63 10000 2 360 20:58 18.02.2021
2382 Clear -2 1015 67 10000 1 350 20:38 18.02.2021
2383 Clear -2 1015 67 10000 1 350 20:19 18.02.2021
2384 Clear 0 1009 39 10000 0.93 10 19:43 18.02.2021
2385 Clear 0 1009 39 10000 0.76 21 19:19 18.02.2021
2386 Clear 0 1010 38 10000 0.76 21 18:47 18.02.2021
2387 Clear 0 1010 38 10000 1.3 16 18:26 18.02.2021
2388 Clear 0 1011 38 10000 1.3 16 17:45 18.02.2021
2389 Clear 0 1011 37 10000 1.27 19 17:23 18.02.2021
2390 Clear 0 1019 54 10000 2 350 16:46 18.02.2021
2391 Clear 0 1019 54 10000 2 350 16:28 18.02.2021
2392 Clear 0 1020 58 10000 1 40 15:42 18.02.2021
2393 Clear 1 1020 58 10000 1 40 15:23 18.02.2021
2394 Clear 1 1020 46 10000 1 60 14:52 18.02.2021
2395 Clear 1 1020 46 10000 1 60 14:31 18.02.2021
2396 Clear 0 1020 43 10000 1 60 13:50 18.02.2021
2397 Clear 0 1020 43 10000 1 60 13:50 18.02.2021
2398 Clear 2 1021 46 10000 1 60 13:21 18.02.2021
2399 Clear 3 1021 40 10000 1 60 12:54 18.02.2021
2400 Clear 2 1021 34 10000 1 60 12:31 18.02.2021
2401 Clear 3 1021 29 10000 1 0 11:47 18.02.2021
2402 Clear 4 1021 22 10000 1 0 11:28 18.02.2021
2403 Clear 5 1021 19 10000 2 210 10:58 18.02.2021
2404 Clear 6 1022 19 10000 2 240 10:37 18.02.2021
2405 Clear 7 1022 19 10000 2 240 10:18 18.02.2021
2406 Clear 6 1022 16 10000 3 220 09:28 18.02.2021
2407 Clear 6 1023 17 10000 3 210 08:49 18.02.2021
2408 Clear 6 1023 16 10000 1 0 08:31 18.02.2021
2409 Clear 6 1024 16 10000 1 0 07:48 18.02.2021
2410 Clear 4 1024 15 10000 2 230 07:23 18.02.2021
2411 Clear 3 1027 15 10000 1 0 05:42 18.02.2021
2412 Clear 3 1027 15 10000 1 0 05:42 18.02.2021
2413 Clear -4 1023 30 10000 1.48 12 00:29 18.02.2021
2414 Clear -4 1023 31 10000 1.48 12 23:45 17.02.2021
2415 Clear -4 1023 31 10000 1.53 19 23:18 17.02.2021
2416 Clear -4 1023 30 10000 1.53 19 22:39 17.02.2021
2417 Clear -4 1023 29 10000 1.48 27 22:21 17.02.2021
2418 Clear -4 1024 28 10000 1.48 27 21:44 17.02.2021
2419 Clear -4 1024 27 10000 1.54 33 21:20 17.02.2021
2420 Clear -3 1024 26 10000 1.54 33 20:42 17.02.2021
2421 Clear -3 1024 25 10000 1.47 41 20:22 17.02.2021
2422 Clear -3 1024 24 10000 1.47 41 19:38 17.02.2021
2423 Clear -3 1024 23 10000 1.17 47 18:59 17.02.2021
2424 Clear -3 1024 23 10000 1.17 47 18:59 17.02.2021
2425 Clear -3 1024 23 10000 1.17 47 18:40 17.02.2021
2426 Clear -2 1024 24 10000 1.15 48 17:47 17.02.2021
2427 Clear -2 1024 22 10000 1.12 43 17:23 17.02.2021
2428 Clear -2 1024 25 10000 1.12 43 16:54 17.02.2021
2429 Clear -2 1024 25 10000 1.12 43 16:54 17.02.2021
2430 Clear -2 1024 23 10000 1.12 43 16:36 17.02.2021
2431 Clear -2 1024 22 10000 1.47 40 16:18 17.02.2021
2432 Clear -2 1024 23 10000 1.47 40 15:42 17.02.2021
2433 Clear -2 1024 22 10000 1.63 46 15:22 17.02.2021
2434 Clear -1 1024 22 10000 1.63 46 14:45 17.02.2021
2435 Clear -1 1024 22 10000 1.63 46 14:44 17.02.2021
2436 Clear -2 1024 21 10000 1.31 49 14:26 17.02.2021
2437 Clear -1 1024 17 10000 1.31 49 13:45 17.02.2021
2438 Clear -1 1024 18 10000 0.29 115 12:59 17.02.2021
2439 Clear 0 1023 18 10000 0.32 256 12:26 17.02.2021
2440 Clear 0 1023 18 10000 0.32 256 12:26 17.02.2021
2441 Clear 0 1023 17 10000 0.32 256 11:59 17.02.2021
2442 Clear 1 1030 17 10000 2 40 11:36 17.02.2021
2443 Clear 0 1030 17 10000 2 40 11:18 17.02.2021
2444 Clear 2 1030 11 10000 2 50 10:43 17.02.2021
2445 Clear 3 1030 11 10000 2 70 10:21 17.02.2021
2446 Clear 3 1030 10 10000 2 50 09:41 17.02.2021
2447 Clear 2 1030 10 10000 2 50 09:19 17.02.2021
2448 Clear 3 1030 11 10000 3 60 08:42 17.02.2021
2449 Clear 3 1030 11 10000 3 60 08:42 17.02.2021
2450 Clear 3 1030 11 10000 3 60 08:21 17.02.2021
2451 Clear 2 1031 15 10000 4 40 07:26 17.02.2021
2452 Clear -1 1033 17 10000 4 350 04:54 17.02.2021
2453 Clear -5 1034 25 10000 5 10 02:33 17.02.2021
2454 Clear -6 1034 27 10000 6 10 01:55 17.02.2021
2455 Clear -7 1026 34 10000 3.79 10 00:33 17.02.2021
2456 Clear -7 1026 35 10000 3.71 8 23:54 16.02.2021
2457 Clear -7 1026 36 10000 3.71 8 23:34 16.02.2021
2458 Clear -7 1025 34 10000 3.99 7 22:43 16.02.2021
2459 Clear -7 1025 34 10000 4.07 5 22:24 16.02.2021
2460 Clear -7 1025 34 10000 4.07 5 21:42 16.02.2021
2461 Clear -7 1025 34 10000 3.9 4 21:22 16.02.2021
2462 Clear -7 1025 33 10000 3.9 4 20:59 16.02.2021
2463 Clear -7 1025 32 10000 3.9 4 20:41 16.02.2021
2464 Clear -7 1025 31 10000 0.89 315 20:20 16.02.2021
2465 Clear -6 1025 31 10000 4.15 2 19:42 16.02.2021
2466 Clear -6 1025 30 10000 0.45 135 19:22 16.02.2021
2467 Clear -6 1024 28 10000 4.74 348 18:40 16.02.2021
2468 Clear -6 1024 28 10000 0.45 315 18:22 16.02.2021
2469 Clear -5 1024 28 10000 4.98 349 17:50 16.02.2021
2470 Clear -5 1024 28 10000 5.04 349 17:26 16.02.2021
2471 Clear -4 1024 27 10000 5.04 349 16:51 16.02.2021
2472 Clear -4 1024 28 10000 5.49 353 16:29 16.02.2021
2473 Clear -4 1023 29 10000 5.49 353 15:47 16.02.2021
2474 Clear -4 1023 29 10000 5.98 353 15:26 16.02.2021
2475 Clear -3 1023 28 10000 0.45 0 14:51 16.02.2021
2476 Clear -3 1023 28 10000 5.98 353 14:32 16.02.2021
2477 Clear -3 1023 27 10000 0.45 0 13:58 16.02.2021
2478 Clear -3 1029 22 10000 7 360 13:35 16.02.2021
2479 Clear -2 1022 26 10000 6.37 350 12:47 16.02.2021
2480 Clear -2 1022 26 10000 6.79 349 12:26 16.02.2021
2481 Clear -2 1022 25 10000 6.79 349 11:50 16.02.2021
2482 Clear -2 1028 18 10000 11 350 11:24 16.02.2021
2483 Clear -1 1021 23 10000 0.89 315 10:58 16.02.2021
2484 Clear 0 1021 22 10000 0.45 293 10:39 16.02.2021
2485 Clear 0 1020 20 10000 0.89 315 10:20 16.02.2021
2486 Clear 1 1020 20 10000 0.89 338 09:48 16.02.2021
2487 Clear 0 1020 20 10000 1.34 0 09:26 16.02.2021
2488 Clear 1 1026 12 10000 10 340 08:45 16.02.2021
2489 Clear 1 1026 12 10000 10 340 08:45 16.02.2021
2490 Clear 1 1026 11 10000 10 340 08:22 16.02.2021
2491 Clear 1 1026 12 10000 9 330 07:32 16.02.2021
2492 Clear 0 1026 12 10000 11 340 06:24 16.02.2021
2493 Clear -3 1025 16 10000 11 340 01:52 16.02.2021
2494 Clear -1 1016 32 10000 1.34 315 23:47 15.02.2021
2495 Clear 0 1016 33 10000 0.89 90 23:24 15.02.2021
2496 Clear 0 1015 31 10000 1.79 315 22:46 15.02.2021
2497 Clear 0 1015 31 10000 0.89 0 22:23 15.02.2021
2498 Clear -1 1019 63 10000 1 320 21:42 15.02.2021
2499 Clear 0 1019 63 10000 1 320 21:23 15.02.2021
2500 Clear 0 1019 74 10000 1 0 20:53 15.02.2021
2501 Clear 0 1019 80 10000 1 0 20:34 15.02.2021
2502 Clear 1 1019 74 10000 3.35 347 19:48 15.02.2021
2503 Clear 0 1019 74 10000 2 30 19:24 15.02.2021
2504 Clear 0 1019 74 10000 2 350 18:49 15.02.2021
2505 Clear 0 1018 74 10000 1 0 18:26 15.02.2021
2506 Clouds 1 1012 67 10000 3.48 12 17:45 15.02.2021
2507 Clouds 1 1012 71 10000 4.41 3 17:27 15.02.2021
2508 Clouds 2 1012 71 10000 4.41 3 16:57 15.02.2021
2509 Clouds 2 1012 79 10000 4.41 3 16:37 15.02.2021
2510 Clouds 3 1011 82 10000 5.67 8 16:18 15.02.2021
2511 Clouds 3 1011 79 10000 5.67 8 15:41 15.02.2021
2512 Clouds 3 1011 72 10000 5.02 1 15:18 15.02.2021
2513 Clouds 3 1011 59 10000 5.02 1 14:43 15.02.2021
2514 Clouds 4 1011 41 10000 2.54 336 14:20 15.02.2021
2515 Clouds 4 1011 35 10000 2.54 336 13:48 15.02.2021
2516 Clear 4 1016 32 10000 2 50 13:20 15.02.2021
2517 Clear 4 1016 32 10000 2 50 12:45 15.02.2021
2518 Clear 4 1015 32 10000 1 0 12:22 15.02.2021
2519 Clear 4 1015 30 10000 2 140 11:50 15.02.2021
2520 Clear 5 1015 22 10000 2 150 11:23 15.02.2021
2521 Clouds 6 1008 32 10000 6.06 222 10:50 15.02.2021
2522 Clear 6 1008 30 10000 7.31 213 10:28 15.02.2021
2523 Clear 6 1007 28 10000 0.45 248 09:57 15.02.2021
2524 Clear 6 1008 27 10000 7.31 213 09:39 15.02.2021
2525 Clear 6 1015 19 10000 6 190 09:21 15.02.2021
2526 Clear 7 1016 16 10000 5 200 08:20 15.02.2021
2527 Clear 6 1010 23 10000 5.32 216 06:59 15.02.2021
2528 Clear 5 1011 24 10000 0.45 90 06:40 15.02.2021
2529 Clear 1 1024 29 10000 1 0 02:47 15.02.2021
2530 Clear 0 1025 33 10000 2 110 01:55 15.02.2021
2531 Clear -3 1019 42 10000 0.62 14 23:59 14.02.2021
2532 Clear -3 1019 40 10000 1.76 343 23:23 14.02.2021
2533 Clear -3 1019 40 10000 1.76 343 22:41 14.02.2021
2534 Clear -3 1019 39 10000 2.84 337 22:22 14.02.2021
2535 Clear -3 1020 37 10000 2.84 337 21:50 14.02.2021
2536 Clear -2 1020 36 10000 3.65 336 21:29 14.02.2021
2537 Clear -2 1020 35 10000 3.65 336 20:52 14.02.2021
2538 Clear -2 1020 33 10000 0.89 315 20:29 14.02.2021
2539 Clear -2 1027 26 10000 9 330 19:49 14.02.2021
2540 Clouds -1 1020 34 10000 1.34 45 18:58 14.02.2021
2541 Clear 0 1020 34 10000 0.89 315 18:37 14.02.2021
2542 Clear 0 1020 39 10000 4.9 342 17:57 14.02.2021
2543 Clear 0 1020 40 10000 0.89 0 17:39 14.02.2021
2544 Clear 1 1019 40 10000 0.89 338 16:55 14.02.2021
2545 Clear 1 1019 41 10000 6.07 346 16:33 14.02.2021
2546 Clear 1 1018 41 10000 0.89 45 15:53 14.02.2021
2547 Clear 2 1018 42 10000 6.11 346 15:35 14.02.2021
2548 Clear 2 1018 40 10000 0.45 315 14:49 14.02.2021
2549 Clear 3 1017 39 10000 5.27 348 14:27 14.02.2021
2550 Clear 3 1017 40 10000 0.89 315 13:53 14.02.2021
2551 Clear 3 1016 46 10000 5.27 348 13:30 14.02.2021
2552 Clouds 3 1015 76 10000 0.45 315 12:40 14.02.2021
2553 Clouds 3 1015 93 10000 3.57 37 12:19 14.02.2021
2554 Clouds 3 1014 93 10000 3.57 37 11:50 14.02.2021
2555 Clouds 3 1014 93 10000 3.58 37 11:50 14.02.2021
2556 Clouds 3 1013 93 10000 3.85 59 11:21 14.02.2021
2557 Clouds 4 1012 92 10000 3.85 59 10:39 14.02.2021
2558 Clouds 4 1012 90 10000 3.12 59 09:56 14.02.2021
2559 Clouds 4 1012 90 10000 3.12 59 09:38 14.02.2021
2560 Clouds 4 1011 91 10000 1.87 62 09:19 14.02.2021
2561 Clouds 4 1011 91 10000 1.87 62 08:35 14.02.2021
2562 Clouds 4 1011 92 10000 1.09 76 07:55 14.02.2021
2563 Clouds 4 1011 95 10000 1.86 133 06:49 14.02.2021
2564 Clouds 4 1011 96 10000 2.26 131 05:37 14.02.2021
2565 Clouds 4 1012 98 10000 2.27 126 03:23 14.02.2021
2566 Clouds 4 1012 98 10000 2.38 125 01:54 14.02.2021
2567 Clouds 5 1012 87 10000 2.9 124 00:47 14.02.2021
2568 Clouds 5 1011 86 10000 3.34 122 00:18 14.02.2021
2569 Clouds 5 1011 87 10000 3.34 122 23:38 13.02.2021
2570 Clouds 5 1011 88 10000 3.86 116 23:20 13.02.2021
2571 Clouds 5 1011 88 10000 3.86 116 22:34 13.02.2021
2572 Clouds 5 1011 92 10000 3.03 101 21:59 13.02.2021
2573 Clouds 6 1011 94 10000 3.03 101 21:40 13.02.2021
2574 Clouds 6 1011 92 10000 1.25 42 20:52 13.02.2021
2575 Clouds 6 1011 91 10000 1.53 17 20:28 13.02.2021
2576 Clouds 6 1011 91 10000 1.53 17 20:28 13.02.2021
2577 Clouds 7 1011 87 10000 1.53 17 19:49 13.02.2021
2578 Clouds 7 1011 85 10000 1.69 6 19:25 13.02.2021
2579 Clouds 7 1011 87 10000 1.69 6 18:52 13.02.2021
2580 Clouds 7 1011 87 10000 1.69 6 18:33 13.02.2021
2581 Clouds 7 1012 87 10000 1.47 3 17:45 13.02.2021
2582 Clouds 7 1012 87 10000 1.39 10 17:26 13.02.2021
2583 Clouds 6 1012 88 10000 1.39 10 16:59 13.02.2021
2584 Clouds 6 1012 88 10000 1.39 10 16:41 13.02.2021
2585 Clouds 6 1012 88 10000 1.41 16 15:57 13.02.2021
2586 Clouds 6 1012 89 10000 1.57 4 15:27 13.02.2021
2587 Clouds 6 1013 89 10000 1.57 4 14:41 13.02.2021
2588 Mist 5 1019 93 2500 1 60 14:19 13.02.2021
2589 Mist 6 1019 87 2500 1.7 355 13:40 13.02.2021
2590 Mist 6 1019 87 2500 1.47 344 13:22 13.02.2021
2591 Mist 6 1019 87 2500 1 100 12:37 13.02.2021
2592 Mist 7 1019 87 2500 1 50 12:18 13.02.2021
2593 Mist 7 1019 81 2200 1 0 11:40 13.02.2021
2594 Clouds 7 1012 80 10000 1.02 325 11:18 13.02.2021
2595 Haze 8 1019 70 2000 2 160 10:43 13.02.2021
2596 Clouds 8 1012 77 10000 0.32 326 10:23 13.02.2021
2597 Clouds 9 1012 75 10000 0.32 326 09:48 13.02.2021
2598 Clouds 9 1012 75 10000 0.39 348 09:28 13.02.2021
2599 Clouds 10 1012 74 10000 0.39 348 08:50 13.02.2021
2600 Clouds 10 1012 72 10000 0.64 21 08:26 13.02.2021
2601 Clouds 10 1013 73 10000 0.64 21 07:43 13.02.2021
2602 Clouds 10 1013 72 10000 0.76 51 06:25 13.02.2021
2603 Clouds 10 1014 73 10000 1.06 47 05:18 13.02.2021
2604 Clouds 6 1007 81 10000 0.45 225 02:44 13.02.2021
2605 Clouds 5 1016 96 10000 1.05 59 01:25 13.02.2021
2606 Clouds 5 1016 95 10000 1.37 47 00:19 13.02.2021
2607 Clouds 5 1015 93 10000 1.37 47 23:45 12.02.2021
2608 Clouds 5 1015 92 10000 1.59 46 23:19 12.02.2021
2609 Clouds 5 1015 90 10000 1.59 46 22:32 12.02.2021
2610 Clouds 5 1015 90 10000 1.12 72 21:59 12.02.2021
2611 Clouds 5 1015 88 10000 1.12 72 21:40 12.02.2021
2612 Clouds 5 1015 88 10000 1.37 108 21:21 12.02.2021
2613 Clouds 5 1015 88 10000 1.37 108 20:41 12.02.2021
2614 Clouds 5 1015 88 10000 1.37 108 20:41 12.02.2021
2615 Clouds 6 1015 87 10000 1.15 105 20:23 12.02.2021
2616 Clouds 6 1015 84 10000 1.15 105 19:54 12.02.2021
2617 Clouds 6 1016 81 10000 1.45 85 19:29 12.02.2021
2618 Clouds 7 1015 73 10000 1.76 85 18:38 12.02.2021
2619 Clouds 8 1015 72 10000 1.46 67 18:18 12.02.2021
2620 Clouds 8 1015 69 10000 1.46 67 17:38 12.02.2021
2621 Clouds 8 1015 66 10000 1.09 46 16:54 12.02.2021
2622 Clouds 9 1015 63 10000 1.19 26 16:18 12.02.2021
2623 Clouds 9 1015 62 10000 1.19 26 15:43 12.02.2021
2624 Clouds 9 1015 60 10000 1.34 6 15:20 12.02.2021
2625 Clouds 10 1014 58 10000 1.34 6 14:37 12.02.2021
2626 Clouds 10 1014 55 10000 1.15 350 13:51 12.02.2021
2627 Clouds 10 1014 53 10000 1.23 350 13:32 12.02.2021
2628 Haze 9 1021 60 4500 1 140 12:54 12.02.2021
2629 Haze 9 1021 56 4000 1 150 12:36 12.02.2021
2630 Clouds 11 1013 46 10000 1.1 355 11:48 12.02.2021
2631 Clouds 12 1013 45 10000 1.2 355 11:22 12.02.2021
2632 Clouds 12 1013 44 10000 1.2 355 10:50 12.02.2021
2633 Clouds 12 1012 45 10000 1.2 355 10:31 12.02.2021
2634 Clouds 14 1012 43 10000 0.84 341 09:42 12.02.2021
2635 Clouds 14 1012 42 10000 0.77 39 09:23 12.02.2021
2636 Clouds 14 1012 40 10000 0.77 39 08:46 12.02.2021
2637 Clouds 15 1012 38 10000 1.02 51 08:25 12.02.2021
2638 Haze 15 1019 29 4500 2 170 07:52 12.02.2021
2639 Haze 15 1019 26 4500 1 0 07:27 12.02.2021
2640 Haze 14 1019 33 4500 2 0 06:53 12.02.2021
2641 Clouds 13 1013 36 10000 1.79 26 05:38 12.02.2021
2642 Clear 9 1014 50 10000 2.55 24 03:46 12.02.2021
2643 Clear 4 1013 74 10000 2.53 18 00:34 12.02.2021
2644 Clear 4 1013 73 10000 2.41 16 23:38 11.02.2021
2645 Clear 5 1012 71 10000 2.21 17 23:18 11.02.2021
2646 Clear 5 1012 66 10000 2.21 17 22:42 11.02.2021
2647 Clear 5 1012 66 10000 2.11 13 22:23 11.02.2021
2648 Clear 5 1011 62 10000 2.11 13 21:43 11.02.2021
2649 Clear 5 1011 63 10000 2.14 5 21:25 11.02.2021
2650 Clear 5 1011 65 10000 2.14 5 20:57 11.02.2021
2651 Clear 5 1011 64 10000 2.14 5 20:39 11.02.2021
2652 Clear 5 1011 63 10000 2.2 4 20:19 11.02.2021
2653 Clear 6 1011 63 10000 2.2 4 19:46 11.02.2021
2654 Clouds 6 1011 61 10000 2.31 3 19:26 11.02.2021
2655 Clouds 5 1011 59 10000 2.31 3 18:42 11.02.2021
2656 Clouds 6 1011 60 10000 2.09 3 18:20 11.02.2021
2657 Clouds 6 1011 59 10000 2.09 3 17:47 11.02.2021
2658 Clouds 6 1011 59 10000 1.99 5 17:21 11.02.2021
2659 Clouds 6 1010 58 10000 1.99 5 16:45 11.02.2021
2660 Clouds 7 1010 57 10000 1.87 4 16:26 11.02.2021
2661 Clouds 7 1010 56 10000 1.87 4 15:45 11.02.2021
2662 Clouds 7 1010 55 10000 1.78 8 15:26 11.02.2021
2663 Clouds 8 1010 55 10000 1.78 8 14:55 11.02.2021
2664 Clouds 8 1010 55 10000 1.78 8 14:31 11.02.2021
2665 Clouds 8 1010 53 10000 1.91 358 13:43 11.02.2021
2666 Clouds 8 1010 54 10000 1.67 351 13:20 11.02.2021
2667 Clouds 8 1010 54 10000 1.67 351 12:56 11.02.2021
2668 Clouds 9 1009 54 10000 1.67 351 12:35 11.02.2021
2669 Clouds 9 1009 53 10000 1.5 351 11:48 11.02.2021
2670 Clouds 9 1009 54 10000 1.67 351 11:28 11.02.2021
2671 Clouds 9 1009 54 10000 1.67 351 10:55 11.02.2021
2672 Clouds 9 1009 54 10000 1.67 351 10:37 11.02.2021
2673 Clouds 10 1009 53 10000 1.69 345 10:19 11.02.2021
2674 Clouds 10 1009 53 10000 0.45 0 09:38 11.02.2021
2675 Clouds 11 1009 51 10000 0.89 0 09:18 11.02.2021
2676 Clouds 11 1008 49 10000 2.16 329 08:44 11.02.2021
2677 Clouds 11 1009 48 10000 1.7 313 07:52 11.02.2021
2678 Clouds 11 1009 46 10000 1.24 289 06:44 11.02.2021
2679 Clear 10 1010 47 10000 0.39 280 06:20 11.02.2021
2680 Clear 6 1013 51 10000 0.45 0 03:45 11.02.2021
2681 Haze 2 1021 60 3700 1 360 02:23 11.02.2021
2682 Clear 1 1014 61 10000 1.17 43 00:23 11.02.2021
2683 Clear 1 1013 59 10000 1.17 43 23:52 10.02.2021
2684 Clear 1 1013 58 10000 1.27 42 23:20 10.02.2021
2685 Clear 2 1013 54 10000 1.27 42 22:43 10.02.2021
2686 Clear 2 1013 53 10000 1.2 37 22:24 10.02.2021
2687 Clear 2 1013 52 10000 1.2 37 21:40 10.02.2021
2688 Clear 2 1013 52 10000 0.77 25 21:21 10.02.2021
2689 Clear 3 1013 50 10000 0.77 25 20:52 10.02.2021
2690 Clear 4 1014 51 10000 0.34 311 20:29 10.02.2021
2691 Clear 4 1014 51 10000 0.34 311 19:50 10.02.2021
2692 Clear 4 1014 51 10000 0.45 206 19:29 10.02.2021
2693 Clear 5 1014 49 10000 0.23 113 18:49 10.02.2021
2694 Clear 5 1014 49 10000 0.57 138 18:29 10.02.2021
2695 Clear 5 1014 47 10000 0.57 138 17:59 10.02.2021
2696 Clear 4 1021 59 10000 2 60 17:40 10.02.2021
2697 Clear 4 1021 59 10000 2 60 17:20 10.02.2021
2698 Clear 6 1015 44 10000 0.78 140 16:46 10.02.2021
2699 Clear 7 1015 41 10000 0.92 150 16:25 10.02.2021
2700 Clear 7 1015 38 10000 1.25 164 15:25 10.02.2021
2701 Clear 7 1022 44 10000 1 0 14:58 10.02.2021
2702 Clear 7 1022 44 10000 1 150 14:39 10.02.2021
2703 Clear 8 1015 37 10000 1.25 171 13:55 10.02.2021
2704 Clear 6 1021 38 10000 2 160 13:31 10.02.2021
2705 Clear 6 1021 38 10000 2 160 13:31 10.02.2021
2706 Clear 9 1014 37 10000 1.06 179 12:55 10.02.2021
2707 Clear 9 1014 36 10000 1.06 179 12:37 10.02.2021
2708 Clear 10 1014 36 10000 0.8 182 12:18 10.02.2021
2709 Clear 10 1020 22 10000 3 170 11:41 10.02.2021
2710 Clear 11 1013 32 10000 0.52 191 11:22 10.02.2021
2711 Clear 14 1020 16 10000 3 200 10:37 10.02.2021
2712 Clear 15 1020 13 10000 3 180 10:18 10.02.2021
2713 Clear 15 1020 14 10000 3 0 09:37 10.02.2021
2714 Clear 15 1020 14 10000 3 0 09:18 10.02.2021
2715 Clear 16 1020 14 10000 1 0 08:42 10.02.2021
2716 Clear 14 1021 15 10000 1 0 07:52 10.02.2021
2717 Clear 13 1021 18 10000 2 240 06:52 10.02.2021
2718 Clear 6 1016 37 10000 1.12 3 02:45 10.02.2021
2719 Clear 1 1015 50 10000 1.76 354 00:31 10.02.2021
2720 Clear 1 1015 51 10000 1.6 352 23:35 09.02.2021
2721 Clear 1 1014 50 10000 1.74 358 22:54 09.02.2021
2722 Clear 1 1015 49 10000 1.64 6 22:24 09.02.2021
2723 Clear 1 1015 50 10000 1.64 6 21:52 09.02.2021
2724 Clear 1 1015 50 10000 1.64 6 21:33 09.02.2021
2725 Clear 1 1015 50 10000 1.59 9 20:50 09.02.2021
2726 Clear 0 1021 68 10000 1.57 9 20:27 09.02.2021
2727 Clear 0 1022 73 10000 1 0 19:59 09.02.2021
2728 Clear 0 1022 73 10000 1 10 19:38 09.02.2021
2729 Clear 0 1022 68 10000 3 350 18:58 09.02.2021
2730 Clear 0 1022 68 10000 3 350 18:58 09.02.2021
2731 Clear 0 1022 68 10000 3 350 18:58 09.02.2021
2732 Clear 1 1022 73 10000 1 10 18:37 09.02.2021
2733 Clear 1 1022 80 10000 1 0 17:57 09.02.2021
2734 Clear 1 1022 68 10000 1 0 17:39 09.02.2021
2735 Clear 1 1022 68 10000 1 0 17:20 09.02.2021
2736 Clear 2 1022 68 10000 0.51 339 16:42 09.02.2021
2737 Clear 2 1022 68 10000 0.41 344 16:18 09.02.2021
2738 Clear 2 1022 68 10000 0.41 344 15:50 09.02.2021
2739 Clear 3 1022 59 10000 1 0 15:25 09.02.2021
2740 Clear 3 1022 64 10000 1 0 14:54 09.02.2021
2741 Clear 3 1022 58 10000 1 0 14:28 09.02.2021
2742 Clear 4 1022 59 10000 0.7 350 13:52 09.02.2021
2743 Clear 5 1022 55 10000 1 0 13:25 09.02.2021
2744 Clear 4 1021 54 10000 1 0 12:54 09.02.2021
2745 Clear 5 1021 47 10000 1 80 12:36 09.02.2021
2746 Clear 6 1014 37 10000 1 337 11:57 09.02.2021
2747 Clear 6 1014 36 10000 1 337 11:38 09.02.2021
2748 Clear 7 1014 36 10000 0.79 295 11:20 09.02.2021
2749 Clear 9 1014 35 10000 0.79 295 10:49 09.02.2021
2750 Clear 9 1013 33 10000 0.88 258 10:18 09.02.2021
2751 Clear 9 1013 32 10000 0.88 258 09:43 09.02.2021
2752 Clear 10 1013 31 10000 0.98 240 09:24 09.02.2021
2753 Clear 10 1021 23 10000 2 200 08:47 09.02.2021
2754 Clear 9 1021 23 10000 1 0 08:26 09.02.2021
2755 Clear 9 1023 25 10000 1 0 06:49 09.02.2021
2756 Clear 6 1025 30 10000 2 260 04:52 09.02.2021
2757 Clear 3 1025 38 10000 2 310 03:38 09.02.2021
2758 Clear -1 1019 51 10000 1.1 26 00:34 09.02.2021
2759 Clear -1 1019 51 10000 1.03 11 23:57 08.02.2021
2760 Clear -1 1019 50 10000 1.26 10 23:21 08.02.2021
2761 Clear -1 1019 50 10000 1.26 10 22:44 08.02.2021
2762 Clear 0 1019 49 10000 1.1 14 22:25 08.02.2021
2763 Clear -2 1026 79 10000 1.1 14 21:57 08.02.2021
2764 Clear -1 1026 73 10000 1.1 14 21:34 08.02.2021
2765 Clear -1 1026 79 10000 1 360 20:59 08.02.2021
2766 Clear 0 1019 48 10000 0.78 23 20:40 08.02.2021
2767 Clear 1 1019 46 10000 0.51 14 20:21 08.02.2021
2768 Clear 0 1020 45 10000 0.51 14 19:44 08.02.2021
2769 Clouds 0 1020 44 10000 0.81 354 19:25 08.02.2021
2770 Clouds 1 1020 44 10000 0.81 354 18:49 08.02.2021
2771 Clouds 1 1021 45 10000 0.77 339 18:24 08.02.2021
2772 Clouds 1 1021 43 10000 0.77 339 17:47 08.02.2021
2773 Clouds 2 1021 42 10000 0.33 333 17:26 08.02.2021
2774 Clouds 2 1021 43 10000 0.33 333 16:47 08.02.2021
2775 Clouds 2 1022 43 10000 0.27 343 16:23 08.02.2021
2776 Clouds 3 1022 45 10000 0.27 343 15:48 08.02.2021
2777 Clouds 3 1022 43 10000 0.33 333 15:21 08.02.2021
2778 Clouds 3 1022 41 10000 0.33 333 14:58 08.02.2021
2779 Clouds 3 1022 39 10000 0.33 333 14:39 08.02.2021
2780 Clouds 4 1022 38 10000 0.49 340 14:20 08.02.2021
2781 Clouds 4 1022 36 10000 0.49 340 13:41 08.02.2021
2782 Clouds 4 1022 36 10000 0.49 7 13:22 08.02.2021
2783 Clouds 5 1022 37 10000 0.49 7 12:37 08.02.2021
2784 Clouds 5 1022 36 10000 0.27 318 11:58 08.02.2021
2785 Clouds 5 1022 36 10000 0.88 270 11:26 08.02.2021
2786 Clouds 6 1022 34 10000 0.88 270 10:46 08.02.2021
2787 Clouds 7 1022 34 10000 1.37 240 10:24 08.02.2021
2788 Clouds 7 1022 33 10000 1.37 240 09:55 08.02.2021
2789 Clouds 8 1022 33 10000 1.37 240 09:36 08.02.2021
2790 Clouds 8 1022 30 10000 1.93 219 08:52 08.02.2021
2791 Clouds 8 1014 31 10000 0.45 90 08:24 08.02.2021
2792 Clouds 7 1015 32 10000 1.34 90 07:38 08.02.2021
2793 Clear 6 1032 17 10000 2 290 06:31 08.02.2021
2794 Clear 2 1034 24 10000 2 240 04:54 08.02.2021
2795 Clear 0 1034 50 10000 1 0 02:26 08.02.2021
2796 Clear -2 1026 39 10000 1.27 52 00:24 08.02.2021
2797 Clear -2 1025 38 10000 1.27 52 23:53 07.02.2021
2798 Clear -2 1025 38 10000 1.2 43 23:28 07.02.2021
2799 Clear -2 1025 37 10000 1.2 43 22:56 07.02.2021
2800 Clear -2 1025 37 10000 1.2 43 22:37 07.02.2021
2801 Clear -3 1032 57 10000 1 0 22:19 07.02.2021
2802 Clear -1 1025 35 10000 1.29 33 21:49 07.02.2021
2803 Clear -1 1025 33 10000 0.39 3 21:22 07.02.2021
2804 Clear -1 1025 32 10000 0.39 3 20:49 07.02.2021
2805 Clear -1 1025 31 10000 0.54 186 20:27 07.02.2021
2806 Clear -1 1025 28 10000 0.54 186 19:45 07.02.2021
2807 Clear 0 1025 28 10000 0.98 176 19:27 07.02.2021
2808 Clear 0 1025 27 10000 0.75 168 18:44 07.02.2021
2809 Clear 0 1025 27 10000 0.96 175 18:26 07.02.2021
2810 Clear 0 1026 27 10000 0.96 175 17:45 07.02.2021
2811 Clear 0 1026 26 10000 1.03 179 17:23 07.02.2021
2812 Clear 0 1026 29 10000 1.03 179 16:59 07.02.2021
2813 Clear 0 1026 28 10000 1.03 179 16:41 07.02.2021
2814 Clear 1 1026 27 10000 1.18 174 16:20 07.02.2021
2815 Clear 1 1026 25 10000 1.18 174 15:44 07.02.2021
2816 Clear 1 1026 24 10000 1.23 147 15:21 07.02.2021
2817 Clear 2 1026 23 10000 1.23 147 14:44 07.02.2021
2818 Clear 2 1026 25 10000 1.28 119 14:26 07.02.2021
2819 Clear 2 1026 25 10000 1.28 119 13:44 07.02.2021
2820 Clear 3 1025 23 10000 1.5 86 13:26 07.02.2021
2821 Clear 3 1025 22 10000 1.48 100 12:40 07.02.2021
2822 Clear 4 1025 22 10000 1.54 33 12:21 07.02.2021
2823 Clear 5 1024 22 10000 1.54 33 11:42 07.02.2021
2824 Clear 5 1024 22 10000 2.19 342 11:24 07.02.2021
2825 Clear 6 1023 21 10000 2.19 342 10:31 07.02.2021
2826 Clear 7 1030 10 10000 6 320 09:57 07.02.2021
2827 Clear 7 1030 10 10000 8 320 09:39 07.02.2021
2828 Clear 7 1030 10 10000 8 320 09:20 07.02.2021
2829 Clear 7 1023 23 10000 0.45 0 08:19 07.02.2021
2830 Clear 7 1031 10 10000 9 330 06:33 07.02.2021
2831 Clear 6 1031 11 10000 8 310 05:48 07.02.2021
2832 Clear 2 1032 30 10000 3 30 02:52 07.02.2021
2833 Clear 0 1023 37 10000 0.76 86 00:58 07.02.2021
2834 Clear 1 1023 36 10000 0.89 315 00:28 07.02.2021
2835 Clear 1 1021 38 10000 0.78 89 23:32 06.02.2021
2836 Clear 1 1021 38 10000 0.89 0 22:31 06.02.2021
2837 Clear 2 1020 39 10000 0.89 0 21:39 06.02.2021
2838 Clear 2 1020 40 10000 0.89 315 21:20 06.02.2021
2839 Clear 2 1019 45 10000 0.27 109 20:45 06.02.2021
2840 Clouds 2 1019 54 10000 0.33 104 20:23 06.02.2021
2841 Clouds 2 1019 53 10000 0.33 104 19:55 06.02.2021
2842 Clouds 3 1018 52 10000 0.26 86 19:28 06.02.2021
2843 Clouds 4 1018 50 10000 0.26 86 18:46 06.02.2021
2844 Clouds 3 1018 48 10000 0.13 269 18:27 06.02.2021
2845 Clouds 4 1017 47 10000 0.13 269 17:44 06.02.2021
2846 Clouds 4 1017 48 10000 1.1 126 17:22 06.02.2021
2847 Clouds 4 1016 48 10000 1.1 126 16:58 06.02.2021
2848 Clouds 4 1016 48 10000 1.1 126 16:34 06.02.2021
2849 Clouds 5 1015 48 10000 2.95 97 15:57 06.02.2021
2850 Clouds 5 1015 47 10000 2.95 97 15:38 06.02.2021
2851 Clouds 6 1014 47 10000 3.97 76 15:18 06.02.2021
2852 Clouds 6 1013 43 10000 3.97 76 14:44 06.02.2021
2853 Clear 6 1018 39 10000 6 110 14:22 06.02.2021
2854 Clear 7 1017 33 10000 1 0 13:47 06.02.2021
2855 Clear 5 1015 35 10000 1 60 12:51 06.02.2021
2856 Clear 7 1015 26 10000 1 0 12:21 06.02.2021
2857 Clear 12 1014 19 10000 3 210 11:45 06.02.2021
2858 Clear 13 1013 16 10000 3 200 11:22 06.02.2021
2859 Clear 13 1013 16 10000 3 200 10:54 06.02.2021
2860 Clear 13 1012 16 10000 4 180 10:28 06.02.2021
2861 Clear 15 1012 14 10000 3 190 09:56 06.02.2021
2862 Clear 15 1012 15 10000 4 220 09:36 06.02.2021
2863 Clear 14 1012 15 10000 4 220 09:18 06.02.2021
2864 Clear 15 1012 13 10000 3 240 08:29 06.02.2021
2865 Clear 15 1012 13 10000 5 310 07:54 06.02.2021
2866 Clear 13 1014 17 10000 8 300 05:43 06.02.2021
2867 Clear 11 1014 19 10000 5 300 03:53 06.02.2021
2868 Clear 0 1013 59 10000 1 0 01:37 06.02.2021
2869 Clear -1 1013 63 10000 1 0 00:46 06.02.2021
2870 Clear -1 1012 63 10000 1 0 00:19 06.02.2021
2871 Clear -2 1012 63 10000 2 300 23:42 05.02.2021
2872 Clear -2 1012 63 10000 2 300 23:24 05.02.2021
2873 Clear 0 1012 63 10000 1 0 22:45 05.02.2021
2874 Clear -1 1012 63 10000 1 0 22:19 05.02.2021
2875 Clear 0 1011 58 10000 2 360 21:41 05.02.2021
2876 Clear 1 1011 58 10000 2 360 21:23 05.02.2021
2877 Clear 2 1011 50 10000 1 0 20:39 05.02.2021
2878 Clear 2 1011 58 10000 1 0 19:51 05.02.2021
2879 Clear 2 1011 54 10000 1 0 19:19 05.02.2021
2880 Clear 2 1011 54 10000 2 360 18:52 05.02.2021
2881 Clear 3 1011 50 10000 3 350 18:20 05.02.2021
2882 Clear 5 1011 50 10000 3 350 17:44 05.02.2021
2883 Clear 3 1011 47 10000 1 0 17:21 05.02.2021
2884 Clear 3 1011 43 10000 1 0 16:48 05.02.2021
2885 Clear 3 1011 47 10000 1 0 16:23 05.02.2021
2886 Clear 4 1011 40 10000 2 350 15:54 05.02.2021
2887 Clear 4 1011 37 10000 2 350 15:26 05.02.2021
2888 Clear 6 1011 30 10000 1 0 14:40 05.02.2021
2889 Clear 6 1011 30 10000 1 0 14:22 05.02.2021
2890 Clear 7 1011 24 10000 1 0 13:59 05.02.2021
2891 Clear 7 1011 17 10000 3 200 13:36 05.02.2021
2892 Clear 9 1010 17 10000 4 200 12:49 05.02.2021
2893 Clear 10 1010 17 10000 4 190 12:28 05.02.2021
2894 Clear 10 1010 17 10000 4 200 11:41 05.02.2021
2895 Clear 10 1010 17 10000 4 200 11:21 05.02.2021
2896 Clear 13 1009 14 10000 4 190 10:57 05.02.2021
2897 Clear 14 1009 13 10000 2 220 10:27 05.02.2021
2898 Clear 14 1009 13 10000 4 210 09:48 05.02.2021
2899 Clear 13 1009 13 10000 4 210 09:28 05.02.2021
2900 Clear 13 1009 13 10000 5 210 08:58 05.02.2021
2901 Clear 14 1009 12 10000 4 200 08:23 05.02.2021
2902 Clear 13 1010 13 10000 5 190 07:37 05.02.2021
2903 Clear 13 1010 13 10000 5 210 06:54 05.02.2021
2904 Clear 11 1013 16 10000 1 0 05:38 05.02.2021
2905 Clear 3 1014 23 10000 1 0 03:23 05.02.2021
2906 Clear 2 1015 34 10000 2 340 02:25 05.02.2021
2907 Clear 0 1008 44 10000 1.47 304 00:41 05.02.2021
2908 Clear 0 1008 44 10000 1.47 304 00:41 05.02.2021
2909 Clear -2 1015 53 10000 3 350 00:21 05.02.2021
2910 Clear -2 1015 53 10000 3 350 23:59 04.02.2021
2911 Clear -2 1015 62 10000 3 340 23:39 04.02.2021
2912 Clear -3 1015 62 10000 3 340 23:20 04.02.2021
2913 Clear -2 1015 67 10000 1 0 22:51 04.02.2021
2914 Clear -2 1015 62 10000 1 0 22:27 04.02.2021
2915 Clear -2 1016 62 10000 1 0 21:42 04.02.2021
2916 Clear -2 1016 62 10000 1 0 21:21 04.02.2021
2917 Clear -1 1016 62 10000 1 0 20:52 04.02.2021
2918 Clear -1 1016 62 10000 2 350 20:34 04.02.2021
2919 Clear -1 1017 57 10000 1 10 19:47 04.02.2021
2920 Clear -1 1017 62 10000 1 0 18:59 04.02.2021
2921 Clear -1 1017 58 10000 1 0 18:36 04.02.2021
2922 Clear -2 1018 53 10000 1 0 18:18 04.02.2021
2923 Clear -2 1018 53 10000 3 350 17:41 04.02.2021
2924 Clear -2 1018 53 10000 3 350 17:20 04.02.2021
2925 Clear -1 1018 50 10000 1.51 12 16:41 04.02.2021
2926 Clear 1 1018 50 10000 1.25 5 16:19 04.02.2021
2927 Clear 0 1019 50 10000 1 0 15:40 04.02.2021
2928 Clear 1 1019 50 10000 1 0 15:21 04.02.2021
2929 Clear 0 1019 42 10000 1 0 14:49 04.02.2021
2930 Clear -1 1019 42 10000 1 60 14:21 04.02.2021
2931 Clear 1 1019 37 10000 1 0 13:49 04.02.2021
2932 Clear -1 1019 39 10000 2 150 13:28 04.02.2021
2933 Clear 2 1019 29 10000 2 160 12:54 04.02.2021
2934 Clear 4 1019 19 10000 2 160 11:58 04.02.2021
2935 Clear 7 1019 15 10000 4 220 11:38 04.02.2021
2936 Clear 7 1019 15 10000 4 220 11:20 04.02.2021
2937 Clear 8 1019 13 10000 4 200 10:43 04.02.2021
2938 Clear 9 1019 12 10000 4 200 09:47 04.02.2021
2939 Clear 9 1019 12 10000 5 190 09:23 04.02.2021
2940 Clear 10 1020 11 10000 3 170 08:59 04.02.2021
2941 Clear 9 1020 12 10000 2 0 08:28 04.02.2021
2942 Clear 8 1021 12 10000 4 200 07:59 04.02.2021
2943 Clear 8 1021 13 10000 2 230 07:35 04.02.2021
2944 Clear 8 1022 13 10000 3 210 06:54 04.02.2021
2945 Clear 7 1022 14 10000 3 210 06:34 04.02.2021
2946 Clear 1 1026 25 10000 2 60 03:52 04.02.2021
2947 Clear 0 1026 43 10000 1 0 02:24 04.02.2021
2948 Clear -4 1026 61 10000 1 50 00:33 04.02.2021
2949 Clear -4 1026 57 10000 2 360 23:39 03.02.2021
2950 Clear -3 1027 57 10000 1 0 22:42 03.02.2021
2951 Clear -3 1027 57 10000 1 0 22:22 03.02.2021
2952 Clear -3 1027 57 10000 2 60 21:57 03.02.2021
2953 Clear -2 1027 57 10000 1 0 21:36 03.02.2021
2954 Clear -3 1027 57 10000 1 0 21:18 03.02.2021
2955 Clear -2 1027 52 10000 2.67 221 20:38 03.02.2021
2956 Clear -2 1027 52 10000 2.4 223 20:19 03.02.2021
2957 Clear -2 1028 57 10000 1 80 19:42 03.02.2021
2958 Clear -2 1028 57 10000 1 80 19:19 03.02.2021
2959 Clear -1 1027 49 10000 1 0 18:46 03.02.2021
2960 Clear -1 1027 49 10000 1 0 18:19 03.02.2021
2961 Clear -1 1027 53 10000 1 0 17:49 03.02.2021
2962 Clear -1 1027 49 10000 2 130 17:30 03.02.2021
2963 Clear -1 1027 49 10000 1 0 16:53 03.02.2021
2964 Clear -1 1027 42 10000 3 170 16:29 03.02.2021
2965 Clear -7 1027 38 10000 1 130 15:45 03.02.2021
2966 Clear -1 1027 38 10000 1 130 15:25 03.02.2021
2967 Clear -1 1027 33 10000 2 150 14:53 03.02.2021
2968 Clear -1 1027 33 10000 2 150 14:53 03.02.2021
2969 Clear -1 1027 30 10000 1 0 14:26 03.02.2021
2970 Clear 2 1020 25 10000 4.4 317 13:54 03.02.2021
2971 Clear 2 1020 24 10000 0.45 0 13:28 03.02.2021
2972 Clear 0 1027 24 10000 2 360 12:49 03.02.2021
2973 Clear 3 1020 23 10000 4.29 319 12:27 03.02.2021
2974 Clear 3 1020 23 10000 0.45 0 11:54 03.02.2021
2975 Clear 3 1020 22 10000 0.45 0 11:34 03.02.2021
2976 Clear 4 1026 14 10000 7 350 10:56 03.02.2021
2977 Clear 5 1025 12 10000 8 350 10:22 03.02.2021
2978 Clear 5 1024 11 10000 8 320 09:48 03.02.2021
2979 Clear 6 1023 11 10000 8 290 09:28 03.02.2021
2980 Clear 7 1023 11 10000 9 290 08:53 03.02.2021
2981 Clear 7 1022 11 10000 9 290 08:28 03.02.2021
2982 Clear 7 1021 11 10000 10 280 07:39 03.02.2021
2983 Clear 5 1022 13 10000 5 290 06:41 03.02.2021
2984 Clear 0 1023 19 10000 2 300 04:54 03.02.2021
2985 Clear 2 1023 23 10000 2 300 04:31 03.02.2021
2986 Clear -2 1023 28 10000 2 320 03:24 03.02.2021
2987 Clear -4 1023 36 10000 3 330 02:36 03.02.2021
2988 Clear -6 1023 52 10000 3 350 00:36 03.02.2021
2989 Clear -7 1022 61 10000 3 350 23:53 02.02.2021
2990 Clear -7 1022 66 10000 1 0 23:30 02.02.2021
2991 Clear -6 1022 61 10000 2 10 22:59 02.02.2021
2992 Clear -6 1022 52 10000 1 10 22:23 02.02.2021
2993 Clear -6 1022 52 10000 1 360 21:58 02.02.2021
2994 Clear -6 1022 52 10000 1 0 21:37 02.02.2021
2995 Clear -6 1022 52 10000 1 0 21:18 02.02.2021
2996 Clear -6 1023 56 10000 1 0 20:43 02.02.2021
2997 Clear -6 1023 52 10000 1.68 50 20:20 02.02.2021
2998 Clear -6 1023 52 10000 1.68 50 20:20 02.02.2021
2999 Clear -6 1023 56 10000 1 0 19:48 02.02.2021
3000 Clear -6 1024 52 10000 1 0 19:29 02.02.2021
3001 Clear -6 1024 52 10000 2 10 18:45 02.02.2021
3002 Clear -5 1024 52 10000 1 360 18:26 02.02.2021
3003 Clear -5 1024 48 10000 1 0 17:51 02.02.2021
3004 Clear -5 1024 44 10000 1 0 17:24 02.02.2021
3005 Clear -5 1024 48 10000 1 0 16:58 02.02.2021
3006 Clear -4 1025 44 10000 1 20 16:38 02.02.2021
3007 Clear -5 1025 44 10000 1 20 16:18 02.02.2021
3008 Clear -4 1025 38 10000 1 0 15:42 02.02.2021
3009 Clear -3 1025 38 10000 1 0 15:21 02.02.2021
3010 Clear -3 1025 41 10000 2 80 14:41 02.02.2021
3011 Clear -3 1025 41 10000 2 80 14:19 02.02.2021
3012 Clear -2 1025 35 10000 2 80 13:54 02.02.2021
3013 Clear -2 1025 35 10000 2 80 13:36 02.02.2021
3014 Clear -2 1025 35 10000 2 80 13:18 02.02.2021
3015 Clear -1 1018 25 10000 2 204 12:29 02.02.2021
3016 Clear 0 1018 25 10000 2 204 11:43 02.02.2021
3017 Clear 0 1018 24 10000 2.37 204 11:21 02.02.2021
3018 Clear 1 1018 24 10000 2.37 204 10:53 02.02.2021
3019 Clear 1 1018 22 10000 3 210 10:27 02.02.2021
3020 Clear 1 1017 21 10000 3 210 09:46 02.02.2021
3021 Clear 2 1017 21 10000 3.02 211 09:25 02.02.2021
3022 Clear 2 1018 19 10000 3.02 211 08:48 02.02.2021
3023 Clear 2 1018 20 10000 2.92 223 08:22 02.02.2021
3024 Clear 1 1026 13 10000 5 180 07:28 02.02.2021
3025 Clear 0 1027 14 10000 5 210 06:42 02.02.2021
3026 Clear 0 1028 16 10000 4 200 05:52 02.02.2021
3027 Clear -1 1022 21 10000 2.81 220 04:37 02.02.2021
3028 Clear -4 1031 21 10000 1 0 02:26 02.02.2021
3029 Clear -6 1025 28 10000 0.76 241 01:46 02.02.2021
3030 Clear -8 1030 40 10000 4 350 00:34 02.02.2021
3031 Clear -8 1030 40 10000 2 340 23:19 01.02.2021
3032 Clear -8 1031 34 10000 3 350 22:43 01.02.2021
3033 Clear -7 1024 27 10000 4.4 341 22:24 01.02.2021
3034 Clear -6 1024 27 10000 0.45 0 21:49 01.02.2021
3035 Clear -6 1024 26 10000 0.89 315 21:27 01.02.2021
3036 Clear -6 1024 25 10000 1.79 0 20:47 01.02.2021
3037 Clear -6 1025 26 10000 4.72 336 20:25 01.02.2021
3038 Clear -6 1025 26 10000 0.45 0 19:59 01.02.2021
3039 Clear -6 1025 26 10000 0.45 0 19:59 01.02.2021
3040 Clear -6 1025 27 10000 4.72 336 19:37 01.02.2021
3041 Clear -5 1025 27 10000 4.53 336 19:18 01.02.2021
3042 Clear -5 1025 27 10000 4.79 328 18:43 01.02.2021
3043 Clear -5 1025 27 10000 4.8 327 18:25 01.02.2021
3044 Clear -5 1026 25 10000 0.89 0 17:46 01.02.2021
3045 Clear -4 1025 25 10000 1.34 45 17:22 01.02.2021
3046 Clear -4 1026 24 10000 1.34 0 16:46 01.02.2021
3047 Clear -4 1026 24 10000 0.89 315 16:28 01.02.2021
3048 Clear -3 1026 23 10000 0.89 315 15:42 01.02.2021
3049 Clear -3 1026 22 10000 1.34 0 15:19 01.02.2021
3050 Clear -3 1025 22 10000 0.45 0 14:51 01.02.2021
3051 Clear -2 1025 21 10000 0.45 0 14:24 01.02.2021
3052 Clear -2 1030 21 10000 6 280 13:46 01.02.2021
3053 Clear -1 1024 18 10000 1.79 0 13:26 01.02.2021
3054 Clear -1 1024 20 10000 1.34 270 12:45 01.02.2021
3055 Clear -1 1024 20 10000 1.34 270 12:45 01.02.2021
3056 Clear 0 1023 25 10000 0.89 0 12:25 01.02.2021
3057 Clear 0 1023 25 10000 0.89 0 11:47 01.02.2021
3058 Clear 0 1022 25 10000 0.89 0 11:21 01.02.2021
3059 Clear 1 1022 23 10000 1.34 315 10:53 01.02.2021
3060 Clear 1 1021 22 10000 1.34 315 10:27 01.02.2021
3061 Clear 2 1020 21 10000 1.34 338 09:55 01.02.2021
3062 Clear 2 1026 14 10000 6 310 09:36 01.02.2021
3063 Clear 2 1019 19 10000 1.34 315 08:56 01.02.2021
3064 Clear 2 1019 20 10000 0.89 45 08:27 01.02.2021
3065 Clear 2 1025 13 10000 1 0 07:32 01.02.2021
3066 Clear 1 1026 16 10000 5 30 05:20 01.02.2021
3067 Clear 0 1024 27 10000 6 320 02:40 01.02.2021
3068 Clear 1 1016 37 10000 5.91 326 00:26 01.02.2021
3069 Clear 2 1014 35 10000 5.74 323 23:26 31.01.2021
3070 Clear 2 1014 34 10000 0.45 0 22:41 31.01.2021
3071 Clear 3 1013 34 10000 0.89 315 22:22 31.01.2021
3072 Mist 0 1019 86 5000 2 250 21:47 31.01.2021
3073 Mist 0 1019 92 5000 1 0 21:21 31.01.2021
3074 Clear 1 1018 86 6000 1 0 20:44 31.01.2021
3075 Clear 2 1018 80 6000 2 250 20:21 31.01.2021
3076 Clear 1 1017 86 6000 2 320 19:41 31.01.2021
3077 Clear 0 1017 86 6000 2 320 19:23 31.01.2021
3078 Clear 1 1017 86 6000 1 0 18:56 31.01.2021
3079 Clear 1 1018 80 6000 1 10 18:38 31.01.2021
3080 Clear 0 1018 80 6000 1 10 18:19 31.01.2021
3081 Clear 0 1008 45 10000 4.94 315 17:43 31.01.2021
3082 Clear -2 1011 78 10000 2.03 338 17:22 31.01.2021
3083 Clear -2 1011 77 10000 2.03 338 16:42 31.01.2021
3084 Clear -2 1011 77 10000 1.35 346 16:22 31.01.2021
3085 Clear -2 1010 75 10000 1.35 346 15:50 31.01.2021
3086 Clear -2 1010 74 10000 1.35 346 15:31 31.01.2021
3087 Clear -2 1010 75 10000 1.33 352 14:42 31.01.2021
3088 Clear -2 1010 74 10000 1.34 2 14:21 31.01.2021
3089 Clear -2 1010 74 10000 1.34 2 13:49 31.01.2021
3090 Clear -2 1010 73 10000 0.83 19 13:26 31.01.2021
3091 Clear -1 1010 75 10000 0.69 11 12:48 31.01.2021
3092 Clear -1 1010 75 10000 0.32 1 12:22 31.01.2021
3093 Clear -1 1010 73 10000 0.32 1 11:44 31.01.2021
3094 Clear -1 1009 74 10000 0.3 241 11:22 31.01.2021
3095 Clear -1 1009 75 10000 0.3 241 10:49 31.01.2021
3096 Clear -1 1009 73 10000 0.3 241 10:31 31.01.2021
3097 Clear 0 1009 70 10000 1.18 224 09:50 31.01.2021
3098 Clear 1 1009 63 10000 1.44 216 08:59 31.01.2021
3099 Clear 2 1009 63 10000 1.44 216 08:32 31.01.2021
3100 Clear 1 1001 56 10000 1.18 188 06:56 31.01.2021
3101 Clear 0 1003 58 10000 0.76 178 05:31 31.01.2021
3102 Clear -4 1016 80 10000 0.74 26 00:46 31.01.2021
3103 Clear -4 1016 80 10000 0.45 338 00:21 31.01.2021
3104 Clear -4 1016 82 10000 0.82 2 23:30 30.01.2021
3105 Clear -4 1016 84 10000 0.57 17 22:56 30.01.2021
3106 Clear -4 1017 84 10000 0.8 55 22:29 30.01.2021
3107 Clear -4 1017 83 10000 0.8 55 21:40 30.01.2021
3108 Clear -4 1017 82 10000 0.96 64 21:21 30.01.2021
3109 Clear -4 1018 81 10000 0.96 64 20:46 30.01.2021
3110 Clear -4 1018 80 10000 1.28 64 20:27 30.01.2021
3111 Clear -4 1019 76 10000 1.28 64 19:44 30.01.2021
3112 Clear -4 1019 68 10000 1.49 71 19:25 30.01.2021
3113 Clear -4 1019 68 10000 1.54 69 18:42 30.01.2021
3114 Clear -4 1019 68 10000 1.89 76 18:21 30.01.2021
3115 Clear -4 1019 67 10000 1.89 76 17:58 30.01.2021
3116 Clear -4 1019 64 10000 2.09 79 17:19 30.01.2021
3117 Clear -3 1019 66 10000 2.09 79 16:47 30.01.2021
3118 Clear -3 1020 67 10000 2.36 87 16:25 30.01.2021
3119 Clear -3 1020 66 10000 2.36 87 15:57 30.01.2021
3120 Clear -3 1020 66 10000 2.36 87 15:57 30.01.2021
3121 Clear -3 1020 66 10000 2.36 87 15:38 30.01.2021
3122 Clear -3 1019 65 10000 2.67 94 15:20 30.01.2021
3123 Clear -2 1019 64 10000 2.67 94 14:47 30.01.2021
3124 Clear -2 1019 64 10000 2.83 104 14:21 30.01.2021
3125 Clear -1 1018 67 10000 3.37 118 13:32 30.01.2021
3126 Clear 0 1017 65 10000 3.22 119 12:49 30.01.2021
3127 Clear 0 1017 61 10000 2.77 109 12:28 30.01.2021
3128 Clear 2 1017 53 10000 2.77 109 11:57 30.01.2021
3129 Clear 2 1016 42 10000 1.15 49 11:28 30.01.2021
3130 Clear 5 1022 22 10000 2 100 10:48 30.01.2021
3131 Clear 6 1022 17 10000 3 120 09:48 30.01.2021
3132 Clear 7 1006 23 10000 0.89 45 09:30 30.01.2021
3133 Clear 7 1022 16 10000 3 150 08:47 30.01.2021
3134 Clear 6 1022 17 10000 4 170 07:49 30.01.2021
3135 Clear 6 1007 23 10000 1.69 176 06:51 30.01.2021
3136 Clear 5 1008 26 10000 2.05 172 05:43 30.01.2021
3137 Clear 1 1024 36 10000 2 110 03:35 30.01.2021
3138 Clear -2 1024 46 10000 1 0 02:24 30.01.2021
3139 Clear -3 1017 41 10000 1.58 30 01:29 30.01.2021
3140 Clear -6 1023 67 10000 1 360 00:39 30.01.2021
3141 Clear -6 1023 67 10000 1 360 00:20 30.01.2021
3142 Clear -6 1022 62 10000 1 0 23:45 29.01.2021
3143 Clear -6 1022 57 10000 2 310 23:21 29.01.2021
3144 Clear -6 1022 57 10000 2 310 22:44 29.01.2021
3145 Clear -6 1021 62 10000 1 330 22:20 29.01.2021
3146 Clear -5 1015 42 10000 0.69 255 21:28 29.01.2021
3147 Clear -5 1014 40 10000 0.69 255 20:46 29.01.2021
3148 Clear -4 1014 38 10000 0.72 265 20:28 29.01.2021
3149 Clear -5 1015 38 10000 0.72 265 19:57 29.01.2021
3150 Clear -4 1015 38 10000 0.72 265 19:38 29.01.2021
3151 Clear -4 1015 37 10000 0.67 243 19:18 29.01.2021
3152 Clear -4 1015 35 10000 0.79 245 18:28 29.01.2021
3153 Clear -4 1015 37 10000 0.79 245 17:40 29.01.2021
3154 Clear -4 1015 36 10000 0.13 67 17:21 29.01.2021
3155 Clear -4 1015 36 10000 0.13 67 17:21 29.01.2021
3156 Clear -4 1015 36 10000 0.13 67 16:45 29.01.2021
3157 Clear -3 1015 36 10000 0.45 51 16:23 29.01.2021
3158 Clear -3 1014 36 10000 0.45 51 15:48 29.01.2021
3159 Clear -3 1014 35 10000 1.01 38 15:27 29.01.2021
3160 Clear -3 1014 34 10000 1.01 38 14:47 29.01.2021
3161 Clear -3 1014 33 10000 1.41 21 14:18 29.01.2021
3162 Clear -2 1014 33 10000 1.41 21 13:39 29.01.2021
3163 Clear -2 1014 33 10000 1.28 12 13:19 29.01.2021
3164 Clear -2 1013 30 10000 1.06 352 12:25 29.01.2021
3165 Clear -1 1013 30 10000 1.06 352 11:49 29.01.2021
3166 Clear -1 1013 29 10000 0.46 242 11:20 29.01.2021
3167 Clear -1 1012 28 10000 0.46 242 10:51 29.01.2021
3168 Clear 0 1012 28 10000 0.46 242 10:31 29.01.2021
3169 Clear 1 1012 26 10000 1.2 214 09:49 29.01.2021
3170 Clear 1 1020 18 10000 3 180 08:59 29.01.2021
3171 Clear 1 1013 24 10000 1.2 188 08:38 29.01.2021
3172 Clear 1 1013 24 10000 0.64 111 08:19 29.01.2021
3173 Clear 0 1020 21 10000 2 200 07:41 29.01.2021
3174 Clear -1 1020 21 10000 2 200 07:20 29.01.2021
3175 Clear -3 1023 22 10000 3 300 05:23 29.01.2021
3176 Clear -5 1025 24 10000 2 320 03:50 29.01.2021
3177 Clear -8 1019 35 10000 1.56 53 00:44 29.01.2021
3178 Clear -8 1019 35 10000 1.71 56 00:22 29.01.2021
3179 Clear -8 1019 35 10000 1.71 56 23:44 28.01.2021
3180 Clear -8 1019 35 10000 1.47 58 23:25 28.01.2021
3181 Clear -8 1019 35 10000 0.45 0 22:49 28.01.2021
3182 Clear -8 1019 35 10000 1.17 73 22:28 28.01.2021
3183 Clear -7 1019 32 10000 1.17 73 21:58 28.01.2021
3184 Clear -7 1019 32 10000 1.17 73 21:38 28.01.2021
3185 Clear -7 1019 31 10000 1.09 99 21:20 28.01.2021
3186 Clear -7 1020 27 10000 1.09 99 20:39 28.01.2021
3187 Clear -7 1020 28 10000 1.14 118 20:18 28.01.2021
3188 Clear -7 1020 27 10000 1.23 106 19:46 28.01.2021
3189 Clear -7 1020 27 10000 1.25 147 19:23 28.01.2021
3190 Clear -7 1021 25 10000 1.25 147 18:45 28.01.2021
3191 Clear -6 1020 25 10000 1.69 170 18:27 28.01.2021
3192 Clear -6 1021 26 10000 1.69 170 17:47 28.01.2021
3193 Clear -6 1021 26 10000 2.08 177 17:28 28.01.2021
3194 Clear -6 1021 24 10000 2.08 177 16:45 28.01.2021
3195 Clear -6 1022 25 10000 2.62 180 16:25 28.01.2021
3196 Clear -6 1022 25 10000 2.62 180 15:51 28.01.2021
3197 Clear -6 1022 23 10000 2.91 175 15:20 28.01.2021
3198 Clear -6 1022 21 10000 2.91 175 14:42 28.01.2021
3199 Clear -5 1022 22 10000 2.79 170 14:23 28.01.2021
3200 Clear -5 1022 21 10000 2.79 170 13:49 28.01.2021
3201 Clear -5 1022 21 10000 2.25 151 13:19 28.01.2021
3202 Clear -5 1023 21 10000 2.33 163 12:45 28.01.2021
3203 Clear -4 1022 21 10000 2.02 148 12:21 28.01.2021
3204 Clear -4 1022 20 10000 2.02 148 11:44 28.01.2021
3205 Clear -4 1022 20 10000 2.02 148 11:44 28.01.2021
3206 Clear -3 1022 21 10000 2.37 172 11:20 28.01.2021
3207 Clear -2 1022 20 10000 2.37 172 10:54 28.01.2021
3208 Clear -2 1022 22 10000 2.37 172 10:35 28.01.2021
3209 Clear -1 1022 21 10000 0.45 315 09:59 28.01.2021
3210 Clear -1 1022 21 10000 0.89 0 09:30 28.01.2021
3211 Clear -1 1022 20 10000 1.34 45 08:57 28.01.2021
3212 Clear -1 1023 20 10000 1.34 0 08:38 28.01.2021
3213 Clear -1 1023 18 10000 6.74 325 07:45 28.01.2021
3214 Clear -3 1024 16 10000 1.34 270 06:51 28.01.2021
3215 Clear -3 1032 11 10000 7 290 06:30 28.01.2021
3216 Clear -4 1026 17 10000 1.34 0 04:30 28.01.2021
3217 Clear -6 1030 18 10000 10 320 01:40 28.01.2021
3218 Clear -5 1022 22 10000 1.34 315 23:54 27.01.2021
3219 Clear -5 1022 22 10000 1.79 315 23:24 27.01.2021
3220 Clear -5 1022 23 10000 1.34 315 23:24 27.01.2021
3221 Clear -4 1021 25 10000 1.34 0 22:43 27.01.2021
3222 Clear -4 1021 27 10000 1.34 270 22:24 27.01.2021
3223 Clear -4 1027 26 10000 7 320 21:44 27.01.2021
3224 Clear -3 1021 27 10000 0.45 0 21:24 27.01.2021
3225 Clear -2 1020 28 10000 0.89 0 20:55 27.01.2021
3226 Clear -2 1020 28 10000 1.34 338 20:31 27.01.2021
3227 Clear -2 1026 28 10000 7 340 19:56 27.01.2021
3228 Clear -1 1025 24 10000 8 330 19:37 27.01.2021
3229 Clear -1 1025 24 10000 8 330 19:18 27.01.2021
3230 Clear -1 1024 24 10000 5 320 18:40 27.01.2021
3231 Clouds -1 1018 27 10000 1.79 315 18:21 27.01.2021
3232 Clouds -1 1018 31 10000 0.45 225 17:40 27.01.2021
3233 Clouds 0 1017 32 10000 0.45 315 17:18 27.01.2021
3234 Clouds 0 1018 32 10000 0.89 0 17:18 27.01.2021
3235 Clouds 0 1018 33 10000 0.45 23 16:45 27.01.2021
3236 Clouds 1 1018 31 10000 1.34 0 16:27 27.01.2021
3237 Clouds 1 1017 31 10000 5.62 310 15:50 27.01.2021
3238 Clouds 1 1017 30 10000 1.34 270 15:30 27.01.2021
3239 Clouds 2 1016 38 10000 0.89 0 14:41 27.01.2021
3240 Clouds 2 1016 42 10000 1.34 45 14:20 27.01.2021
3241 Clouds 2 1015 44 10000 0.89 0 13:42 27.01.2021
3242 Snow 2 1015 56 10000 1.34 0 12:47 27.01.2021
3243 Clouds 2 1015 55 10000 0.89 0 12:26 27.01.2021
3244 Snow 2 1013 51 10000 1.34 0 11:53 27.01.2021
3245 Clouds 3 1012 41 10000 1.46 307 11:26 27.01.2021
3246 Clouds 2 1011 41 10000 1.46 307 11:00 27.01.2021
3247 Clouds 2 1011 43 10000 1.46 307 10:36 27.01.2021
3248 Clouds 4 1011 43 10000 1.4 334 10:18 27.01.2021
3249 Clouds 4 1010 42 10000 1.4 334 09:36 27.01.2021
3250 Clouds 4 1010 39 10000 0.9 7 08:48 27.01.2021
3251 Clear 3 1018 30 10000 2 30 07:59 27.01.2021
3252 Clear 4 1018 30 10000 1 0 07:40 27.01.2021
3253 Clear 3 1019 25 10000 2 0 06:49 27.01.2021
3254 Clouds 4 1013 33 10000 1.22 59 05:58 27.01.2021
3255 Clouds 4 1014 33 10000 0.45 315 05:35 27.01.2021
3256 Clear -1 1024 50 10000 3 350 02:46 27.01.2021
3257 Clear -2 1024 58 10000 2 10 02:21 27.01.2021
3258 Clouds 0 1017 38 10000 1.82 50 01:47 27.01.2021
3259 Clouds -1 1019 43 10000 1.55 47 00:30 27.01.2021
3260 Clouds -1 1019 42 10000 1.55 47 23:44 26.01.2021
3261 Clouds -1 1019 41 10000 1.55 50 23:22 26.01.2021
3262 Clouds -2 1019 43 10000 1.55 50 22:46 26.01.2021
3263 Clouds -1 1019 42 10000 1.78 44 22:20 26.01.2021
3264 Clouds -2 1019 42 10000 1.78 44 21:53 26.01.2021
3265 Clear -3 1025 73 10000 3 350 21:27 26.01.2021
3266 Clear -3 1025 86 10000 1 10 20:57 26.01.2021
3267 Clear -2 1025 86 10000 1 330 20:38 26.01.2021
3268 Clear -2 1025 86 10000 1 330 20:20 26.01.2021
3269 Clear -1 1019 40 10000 1.6 39 19:43 26.01.2021
3270 Clear -1 1020 40 10000 1.27 51 19:20 26.01.2021
3271 Clear -1 1020 45 10000 1.08 60 18:46 26.01.2021
3272 Clear 0 1020 50 10000 1.19 33 18:24 26.01.2021
3273 Clear 0 1020 61 10000 1.19 33 17:48 26.01.2021
3274 Clear 0 1020 60 10000 1.3 36 17:27 26.01.2021
3275 Clear 0 1020 59 10000 1.3 36 16:54 26.01.2021
3276 Clear 0 1020 60 10000 1.27 58 16:22 26.01.2021
3277 Clear 0 1019 61 10000 1.27 58 15:58 26.01.2021
3278 Clear 1 1019 60 10000 1.27 58 15:38 26.01.2021
3279 Clear 1 1019 59 10000 1.59 53 15:18 26.01.2021
3280 Clear 1 1019 59 10000 1.59 53 15:18 26.01.2021
3281 Clear 2 1019 55 10000 1.59 53 14:34 26.01.2021
3282 Clear 2 1019 52 10000 1.63 37 13:59 26.01.2021
3283 Clear 2 1018 51 10000 1.06 24 13:30 26.01.2021
3284 Clear 3 1018 49 10000 0.28 302 12:56 26.01.2021
3285 Clear 3 1018 48 10000 0.28 302 12:37 26.01.2021
3286 Clear 3 1018 48 10000 0.61 200 12:19 26.01.2021
3287 Clear 3 1018 46 10000 0.61 200 11:49 26.01.2021
3288 Clear 3 1017 46 10000 0.57 195 11:18 26.01.2021
3289 Clear 4 1017 44 10000 0.57 195 10:34 26.01.2021
3290 Clear 5 1016 40 10000 0.95 196 09:57 26.01.2021
3291 Clear 6 1016 37 10000 0.95 196 09:36 26.01.2021
3292 Clear 7 1016 35 10000 1.58 230 09:18 26.01.2021
3293 Clear 7 1016 19 10000 0.45 0 08:42 26.01.2021
3294 Clear 8 1022 14 10000 11 280 07:54 26.01.2021
3295 Clear 7 1023 15 10000 12 290 06:58 26.01.2021
3296 Clear 6 1009 75 10000 2.39 280 05:46 26.01.2021
3297 Clear 5 1010 80 10000 0.45 90 05:25 26.01.2021
3298 Clear 3 1020 26 10000 0.45 0 03:31 26.01.2021
3299 Mist -3 1025 93 2800 2 290 00:59 26.01.2021
3300 Mist -3 1025 93 2500 2 350 00:24 26.01.2021
3301 Clear -2 1019 95 10000 2.86 333 23:28 25.01.2021
3302 Clear -1 1019 96 10000 2.86 333 22:44 25.01.2021
3303 Clear -1 1019 96 10000 2.86 333 22:44 25.01.2021
3304 Clear -2 1018 97 10000 1.98 338 22:25 25.01.2021
3305 Clear -1 1018 96 10000 1.98 338 21:41 25.01.2021
3306 Clear -2 1018 97 10000 1.56 336 21:18 25.01.2021
3307 Clear -2 1019 97 10000 1.56 336 20:40 25.01.2021
3308 Clear -2 1019 98 10000 1.08 350 20:20 25.01.2021
3309 Clear -1 1019 98 10000 1.08 350 19:47 25.01.2021
3310 Clear -2 1019 97 10000 0.71 327 19:22 25.01.2021
3311 Clear -1 1018 98 10000 0.65 339 18:44 25.01.2021
3312 Clear -1 1018 98 10000 0.55 333 18:24 25.01.2021
3313 Clear -1 1018 98 10000 0.55 333 17:48 25.01.2021
3314 Clear -1 1018 98 10000 0.7 319 17:24 25.01.2021
3315 Clear -1 1019 98 10000 0.7 319 16:49 25.01.2021
3316 Clear -1 1019 97 10000 0.83 252 16:25 25.01.2021
3317 Clear -1 1019 96 10000 0.83 252 15:54 25.01.2021
3318 Clear -1 1019 96 10000 0.83 252 15:54 25.01.2021
3319 Clear 0 1019 95 10000 0.83 252 15:34 25.01.2021
3320 Clear 0 1019 95 10000 0.73 267 14:57 25.01.2021
3321 Clear 0 1019 95 10000 0.73 267 14:38 25.01.2021
3322 Clear 0 1019 94 10000 0.79 304 14:18 25.01.2021
3323 Clear 1 1018 92 10000 0.79 304 13:40 25.01.2021
3324 Clouds 1 1018 91 10000 0.95 308 13:19 25.01.2021
3325 Clouds 1 1018 90 10000 0.92 301 12:40 25.01.2021
3326 Clouds 1 1018 89 10000 0.67 291 12:18 25.01.2021
3327 Clouds 2 1018 89 10000 0.38 282 11:27 25.01.2021
3328 Clouds 2 1018 83 10000 0.38 282 10:46 25.01.2021
3329 Clouds 2 1017 83 10000 0.34 259 10:22 25.01.2021
3330 Clouds 2 1017 80 10000 0.34 259 09:49 25.01.2021
3331 Rain 2 1017 77 10000 0.24 133 09:28 25.01.2021
3332 Clouds 2 1017 79 10000 0.24 133 08:35 25.01.2021
3333 Rain 2 1017 80 10000 0.34 17 07:57 25.01.2021
3334 Clouds 2 1017 81 10000 0.46 68 07:28 25.01.2021
3335 Snow 2 1018 86 10000 1.14 235 06:28 25.01.2021
3336 Snow 1 1021 66 10000 0.47 144 02:32 25.01.2021
3337 Snow 1 1021 63 7276 0.65 87 00:42 25.01.2021
3338 Snow 1 1021 64 5623 0.85 12 23:38 24.01.2021
3339 Clouds 1 1021 64 10000 0.57 281 23:18 24.01.2021
3340 Snow 0 1020 64 10000 0.57 281 22:40 24.01.2021
3341 Clouds 0 1020 65 10000 0.32 352 22:18 24.01.2021
3342 Snow 0 1020 65 10000 0.32 352 21:37 24.01.2021
3343 Clouds 0 1020 65 10000 0.83 58 21:18 24.01.2021
3344 Clouds 0 1021 65 10000 0.83 58 20:41 24.01.2021
3345 Clouds 0 1021 63 10000 0.36 43 20:19 24.01.2021
3346 Clouds 0 1021 64 10000 0.36 43 19:48 24.01.2021
3347 Clouds 0 1021 64 10000 0.52 348 19:25 24.01.2021
3348 Clouds 1 1022 62 10000 0.52 348 18:56 24.01.2021
3349 Clouds 1 1022 62 10000 0.88 5 18:37 24.01.2021
3350 Clouds 1 1021 61 10000 0.98 357 18:18 24.01.2021
3351 Clouds 1 1022 60 10000 0.98 357 17:45 24.01.2021
3352 Clouds 1 1022 59 10000 0.85 2 17:20 24.01.2021
3353 Clouds 2 1022 58 10000 0.85 2 16:42 24.01.2021
3354 Clouds 2 1022 58 10000 0.79 9 16:21 24.01.2021
3355 Clouds 2 1022 58 10000 0.79 9 15:48 24.01.2021
3356 Clouds 2 1022 58 10000 1.3 358 15:21 24.01.2021
3357 Clouds 2 1021 56 10000 1.3 358 14:57 24.01.2021
3358 Clouds 2 1021 56 10000 1.3 358 14:34 24.01.2021
3359 Clouds 3 1021 54 10000 0.97 354 13:40 24.01.2021
3360 Clouds 3 1021 52 10000 0.93 1 13:18 24.01.2021
3361 Clouds 3 1020 53 10000 0.93 1 12:40 24.01.2021
3362 Clouds 3 1020 53 10000 1.45 357 12:19 24.01.2021
3363 Clouds 3 1020 52 10000 1.45 357 11:46 24.01.2021
3364 Clear 3 1019 53 10000 1.18 354 11:23 24.01.2021
3365 Clear 4 1019 51 10000 1.18 354 10:42 24.01.2021
3366 Clear 4 1019 49 10000 0.89 342 09:59 24.01.2021
3367 Clear 5 1019 49 10000 1.14 226 09:22 24.01.2021
3368 Clear 5 1018 47 10000 1.14 226 08:52 24.01.2021
3369 Clear 5 1010 49 10000 0.19 79 07:22 24.01.2021
3370 Clear 0 1021 68 10000 0.57 25 02:34 24.01.2021
3371 Clouds -2 1020 74 10000 0.69 21 01:00 24.01.2021
3372 Clouds -2 1020 74 10000 0.84 8 00:24 24.01.2021
3373 Clouds -2 1020 73 10000 0.84 8 23:47 23.01.2021
3374 Clouds -2 1019 72 10000 0.76 11 23:25 23.01.2021
3375 Clouds -2 1019 67 10000 0.76 11 22:42 23.01.2021
3376 Clouds -2 1019 65 10000 0.8 21 22:24 23.01.2021
3377 Clouds -2 1019 64 10000 0.8 21 21:50 23.01.2021
3378 Clouds -2 1019 63 10000 0.99 7 21:21 23.01.2021
3379 Clouds -1 1019 68 10000 0.99 7 20:47 23.01.2021
3380 Clouds -2 1019 69 10000 0.39 24 20:22 23.01.2021
3381 Clouds -2 1019 67 10000 0.39 24 19:46 23.01.2021
3382 Clear -2 1019 67 10000 0.45 60 19:22 23.01.2021
3383 Clear -2 1019 67 10000 0.39 60 18:49 23.01.2021
3384 Clear -2 1019 66 10000 0.83 46 18:26 23.01.2021
3385 Clear -2 1019 66 10000 0.83 46 17:48 23.01.2021
3386 Clear -1 1019 66 10000 1.02 40 17:27 23.01.2021
3387 Clear -1 1019 66 10000 1.02 40 16:49 23.01.2021
3388 Clear -1 1019 67 10000 0.66 31 16:28 23.01.2021
3389 Clear -1 1018 67 10000 0.66 31 15:41 23.01.2021
3390 Clear -1 1018 67 10000 0.52 4 15:22 23.01.2021
3391 Clear 0 1018 63 10000 0.52 4 14:33 23.01.2021
3392 Clear 0 1018 63 10000 1.04 5 13:55 23.01.2021
3393 Clear 0 1018 61 10000 1.04 5 13:36 23.01.2021
3394 Clouds 0 1018 60 10000 1.15 8 12:57 23.01.2021
3395 Clouds 0 1018 59 10000 1.19 9 12:57 23.01.2021
3396 Clouds 0 1017 61 10000 1.12 12 12:29 23.01.2021
3397 Clouds 0 1017 61 10000 1.12 12 11:48 23.01.2021
3398 Clouds 1 1017 59 10000 0.96 3 11:28 23.01.2021
3399 Clouds 1 1016 58 10000 0.96 3 10:52 23.01.2021
3400 Clouds 2 1016 56 10000 0.54 314 10:21 23.01.2021
3401 Clouds 3 1016 55 10000 0.54 314 09:48 23.01.2021
3402 Clouds 4 1016 53 10000 1.09 237 08:56 23.01.2021
3403 Clouds 4 1015 52 10000 1.09 237 08:31 23.01.2021
3404 Clouds 3 1007 52 10000 0.45 45 07:31 23.01.2021
3405 Clouds -2 1025 64 6000 2 320 03:41 23.01.2021
3406 Mist -6 1024 92 4000 1 360 00:54 23.01.2021
3407 Clouds -6 1024 92 6000 0.14 241 23:51 22.01.2021
3408 Clouds -6 1024 92 6000 1 0 23:30 22.01.2021
3409 Clouds -6 1024 79 7000 0.12 182 22:39 22.01.2021
3410 Clouds -6 1024 85 7000 1 0 21:47 22.01.2021
3411 Clouds -6 1024 85 8000 0.79 209 21:29 22.01.2021
3412 Clouds -5 1024 92 8000 1 40 20:59 22.01.2021
3413 Clouds -5 1025 85 8000 1 30 20:38 22.01.2021
3414 Clouds -5 1025 79 8000 1 20 19:56 22.01.2021
3415 Clouds -4 1025 86 8000 1 30 19:25 22.01.2021
3416 Clear -4 1025 86 10000 0.76 224 18:59 22.01.2021
3417 Clear -4 1025 86 10000 0.76 224 18:40 22.01.2021
3418 Clear -4 1025 86 10000 0.85 233 18:21 22.01.2021
3419 Clear -3 1025 73 10000 1 0 17:43 22.01.2021
3420 Clear -3 1025 73 10000 1 0 17:24 22.01.2021
3421 Clear -3 1025 86 10000 1 150 16:40 22.01.2021
3422 Clear -3 1025 86 10000 1 150 16:20 22.01.2021
3423 Clouds 0 1009 55 10000 0.46 221 15:28 22.01.2021
3424 Clouds 0 1018 54 10000 0.46 221 14:58 22.01.2021
3425 Clouds 0 1018 54 10000 0.37 196 14:30 22.01.2021
3426 Clouds 0 1018 54 10000 0.46 221 14:30 22.01.2021
3427 Clouds 0 1018 53 10000 0.37 196 13:47 22.01.2021
3428 Clouds 1 1018 53 10000 0.32 120 13:28 22.01.2021
3429 Clouds 1 1018 52 10000 0.42 123 12:46 22.01.2021
3430 Clouds 2 1018 52 10000 0.57 92 12:22 22.01.2021
3431 Clouds 2 1018 50 10000 0.57 92 11:46 22.01.2021
3432 Clouds 2 1009 48 10000 0.89 0 10:55 22.01.2021
3433 Clouds 2 1009 48 10000 1.34 0 10:35 22.01.2021
3434 Clouds 4 1009 46 10000 0.45 0 09:58 22.01.2021
3435 Clouds 4 1017 49 10000 0.81 205 09:29 22.01.2021
3436 Clouds 4 1008 45 10000 1.34 45 08:50 22.01.2021
3437 Clouds 5 1017 47 10000 1.22 197 08:25 22.01.2021
3438 Clouds 5 1017 46 10000 1.22 197 07:31 22.01.2021
3439 Clear 0 1028 55 10000 2 160 03:21 22.01.2021
3440 Clear -2 1020 55 10000 1.04 45 00:39 22.01.2021
3441 Clear -5 1025 73 10000 2 120 23:51 21.01.2021
3442 Clear -4 1025 67 10000 1 0 23:31 21.01.2021
3443 Clear -3 1025 68 10000 2 180 22:51 21.01.2021
3444 Clear -4 1024 67 10000 1 0 22:30 21.01.2021
3445 Clear -3 1018 50 10000 1.44 36 21:43 21.01.2021
3446 Clear -2 1017 49 10000 1.7 34 21:20 21.01.2021
3447 Clear -1 1024 54 10000 3 320 20:48 21.01.2021
3448 Clear -1 1023 58 10000 3 340 20:29 21.01.2021
3449 Clear -1 1023 63 10000 4 320 19:52 21.01.2021
3450 Clear -1 1023 63 10000 3 340 19:30 21.01.2021
3451 Clear -1 1023 73 10000 3 340 18:59 21.01.2021
3452 Clear 0 1017 54 10000 2.38 16 18:39 21.01.2021
3453 Clear 0 1017 56 10000 2.2 7 18:20 21.01.2021
3454 Clear 0 1016 62 10000 2.2 7 17:51 21.01.2021
3455 Clear 0 1022 68 7000 4 320 17:20 21.01.2021
3456 Clear 0 1016 63 10000 1.92 1 16:48 21.01.2021
3457 Clear 0 1016 63 10000 1.52 348 16:26 21.01.2021
3458 Clear 0 1016 61 10000 1.52 348 15:59 21.01.2021
3459 Clear 0 1016 61 10000 1.52 348 15:34 21.01.2021
3460 Clear 1 1015 59 10000 0.95 322 14:53 21.01.2021
3461 Clear 0 1015 60 10000 0.95 322 14:35 21.01.2021
3462 Clear 1 1015 56 10000 0.66 300 13:51 21.01.2021
3463 Clear 1 1015 56 10000 0.65 275 13:32 21.01.2021
3464 Clear 1 1015 55 10000 0.77 268 12:56 21.01.2021
3465 Clear 1 1015 53 10000 0.77 268 12:38 21.01.2021
3466 Clear 2 1015 53 10000 0.97 267 12:20 21.01.2021
3467 Clear 3 1014 52 10000 0.97 267 11:45 21.01.2021
3468 Clear 3 1014 50 10000 0.98 254 11:24 21.01.2021
3469 Clear 3 1014 49 10000 0.98 254 10:51 21.01.2021
3470 Clear 3 1020 41 6000 2 170 10:28 21.01.2021
3471 Clear 6 1019 33 10000 1 0 09:43 21.01.2021
3472 Clear 6 1019 33 10000 1 0 09:24 21.01.2021
3473 Clear 6 1019 33 10000 2 0 08:44 21.01.2021
3474 Clear 6 1019 31 10000 1 0 08:23 21.01.2021
3475 Clear 4 1019 30 10000 1 0 07:27 21.01.2021
3476 Clear 4 1020 35 10000 1 0 06:53 21.01.2021
3477 Clear 1 1021 44 10000 2 260 05:20 21.01.2021
3478 Clear -2 1022 74 10000 2 350 02:27 21.01.2021
3479 Clouds -3 1016 71 10000 0.15 355 00:51 21.01.2021
3480 Clouds -3 1016 73 10000 0.39 331 23:53 20.01.2021
3481 Clouds -2 1015 72 10000 0.39 331 23:32 20.01.2021
3482 Clouds -2 1015 71 10000 0.28 283 22:58 20.01.2021
3483 Clouds -2 1015 71 10000 0.28 283 22:37 20.01.2021
3484 Clouds -3 1015 70 10000 0.26 323 21:58 20.01.2021
3485 Clouds -3 1015 67 10000 0.26 323 21:40 20.01.2021
3486 Clouds -3 1015 68 10000 0.1 197 21:19 20.01.2021
3487 Clouds -3 1016 68 10000 0.1 197 20:38 20.01.2021
3488 Clouds -4 1023 79 8000 2 360 20:18 20.01.2021
3489 Clouds -3 1016 70 10000 0.58 43 19:42 20.01.2021
3490 Clouds -2 1016 69 10000 1.04 16 19:23 20.01.2021
3491 Clouds -2 1017 68 10000 0.91 7 18:42 20.01.2021
3492 Clouds -3 1023 79 8000 1 0 17:57 20.01.2021
3493 Clouds -3 1023 79 8000 1 330 17:39 20.01.2021
3494 Clouds -3 1023 79 9000 1 20 16:57 20.01.2021
3495 Clouds -3 1024 79 9000 0.5 239 16:38 20.01.2021
3496 Clouds -3 1024 73 9000 1 0 15:52 20.01.2021
3497 Clouds -3 1023 79 9000 1 0 15:34 20.01.2021
3498 Clear -3 1023 73 10000 0.49 327 14:50 20.01.2021
3499 Clear -3 1023 73 10000 1 10 14:23 20.01.2021
3500 Clear -3 1023 73 10000 1 0 13:43 20.01.2021
3501 Clouds -2 1017 59 10000 0.63 310 13:24 20.01.2021
3502 Clouds -2 1017 57 10000 0.63 310 12:39 20.01.2021
3503 Clear -1 1016 54 10000 0.85 328 11:58 20.01.2021
3504 Clear -1 1016 56 10000 0.85 328 11:38 20.01.2021
3505 Clear 0 1016 54 10000 0.79 300 10:56 20.01.2021
3506 Clear 0 1016 54 10000 0.79 300 10:32 20.01.2021
3507 Clear 1 1016 52 10000 1.05 235 09:54 20.01.2021
3508 Clear 1 1015 51 10000 0.38 240 09:27 20.01.2021
3509 Clear 2 1015 50 10000 0.38 240 08:57 20.01.2021
3510 Clear 1 1015 50 10000 0.28 338 08:31 20.01.2021
3511 Clear 1 1015 50 10000 0.28 338 07:57 20.01.2021
3512 Clear 1 1023 43 10000 2 300 07:35 20.01.2021
3513 Clear 1 1023 43 10000 3 320 06:39 20.01.2021
3514 Clear -4 1026 63 10000 2 310 03:28 20.01.2021
3515 Clear -5 1019 73 10000 1.21 359 01:19 20.01.2021
3516 Clear -5 1019 77 10000 1.17 359 00:46 20.01.2021
3517 Clear -5 1018 77 10000 1.09 1 23:49 19.01.2021
3518 Clear -5 1018 76 10000 1.16 357 23:27 19.01.2021
3519 Clear -5 1018 75 10000 1.16 357 22:57 19.01.2021
3520 Clear -5 1018 76 10000 1.16 357 22:37 19.01.2021
3521 Clear -5 1018 75 10000 1.22 1 22:19 19.01.2021
3522 Clear -5 1018 74 10000 1.22 1 21:50 19.01.2021
3523 Clear -5 1018 73 10000 1.29 355 21:26 19.01.2021
3524 Clear -5 1019 72 10000 1.29 355 20:44 19.01.2021
3525 Clouds -5 1019 72 10000 1.42 357 20:24 19.01.2021
3526 Clouds -5 1019 72 10000 1.42 357 19:53 19.01.2021
3527 Clouds -5 1019 71 10000 0.45 0 19:28 19.01.2021
3528 Clouds -4 1019 70 10000 1.46 356 18:49 19.01.2021
3529 Clouds -4 1019 69 10000 1.51 358 18:27 19.01.2021
3530 Clear -4 1020 68 10000 1.48 353 17:46 19.01.2021
3531 Clouds -4 1020 68 10000 1.47 355 17:27 19.01.2021
3532 Clouds -4 1020 67 10000 1.47 355 16:50 19.01.2021
3533 Clouds -4 1020 68 10000 1.41 354 16:29 19.01.2021
3534 Clouds -4 1021 67 10000 1.41 354 15:59 19.01.2021
3535 Clouds -4 1021 67 10000 1.41 354 15:40 19.01.2021
3536 Clouds -4 1021 67 10000 1.66 353 15:19 19.01.2021
3537 Clouds -4 1021 68 10000 1.66 353 14:41 19.01.2021
3538 Clouds -4 1021 69 10000 1.86 351 14:22 19.01.2021
3539 Clouds -4 1021 70 10000 1.86 351 13:41 19.01.2021
3540 Clouds -4 1021 70 10000 1.93 349 13:21 19.01.2021
3541 Clouds -4 1021 70 10000 1.98 348 12:48 19.01.2021
3542 Clouds -4 1021 70 10000 1.97 349 12:29 19.01.2021
3543 Clouds -4 1021 66 10000 1.97 349 11:43 19.01.2021
3544 Clouds -4 1021 67 10000 1.88 355 11:24 19.01.2021
3545 Clouds -4 1021 67 10000 1.88 355 10:51 19.01.2021
3546 Clouds -3 1020 66 10000 1.88 355 10:31 19.01.2021
3547 Clouds -3 1020 64 10000 1.33 11 09:53 19.01.2021
3548 Clouds -3 1020 63 10000 1.33 11 09:30 19.01.2021
3549 Clouds -3 1020 62 10000 1.24 38 08:56 19.01.2021
3550 Clouds -3 1021 61 10000 1.52 43 08:21 19.01.2021
3551 Clouds -3 1021 59 10000 1.52 43 07:38 19.01.2021
3552 Clear -3 1029 58 10000 2 280 06:50 19.01.2021
3553 Clouds -7 1025 77 10000 1.91 47 02:31 19.01.2021
3554 Clouds -8 1025 73 10000 1.82 61 00:49 19.01.2021
3555 Clouds -8 1025 76 10000 1.86 63 23:58 18.01.2021
3556 Clouds -8 1025 74 10000 1.86 63 23:31 18.01.2021
3557 Clouds -8 1025 75 10000 1.99 71 22:51 18.01.2021
3558 Clouds -8 1025 77 10000 2.21 80 22:25 18.01.2021
3559 Clouds -7 1032 77 10000 2.21 80 21:51 18.01.2021
3560 Clouds -7 1025 80 10000 2.72 91 21:24 18.01.2021
3561 Clouds -7 1025 80 10000 2.72 91 20:59 18.01.2021
3562 Clouds -7 1025 81 10000 2.72 91 20:39 18.01.2021
3563 Clouds -7 1031 81 10000 3.11 99 20:20 18.01.2021
3564 Clouds -7 1025 79 10000 3.11 99 19:48 18.01.2021
3565 Clouds -6 1025 79 10000 3.54 103 19:29 18.01.2021
3566 Clouds -6 1025 79 10000 3.48 104 18:44 18.01.2021
3567 Clouds -6 1025 79 10000 3.96 106 18:22 18.01.2021
3568 Clouds -6 1025 80 10000 3.96 106 17:41 18.01.2021
3569 Clouds -5 1025 82 10000 3.65 109 17:21 18.01.2021
3570 Clouds -5 1025 77 10000 3.65 109 16:46 18.01.2021
3571 Clouds -5 1024 76 10000 0.45 180 16:20 18.01.2021
3572 Clouds -4 1024 74 10000 3.13 115 15:45 18.01.2021
3573 Clear -4 1024 74 10000 3.55 122 15:25 18.01.2021
3574 Clear -4 1024 71 10000 0.45 135 14:44 18.01.2021
3575 Clear -3 1023 72 10000 0.45 225 14:26 18.01.2021
3576 Clear -3 1022 67 10000 0.45 315 13:47 18.01.2021
3577 Clear -2 1021 58 10000 0.89 225 13:27 18.01.2021
3578 Clear -3 1027 38 10000 1 30 12:53 18.01.2021
3579 Clear -2 1026 33 10000 1 20 12:20 18.01.2021
3580 Clear -4 1026 33 10000 1 10 11:56 18.01.2021
3581 Clear -4 1026 33 10000 1 30 11:37 18.01.2021
3582 Clear -2 1026 33 10000 1 30 11:19 18.01.2021
3583 Clear 2 1025 17 10000 1 130 10:42 18.01.2021
3584 Clear 4 1024 16 10000 2 150 09:47 18.01.2021
3585 Clear 5 1024 13 10000 1 0 09:27 18.01.2021
3586 Clear 5 1024 13 10000 1 0 08:52 18.01.2021
3587 Clear 4 1023 12 10000 1 0 08:18 18.01.2021
3588 Clear 4 1023 13 10000 1 0 07:33 18.01.2021
3589 Clear 2 1024 15 10000 3 50 05:35 18.01.2021
3590 Clear 2 1024 17 10000 4 20 04:37 18.01.2021
3591 Clear 2 1024 17 10000 4 20 04:18 18.01.2021
3592 Clear 1 1024 18 10000 4 20 03:41 18.01.2021
3593 Clear 1 1024 18 10000 4 20 03:20 18.01.2021
3594 Clear 0 1023 23 10000 4 30 02:37 18.01.2021
3595 Clear -9 1021 57 10000 2 10 00:49 18.01.2021
3596 Clear -6 1021 52 10000 1 0 00:30 18.01.2021
3597 Clear -11 1021 52 10000 1 0 23:48 17.01.2021
3598 Clear -11 1021 52 10000 1 0 23:20 17.01.2021
3599 Clear -5 1020 52 10000 1 0 22:39 17.01.2021
3600 Clear -3 1013 35 10000 1.89 3 22:20 17.01.2021
3601 Clear -7 1019 52 10000 1 0 21:40 17.01.2021
3602 Clear -7 1019 52 10000 1 0 21:22 17.01.2021
3603 Clear -7 1019 48 10000 2 0 20:48 17.01.2021
3604 Clear -6 1020 45 10000 1 0 20:28 17.01.2021
3605 Clear -5 1020 41 10000 1 0 19:42 17.01.2021
3606 Clear -4 1020 41 10000 1 0 19:23 17.01.2021
3607 Clear -5 1019 44 10000 1 0 18:43 17.01.2021
3608 Clear -4 1019 44 10000 1 0 18:23 17.01.2021
3609 Clear -3 1020 45 10000 1 0 17:48 17.01.2021
3610 Clear -4 1020 48 10000 2 80 17:26 17.01.2021
3611 Clear -4 1020 38 10000 1 0 16:44 17.01.2021
3612 Clear -3 1020 38 10000 1 0 16:21 17.01.2021
3613 Clear 0 1013 27 10000 1.85 332 15:43 17.01.2021
3614 Clear -2 1020 28 10000 2 10 15:24 17.01.2021
3615 Clear -2 1020 28 10000 2 320 14:49 17.01.2021
3616 Clear -2 1020 28 10000 2 320 14:49 17.01.2021
3617 Clear 0 1020 24 10000 2 310 14:26 17.01.2021
3618 Clear -1 1021 28 10000 2 20 13:46 17.01.2021
3619 Clouds 1 1014 26 10000 0.78 231 13:27 17.01.2021
3620 Clouds 1 1013 24 10000 0.74 250 12:54 17.01.2021
3621 Clouds 1 1014 24 10000 0.74 250 12:31 17.01.2021
3622 Clouds 1 1014 24 10000 1.08 212 11:59 17.01.2021
3623 Clear 1 1014 23 10000 0.95 236 11:24 17.01.2021
3624 Clear 1 1013 23 10000 0.95 236 10:48 17.01.2021
3625 Clear 2 1014 23 10000 0.75 248 10:21 17.01.2021
3626 Clear 3 1014 21 10000 0.75 248 09:42 17.01.2021
3627 Clear 3 1014 20 10000 1.43 245 08:46 17.01.2021
3628 Clear 3 1022 13 10000 5 200 07:46 17.01.2021
3629 Clear -1 1027 19 10000 2 0 04:29 17.01.2021
3630 Clear -3 1029 33 10000 1 0 02:48 17.01.2021
3631 Clear -5 1023 33 10000 0.3 292 00:51 17.01.2021
3632 Clear -6 1024 34 10000 1.09 221 00:20 17.01.2021
3633 Clear -5 1024 33 10000 1.09 221 23:51 16.01.2021
3634 Clear -5 1024 31 10000 2.14 209 23:20 16.01.2021
3635 Clear -5 1025 31 10000 2.14 209 22:45 16.01.2021
3636 Clear -5 1025 32 10000 1.62 241 21:59 16.01.2021
3637 Clear -5 1025 32 10000 1.62 241 21:38 16.01.2021
3638 Clear -4 1026 30 10000 1.96 278 21:18 16.01.2021
3639 Clear -4 1026 28 10000 1.96 278 20:44 16.01.2021
3640 Clear -4 1026 28 10000 0.45 0 20:22 16.01.2021
3641 Clear -6 1034 40 10000 3 340 19:48 16.01.2021
3642 Clear -5 1034 35 10000 3 330 19:29 16.01.2021
3643 Clear -3 1028 29 10000 3.55 321 18:43 16.01.2021
3644 Clear -3 1028 28 10000 0.45 0 18:25 16.01.2021
3645 Clear -4 1035 27 10000 1 0 17:48 16.01.2021
3646 Clear -3 1035 25 10000 4 300 17:29 16.01.2021
3647 Clear -4 1035 28 10000 4 300 16:47 16.01.2021
3648 Clear -2 1029 27 10000 0.89 23 16:27 16.01.2021
3649 Clear -2 1029 27 10000 0.45 0 15:54 16.01.2021
3650 Clear -2 1029 27 10000 0.45 135 15:26 16.01.2021
3651 Clear -2 1030 26 10000 0.45 0 14:25 16.01.2021
3652 Clear -3 1036 22 10000 6 280 13:49 16.01.2021
3653 Clear -2 1035 19 10000 5 290 13:25 16.01.2021
3654 Clear -2 1035 22 10000 3 320 12:46 16.01.2021
3655 Clear -2 1035 24 10000 3 330 12:21 16.01.2021
3656 Clear -2 1034 24 10000 3 320 11:49 16.01.2021
3657 Clear 0 1027 23 10000 0.89 45 11:25 16.01.2021
3658 Clear -1 1033 19 10000 5 300 10:47 16.01.2021
3659 Clear 0 1027 23 10000 0.45 315 10:28 16.01.2021
3660 Clear 0 1033 18 10000 7 290 09:40 16.01.2021
3661 Clear 0 1033 18 10000 7 290 09:19 16.01.2021
3662 Clear 0 1033 18 10000 9 300 07:51 16.01.2021
3663 Clear -1 1033 19 10000 8 300 06:44 16.01.2021
3664 Clear -1 1033 19 10000 8 300 06:44 16.01.2021
3665 Clear -2 1036 22 10000 7 300 04:40 16.01.2021
3666 Clear -5 1036 30 10000 4 350 02:56 16.01.2021
3667 Clear -6 1036 38 10000 2 350 02:21 16.01.2021
3668 Clear -6 1028 35 10000 1.65 328 00:43 16.01.2021
3669 Clear -6 1028 36 10000 1.14 342 00:19 16.01.2021
3670 Clear -6 1028 36 10000 1.13 356 23:25 15.01.2021
3671 Clear -6 1027 35 10000 1.16 18 22:27 15.01.2021
3672 Clear -6 1027 34 10000 0.45 315 21:48 15.01.2021
3673 Clear -5 1027 35 10000 1.71 26 21:25 15.01.2021
3674 Clear -5 1027 35 10000 1.71 26 20:42 15.01.2021
3675 Clear -5 1027 35 10000 2.4 28 20:23 15.01.2021
3676 Clear -5 1027 36 10000 2.4 28 19:43 15.01.2021
3677 Clear -5 1027 34 10000 2.8 30 19:24 15.01.2021
3678 Clear -5 1027 33 10000 2.8 30 18:45 15.01.2021
3679 Clear -5 1027 33 10000 2.71 31 18:20 15.01.2021
3680 Clear -5 1027 31 10000 2.71 31 17:54 15.01.2021
3681 Clear -4 1027 32 10000 2.81 28 17:28 15.01.2021
3682 Clear -4 1027 31 10000 2.81 28 16:59 15.01.2021
3683 Clear -4 1027 31 10000 2.81 28 16:40 15.01.2021
3684 Clear -4 1026 31 10000 2.84 29 16:21 15.01.2021
3685 Clear -3 1026 26 10000 2.84 29 15:40 15.01.2021
3686 Clear -3 1026 25 10000 2.83 33 15:18 15.01.2021
3687 Clear -2 1026 24 10000 2.83 33 14:39 15.01.2021
3688 Clear -2 1025 24 10000 2.99 37 14:20 15.01.2021
3689 Clear -2 1025 24 10000 1.34 0 13:40 15.01.2021
3690 Clear -1 1024 24 10000 0.89 315 13:19 15.01.2021
3691 Clear -2 1030 24 10000 3 20 12:47 15.01.2021
3692 Clear -1 1029 22 10000 4 20 12:26 15.01.2021
3693 Clear 0 1028 27 10000 3 10 11:42 15.01.2021
3694 Clear 0 1028 27 10000 3 10 11:21 15.01.2021
3695 Clear 0 1028 27 10000 3 360 10:51 15.01.2021
3696 Clear 1 1027 23 10000 3 10 10:24 15.01.2021
3697 Clear 2 1027 18 10000 4 320 09:50 15.01.2021
3698 Clear 3 1027 18 10000 1 0 09:29 15.01.2021
3699 Clear 2 1026 21 10000 3 40 08:29 15.01.2021
3700 Clear 3 1026 20 10000 1 0 07:46 15.01.2021
3701 Clear 2 1026 21 10000 3 70 07:24 15.01.2021
3702 Clear 2 1026 23 10000 3 30 06:51 15.01.2021
3703 Clear 0 1025 34 10000 3 30 03:29 15.01.2021
3704 Clear -2 1022 63 7000 4 360 00:55 15.01.2021
3705 Clear 0 1019 54 8000 6 330 23:42 14.01.2021
3706 Clear -2 1019 86 8000 2 20 22:58 14.01.2021
3707 Clear -2 1019 80 8000 3 350 22:40 14.01.2021
3708 Clear -2 1019 80 8000 3 350 22:22 14.01.2021
3709 Clear -1 1018 80 8000 3 340 21:42 14.01.2021
3710 Clear 1 1012 70 10000 3.21 313 21:21 14.01.2021
3711 Clear 0 1012 74 10000 3.21 313 20:48 14.01.2021
3712 Clear -1 1011 71 10000 1.94 307 20:22 14.01.2021
3713 Clear -1 1011 74 10000 1.94 307 19:43 14.01.2021
3714 Clouds 0 1010 72 10000 1.78 324 19:25 14.01.2021
3715 Clouds 0 1010 73 10000 1.43 302 18:51 14.01.2021
3716 Clouds 0 1010 73 10000 1.62 329 18:27 14.01.2021
3717 Clouds 0 1010 73 10000 1.62 329 17:46 14.01.2021
3718 Clouds 0 1010 73 10000 1.72 338 17:26 14.01.2021
3719 Clouds 0 1010 73 10000 1.72 338 16:43 14.01.2021
3720 Clouds 0 1009 74 10000 1.74 352 15:58 14.01.2021
3721 Clear -1 1016 80 10000 2 340 15:39 14.01.2021
3722 Clear -1 1016 74 10000 2 330 14:59 14.01.2021
3723 Clear 0 1016 74 10000 3 290 14:38 14.01.2021
3724 Clouds 1 1009 71 10000 2.12 346 14:19 14.01.2021
3725 Clouds 1 1009 71 10000 2.12 346 13:52 14.01.2021
3726 Clouds 1 1009 70 10000 2.21 343 13:21 14.01.2021
3727 Clouds 1 1008 70 10000 2.21 343 12:47 14.01.2021
3728 Clear 1 1015 60 10000 3 310 12:19 14.01.2021
3729 Clear 1 1014 60 10000 3 340 11:43 14.01.2021
3730 Clear 1 1014 60 10000 3 340 11:21 14.01.2021
3731 Clear 1 1014 59 10000 3 350 10:52 14.01.2021
3732 Clear 1 1014 55 10000 3 360 10:27 14.01.2021
3733 Clear 1 1014 55 10000 3 350 09:48 14.01.2021
3734 Clear 2 1013 55 10000 2 20 09:23 14.01.2021
3735 Clear 2 1013 55 10000 2 80 08:49 14.01.2021
3736 Clear 3 1013 52 10000 3 100 08:27 14.01.2021
3737 Clear 3 1013 52 10000 3 100 07:49 14.01.2021
3738 Clear 2 1014 55 10000 3 0 06:53 14.01.2021
3739 Clear 1 1015 60 10000 1 0 05:50 14.01.2021
3740 Clear -2 1018 74 10000 1 0 01:42 14.01.2021
3741 Clear -3 1018 80 10000 2 50 23:55 13.01.2021
3742 Clear -4 1018 86 10000 1 110 23:23 13.01.2021
3743 Clear -4 1019 86 10000 1 0 22:30 13.01.2021
3744 Clear -2 1012 76 10000 1.92 61 21:59 13.01.2021
3745 Clear -2 1012 76 10000 1.92 61 21:41 13.01.2021
3746 Clear -1 1012 78 10000 1.81 73 21:19 13.01.2021
3747 Clear -2 1020 80 10000 2 120 20:38 13.01.2021
3748 Clear -1 1020 80 10000 2 120 20:19 13.01.2021
3749 Clear -1 1020 80 9000 3 120 19:42 13.01.2021
3750 Clear 0 1020 80 9000 3 120 19:21 13.01.2021
3751 Clouds 0 1020 74 9000 2 120 18:41 13.01.2021
3752 Clear 0 1013 84 10000 1.79 77 17:51 13.01.2021
3753 Clear 0 1013 83 10000 1.85 93 17:26 13.01.2021
3754 Clear 0 1012 79 10000 1.85 93 16:59 13.01.2021
3755 Clear 0 1012 70 10000 1.69 94 16:22 13.01.2021
3756 Clear 0 1012 58 10000 1.69 94 15:59 13.01.2021
3757 Clear 0 1019 74 8000 4 110 15:39 13.01.2021
3758 Clear 1 1018 51 9000 4 110 14:49 13.01.2021
3759 Clear -3 1018 46 9000 1 0 14:18 13.01.2021
3760 Clear -2 1017 43 8000 0.9 89 13:37 13.01.2021
3761 Clear 0 1017 43 8000 1.1 160 13:18 13.01.2021
3762 Clear 0 1016 40 6000 1 0 12:43 13.01.2021
3763 Clear 0 1016 40 6000 1 0 12:22 13.01.2021
3764 Clear 1 1016 37 6000 1 0 11:47 13.01.2021
3765 Clear 4 1016 24 6000 1 0 11:26 13.01.2021
3766 Clear 3 1016 25 6000 2 0 10:43 13.01.2021
3767 Clear 4 1015 24 6000 3 330 10:24 13.01.2021
3768 Clear 7 1014 19 7000 3 300 09:38 13.01.2021
3769 Clear 7 1014 18 8000 4 320 08:57 13.01.2021
3770 Clear 7 1014 18 10000 6 310 08:33 13.01.2021
3771 Clear 7 1014 19 10000 5 300 07:53 13.01.2021
3772 Clear 7 1014 18 10000 5 300 07:24 13.01.2021
3773 Clear 7 1015 23 10000 3 310 04:21 13.01.2021
3774 Clear 4 1015 26 10000 3 340 03:52 13.01.2021
3775 Clear 2 1014 35 10000 1 0 03:31 13.01.2021
3776 Clear -1 1014 43 10000 2 70 02:46 13.01.2021
3777 Clear -10 1011 67 10000 1 340 00:38 13.01.2021
3778 Clear -10 1010 67 10000 2 40 23:33 12.01.2021
3779 Clear -9 1010 62 10000 1 0 22:47 12.01.2021
3780 Clear -10 1010 67 10000 1 360 22:25 12.01.2021
3781 Clear -9 1009 62 10000 1 0 21:54 12.01.2021
3782 Clear -8 1009 57 10000 1 0 21:35 12.01.2021
3783 Clear -8 1009 57 10000 2 350 20:57 12.01.2021
3784 Clear -2 1008 57 10000 1 0 20:38 12.01.2021
3785 Clear -2 1008 57 10000 1 0 20:20 12.01.2021
3786 Clear -4 1008 57 10000 1 0 19:39 12.01.2021
3787 Clear -4 1008 57 10000 2 340 18:52 12.01.2021
3788 Clear -3 1007 49 10000 1 0 18:25 12.01.2021
3789 Clear -3 1007 53 10000 1 0 17:56 12.01.2021
3790 Clear -3 1007 49 10000 1 0 17:32 12.01.2021
3791 Clear -3 1007 50 10000 2 320 16:44 12.01.2021
3792 Clear -3 1007 46 10000 1 0 16:26 12.01.2021
3793 Clear -3 1008 46 10000 2 360 15:48 12.01.2021
3794 Clear -3 1008 45 10000 3 340 15:27 12.01.2021
3795 Clear -2 1007 42 10000 1 0 14:49 12.01.2021
3796 Clear -2 1007 45 10000 2 80 14:26 12.01.2021
3797 Clear -1 1008 39 10000 1 0 13:56 12.01.2021
3798 Clear -3 1008 39 10000 2 360 13:37 12.01.2021
3799 Clear -3 1007 39 10000 1 0 12:38 12.01.2021
3800 Clear -5 1007 39 10000 2 80 11:45 12.01.2021
3801 Clear -5 1007 39 10000 2 80 11:45 12.01.2021
3802 Clear -3 1008 36 10000 1 60 11:27 12.01.2021
3803 Clear 1 1007 23 10000 1 140 10:44 12.01.2021
3804 Clear 1 1007 23 10000 1 140 10:20 12.01.2021
3805 Clear 3 1007 20 10000 3 160 09:52 12.01.2021
3806 Clear 4 1007 19 10000 4 170 09:23 12.01.2021
3807 Clear 5 1007 19 10000 3 200 08:27 12.01.2021
3808 Clear 3 1008 20 10000 3 190 07:52 12.01.2021
3809 Clear 3 1008 22 10000 3 150 07:33 12.01.2021
3810 Clear 0 1010 27 10000 1 0 05:46 12.01.2021
3811 Clear -3 1012 39 10000 1 0 03:46 12.01.2021
3812 Clear -4 1012 42 10000 1 0 03:22 12.01.2021
3813 Clear -8 1013 67 10000 1 0 02:18 12.01.2021
3814 Clouds -6 1006 49 10000 0.59 298 00:35 12.01.2021
3815 Clouds -5 1007 46 10000 0.63 5 23:43 11.01.2021
3816 Clear -7 1013 56 10000 1 0 23:20 11.01.2021
3817 Clear -7 1014 56 10000 2 340 22:46 11.01.2021
3818 Clear -7 1014 61 10000 1 0 22:28 11.01.2021
3819 Clear -7 1014 61 10000 2 350 21:46 11.01.2021
3820 Clouds -6 1007 44 10000 0.91 352 21:25 11.01.2021
3821 Clear -6 1015 52 10000 1 0 20:59 11.01.2021
3822 Clear -6 1016 57 10000 1 0 20:39 11.01.2021
3823 Clear -6 1016 57 10000 1 0 20:39 11.01.2021
3824 Clear -6 1016 57 10000 1 0 20:20 11.01.2021
3825 Clear -6 1016 48 10000 1 0 19:49 11.01.2021
3826 Clear -5 1017 52 10000 0.97 1 19:22 11.01.2021
3827 Clear -5 1018 52 10000 1 0 18:43 11.01.2021
3828 Clear -5 1018 52 10000 1 0 18:23 11.01.2021
3829 Clear -5 1019 52 10000 1 0 17:42 11.01.2021
3830 Clouds -4 1011 36 10000 0.67 335 17:24 11.01.2021
3831 Clouds -4 1012 35 10000 0.67 335 16:48 11.01.2021
3832 Clouds -4 1012 35 10000 0.69 317 16:29 11.01.2021
3833 Clear -5 1020 45 10000 1 140 15:57 11.01.2021
3834 Clear -5 1021 42 10000 1 0 15:36 11.01.2021
3835 Clear -4 1021 38 10000 1 0 14:58 11.01.2021
3836 Clear -6 1022 35 10000 1 150 14:36 11.01.2021
3837 Clear -3 1022 33 10000 1 0 13:48 11.01.2021
3838 Clear -2 1022 27 10000 2 230 13:23 11.01.2021
3839 Clear -1 1022 24 10000 3 250 12:44 11.01.2021
3840 Clear -1 1022 23 10000 3 0 12:26 11.01.2021
3841 Clear -1 1023 23 10000 4 280 11:48 11.01.2021
3842 Clear -1 1023 24 10000 4 280 11:18 11.01.2021
3843 Clear 0 1023 18 10000 5 280 10:42 11.01.2021
3844 Clear 0 1023 18 10000 5 280 10:21 11.01.2021
3845 Clear 1 1023 16 10000 7 290 09:37 11.01.2021
3846 Clear 1 1023 16 10000 7 290 09:19 11.01.2021
3847 Clear 1 1023 18 10000 8 290 08:42 11.01.2021
3848 Clear 1 1024 18 10000 8 300 07:51 11.01.2021
3849 Clear 1 1024 18 10000 7 290 07:25 11.01.2021
3850 Clear 0 1025 18 10000 6 310 06:50 11.01.2021
3851 Clear -3 1029 29 10000 5 330 02:57 11.01.2021
3852 Clear -4 1028 33 10000 4 330 01:25 11.01.2021
3853 Clear -3 1028 28 10000 6 290 23:51 10.01.2021
3854 Clear -2 1028 26 10000 6 300 23:24 10.01.2021
3855 Clear -2 1028 26 10000 6 300 22:46 10.01.2021
3856 Clear -3 1028 33 10000 5 290 22:20 10.01.2021
3857 Clear -5 1029 42 10000 2 330 21:44 10.01.2021
3858 Clear -4 1029 45 10000 3 330 21:20 10.01.2021
3859 Clear -5 1029 42 10000 2 280 20:50 10.01.2021
3860 Clear -4 1030 39 10000 2 300 20:29 10.01.2021
3861 Clear -4 1030 42 10000 2 350 19:43 10.01.2021
3862 Clear -4 1030 42 10000 2 350 19:24 10.01.2021
3863 Snow -4 1030 46 10000 3 360 18:47 10.01.2021
3864 Clear -5 1030 45 10000 2 360 18:21 10.01.2021
3865 Clear -5 1031 42 10000 1 0 17:28 10.01.2021
3866 Clear -6 1031 39 10000 0.74 327 16:58 10.01.2021
3867 Snow -6 1031 38 10000 1 150 16:32 10.01.2021
3868 Clear -6 1031 38 10000 1 0 15:48 10.01.2021
3869 Clear -5 1031 36 10000 1 0 15:25 10.01.2021
3870 Clear -5 1031 36 10000 1 0 15:25 10.01.2021
3871 Clear -4 1031 33 10000 1 0 14:44 10.01.2021
3872 Clear -4 1031 30 10000 1 0 14:25 10.01.2021
3873 Clear -1 1031 24 10000 2 300 13:54 10.01.2021
3874 Clear -1 1031 27 10000 3 300 13:36 10.01.2021
3875 Clear -1 1031 27 10000 3 300 13:18 10.01.2021
3876 Clear 0 1031 21 10000 5 290 12:42 10.01.2021
3877 Clear 0 1031 25 10000 4 300 11:58 10.01.2021
3878 Clear 0 1031 23 10000 5 300 11:22 10.01.2021
3879 Clear 0 1030 23 10000 4 290 10:58 10.01.2021
3880 Clear 0 1030 19 10000 4 280 10:31 10.01.2021
3881 Clear 1 1030 18 10000 5 290 09:59 10.01.2021
3882 Clear 1 1030 18 10000 6 290 09:24 10.01.2021
3883 Clear 1 1030 18 10000 6 300 08:20 10.01.2021
3884 Clear 2 1030 17 10000 7 310 07:29 10.01.2021
3885 Clear 0 1032 19 10000 6 300 06:19 10.01.2021
3886 Clear 0 1033 21 10000 6 290 05:36 10.01.2021
3887 Clear -4 1033 28 10000 8 300 02:56 10.01.2021
3888 Clear -5 1031 33 10000 6 290 00:52 10.01.2021
3889 Clear -5 1030 30 10000 7 300 23:48 09.01.2021
3890 Clear -5 1030 30 10000 8 300 23:29 09.01.2021
3891 Clear -5 1030 30 10000 8 290 22:47 09.01.2021
3892 Clear -5 1030 33 10000 6 300 22:18 09.01.2021
3893 Clear -5 1030 33 10000 5 300 21:56 09.01.2021
3894 Clear -5 1030 30 10000 6 320 21:38 09.01.2021
3895 Clear -4 1030 30 10000 6 320 21:18 09.01.2021
3896 Clear -5 1030 33 10000 6 330 20:39 09.01.2021
3897 Clear -5 1031 38 10000 3 310 19:45 09.01.2021
3898 Clear -4 1030 35 10000 3 320 19:22 09.01.2021
3899 Clear -4 1030 36 10000 3 310 18:44 09.01.2021
3900 Clear -4 1030 33 10000 5 300 18:26 09.01.2021
3901 Clear -4 1030 33 10000 6 300 17:47 09.01.2021
3902 Clear -4 1029 33 10000 5 300 17:27 09.01.2021
3903 Clear -3 1029 36 10000 3 320 16:36 09.01.2021
3904 Clear -3 1029 33 10000 5 300 15:52 09.01.2021
3905 Clear -3 1029 33 10000 4 320 15:32 09.01.2021
3906 Clear -3 1028 36 10000 3 330 14:41 09.01.2021
3907 Clear -3 1028 36 10000 3 330 14:20 09.01.2021
3908 Clear -2 1028 31 10000 3 300 13:49 09.01.2021
3909 Clear -2 1028 31 10000 3 290 13:30 09.01.2021
3910 Clear -2 1028 31 10000 3 290 13:30 09.01.2021
3911 Clear -1 1028 29 10000 3 310 12:49 09.01.2021
3912 Clear -2 1027 29 10000 4 340 12:24 09.01.2021
3913 Clear -2 1027 29 10000 4 310 11:56 09.01.2021
3914 Clear 0 1027 27 10000 5 290 11:30 09.01.2021
3915 Clear 0 1026 25 10000 6 290 10:52 09.01.2021
3916 Clear 0 1026 21 10000 6 280 10:33 09.01.2021
3917 Clear 0 1026 21 10000 6 280 09:53 09.01.2021
3918 Clear 1 1026 19 10000 9 280 09:29 09.01.2021
3919 Clear 1 1027 19 10000 8 290 08:35 09.01.2021
3920 Clear 1 1028 18 10000 8 290 06:58 09.01.2021
3921 Clear 0 1028 19 10000 8 280 06:40 09.01.2021
3922 Clear -1 1030 24 10000 8 290 04:50 09.01.2021
3923 Clear -5 1030 28 10000 3 340 03:22 09.01.2021
3924 Clear -7 1030 41 10000 2 10 02:31 09.01.2021
3925 Clear -12 1030 56 10000 3 360 01:46 09.01.2021
3926 Clear -10 1014 36 10000 2.04 327 00:36 09.01.2021
3927 Clear -10 1029 48 10000 1 0 23:57 08.01.2021
3928 Clear -7 1022 43 10000 2.87 330 22:58 08.01.2021
3929 Clear -7 1028 35 10000 6 310 22:19 08.01.2021
3930 Clear -7 1022 38 10000 2.91 333 21:44 08.01.2021
3931 Clear -6 1029 30 10000 6 320 20:49 08.01.2021
3932 Clear -7 1029 30 10000 6 320 20:25 08.01.2021
3933 Clear -7 1029 32 10000 5 330 19:55 08.01.2021
3934 Clear -7 1029 30 10000 7 320 19:22 08.01.2021
3935 Clear -7 1029 30 10000 5 310 18:36 08.01.2021
3936 Clear -7 1029 30 10000 5 310 18:18 08.01.2021
3937 Clear -7 1022 35 10000 0.45 338 17:44 08.01.2021
3938 Clear -7 1022 35 10000 0.45 0 17:20 08.01.2021
3939 Clear -6 1022 35 10000 2.39 337 16:33 08.01.2021
3940 Clear -6 1023 33 10000 2.84 330 15:44 08.01.2021
3941 Clear -6 1023 32 10000 3.18 325 14:56 08.01.2021
3942 Clear -6 1023 31 10000 3.18 325 14:35 08.01.2021
3943 Clear -5 1022 31 10000 0.89 0 13:41 08.01.2021
3944 Clear -7 1029 29 10000 5 350 13:18 08.01.2021
3945 Clear -6 1029 25 10000 5 360 12:45 08.01.2021
3946 Clear -6 1029 27 10000 5 340 12:19 08.01.2021
3947 Clear -6 1029 25 10000 4 340 11:43 08.01.2021
3948 Clear -5 1022 32 10000 0.45 0 11:23 08.01.2021
3949 Clear -5 1022 30 10000 0.89 0 10:49 08.01.2021
3950 Clear -4 1022 30 10000 4.87 303 10:26 08.01.2021
3951 Clear -4 1022 28 10000 0.89 0 09:44 08.01.2021
3952 Clear -4 1021 28 10000 0.89 0 09:25 08.01.2021
3953 Clear -4 1028 20 10000 8 290 08:33 08.01.2021
3954 Clear -4 1028 22 10000 10 280 07:25 08.01.2021
3955 Clear -6 1029 21 10000 6 300 05:43 08.01.2021
3956 Clear -12 1031 50 10000 2 350 23:46 07.01.2021
3957 Clear -11 1025 33 10000 0.45 0 23:28 07.01.2021
3958 Clear -11 1031 43 10000 1 0 22:45 07.01.2021
3959 Clear -12 1031 42 10000 2 320 22:25 07.01.2021
3960 Clear -12 1031 42 10000 2 320 22:25 07.01.2021
3961 Clear -10 1025 31 10000 0.45 315 21:42 07.01.2021
3962 Clear -10 1025 31 10000 0.45 0 21:24 07.01.2021
3963 Clear -10 1025 32 10000 0.45 315 20:46 07.01.2021
3964 Clear -11 1016 34 10000 0.89 90 20:28 07.01.2021
3965 Clear -11 1016 32 10000 3.04 307 19:43 07.01.2021
3966 Clear -10 1025 32 10000 0.45 0 19:20 07.01.2021
3967 Clear -11 1033 31 10000 2 360 18:30 07.01.2021
3968 Clear -10 1026 33 10000 0.89 0 17:47 07.01.2021
3969 Clear -9 1026 33 10000 0.89 0 17:27 07.01.2021
3970 Clear -9 1027 32 10000 0.45 0 16:53 07.01.2021
3971 Clear -9 1027 31 10000 0.89 0 16:27 07.01.2021
3972 Clear -9 1027 31 10000 1.34 0 15:41 07.01.2021
3973 Clear -10 1028 31 10000 0.45 0 14:57 07.01.2021
3974 Clear -10 1028 31 10000 0.45 315 14:27 07.01.2021
3975 Clear -10 1028 29 10000 0.45 0 13:45 07.01.2021
3976 Clear -10 1028 30 10000 0.89 0 13:18 07.01.2021
3977 Clear -10 1029 30 10000 1.34 315 12:42 07.01.2021
3978 Clear -9 1028 28 10000 0.89 0 11:55 07.01.2021
3979 Clear -9 1028 28 10000 6.11 311 11:36 07.01.2021
3980 Clear -9 1028 27 10000 0.45 270 10:50 07.01.2021
3981 Clear -8 1028 27 10000 5.2 310 10:27 07.01.2021
3982 Clear -8 1028 26 10000 5.2 310 09:48 07.01.2021
3983 Clear -8 1028 24 10000 1.34 0 09:19 07.01.2021
3984 Clear -7 1027 24 10000 0.45 0 08:29 07.01.2021
3985 Clear -8 1027 25 10000 0.89 180 07:51 07.01.2021
3986 Clear -8 1033 18 10000 6 320 07:26 07.01.2021
3987 Clear -11 1028 26 10000 0.45 135 04:31 07.01.2021
3988 Clear -19 1038 39 10000 1 0 00:30 07.01.2021
3989 Clear -18 1031 33 10000 0.66 249 23:48 06.01.2021
3990 Clear -18 1031 33 10000 1.57 271 22:39 06.01.2021
3991 Clear -18 1032 32 10000 2.22 266 21:44 06.01.2021
3992 Clear -18 1032 32 10000 3.21 307 21:23 06.01.2021
3993 Clear -18 1032 32 10000 3.21 307 20:58 06.01.2021
3994 Clear -17 1033 31 10000 4.36 328 20:25 06.01.2021
3995 Clear -17 1034 31 10000 4.36 328 19:59 06.01.2021
3996 Clear -17 1034 29 10000 4.36 328 19:36 06.01.2021
3997 Clear -17 1035 30 10000 5.62 325 19:18 06.01.2021
3998 Clear -17 1042 20 10000 6 340 18:41 06.01.2021
3999 Clear -17 1042 18 10000 5 330 18:22 06.01.2021
4000 Clear -17 1036 27 10000 0.89 0 17:42 06.01.2021
4001 Clear -17 1036 27 10000 0.89 0 17:23 06.01.2021
4002 Clear -17 1036 26 10000 1.34 0 16:41 06.01.2021
4003 Clear -17 1036 26 10000 1.34 315 16:19 06.01.2021
4004 Clear -18 1037 25 10000 1.34 0 15:52 06.01.2021
4005 Clear -18 1037 24 10000 0.89 315 15:31 06.01.2021
4006 Clear -18 1037 24 10000 0.45 0 14:46 06.01.2021
4007 Clear -18 1043 18 10000 8 320 14:20 06.01.2021
4008 Clear -18 1038 26 10000 1.34 0 13:42 06.01.2021
4009 Clear -17 1037 28 10000 8.2 330 13:22 06.01.2021
4010 Clear -17 1037 27 10000 0.45 45 12:48 06.01.2021
4011 Clear -17 1036 26 10000 1.34 0 11:54 06.01.2021
4012 Clear -17 1036 25 10000 1.34 0 11:26 06.01.2021
4013 Clear -16 1035 24 10000 1.34 293 10:57 06.01.2021
4014 Clear -15 1034 23 10000 1.34 225 10:18 06.01.2021
4015 Clear -15 1033 22 10000 2.68 338 09:49 06.01.2021
4016 Clear -13 1032 21 10000 1.34 315 08:57 06.01.2021
4017 Clear -13 1032 21 10000 1.34 45 08:30 06.01.2021
4018 Clear -12 1031 21 10000 1.79 315 07:54 06.01.2021
4019 Clear -11 1036 10 10000 11 330 06:46 06.01.2021
4020 Clear -11 1036 13 10000 11 340 05:33 06.01.2021
4021 Clear -11 1037 12 10000 13 330 04:34 06.01.2021
4022 Clear -11 1037 15 10000 11 330 02:47 06.01.2021
4023 Clear -12 1036 14 10000 11 320 02:23 06.01.2021
4024 Clear -10 1034 14 10000 6 320 00:34 06.01.2021
4025 Clouds -9 1028 24 10000 0.89 0 23:29 05.01.2021
4026 Clear -8 1031 16 10000 12 290 22:43 05.01.2021
4027 Clouds -7 1033 25 10000 0.89 338 22:21 05.01.2021
4028 Clouds -8 1025 26 10000 0.45 338 21:56 05.01.2021
4029 Clouds -7 1024 27 10000 1.34 45 20:56 05.01.2021
4030 Clouds -7 1024 27 10000 0.45 315 20:25 05.01.2021
4031 Clouds -6 1025 32 10000 0.89 0 19:44 05.01.2021
4032 Clouds -7 1025 35 10000 4.3 337 19:21 05.01.2021
4033 Clear -8 1031 55 10000 2 350 18:44 05.01.2021
4034 Clear -7 1031 50 10000 2 350 18:25 05.01.2021
4035 Clear -8 1032 50 10000 2 350 17:50 05.01.2021
4036 Clear -8 1032 46 10000 1 0 17:29 05.01.2021
4037 Clear -7 1032 46 10000 2 350 16:53 05.01.2021
4038 Clear -7 1032 46 10000 1 360 16:22 05.01.2021
4039 Clear -7 1032 43 10000 1 0 15:50 05.01.2021
4040 Clear -7 1032 39 10000 2 360 15:25 05.01.2021
4041 Clear -6 1026 33 10000 0.39 90 14:41 05.01.2021
4042 Clear -5 1033 27 10000 2 200 13:51 05.01.2021
4043 Clear -5 1033 27 10000 2 200 13:32 05.01.2021
4044 Clear -4 1026 32 10000 1.13 175 12:50 05.01.2021
4045 Clear -4 1026 32 10000 1.34 180 12:29 05.01.2021
4046 Clear -4 1027 30 10000 1.34 180 11:41 05.01.2021
4047 -273 0 0 0 0 0 11:23 05.01.2021
4048 Clear -4 1027 31 10000 1.4 171 11:21 05.01.2021
4049 Clear -4 1027 29 10000 1.4 171 10:44 05.01.2021
4050 Clear -4 1027 27 10000 1.02 174 09:58 05.01.2021
4051 Clear -3 1027 26 10000 1.02 174 09:38 05.01.2021
4052 Clear -2 1027 25 10000 1.31 249 08:42 05.01.2021
4053 Clear -2 1027 24 10000 2.03 262 08:18 05.01.2021
4054 Clear -3 1037 19 10000 2 310 05:29 05.01.2021
4055 Clear -8 1040 26 10000 1 0 02:56 05.01.2021
4056 Clear -9 1033 35 10000 4.05 329 00:23 05.01.2021
4057 Clear -9 1033 35 10000 4.05 329 23:40 04.01.2021
4058 Clear -8 1033 34 10000 4.87 328 23:21 04.01.2021
4059 Clear -8 1032 33 10000 4.87 328 22:45 04.01.2021
4060 Clear -9 1032 32 10000 5.33 327 21:58 04.01.2021
4061 Clear -8 1033 32 10000 5.33 327 21:39 04.01.2021
4062 Clear -8 1033 32 10000 5.2 328 20:58 04.01.2021
4063 Clear -8 1033 32 10000 5.2 328 20:37 04.01.2021
4064 Clear -8 1033 32 10000 5.38 325 20:18 04.01.2021
4065 Clear -8 1032 30 10000 5.38 325 19:41 04.01.2021
4066 Clear -7 1032 30 10000 5.77 326 19:19 04.01.2021
4067 Clear -7 1032 29 10000 0.45 338 18:43 04.01.2021
4068 Clear -6 1032 29 10000 0.45 0 17:48 04.01.2021
4069 Clear -6 1032 29 10000 0.89 270 17:28 04.01.2021
4070 Clear -6 1032 30 10000 6.4 326 16:58 04.01.2021
4071 Clear -6 1031 29 10000 6.4 326 16:39 04.01.2021
4072 Clear -6 1031 28 10000 6.08 328 16:21 04.01.2021
4073 Clear -5 1031 29 10000 0.45 315 15:47 04.01.2021
4074 Clear -5 1037 24 10000 1 0 14:55 04.01.2021
4075 Clear -5 1037 22 10000 3 10 13:57 04.01.2021
4076 Clear -4 1030 27 10000 5.04 331 13:35 04.01.2021
4077 Clouds -4 1030 26 10000 0.89 315 12:53 04.01.2021
4078 Clouds -3 1029 26 10000 0.45 315 12:27 04.01.2021
4079 Clouds -3 1029 25 10000 0.89 135 11:40 04.01.2021
4080 Clouds -3 1029 25 10000 0.45 23 11:18 04.01.2021
4081 Clouds -3 1028 24 10000 6.27 328 10:44 04.01.2021
4082 Clear -2 1028 24 10000 0.89 315 10:22 04.01.2021
4083 Clear -2 1033 16 10000 7 290 09:36 04.01.2021
4084 Clear -2 1027 23 10000 1.34 45 09:18 04.01.2021
4085 Clear -1 1027 22 10000 1.34 0 08:22 04.01.2021
4086 Clear -1 1026 23 10000 0.45 315 07:47 04.01.2021
4087 Clear -3 1034 25 10000 8 290 05:37 04.01.2021
4088 Clear -3 1034 25 10000 8 300 05:19 04.01.2021
4089 Clear -7 1034 52 10000 4 350 02:24 04.01.2021
4090 Clouds -5 1027 47 10000 2.24 20 00:24 04.01.2021
4091 Clouds -5 1027 46 10000 2.24 20 23:37 03.01.2021
4092 Clouds -5 1026 43 10000 1.96 15 22:58 03.01.2021
4093 Clouds -5 1026 44 10000 1.96 15 22:39 03.01.2021
4094 Clouds -5 1026 44 10000 1.87 17 22:21 03.01.2021
4095 Clouds -5 1026 42 10000 1.87 17 21:40 03.01.2021
4096 Clouds -5 1026 42 10000 1.65 19 21:22 03.01.2021
4097 Clouds -5 1026 44 10000 1.65 19 20:40 03.01.2021
4098 Clouds -5 1026 44 10000 1.61 24 20:18 03.01.2021
4099 Clouds -5 1026 44 10000 1.61 24 19:44 03.01.2021
4100 Clouds -4 1026 42 10000 1.1 26 19:24 03.01.2021
4101 Clouds -4 1026 39 10000 1.07 26 18:45 03.01.2021
4102 Clouds -4 1026 40 10000 1.49 31 18:25 03.01.2021
4103 Clouds -4 1026 39 10000 1.49 31 17:53 03.01.2021
4104 Clouds -3 1026 35 10000 1.42 40 17:27 03.01.2021
4105 Snow -4 1017 34 10000 1.42 40 16:55 03.01.2021
4106 Snow -3 1026 36 10000 1.42 40 16:36 03.01.2021
4107 Clouds -3 1026 34 10000 1.23 43 16:18 03.01.2021
4108 Clouds -3 1026 34 10000 1.23 43 15:40 03.01.2021
4109 Clouds -3 1026 35 10000 0.92 46 14:59 03.01.2021
4110 Clouds -3 1026 35 10000 0.92 46 14:33 03.01.2021
4111 Clouds -3 1027 36 10000 0.73 46 13:52 03.01.2021
4112 Clouds -3 1026 36 10000 0.95 39 13:24 03.01.2021
4113 Clouds -3 1026 36 10000 0.95 39 13:24 03.01.2021
4114 Clouds -3 1027 36 10000 0.87 57 12:55 03.01.2021
4115 Clouds -3 1026 37 10000 1.07 46 11:44 03.01.2021
4116 Clouds -3 1026 36 10000 1.18 43 11:26 03.01.2021
4117 Clouds -3 1026 37 10000 1.18 43 10:56 03.01.2021
4118 Clouds -3 1026 37 10000 1.18 43 10:31 03.01.2021
4119 Clouds -2 1025 37 10000 0.79 42 09:42 03.01.2021
4120 Clear -2 1025 36 10000 0.17 104 09:23 03.01.2021
4121 Clear -1 1026 34 10000 0.49 53 07:59 03.01.2021
4122 Clear -3 1034 23 10000 2 0 06:25 03.01.2021
4123 Clear -6 1037 34 10000 2 20 02:45 03.01.2021
4124 Clear -8 1037 43 10000 1 0 02:20 03.01.2021
4125 Clouds -7 1030 39 10000 2.01 26 00:25 03.01.2021
4126 Clouds -7 1030 40 10000 2.01 26 23:32 02.01.2021
4127 Clear -6 1030 41 10000 2.05 29 22:59 02.01.2021
4128 Clear -6 1029 38 10000 2.05 29 22:33 02.01.2021
4129 Clear -6 1029 37 10000 2.26 29 21:59 02.01.2021
4130 Clear -6 1030 37 10000 2.26 29 21:37 02.01.2021
4131 Clear -6 1030 36 10000 2.38 26 21:19 02.01.2021
4132 Clear -6 1030 36 10000 2.38 26 20:40 02.01.2021
4133 Clear -5 1030 36 10000 2.74 27 20:20 02.01.2021
4134 Clear -7 1036 28 10000 3 40 19:43 02.01.2021
4135 Clear -5 1030 36 10000 2.69 29 19:19 02.01.2021
4136 Clear -7 1035 47 10000 3 10 18:42 02.01.2021
4137 Clear -5 1029 37 10000 2.47 23 18:24 02.01.2021
4138 Clear -6 1035 37 10000 3 10 17:45 02.01.2021
4139 Clear -5 1035 31 10000 3 20 17:25 02.01.2021
4140 Clear -4 1029 33 10000 2.25 21 16:38 02.01.2021
4141 Clear -4 1035 32 10000 1 0 16:19 02.01.2021
4142 Clear -3 1028 34 10000 2.37 19 15:42 02.01.2021
4143 Clear -4 1034 35 10000 4 360 15:24 02.01.2021
4144 Clear -3 1034 41 10000 5 10 14:37 02.01.2021
4145 Clear -4 1033 57 10000 4 360 13:59 02.01.2021
4146 Clear -4 1032 62 10000 1 0 13:38 02.01.2021
4147 Clear -3 1032 57 10000 3 10 12:54 02.01.2021
4148 Clear -4 1032 57 10000 3 10 12:32 02.01.2021
4149 Clouds -2 1026 60 10000 2.05 18 11:48 02.01.2021
4150 Clouds -2 1025 62 10000 1.67 14 11:22 02.01.2021
4151 Clouds -2 1025 58 10000 1.67 14 10:51 02.01.2021
4152 Clouds -1 1024 56 10000 1.13 19 10:28 02.01.2021
4153 Clouds 0 1024 55 10000 1.13 19 09:54 02.01.2021
4154 Clouds 0 1023 52 10000 0.61 23 09:23 02.01.2021
4155 Clouds 1 1023 51 10000 0.61 23 08:50 02.01.2021
4156 Clouds 1 1024 49 10000 0.82 34 08:28 02.01.2021
4157 Clouds 1 1023 50 10000 0.82 34 07:47 02.01.2021
4158 Clear -1 1030 46 10000 1 0 07:22 02.01.2021
4159 Clear -1 1031 54 10000 2 260 06:42 02.01.2021
4160 Clear -3 1031 58 10000 2 270 05:45 02.01.2021
4161 Clear -6 1025 79 10000 1.8 28 00:59 02.01.2021
4162 Clear -6 1031 78 10000 1 0 00:37 02.01.2021
4163 Clear -7 1031 85 10000 1 0 23:56 01.01.2021
4164 Clear -8 1030 85 10000 2 360 23:21 01.01.2021
4165 Clear -8 1030 78 10000 2 350 22:47 01.01.2021
4166 Clear -7 1030 85 10000 1 0 22:25 01.01.2021
4167 Clear -8 1030 84 10000 1 350 21:44 01.01.2021
4168 Clear -8 1030 85 10000 1 340 21:22 01.01.2021
4169 Clear -8 1030 85 10000 1 350 20:53 01.01.2021
4170 Clear -7 1023 81 10000 1.53 56 20:22 01.01.2021
4171 Clear -7 1023 80 10000 1.53 56 19:59 01.01.2021
4172 Clear -6 1023 78 10000 1.53 56 19:40 01.01.2021
4173 Clear -6 1023 76 10000 1.48 64 19:20 01.01.2021
4174 Clear -6 1023 70 10000 1.28 60 18:41 01.01.2021
4175 Clear -6 1022 69 10000 1.12 61 18:20 01.01.2021
4176 Clear -5 1022 66 10000 1.12 61 17:42 01.01.2021
4177 Clear -5 1022 65 10000 1.28 60 17:22 01.01.2021
4178 Clear -4 1022 37 10000 1.28 60 16:45 01.01.2021
4179 Clear -7 1029 43 10000 2 70 15:57 01.01.2021
4180 Clear -5 1028 47 10000 0.74 51 15:39 01.01.2021
4181 Clear -5 1028 47 10000 1 0 14:42 01.01.2021
4182 Clear -6 1027 47 10000 1 50 14:19 01.01.2021
4183 Clear -4 1027 40 10000 2 40 13:37 01.01.2021
4184 Clear -4 1026 40 10000 1 50 12:51 01.01.2021
4185 Clear -3 1026 40 10000 1 60 12:26 01.01.2021
4186 Clear -4 1025 34 10000 1 70 11:40 01.01.2021
4187 Clear -2 1019 28 10000 0.39 107 11:18 01.01.2021
4188 Clear -2 1019 28 10000 0.39 107 10:52 01.01.2021
4189 Clear -1 1018 26 10000 0.69 127 10:22 01.01.2021
4190 Clear 0 1024 14 10000 1 0 09:24 01.01.2021
4191 Clear 1 1024 14 10000 1 0 08:30 01.01.2021
4192 Clear -1 1025 23 10000 1 0 06:42 01.01.2021
4193 Clear -4 1027 29 10000 1 0 04:49 01.01.2021
4194 Clear -8 1026 65 10000 1 0 01:43 01.01.2021
4195 Clear -8 1026 65 10000 1 0 00:32 01.01.2021
4196 Clear -7 1019 42 10000 1.94 14 23:41 31.12.2020
4197 Clear -7 1019 43 10000 1.93 26 23:21 31.12.2020
4198 Clear -7 1019 41 10000 1.93 26 22:42 31.12.2020
4199 Clear -7 1019 41 10000 1.95 29 22:23 31.12.2020
4200 Clear -8 1026 65 10000 4 350 21:56 31.12.2020
4201 Clear -9 1026 65 10000 3 10 21:36 31.12.2020
4202 Clear -7 1026 60 10000 2 350 20:58 31.12.2020
4203 Clear -7 1027 60 10000 1.3 31 20:30 31.12.2020
4204 Clear -7 1027 60 10000 1.3 31 20:30 31.12.2020
4205 Clear -7 1027 55 10000 1 0 19:51 31.12.2020
4206 Clear -7 1027 55 10000 1 0 19:33 31.12.2020
4207 Clear -7 1027 50 10000 3 350 18:55 31.12.2020
4208 Clear -7 1027 50 10000 3 350 18:25 31.12.2020
4209 Clear -6 1027 43 10000 2 10 17:48 31.12.2020
4210 Clear -6 1027 51 10000 2 80 17:28 31.12.2020
4211 Clear -6 1027 51 10000 2 80 16:57 31.12.2020
4212 Clear -6 1027 46 10000 1 150 16:38 31.12.2020
4213 Clear -5 1020 36 10000 2.1 350 16:19 31.12.2020
4214 Clear -5 1027 33 10000 1 0 15:42 31.12.2020
4215 Clear -3 1027 20 10000 3 0 15:19 31.12.2020
4216 Clear -4 1027 34 10000 1 0 14:41 31.12.2020
4217 Clear -3 1021 30 10000 1.3 323 14:23 31.12.2020
4218 Clear -3 1027 27 10000 2 170 13:58 31.12.2020
4219 Clear -2 1027 19 10000 2 270 13:37 31.12.2020
4220 Clear -2 1027 20 10000 3 240 13:19 31.12.2020
4221 Clear -2 1027 18 10000 3 250 12:46 31.12.2020
4222 Clear -1 1027 18 10000 3 210 12:28 31.12.2020
4223 Clear -1 1027 15 10000 4 250 11:47 31.12.2020
4224 Clear -1 1027 55 10000 5 270 11:29 31.12.2020
4225 Clear -1 1027 55 10000 4 270 10:42 31.12.2020
4226 Clear 0 1027 10 10000 7 280 10:23 31.12.2020
4227 Clear 0 1027 9 10000 7 280 09:49 31.12.2020
4228 Clear 1 1021 20 10000 1.65 280 09:24 31.12.2020
4229 Clear 1 1021 19 10000 1.65 280 08:48 31.12.2020
4230 Clear 1 1027 8 10000 8 290 08:30 31.12.2020
4231 Clear 1 1028 9 10000 8 290 07:55 31.12.2020
4232 Clear 0 1028 51 10000 9 290 07:24 31.12.2020
4233 Clear -2 1032 16 10000 5 300 05:30 31.12.2020
4234 Clear -5 1033 21 10000 2 190 03:36 31.12.2020
4235 Clear -7 1026 27 10000 1.38 325 02:36 31.12.2020
4236 Clear -10 1032 46 10000 1 0 01:58 31.12.2020
4237 Clear -10 1032 46 10000 1 0 01:39 31.12.2020
4238 Clear -8 1026 34 10000 0.94 347 00:59 31.12.2020
4239 Clear -9 1026 35 10000 1.23 345 00:39 31.12.2020
4240 Clear -8 1025 32 10000 1.3 331 23:41 30.12.2020
4241 Clear -8 1025 32 10000 1.56 320 23:18 30.12.2020
4242 Clear -7 1025 29 10000 1.56 320 22:36 30.12.2020
4243 Clear -7 1026 28 10000 1.81 321 21:55 30.12.2020
4244 Clear -7 1026 28 10000 1.93 315 21:28 30.12.2020
4245 Clear -7 1026 30 10000 1.93 315 20:57 30.12.2020
4246 Clear -7 1026 30 10000 1.93 315 20:39 30.12.2020
4247 Clear -7 1026 29 10000 2.08 304 20:19 30.12.2020
4248 Clear -9 1034 30 10000 4 320 19:38 30.12.2020
4249 Clear -8 1034 28 10000 4 320 19:19 30.12.2020
4250 Clear -9 1034 30 10000 4 340 18:41 30.12.2020
4251 Clear -9 1035 30 10000 4 350 18:22 30.12.2020
4252 Clear -9 1035 30 10000 4 350 17:48 30.12.2020
4253 Clear -8 1035 28 10000 7 340 17:29 30.12.2020
4254 Clear -8 1035 26 10000 7 340 16:48 30.12.2020
4255 Clear -8 1035 26 10000 6 340 16:20 30.12.2020
4256 Clear -8 1035 23 10000 7 320 15:42 30.12.2020
4257 Clear -7 1029 30 10000 4.23 303 15:24 30.12.2020
4258 Clear -8 1035 23 10000 7 330 14:43 30.12.2020
4259 Clear -7 1029 30 10000 4.33 306 14:22 30.12.2020
4260 Clear -6 1036 23 10000 6 330 13:20 30.12.2020
4261 Clear -6 1036 22 10000 5 310 12:27 30.12.2020
4262 Clear -6 1036 22 10000 6 290 11:49 30.12.2020
4263 Clear -6 1029 28 10000 0.89 315 11:23 30.12.2020
4264 Clear -6 1029 27 10000 3.74 314 10:59 30.12.2020
4265 Clear -6 1030 27 10000 0.89 45 10:39 30.12.2020
4266 Clear -6 1030 27 10000 0.45 315 10:19 30.12.2020
4267 Clear -6 1030 26 10000 0.45 45 09:44 30.12.2020
4268 Clear -6 1030 25 10000 0.89 338 08:54 30.12.2020
4269 Clear -7 1037 18 10000 11 300 07:53 30.12.2020
4270 Clear -7 1037 18 10000 10 290 07:27 30.12.2020
4271 Clear -8 1038 18 10000 9 290 06:40 30.12.2020
4272 Clear -8 1039 19 10000 9 300 05:49 30.12.2020
4273 Clear -8 1039 19 10000 9 300 05:30 30.12.2020
4274 Clear -10 1040 21 10000 9 300 03:43 30.12.2020
4275 Clear -10 1033 26 10000 0.89 0 03:23 30.12.2020
4276 Clear -11 1033 28 10000 0.89 338 02:35 30.12.2020
4277 Clear -12 1033 29 10000 1.34 0 01:47 30.12.2020
4278 Clear -13 1033 30 10000 0.89 0 01:29 30.12.2020
4279 Clear -12 1033 30 10000 0.89 315 00:45 30.12.2020
4280 Clear -12 1033 31 10000 0.45 0 00:26 30.12.2020
4281 Clear -12 1033 31 10000 0.45 315 23:50 29.12.2020
4282 Clear -12 1033 30 10000 5.52 327 23:32 29.12.2020
4283 Clear -12 1033 30 10000 0.45 315 22:49 29.12.2020
4284 Clear -12 1033 31 10000 0.45 315 22:31 29.12.2020
4285 Clear -12 1033 29 10000 1.34 315 21:56 29.12.2020
4286 Clear -12 1033 29 10000 1.34 338 21:37 29.12.2020
4287 Clear -12 1033 29 10000 1.34 338 21:37 29.12.2020
4288 Clear -12 1033 30 10000 0.45 45 21:18 29.12.2020
4289 Clear -12 1034 31 10000 0.45 315 20:41 29.12.2020
4290 Clear -12 1034 32 10000 0.89 338 20:22 29.12.2020
4291 Clear -13 1034 34 10000 5.32 321 19:43 29.12.2020
4292 Clear -13 1034 33 10000 1.34 315 19:21 29.12.2020
4293 Clear -13 1034 33 10000 0.89 0 18:50 29.12.2020
4294 Clear -12 1035 32 10000 1.34 315 18:28 29.12.2020
4295 Clear -12 1036 32 10000 1.34 338 17:46 29.12.2020
4296 Clear -12 1036 31 10000 1.34 293 17:21 29.12.2020
4297 Clear -12 1036 31 10000 1.34 293 17:21 29.12.2020
4298 Clear -13 1036 30 10000 0.89 45 16:54 29.12.2020
4299 Clear -13 1036 30 10000 1.79 0 16:26 29.12.2020
4300 Clear -13 1036 29 10000 0.89 0 15:39 29.12.2020
4301 Clear -13 1037 28 10000 1.34 338 15:20 29.12.2020
4302 Clear -12 1037 28 10000 0.89 0 14:40 29.12.2020
4303 Clear -12 1037 28 10000 0.45 0 14:20 29.12.2020
4304 Clear -12 1042 18 10000 9 320 13:54 29.12.2020
4305 Clear -11 1037 28 10000 1.79 0 13:23 29.12.2020
4306 Clear -12 1036 27 10000 1.34 315 12:44 29.12.2020
4307 Clear -11 1036 26 10000 0.89 338 12:25 29.12.2020
4308 Clear -11 1036 26 10000 0.89 0 11:57 29.12.2020
4309 Clear -11 1036 25 10000 1.34 315 11:31 29.12.2020
4310 Clear -10 1041 16 10000 9 320 10:38 29.12.2020
4311 Clear -10 1041 14 10000 9 330 09:50 29.12.2020
4312 Clear -10 1041 14 10000 9 330 09:29 29.12.2020
4313 Clear -9 1041 13 10000 8 310 08:56 29.12.2020
4314 Clear -9 1041 13 10000 8 310 08:36 29.12.2020
4315 Clear -8 1041 13 10000 9 300 07:30 29.12.2020
4316 Clear -8 1041 12 10000 11 320 06:55 29.12.2020
4317 Clear -9 1042 13 10000 9 330 05:33 29.12.2020
4318 Clouds -11 1037 26 10000 1.79 0 01:27 29.12.2020
4319 Clouds -10 1036 29 10000 1.34 45 00:24 29.12.2020
4320 Clouds -10 1036 29 10000 0.45 0 23:36 28.12.2020
4321 Clouds -9 1035 27 10000 1.79 0 22:30 28.12.2020
4322 Clouds -9 1035 27 10000 1.34 315 21:47 28.12.2020
4323 Clouds -9 1035 27 10000 2.24 0 21:29 28.12.2020
4324 Clouds -8 1035 28 10000 1.34 315 20:46 28.12.2020
4325 Clouds -8 1035 28 10000 0.45 315 20:28 28.12.2020
4326 Clouds -7 1034 27 10000 1.79 315 19:58 28.12.2020
4327 Clouds -7 1033 26 10000 1.79 0 19:38 28.12.2020
4328 Clouds -7 1033 26 10000 1.34 0 19:20 28.12.2020
4329 Clouds -6 1032 26 10000 2.24 315 18:43 28.12.2020
4330 Clouds -6 1032 26 10000 1.34 293 18:21 28.12.2020
4331 Clouds -5 1031 25 10000 2.68 0 17:39 28.12.2020
4332 Clouds -5 1031 28 10000 2.24 0 17:18 28.12.2020
4333 Clouds -4 1030 32 10000 1.34 0 16:32 28.12.2020
4334 Clouds -3 1030 31 10000 1.79 0 15:58 28.12.2020
4335 Clouds -3 1030 32 10000 2.24 0 15:36 28.12.2020
4336 Clouds -2 1028 32 10000 1.34 0 14:35 28.12.2020
4337 Clouds -1 1031 58 8000 5 350 13:49 28.12.2020
4338 Clouds -1 1025 35 10000 1.34 0 13:22 28.12.2020
4339 Clouds 0 1024 40 10000 0.89 338 12:29 28.12.2020
4340 Clouds -1 1023 64 10000 2.69 349 11:58 28.12.2020
4341 Clouds 1 1023 62 10000 2.69 349 11:38 28.12.2020
4342 Clouds 1 1022 59 10000 1.6 5 11:18 28.12.2020
4343 Clouds 1 1022 57 10000 1.03 25 10:29 28.12.2020
4344 Clouds 1 1021 54 10000 1.03 25 09:59 28.12.2020
4345 Clouds 1 1021 52 10000 1.03 25 09:38 28.12.2020
4346 Clouds 2 1020 51 10000 0.72 35 09:18 28.12.2020
4347 Clouds 3 1020 46 10000 0.27 96 06:54 28.12.2020
4348 Clouds 1 1021 47 10000 0.45 126 05:34 28.12.2020
4349 Clouds 0 1021 50 10000 0.91 106 03:53 28.12.2020
4350 Clouds 0 1021 52 10000 0.9 119 01:56 28.12.2020
4351 Clouds 0 1020 62 10000 1.19 133 00:19 28.12.2020
4352 Clouds 0 1020 65 10000 1.19 133 23:35 27.12.2020
4353 Clouds 0 1020 67 10000 1.55 99 22:52 27.12.2020
4354 Clouds 0 1020 72 10000 1.97 88 21:55 27.12.2020
4355 Clouds 0 1020 72 10000 2.02 81 21:24 27.12.2020
4356 Clouds 0 1020 73 10000 2.02 81 20:37 27.12.2020
4357 Clouds 0 1020 75 10000 2.04 75 19:24 27.12.2020
4358 Clouds 0 1019 78 10000 1.81 71 18:52 27.12.2020
4359 Clear 0 1019 82 10000 1.73 69 18:24 27.12.2020
4360 Clear 0 1019 84 10000 1.73 69 17:59 27.12.2020
4361 Clear 0 1019 86 10000 1.73 69 17:39 27.12.2020
4362 Clear 0 1019 86 10000 1.82 80 17:18 27.12.2020
4363 Clear 0 1018 86 10000 1.86 88 16:26 27.12.2020
4364 Clear 1 1018 71 10000 1.86 88 15:37 27.12.2020
4365 Clear 0 1023 68 8000 2 90 14:57 27.12.2020
4366 Clear -1 1023 73 9000 2 100 14:38 27.12.2020
4367 Clear 0 1022 67 10000 2 80 13:43 27.12.2020
4368 Clear -1 1021 67 10000 1 100 13:19 27.12.2020
4369 Clear -1 1021 62 10000 1 60 12:41 27.12.2020
4370 Clear 0 1020 58 10000 1 90 11:46 27.12.2020
4371 Clear 0 1020 58 10000 1 90 11:28 27.12.2020
4372 Clear 1 1019 40 10000 1 40 10:51 27.12.2020
4373 Clear 4 1019 32 10000 0.4 330 10:23 27.12.2020
4374 Clear 6 1019 28 10000 0.4 330 09:41 27.12.2020
4375 Clear 6 1019 26 10000 1 0 08:29 27.12.2020
4376 Clear 6 1019 26 10000 1 0 08:29 27.12.2020
4377 Clear 6 1019 28 10000 1 0 07:58 27.12.2020
4378 Clear 5 1019 30 10000 1 0 07:25 27.12.2020
4379 Clear 4 1019 35 10000 2 320 05:39 27.12.2020
4380 Clouds 1 1014 53 10000 1.75 14 03:26 27.12.2020
4381 Clouds 0 1014 59 10000 1.75 14 02:40 27.12.2020
4382 Clear -1 1014 70 10000 1.7 9 01:21 27.12.2020
4383 Clear -2 1013 72 10000 1.66 6 23:45 26.12.2020
4384 Clear -2 1013 74 10000 1.68 6 23:26 26.12.2020
4385 Clear -2 1013 72 10000 1.68 6 22:47 26.12.2020
4386 Clear -2 1013 73 10000 1.68 9 22:20 26.12.2020
4387 Clear -3 1019 79 10000 2 310 21:55 26.12.2020
4388 Clear -3 1019 85 10000 2 320 21:31 26.12.2020
4389 Clear -3 1019 85 10000 2 330 20:58 26.12.2020
4390 Clear -3 1019 85 10000 2 330 20:28 26.12.2020
4391 Clear -3 1019 85 10000 2 330 19:57 26.12.2020
4392 Clear -2 1019 85 10000 1 0 19:24 26.12.2020
4393 Clear -3 1019 85 10000 2 340 18:38 26.12.2020
4394 Clear -2 1019 85 10000 2 340 18:18 26.12.2020
4395 Clear -3 1019 92 10000 2 330 17:40 26.12.2020
4396 Clear -2 1019 85 10000 2 360 17:19 26.12.2020
4397 Clear -1 1019 79 10000 1 0 16:32 26.12.2020
4398 Clear -2 1019 79 10000 1 340 15:26 26.12.2020
4399 Clear -1 1019 79 10000 2 360 14:46 26.12.2020
4400 Clear -1 1019 79 10000 2 360 14:28 26.12.2020
4401 Clear -1 1019 79 10000 2 350 13:43 26.12.2020
4402 Clear -1 1019 79 10000 1 0 13:25 26.12.2020
4403 Clear 0 1019 67 10000 1 0 12:44 26.12.2020
4404 Clear 0 1019 68 10000 1 0 12:22 26.12.2020
4405 Clear -1 1019 73 10000 1.25 342 11:51 26.12.2020
4406 Clear 0 1018 68 10000 1 20 11:22 26.12.2020
4407 Clear -1 1018 68 10000 1 20 10:54 26.12.2020
4408 Clear 2 1012 57 10000 1.25 350 10:27 26.12.2020
4409 Clear 3 1011 55 10000 1.25 350 09:51 26.12.2020
4410 Clear 3 1018 44 10000 1 0 09:29 26.12.2020
4411 Clear 4 1018 44 10000 1 0 08:35 26.12.2020
4412 Clear 4 1011 51 10000 1.23 14 07:53 26.12.2020
4413 Clear 3 1020 47 10000 2 0 06:31 26.12.2020
4414 Clear 1 1016 49 10000 0.45 338 03:46 26.12.2020
4415 Clear -5 1023 72 10000 1 0 01:44 26.12.2020
4416 Clouds -2 1017 50 10000 1.38 52 00:27 26.12.2020
4417 Clouds -2 1016 51 10000 1.38 52 23:41 25.12.2020
4418 Clouds -2 1016 50 10000 1.23 66 23:23 25.12.2020
4419 Clear -4 1023 72 10000 1 10 22:48 25.12.2020
4420 Clear -4 1023 72 10000 3 350 22:23 25.12.2020
4421 Clouds -2 1017 49 10000 1.43 69 21:35 25.12.2020
4422 Clouds -2 1017 50 10000 1.42 55 20:57 25.12.2020
4423 Clouds -2 1017 49 10000 1.42 55 20:37 25.12.2020
4424 Clear -3 1024 72 10000 2 350 19:50 25.12.2020
4425 Clear -3 1024 72 10000 2 350 19:30 25.12.2020
4426 Clear -2 1024 62 10000 1 350 18:39 25.12.2020
4427 Clear -2 1024 62 10000 1.08 30 17:54 25.12.2020
4428 Clear -2 1024 62 10000 1.08 30 17:34 25.12.2020
4429 Clear 0 1017 40 10000 0.83 30 16:48 25.12.2020
4430 Clear -3 1023 61 10000 1 40 16:20 25.12.2020
4431 Clear -1 1023 57 10000 2 360 15:39 25.12.2020
4432 Clear 0 1016 40 10000 0.76 24 15:21 25.12.2020
4433 Clear -1 1023 53 10000 1 0 14:31 25.12.2020
4434 Clear -2 1023 49 10000 1 50 13:46 25.12.2020
4435 Clear -4 1023 49 10000 1 50 13:26 25.12.2020
4436 Clear -3 1022 45 10000 1 0 12:49 25.12.2020
4437 Clear -4 1022 45 10000 1 0 12:27 25.12.2020
4438 Clear -1 1022 36 10000 1 0 11:46 25.12.2020
4439 Clear 0 1021 72 10000 1 40 11:22 25.12.2020
4440 Clear 1 1021 26 10000 1 80 10:35 25.12.2020
4441 Clear 7 1020 16 10000 1 0 09:49 25.12.2020
4442 Clear 8 1020 16 10000 1 0 08:52 25.12.2020
4443 Clear 8 1020 16 10000 1 0 08:32 25.12.2020
4444 Clear 7 1021 17 10000 2 340 06:51 25.12.2020
4445 Clear 2 1022 21 10000 2 310 05:31 25.12.2020
4446 Clear -5 1023 61 10000 2 350 02:21 25.12.2020
4447 Clear -4 1016 42 10000 0.94 35 00:20 25.12.2020
4448 Clear -4 1015 42 10000 0.94 35 23:30 24.12.2020
4449 Clear -4 1015 43 10000 0.75 39 22:54 24.12.2020
4450 Clear -4 1015 43 10000 0.75 39 22:54 24.12.2020
4451 Clear -4 1015 41 10000 1.16 29 22:24 24.12.2020
4452 Clear -4 1016 44 10000 1.16 29 21:45 24.12.2020
4453 Clear -3 1016 44 10000 0.79 27 20:58 24.12.2020
4454 Clear -2 1016 45 10000 0.78 32 19:41 24.12.2020
4455 Clear -2 1016 43 10000 0.64 330 18:21 24.12.2020
4456 Clear -2 1016 38 10000 0.64 330 17:38 24.12.2020
4457 Clear -1 1016 38 10000 0.47 249 17:20 24.12.2020
4458 Clear -1 1016 38 10000 0.47 249 17:20 24.12.2020
4459 Clear -1 1016 38 10000 0.47 249 17:20 24.12.2020
4460 Clear -1 1017 39 10000 1.13 200 16:25 24.12.2020
4461 Clear 0 1017 34 10000 1.13 200 15:45 24.12.2020
4462 Clear 1 1017 34 10000 1.42 193 15:23 24.12.2020
4463 Clear 1 1024 19 10000 2 250 14:56 24.12.2020
4464 Clear 2 1024 15 10000 5 270 14:25 24.12.2020
4465 Clear 2 1024 17 10000 4 260 13:49 24.12.2020
4466 Clear 2 1024 17 10000 4 260 13:30 24.12.2020
4467 Clear 1 1017 31 10000 0.92 226 12:58 24.12.2020
4468 Clear 2 1017 30 10000 1.44 210 12:38 24.12.2020
4469 Clear 2 1017 29 10000 1.22 214 12:18 24.12.2020
4470 Clear 2 1023 15 10000 5 290 11:38 24.12.2020
4471 Clear 2 1017 26 10000 0.85 223 11:19 24.12.2020
4472 Clear 2 1016 24 10000 0.85 223 10:43 24.12.2020
4473 Clear 2 1016 23 10000 1.12 274 09:59 24.12.2020
4474 Clear 3 1023 13 10000 7 290 09:40 24.12.2020
4475 Clear 4 1023 12 10000 9 290 08:48 24.12.2020
4476 Clear 4 1023 12 10000 8 300 07:51 24.12.2020
4477 Clear 4 1023 12 10000 8 300 07:51 24.12.2020
4478 Clear 4 1023 12 10000 8 300 07:30 24.12.2020
4479 Clear 3 1025 15 10000 9 280 06:23 24.12.2020
4480 Clear 1 1027 19 10000 6 300 03:29 24.12.2020
4481 Clear -1 1020 32 10000 4.97 316 01:48 24.12.2020
4482 Clear -1 1020 34 10000 4.27 319 01:19 24.12.2020
4483 Clear -2 1019 36 10000 4.25 319 00:23 24.12.2020
4484 Clear -1 1019 36 10000 4.25 319 23:57 23.12.2020
4485 Clear -1 1019 36 10000 4.25 319 23:38 23.12.2020
4486 Clear -1 1019 35 10000 4.19 319 23:19 23.12.2020
4487 Clear -1 1019 34 10000 0.45 0 22:42 23.12.2020
4488 Clear -1 1018 33 10000 4.21 322 22:21 23.12.2020
4489 Clear -1 1018 33 10000 4.21 322 21:42 23.12.2020
4490 Clear -1 1018 31 10000 4.5 325 21:21 23.12.2020
4491 Clear 0 1018 27 10000 1.34 0 20:38 23.12.2020
4492 Clear 0 1018 28 10000 0.45 293 20:19 23.12.2020
4493 Clear 0 1018 27 10000 0.89 0 19:44 23.12.2020
4494 Clear 1 1018 28 10000 4.68 326 19:23 23.12.2020
4495 Clear 1 1018 27 10000 0.45 0 18:56 23.12.2020
4496 Clear 1 1018 27 10000 0.45 315 18:35 23.12.2020
4497 Clear 1 1018 26 10000 0.45 0 17:44 23.12.2020
4498 Clear 1 1018 27 10000 5.91 320 17:24 23.12.2020
4499 Clear 1 1018 28 10000 5.91 320 16:56 23.12.2020
4500 Clear 1 1018 28 10000 5.91 320 16:37 23.12.2020
4501 Clear 1 1018 28 10000 6.37 321 16:18 23.12.2020
4502 Clear 2 1018 25 10000 6.37 321 15:40 23.12.2020
4503 Clear 2 1017 25 10000 6.09 321 15:22 23.12.2020
4504 Clear 2 1017 24 10000 0.45 315 14:51 23.12.2020
4505 Clear 2 1017 24 10000 0.45 0 14:25 23.12.2020
4506 Clear 1 1023 28 10000 2 360 13:47 23.12.2020
4507 Clear 2 1023 30 10000 3 360 13:21 23.12.2020
4508 Clear 1 1023 30 10000 3 360 12:59 23.12.2020
4509 Clear 1 1023 60 10000 2 350 12:38 23.12.2020
4510 Clear 3 1016 23 10000 0.89 0 12:18 23.12.2020
4511 Clear 4 1016 26 10000 4.17 324 11:45 23.12.2020
4512 Clear 4 1015 26 10000 4.26 319 10:57 23.12.2020
4513 Clear 5 1021 18 10000 5 280 10:39 23.12.2020
4514 Clear 5 1021 17 10000 7 280 10:19 23.12.2020
4515 Clear 6 1014 21 10000 1.34 0 09:26 23.12.2020
4516 Clear 6 1014 20 10000 1.34 315 08:42 23.12.2020
4517 Clear 6 1014 19 10000 0.45 315 08:18 23.12.2020
4518 Clear 6 1021 14 10000 9 280 07:20 23.12.2020
4519 Clear 6 1021 15 10000 10 270 06:38 23.12.2020
4520 Clear 5 1023 17 10000 9 290 05:26 23.12.2020
4521 Clear 5 1023 17 10000 11 290 04:51 23.12.2020
4522 Clear 3 1021 23 10000 10 290 00:34 23.12.2020
4523 Clear 4 1021 23 10000 9 290 23:46 22.12.2020
4524 Clear 3 1021 27 10000 9 290 23:27 22.12.2020
4525 Clear -1 1021 40 10000 8 290 22:43 22.12.2020
4526 Clear 1 1021 40 10000 8 290 22:25 22.12.2020
4527 Clear -1 1020 67 10000 2 320 21:57 22.12.2020
4528 Clouds 2 1013 34 10000 1.34 0 21:38 22.12.2020
4529 Clouds 1 1013 46 10000 2.47 346 21:18 22.12.2020
4530 Clouds 0 1014 57 10000 2.47 346 20:43 22.12.2020
4531 Clouds 0 1014 55 10000 2.04 30 20:20 22.12.2020
4532 Clouds 0 1014 55 10000 2.04 30 19:42 22.12.2020
4533 Clear -2 1020 67 10000 1.76 27 19:21 22.12.2020
4534 Clear -1 1020 68 10000 2 340 18:48 22.12.2020
4535 Clouds 0 1013 54 10000 1.09 20 18:28 22.12.2020
4536 Clouds 1 1013 52 10000 1.09 20 17:51 22.12.2020
4537 Clouds 1 1013 52 10000 0.9 39 17:24 22.12.2020
4538 Clouds 1 1013 51 10000 0.9 39 16:55 22.12.2020
4539 Clouds 1 1013 52 10000 0.9 39 16:36 22.12.2020
4540 Clouds 0 1013 51 10000 0.86 39 16:18 22.12.2020
4541 Clouds 1 1014 49 10000 0.86 39 15:42 22.12.2020
4542 Clear -1 1021 67 10000 1 0 15:20 22.12.2020
4543 Clear 0 1021 54 10000 1 0 14:43 22.12.2020
4544 Clear -1 1020 62 10000 1 0 14:25 22.12.2020
4545 Clear -2 1020 62 10000 1 0 13:47 22.12.2020
4546 Clear -3 1020 67 10000 1 0 13:19 22.12.2020
4547 Clear -3 1020 67 10000 1 0 12:56 22.12.2020
4548 Clear -2 1020 53 10000 1 0 12:38 22.12.2020
4549 Clear -1 1020 58 10000 1 0 12:19 22.12.2020
4550 Clear -2 1020 49 10000 1 170 11:41 22.12.2020
4551 Clear -1 1020 46 10000 2 170 11:21 22.12.2020
4552 Clear 0 1020 80 10000 1 160 10:55 22.12.2020
4553 Clear 3 1019 32 10000 1 130 10:27 22.12.2020
4554 Clear 3 1019 32 10000 1 130 09:58 22.12.2020
4555 Clear 5 1019 27 10000 2 140 09:30 22.12.2020
4556 Clear 5 1020 25 10000 2 180 08:57 22.12.2020
4557 Clear 5 1020 25 10000 2 180 08:38 22.12.2020
4558 Clear 4 1020 25 10000 2 180 07:57 22.12.2020
4559 Clear 5 1020 26 10000 1 0 07:27 22.12.2020
4560 Clear 4 1021 27 10000 1 0 06:31 22.12.2020
4561 Clear 3 1022 29 10000 2 330 05:30 22.12.2020
4562 Clear -4 1024 67 10000 1 0 02:19 22.12.2020
4563 Clear -4 1017 62 10000 0.82 8 00:25 22.12.2020
4564 Clear -4 1017 59 10000 0.82 8 23:46 21.12.2020
4565 Clear -3 1017 59 10000 1.04 14 23:21 21.12.2020
4566 Clear -3 1017 57 10000 1.04 14 22:37 21.12.2020
4567 Clear -3 1017 56 10000 1.34 19 22:18 21.12.2020
4568 Clear -3 1017 56 10000 1.34 19 21:47 21.12.2020
4569 Clear -3 1017 55 10000 1.29 24 21:28 21.12.2020
4570 Clear -2 1017 53 10000 1.29 24 20:45 21.12.2020
4571 Clear -3 1018 53 10000 1.29 20 20:21 21.12.2020
4572 Clear -3 1018 54 10000 1.29 20 19:47 21.12.2020
4573 Clear -2 1018 54 10000 1.12 19 19:22 21.12.2020
4574 Clear -2 1018 52 10000 1.12 19 18:59 21.12.2020
4575 Clear -2 1018 52 10000 1.12 19 18:41 21.12.2020
4576 Clear -2 1018 51 10000 1.08 10 18:23 21.12.2020
4577 Clear -2 1018 51 10000 1.08 10 17:42 21.12.2020
4578 Clear -2 1018 53 10000 1.01 15 17:23 21.12.2020
4579 Clear -1 1018 53 10000 1.01 15 16:45 21.12.2020
4580 Clear -1 1018 50 10000 1.09 2 16:21 21.12.2020
4581 Clear -1 1019 50 10000 1.09 2 15:43 21.12.2020
4582 Clear 0 1019 46 10000 1.04 355 14:58 21.12.2020
4583 Clear 0 1019 46 10000 1.04 355 14:36 21.12.2020
4584 Clear 1 1019 45 10000 0.98 342 14:18 21.12.2020
4585 Clear 0 1026 57 10000 1 340 13:40 21.12.2020
4586 Clear 0 1026 53 10000 1 0 13:21 21.12.2020
4587 Clear -1 1026 46 10000 1 0 12:42 21.12.2020
4588 Clear 1 1019 41 10000 0.74 279 12:22 21.12.2020
4589 Clear -1 1025 46 10000 1 0 11:43 21.12.2020
4590 Clear 0 1025 76 10000 2 170 11:22 21.12.2020
4591 Clear 0 1025 76 10000 2 170 11:22 21.12.2020
4592 Clear 1 1025 76 10000 2 170 10:58 21.12.2020
4593 Clear 2 1025 29 10000 2 170 10:39 21.12.2020
4594 Clear 3 1025 27 10000 2 170 09:56 21.12.2020
4595 Clear 4 1025 25 10000 3 180 09:38 21.12.2020
4596 Clear 5 1025 23 10000 3 190 09:20 21.12.2020
4597 Clear 5 1025 21 10000 3 200 08:29 21.12.2020
4598 Clear 5 1026 23 10000 3 270 07:27 21.12.2020
4599 Clear 3 1028 25 10000 3 320 05:39 21.12.2020
4600 Clear 1 1029 29 10000 3 350 04:31 21.12.2020
4601 Clear -3 1023 51 10000 1.31 10 00:37 21.12.2020
4602 Clear -3 1023 53 10000 1.35 8 23:51 20.12.2020
4603 Clear -3 1023 51 10000 1.42 4 23:21 20.12.2020
4604 Clear -3 1024 50 10000 1.42 4 22:45 20.12.2020
4605 Clear -3 1024 51 10000 1.38 2 22:25 20.12.2020
4606 Clear -3 1032 51 10000 1.38 2 21:58 20.12.2020
4607 Clear -3 1024 50 10000 1.38 2 21:38 20.12.2020
4608 Clear -2 1025 50 10000 1.5 6 21:18 20.12.2020
4609 Clear -2 1025 49 10000 1.5 6 20:44 20.12.2020
4610 Clear -2 1025 48 10000 1.46 10 20:21 20.12.2020
4611 Clear -3 1025 47 10000 1.46 10 19:43 20.12.2020
4612 Clear -2 1025 43 10000 1.4 13 19:22 20.12.2020
4613 Clear -1 1025 42 10000 1.4 13 18:54 20.12.2020
4614 Clear -2 1025 42 10000 1.36 3 18:36 20.12.2020
4615 Clear -2 1026 42 10000 1.48 3 17:47 20.12.2020
4616 Clear -1 1026 42 10000 1.52 8 17:28 20.12.2020
4617 Clear -1 1026 40 10000 1.52 8 16:57 20.12.2020
4618 Clear -1 1026 40 10000 1.52 8 16:38 20.12.2020
4619 Clear -1 1026 45 10000 1.35 6 16:19 20.12.2020
4620 Clear -2 1027 48 10000 1.35 6 15:37 20.12.2020
4621 Clear -2 1027 48 10000 1.33 5 15:18 20.12.2020
4622 Clear -2 1027 46 10000 1.33 5 14:38 20.12.2020
4623 Clear -2 1027 47 10000 1.29 358 14:19 20.12.2020
4624 Clear -1 1027 46 10000 1.29 358 13:41 20.12.2020
4625 Clear 0 1027 43 10000 1.17 353 13:21 20.12.2020
4626 Clear 0 1026 45 10000 1.17 353 12:49 20.12.2020
4627 Clear 0 1027 43 10000 0.93 352 12:22 20.12.2020
4628 Clear -2 1033 45 10000 1 10 11:49 20.12.2020
4629 Clear 0 1032 36 10000 1 0 11:26 20.12.2020
4630 Clear 3 1032 21 10000 4 300 10:49 20.12.2020
4631 Clear 3 1032 23 10000 3 300 10:21 20.12.2020
4632 Clear 3 1032 23 10000 3 300 09:55 20.12.2020
4633 Clear 4 1032 19 10000 4 310 09:36 20.12.2020
4634 Clear 5 1032 20 10000 5 310 09:18 20.12.2020
4635 Clear 5 1032 20 10000 5 310 08:44 20.12.2020
4636 Clear 4 1032 20 10000 5 310 08:25 20.12.2020
4637 Clear 4 1033 21 10000 2 320 07:21 20.12.2020
4638 Clear -2 1036 42 10000 2 40 02:47 20.12.2020
4639 Clear -4 1029 45 10000 2.53 8 00:59 20.12.2020
4640 Clear -2 1028 44 10000 2.62 9 23:41 19.12.2020
4641 Clear -2 1028 44 10000 2.6 8 23:18 19.12.2020
4642 Clear -2 1028 44 10000 2.6 8 23:18 19.12.2020
4643 Clear -4 1035 78 10000 1 0 22:44 19.12.2020
4644 Clear -4 1035 66 10000 1 180 22:24 19.12.2020
4645 Clear -4 1035 66 10000 1 0 21:45 19.12.2020
4646 Clear -4 1035 57 10000 1 0 21:26 19.12.2020
4647 Clear -4 1035 57 10000 1 0 20:59 19.12.2020
4648 Clear -4 1035 66 10000 1 0 20:37 19.12.2020
4649 Clear -4 1035 57 10000 2 360 20:18 19.12.2020
4650 Clear -4 1035 57 10000 2 330 19:46 19.12.2020
4651 Clear -3 1028 43 10000 1.46 19 19:24 19.12.2020
4652 Clear -4 1028 47 10000 1.27 13 18:34 19.12.2020
4653 Clear -4 1029 46 10000 1.27 13 17:57 19.12.2020
4654 Clear -4 1029 45 10000 1.27 13 17:37 19.12.2020
4655 Clear -3 1029 45 10000 1.21 12 17:19 19.12.2020
4656 Clear -3 1035 57 10000 1 0 16:40 19.12.2020
4657 Clear -1 1028 40 10000 1.28 13 16:22 19.12.2020
4658 Clear -3 1035 61 10000 1 0 15:54 19.12.2020
4659 Clear -2 1035 62 10000 2 350 15:26 19.12.2020
4660 Clear -3 1035 61 10000 2 10 14:39 19.12.2020
4661 Clear -1 1028 42 10000 1.3 19 13:59 19.12.2020
4662 Clear -1 1028 39 10000 1.3 19 13:40 19.12.2020
4663 Clear -1 1028 40 10000 0.69 12 13:18 19.12.2020
4664 Clear 0 1027 38 10000 0.47 353 12:42 19.12.2020
4665 Clear -1 1034 53 10000 1 0 12:24 19.12.2020
4666 Clear 0 1027 38 10000 0.34 281 11:53 19.12.2020
4667 Clear 0 1027 36 10000 0.34 281 11:33 19.12.2020
4668 Clear 0 1027 35 10000 0.29 238 10:42 19.12.2020
4669 Clear 1 1033 22 10000 3 180 10:20 19.12.2020
4670 Clear 3 1033 21 10000 1 0 09:42 19.12.2020
4671 Clear 3 1033 21 10000 2 210 08:59 19.12.2020
4672 Clear 2 1033 22 10000 2 210 08:24 19.12.2020
4673 Clear 1 1034 22 10000 3 0 07:23 19.12.2020
4674 Clear 0 1035 65 10000 2 200 06:51 19.12.2020
4675 Clear 0 1036 64 10000 1 0 06:18 19.12.2020
4676 Clear -1 1037 28 10000 1 0 05:18 19.12.2020
4677 Clear -8 1038 61 10000 2 340 01:36 19.12.2020
4678 Clear -7 1032 44 10000 0.71 22 00:36 19.12.2020
4679 Clear -7 1032 43 10000 0.61 32 00:18 19.12.2020
4680 Clear -6 1032 44 10000 0.61 32 23:44 18.12.2020
4681 Clear -6 1031 43 10000 0.6 30 23:22 18.12.2020
4682 Clear -6 1031 41 10000 0.6 30 22:45 18.12.2020
4683 Clear -6 1032 41 10000 0.56 10 22:21 18.12.2020
4684 Clear -6 1032 41 10000 0.56 10 21:47 18.12.2020
4685 Clear -6 1032 40 10000 0.23 341 21:28 18.12.2020
4686 Clear -6 1039 51 10000 2 340 20:40 18.12.2020
4687 Clear -6 1039 56 10000 2 360 20:19 18.12.2020
4688 Clear -7 1039 65 10000 2 360 19:41 18.12.2020
4689 Clear -7 1039 65 10000 2 350 19:20 18.12.2020
4690 Clear -6 1039 47 10000 1 330 18:40 18.12.2020
4691 Clear -6 1039 51 10000 2 320 18:22 18.12.2020
4692 Clear -5 1033 34 10000 0.47 341 17:24 18.12.2020
4693 Clear -5 1033 31 10000 0.47 341 16:49 18.12.2020
4694 Clear -4 1033 27 10000 0.53 358 16:27 18.12.2020
4695 Clear -6 1040 40 10000 2 10 15:59 18.12.2020
4696 Clear -6 1039 56 10000 2 10 15:41 18.12.2020
4697 Clear -3 1033 25 10000 0.78 28 15:22 18.12.2020
4698 Clear -6 1039 34 10000 2 330 14:54 18.12.2020
4699 Clear -4 1039 34 10000 2 330 14:21 18.12.2020
4700 Clear -6 1039 43 10000 1 360 13:50 18.12.2020
4701 Clear -6 1039 43 10000 1 360 13:27 18.12.2020
4702 Clear -4 1038 31 10000 1 0 12:47 18.12.2020
4703 Clear -4 1038 27 10000 2 350 11:59 18.12.2020
4704 Clear -2 1031 22 10000 0.45 315 11:23 18.12.2020
4705 Clear -2 1031 22 10000 2.52 31 10:40 18.12.2020
4706 Clear -2 1031 22 10000 2.52 31 10:40 18.12.2020
4707 Clear -1 1031 21 10000 2.66 20 10:20 18.12.2020
4708 Clear -1 1037 18 10000 2 70 09:39 18.12.2020
4709 Clear -1 1037 18 10000 2 40 09:21 18.12.2020
4710 Clear 0 1037 55 10000 2 60 08:54 18.12.2020
4711 Clear 0 1031 20 10000 3.41 1 08:30 18.12.2020
4712 Clear 0 1030 19 10000 0.45 0 07:39 18.12.2020
4713 Clear 0 1037 56 10000 2 30 07:18 18.12.2020
4714 Clear 0 1038 57 10000 4 30 06:49 18.12.2020
4715 Clear -1 1039 23 10000 4 10 05:41 18.12.2020
4716 Clear -1 1040 26 10000 5 350 04:51 18.12.2020
4717 Clear -5 1039 53 10000 3 10 01:59 18.12.2020
4718 Clear -6 1038 48 10000 2 360 01:40 18.12.2020
4719 Clear -4 1031 42 10000 0.45 0 23:59 17.12.2020
4720 Clear -5 1031 41 10000 0.89 338 23:37 17.12.2020
4721 Clear -4 1036 56 10000 3 340 23:18 17.12.2020
4722 Clear -3 1030 40 10000 0.89 315 22:45 17.12.2020
4723 Clear -3 1030 40 10000 0.89 315 22:26 17.12.2020
4724 Clear -2 1029 40 10000 0.45 180 21:43 17.12.2020
4725 Clear -2 1029 39 10000 0.89 338 21:43 17.12.2020
4726 Clear -2 1029 40 10000 0.89 68 21:19 17.12.2020
4727 Clear -2 1029 39 10000 1.34 0 20:42 17.12.2020
4728 Clear -1 1028 39 10000 0.45 0 20:19 17.12.2020
4729 Clear -1 1028 39 10000 1.34 0 19:48 17.12.2020
4730 Clear -1 1028 40 10000 5.08 345 19:24 17.12.2020
4731 Clear 0 1027 39 10000 0.45 0 18:44 17.12.2020
4732 Clear -1 1027 38 10000 0.45 0 18:26 17.12.2020
4733 Clear 0 1026 38 10000 0.45 0 17:57 17.12.2020
4734 Clear -3 1032 61 10000 4 340 17:33 17.12.2020
4735 Clear -2 1032 61 10000 3 10 16:55 17.12.2020
4736 Clear -2 1032 61 10000 3 10 16:36 17.12.2020
4737 Clear -2 1032 53 10000 2 340 16:18 17.12.2020
4738 Clear -2 1025 43 10000 2.97 354 15:40 17.12.2020
4739 Clear -2 1025 49 10000 2.46 350 15:20 17.12.2020
4740 Clear -2 1031 39 10000 2 300 14:47 17.12.2020
4741 Clear -3 1030 57 10000 3 360 14:19 17.12.2020
4742 Clear 0 1024 45 10000 2.2 349 13:42 17.12.2020
4743 Clouds 0 1023 44 10000 2.16 350 12:58 17.12.2020
4744 Clouds 0 1023 41 10000 2.16 350 12:38 17.12.2020
4745 Clouds 1 1023 39 10000 1.98 341 12:20 17.12.2020
4746 Clear -2 1029 49 10000 1 60 11:40 17.12.2020
4747 Clear -2 1028 49 10000 2 50 11:20 17.12.2020
4748 Clear 0 1028 39 10000 1 0 10:40 17.12.2020
4749 Clear 3 1028 23 10000 2 200 09:36 17.12.2020
4750 Clear 3 1028 21 10000 3 270 08:40 17.12.2020
4751 Clear 3 1029 21 10000 3 290 07:42 17.12.2020
4752 Clear 2 1029 24 10000 3 290 07:20 17.12.2020
4753 Clear 2 1029 24 10000 3 280 06:47 17.12.2020
4754 Clear 2 1029 24 10000 3 280 06:27 17.12.2020
4755 Clear -3 1031 53 10000 3 350 03:29 17.12.2020
4756 Clear -6 1025 55 10000 1.25 354 00:20 17.12.2020
4757 Clear -6 1025 57 10000 1.25 354 23:38 16.12.2020
4758 Clear -6 1024 56 10000 1.25 1 23:18 16.12.2020
4759 Clear -6 1024 54 10000 1.25 1 22:47 16.12.2020
4760 Clear -6 1025 52 10000 1.68 15 22:28 16.12.2020
4761 Clear -5 1025 52 10000 1.68 15 21:42 16.12.2020
4762 Clear -5 1025 52 10000 1.77 16 21:22 16.12.2020
4763 Clear -5 1025 52 10000 1.77 16 20:49 16.12.2020
4764 Clear -5 1025 51 10000 1.61 15 20:20 16.12.2020
4765 Clear -6 1032 72 10000 1 10 19:38 16.12.2020
4766 Clear -5 1032 66 10000 3 360 19:18 16.12.2020
4767 Clear -3 1026 44 10000 1.26 10 18:44 16.12.2020
4768 Clear -3 1026 43 10000 1.21 13 18:22 16.12.2020
4769 Clear -3 1026 40 10000 1.21 13 17:36 16.12.2020
4770 Clear -3 1026 40 10000 1.09 2 16:46 16.12.2020
4771 Clear -3 1026 40 10000 0.85 352 16:28 16.12.2020
4772 Clear -2 1033 33 10000 2 220 15:57 16.12.2020
4773 Clear -2 1033 33 10000 2 220 15:37 16.12.2020
4774 Clear -1 1033 33 10000 3 0 15:18 16.12.2020
4775 Clear -1 1033 33 10000 3 210 14:41 16.12.2020
4776 Clear -2 1026 39 10000 0.54 345 14:22 16.12.2020
4777 Clear -1 1026 37 10000 0.54 345 13:40 16.12.2020
4778 Clear -1 1026 36 10000 0.34 345 13:20 16.12.2020
4779 Clear -1 1033 72 10000 3 200 12:43 16.12.2020
4780 Clear -1 1033 28 10000 4 200 11:49 16.12.2020
4781 Clear 0 1033 69 10000 4 200 11:27 16.12.2020
4782 Clear 0 1033 69 10000 3 200 10:54 16.12.2020
4783 Clear 0 1033 66 10000 3 200 10:32 16.12.2020
4784 Clear 1 1033 19 10000 4 200 09:55 16.12.2020
4785 Clear 1 1026 29 10000 1.23 209 09:24 16.12.2020
4786 Clear 2 1033 15 10000 5 320 08:22 16.12.2020
4787 Clear 3 1034 15 10000 5 310 07:45 16.12.2020
4788 Clear 3 1034 16 10000 3 320 07:20 16.12.2020
4789 Clear -3 1038 35 10000 2 20 03:35 16.12.2020
4790 Clear -7 1038 56 10000 1 170 01:59 16.12.2020
4791 Clear -6 1031 38 10000 2.91 351 23:50 15.12.2020
4792 Clear -6 1031 37 10000 2.91 351 23:31 15.12.2020
4793 Clear -6 1030 37 10000 3.01 351 22:41 15.12.2020
4794 Clear -6 1030 38 10000 3.33 348 22:21 15.12.2020
4795 Clear -5 1030 37 10000 3.33 348 21:47 15.12.2020
4796 Clear -5 1030 36 10000 3.35 346 21:23 15.12.2020
4797 Clear -5 1030 37 10000 3.35 346 20:46 15.12.2020
4798 Clear -4 1037 29 10000 6 330 20:27 15.12.2020
4799 Clear -4 1030 36 10000 3.29 350 19:55 15.12.2020
4800 Clear -4 1030 35 10000 0.45 315 19:34 15.12.2020
4801 Clear -5 1036 27 10000 5 310 18:44 15.12.2020
4802 Clear -4 1030 34 10000 2.71 339 18:24 15.12.2020
4803 Clear -4 1030 33 10000 2.71 339 17:59 15.12.2020
4804 Clear -4 1030 33 10000 2.71 339 17:41 15.12.2020
4805 Clear -3 1030 33 10000 2.28 341 17:20 15.12.2020
4806 Clear -3 1030 33 10000 2.28 341 17:20 15.12.2020
4807 Clear -3 1029 30 10000 2.28 341 16:33 15.12.2020
4808 Clear -3 1029 29 10000 0.89 45 15:55 15.12.2020
4809 Clear -4 1029 29 10000 1.47 334 15:32 15.12.2020
4810 Clear -4 1035 61 10000 2 10 14:49 15.12.2020
4811 Clear -4 1035 44 10000 2 350 14:23 15.12.2020
4812 Clear -5 1035 52 10000 1 10 13:52 15.12.2020
4813 Clear -5 1035 52 10000 1 10 13:32 15.12.2020
4814 Clear -4 1028 34 10000 0.92 355 12:47 15.12.2020
4815 Clear -3 1028 33 10000 0.71 353 12:22 15.12.2020
4816 Clear -4 1028 32 10000 0.71 353 11:56 15.12.2020
4817 Clear -2 1027 31 10000 0.57 3 11:27 15.12.2020
4818 Clear -2 1027 30 10000 0.57 3 10:57 15.12.2020
4819 Clear -2 1027 29 10000 0.57 3 10:39 15.12.2020
4820 Clear -1 1026 28 10000 0.52 19 09:53 15.12.2020
4821 Clear 0 1026 27 10000 0.28 350 09:32 15.12.2020
4822 Clear 0 1035 23 10000 0.28 350 08:58 15.12.2020
4823 Clear 0 1033 22 10000 1 0 08:30 15.12.2020
4824 Clear 0 1033 64 10000 1 0 07:54 15.12.2020
4825 Clear -1 1033 22 10000 1 0 07:33 15.12.2020
4826 Clear -1 1034 22 10000 1 0 06:37 15.12.2020
4827 Clear -4 1037 38 10000 2 310 04:20 15.12.2020
4828 Clouds -7 1030 45 10000 1.54 28 00:36 15.12.2020
4829 Clear -8 1035 56 10000 2 330 23:28 14.12.2020
4830 Clear -8 1035 60 10000 2 330 22:59 14.12.2020
4831 Clear -8 1035 51 10000 1 0 22:37 14.12.2020
4832 Clear -8 1035 55 10000 4 350 21:54 14.12.2020
4833 Clear -8 1035 55 10000 4 350 21:54 14.12.2020
4834 Clear -8 1035 55 10000 4 350 21:35 14.12.2020
4835 Clear -8 1036 60 10000 3 350 20:52 14.12.2020
4836 Clear -8 1036 60 10000 3 350 20:30 14.12.2020
4837 Clear -8 1036 60 10000 2.24 2 19:55 14.12.2020
4838 Clear -8 1036 60 10000 2.24 2 19:30 14.12.2020
4839 Clear -7 1036 60 10000 2 360 18:53 14.12.2020
4840 Clear -7 1036 60 10000 2 360 18:32 14.12.2020
4841 Clear -7 1036 55 10000 2 360 17:53 14.12.2020
4842 Clear -6 1036 51 10000 2 20 17:31 14.12.2020
4843 Clear -7 1036 55 10000 2 20 16:53 14.12.2020
4844 Clear -5 1036 36 10000 1 0 16:29 14.12.2020
4845 Clear -5 1029 30 10000 1.12 350 15:50 14.12.2020
4846 Clear -5 1029 30 10000 1.13 320 15:25 14.12.2020
4847 Clear -5 1029 28 10000 1.13 320 14:45 14.12.2020
4848 Clear -4 1029 27 10000 1.18 294 14:26 14.12.2020
4849 Clear -4 1029 28 10000 1.18 294 13:47 14.12.2020
4850 Clear -4 1029 26 10000 0.45 0 13:24 14.12.2020
4851 Clear -4 1028 25 10000 0.45 0 12:53 14.12.2020
4852 Clear -3 1028 24 10000 0.45 45 12:29 14.12.2020
4853 Clear -2 1028 23 10000 1.42 231 11:35 14.12.2020
4854 Clear -2 1027 24 10000 1.91 256 10:43 14.12.2020
4855 Clear -2 1027 25 10000 0.45 315 10:25 14.12.2020
4856 Clear -1 1027 25 10000 0.89 0 09:44 14.12.2020
4857 Clear -1 1026 24 10000 0.89 315 08:49 14.12.2020
4858 Clear -1 1033 22 10000 6 290 08:30 14.12.2020
4859 Clear -1 1033 20 10000 7 290 07:49 14.12.2020
4860 Clear 0 1033 22 10000 7 300 06:48 14.12.2020
4861 Clear -1 1034 23 10000 9 290 05:37 14.12.2020
4862 Clear -4 1030 31 10000 2.24 279 02:39 14.12.2020
4863 Clear -7 1030 33 10000 2.28 286 00:56 14.12.2020
4864 Clear -7 1030 33 10000 2.28 286 00:34 14.12.2020
4865 Clear -9 1036 71 10000 2 360 23:57 13.12.2020
4866 Clear -8 1036 71 10000 1 0 23:39 13.12.2020
4867 Clear -8 1036 65 10000 1 120 22:49 13.12.2020
4868 Clear -9 1036 65 10000 3.21 309 22:20 13.12.2020
4869 Clear -8 1036 60 10000 3.21 309 21:50 13.12.2020
4870 Clear -8 1036 60 10000 1 0 21:29 13.12.2020
4871 Clear -8 1037 55 10000 1 340 20:42 13.12.2020
4872 Clear -7 1037 47 10000 2 340 20:23 13.12.2020
4873 Clear -6 1031 34 10000 3.2 303 19:43 13.12.2020
4874 Clouds -6 1031 32 10000 3.97 304 19:22 13.12.2020
4875 Clouds -6 1031 32 10000 3.97 304 19:22 13.12.2020
4876 Clouds -6 1031 33 10000 3.74 300 18:44 13.12.2020
4877 Clouds -6 1030 31 10000 4.41 299 18:21 13.12.2020
4878 Clouds -6 1030 31 10000 4.41 299 17:59 13.12.2020
4879 Clouds -6 1030 31 10000 4.41 299 17:41 13.12.2020
4880 Clouds -5 1030 31 10000 4.29 302 17:18 13.12.2020
4881 Clouds -5 1031 33 10000 4.29 302 16:39 13.12.2020
4882 Clouds -6 1031 33 10000 4.27 309 16:19 13.12.2020
4883 Clouds -5 1031 33 10000 4.27 309 15:45 13.12.2020
4884 Clear -5 1031 32 10000 4.55 312 15:24 13.12.2020
4885 Clear -5 1031 33 10000 4.55 312 14:45 13.12.2020
4886 Clear -5 1031 32 10000 4.55 314 14:27 13.12.2020
4887 Clear -5 1031 32 10000 4.55 314 13:45 13.12.2020
4888 Clear -5 1031 31 10000 4.27 322 13:27 13.12.2020
4889 Clear -4 1030 30 10000 4.27 322 12:52 13.12.2020
4890 Clear -4 1030 30 10000 4.5 320 12:23 13.12.2020
4891 Clear -4 1030 28 10000 0.45 0 11:51 13.12.2020
4892 Clear -4 1030 27 10000 0.45 315 11:23 13.12.2020
4893 Clear -4 1030 25 10000 0.45 0 10:41 13.12.2020
4894 Clear -3 1029 23 10000 0.89 0 09:59 13.12.2020
4895 Clear -3 1028 22 10000 1.34 0 09:31 13.12.2020
4896 Clear -2 1028 22 10000 1.34 0 08:47 13.12.2020
4897 Clear -2 1027 24 10000 1.34 0 08:23 13.12.2020
4898 Clear -2 1035 24 10000 1.79 180 05:50 13.12.2020
4899 Clear -4 1028 32 10000 0.45 45 02:43 13.12.2020
4900 Clear -4 1028 33 10000 1.34 0 01:59 13.12.2020
4901 Clear -4 1027 35 10000 0.89 0 01:33 13.12.2020
4902 Clear -5 1026 38 10000 1.34 315 00:33 13.12.2020
4903 Clear -5 1025 41 10000 1.34 0 23:33 12.12.2020
4904 Clear -4 1024 41 10000 0.45 0 22:58 12.12.2020
4905 Clear -4 1023 43 10000 0.45 0 22:28 12.12.2020
4906 Clear -3 1022 43 10000 1.34 338 21:46 12.12.2020
4907 Clear -3 1022 45 10000 0.89 0 21:19 12.12.2020
4908 Clear -2 1021 44 10000 0.89 315 20:43 12.12.2020
4909 Clear -2 1021 41 10000 1.34 0 20:19 12.12.2020
4910 Clear -1 1020 43 10000 0.89 338 19:51 12.12.2020
4911 Clear -1 1019 45 10000 0.45 315 19:33 12.12.2020
4912 Clouds -1 1019 44 10000 0.89 0 19:33 12.12.2020
4913 Clouds 0 1018 47 10000 0.45 315 18:52 12.12.2020
4914 Clouds 0 1018 47 10000 0.45 113 18:33 12.12.2020
4915 Clouds 1 1017 45 10000 0.89 315 17:59 12.12.2020
4916 Clouds 1 1016 44 10000 0.45 0 17:40 12.12.2020
4917 Clouds 2 1016 42 10000 1.34 225 16:30 12.12.2020
4918 Clouds 1 1015 61 10000 5.43 322 15:53 12.12.2020
4919 Clouds 1 1015 79 10000 0.45 0 15:35 12.12.2020
4920 Clouds 1 1014 99 10000 0.45 315 14:53 12.12.2020
4921 Clouds 1 1014 99 10000 3.39 303 14:21 12.12.2020
4922 Clouds 0 1014 99 10000 3.39 303 13:40 12.12.2020
4923 Clouds 0 1014 99 10000 3.28 334 13:22 12.12.2020
4924 Clouds 0 1012 82 10000 1.34 0 12:33 12.12.2020
4925 Haze 1 1017 69 4500 3 180 11:19 12.12.2020
4926 Haze 1 1017 59 5000 2 150 10:45 12.12.2020
4927 Clouds 2 1017 59 6000 1 0 09:23 12.12.2020
4928 Clear 3 1010 58 10000 1.95 198 07:26 12.12.2020
4929 Clear -3 1015 87 10000 1.61 10 00:50 12.12.2020
4930 Clear -3 1021 85 8000 1 0 23:19 11.12.2020
4931 Clear -3 1021 92 8000 1 360 20:57 11.12.2020
4932 Clear -2 1022 92 8000 1 0 19:42 11.12.2020
4933 Clear 0 1016 57 10000 0.18 35 16:49 11.12.2020
4934 Clear 1 1022 68 10000 1 0 14:37 11.12.2020
4935 Clear 1 1021 62 10000 1 90 13:42 11.12.2020
4936 Clear 3 1014 42 10000 1.18 163 12:22 11.12.2020
4937 Clear 2 1020 54 10000 1 110 11:52 11.12.2020
4938 Clear 4 1014 41 10000 0.93 167 11:30 11.12.2020
4939 Clear 4 1014 40 10000 0.93 167 10:34 11.12.2020
4940 Clear 6 1013 36 10000 1.25 191 07:31 11.12.2020
4941 Clear 4 1022 27 10000 1 0 05:36 11.12.2020
4942 Clear 1 1024 74 10000 3 280 02:58 11.12.2020
4943 Clear 0 1017 54 10000 2 16 00:42 11.12.2020
4944 Clear -1 1022 73 10000 2 350 23:26 10.12.2020
4945 Clear 1 1015 45 10000 2.95 355 21:37 10.12.2020
4946 Clear 2 1016 46 10000 3.07 349 20:51 10.12.2020
4947 Clear 2 1016 48 10000 3 346 20:26 10.12.2020
4948 Clouds 1 1017 48 10000 2.82 344 19:29 10.12.2020
4949 Clear 1 1017 49 10000 2.95 340 18:47 10.12.2020
4950 Clouds 2 1017 53 10000 2.39 332 17:26 10.12.2020
4951 Clouds 2 1016 52 10000 2.19 333 15:58 10.12.2020
4952 Clouds 3 1016 51 10000 1.74 325 15:21 10.12.2020
4953 Clouds 2 1025 52 10000 1.74 325 14:43 10.12.2020
4954 Clouds 4 1015 48 10000 1.64 314 13:42 10.12.2020
4955 Clear 4 1021 32 10000 4 210 12:21 10.12.2020
4956 Clear 6 1020 24 10000 5 280 10:54 10.12.2020
4957 Clear 9 1020 21 10000 4 300 08:21 10.12.2020
4958 Clear 8 1021 24 10000 3 280 07:28 10.12.2020
4959 Clear 5 1022 35 10000 2 210 05:51 10.12.2020
4960 Clear 1 1017 56 10000 2.37 352 02:40 10.12.2020
4961 Clear -1 1017 65 10000 1.91 358 01:32 10.12.2020
4962 Clear -3 1016 68 10000 1.81 1 23:42 09.12.2020
4963 Clear -4 1023 78 10000 2 20 20:39 09.12.2020
4964 Clear -3 1023 78 10000 1 50 19:46 09.12.2020
4965 Clear -3 1023 78 10000 1 0 18:36 09.12.2020
4966 Clear -3 1024 73 10000 1 70 17:29 09.12.2020
4967 Clear -2 1024 78 10000 1 30 16:40 09.12.2020
4968 Clear -2 1024 73 10000 1 0 16:20 09.12.2020
4969 Clear 0 1017 50 10000 0.82 267 14:51 09.12.2020
4970 Clear 0 1017 49 10000 0.89 252 14:26 09.12.2020
4971 Clear 0 1017 45 10000 0.89 252 13:36 09.12.2020
4972 Clouds 1 1017 46 10000 1.12 234 13:18 09.12.2020
4973 Clear 0 1023 58 10000 1 0 12:31 09.12.2020
4974 Clouds 1 1016 42 10000 1.29 226 11:37 09.12.2020
4975 Clouds 2 1015 42 10000 1.03 216 09:51 09.12.2020
4976 Clouds 4 1015 38 10000 1 197 08:36 09.12.2020
4977 Clear 2 1023 31 10000 1 0 06:43 09.12.2020
4978 Clouds 3 1016 40 10000 0.83 16 05:28 09.12.2020
4979 Clouds 0 1019 47 10000 1.01 15 02:41 09.12.2020
4980 Clouds -3 1018 53 10000 1.4 36 00:37 09.12.2020
4981 Clear -3 1018 53 10000 1.33 35 23:34 08.12.2020
4982 Clear -3 1018 51 10000 0.15 8 22:22 08.12.2020
4983 Clear -3 1018 48 10000 0.63 32 20:39 08.12.2020
4984 Clear -2 1019 47 10000 0.58 35 19:30 08.12.2020
4985 Clouds -1 1019 47 10000 0.37 67 18:35 08.12.2020
4986 Clouds 0 1020 42 10000 0.58 74 16:39 08.12.2020
4987 Clouds 0 1021 42 10000 0.39 144 15:18 08.12.2020
4988 Clouds 0 1021 38 10000 0.46 157 13:49 08.12.2020
4989 Clouds 0 1021 36 10000 0.34 114 12:41 08.12.2020
4990 Clouds 0 1021 37 10000 0.82 185 11:53 08.12.2020
4991 Clouds 0 1021 36 10000 1.04 182 10:54 08.12.2020
4992 Clouds 0 1021 34 10000 0.25 114 10:34 08.12.2020
4993 Clouds 1 1021 32 10000 0.25 114 09:38 08.12.2020
4994 Clear 2 1028 19 10000 3 250 07:35 08.12.2020
4995 Clear 1 1031 62 10000 1 0 05:26 08.12.2020
4996 Clear -4 1033 45 10000 3 350 02:24 08.12.2020
4997 Clear -5 1026 47 10000 1.65 8 00:44 08.12.2020
4998 Clear -5 1026 41 10000 1.28 3 23:18 07.12.2020
4999 Clear -4 1027 39 10000 1.38 360 22:20 07.12.2020
5000 Clear -5 1034 52 10000 1 340 20:57 07.12.2020
5001 Clear -4 1028 39 10000 1.65 339 19:23 07.12.2020
5002 Clear -3 1028 38 10000 2.3 345 17:55 07.12.2020
5003 Clear -3 1028 36 10000 2.68 350 17:19 07.12.2020
5004 Clear -3 1029 35 10000 2.94 350 16:28 07.12.2020
5005 Clear -2 1029 33 10000 3.05 348 15:24 07.12.2020
5006 Clear -1 1029 32 10000 2.99 344 14:28 07.12.2020
5007 Clear -1 1029 29 10000 2.99 344 13:35 07.12.2020
5008 Clear 0 1029 27 10000 3.22 341 12:28 07.12.2020
5009 Clear 0 1029 25 10000 0.45 0 11:42 07.12.2020
5010 Clear 0 1028 26 10000 3.06 348 10:32 07.12.2020
5011 Clear 1 1034 17 10000 7 290 08:56 07.12.2020
5012 Clear 1 1028 24 10000 1.34 315 07:30 07.12.2020
5013 Clear -1 1037 26 10000 8 310 05:26 07.12.2020
5014 Clear 0 1031 31 10000 1.34 0 03:45 07.12.2020
5015 Clear -5 1031 41 10000 0.45 180 00:39 07.12.2020
5016 Clear -4 1031 40 10000 1.34 45 22:48 06.12.2020
5017 Clear -4 1030 39 10000 0.89 0 21:44 06.12.2020
5018 Clear -4 1031 38 10000 5.59 346 20:41 06.12.2020
5019 Clear -4 1031 38 10000 5.49 347 20:19 06.12.2020
5020 Clouds -3 1030 37 10000 0.45 158 19:20 06.12.2020
5021 Clouds -2 1029 35 10000 1.34 315 17:28 06.12.2020
5022 Clouds -1 1028 34 10000 1.34 0 16:33 06.12.2020
5023 Clouds 1 1027 33 10000 0.45 315 14:46 06.12.2020
5024 Clear 3 1026 30 10000 0.45 45 12:59 06.12.2020
5025 Clear 3 1025 29 10000 0.89 0 12:30 06.12.2020
5026 Clear 4 1024 32 10000 0.89 315 11:41 06.12.2020
5027 Clear 4 1024 32 10000 0.89 315 11:41 06.12.2020
5028 Clear 4 1023 33 10000 0.89 315 11:22 06.12.2020
5029 Clear 4 1023 33 10000 5.89 323 10:32 06.12.2020
5030 Clear 5 1022 33 10000 0.45 270 08:59 06.12.2020
5031 Clear 6 1021 33 10000 0.89 315 07:26 06.12.2020
5032 Clear 3 1029 34 10000 2 320 04:41 06.12.2020
5033 Clear -1 1021 50 10000 1.69 14 00:45 06.12.2020
5034 Clear -1 1021 51 10000 1.66 11 00:26 06.12.2020
5035 Clear -1 1021 54 10000 1.66 11 23:55 05.12.2020
5036 Clear 0 1020 49 10000 1.55 16 22:24 05.12.2020
5037 Clear 0 1020 47 10000 1.55 16 21:54 05.12.2020
5038 Clear 1 1020 47 10000 1.53 18 21:28 05.12.2020
5039 Clear 1 1021 46 10000 1.71 18 19:54 05.12.2020
5040 Clouds 0 1021 44 10000 1.51 16 18:46 05.12.2020
5041 Clouds 0 1021 46 10000 1.4 26 17:39 05.12.2020
5042 Clouds 0 1021 46 10000 1.03 31 16:44 05.12.2020
5043 Clouds 0 1021 46 10000 0.68 32 16:24 05.12.2020
5044 Clouds 2 1022 40 10000 0.48 24 14:30 05.12.2020
5045 Clouds 2 1021 38 10000 0.2 166 12:35 05.12.2020
5046 Clouds 2 1021 38 10000 0.2 166 11:50 05.12.2020
5047 Clouds 2 1021 37 10000 1 201 10:34 05.12.2020
5048 Clear 4 1028 19 10000 3 220 08:27 05.12.2020
5049 Clear 4 1028 18 10000 2 0 07:47 05.12.2020
5050 Clear 3 1030 23 10000 2 350 05:30 05.12.2020
5051 Clear -3 1025 41 10000 1.67 348 23:57 04.12.2020
5052 Clear -2 1025 43 10000 1.69 349 22:47 04.12.2020
5053 Clear -2 1025 42 10000 2.09 353 20:35 04.12.2020
5054 Clear -1 1025 41 10000 1.99 353 18:54 04.12.2020
5055 Clear -1 1025 44 10000 1.89 353 18:28 04.12.2020
5056 Clear -1 1025 42 10000 1.89 353 17:41 04.12.2020
5057 Clear -1 1026 39 10000 1.65 337 15:54 04.12.2020
5058 Clear 0 1026 39 10000 1.59 331 15:20 04.12.2020
5059 Clear 1 1026 34 10000 1.64 328 13:35 04.12.2020
5060 Clear 1 1032 24 10000 5 290 12:55 04.12.2020
5061 Clear 2 1025 32 10000 2.13 314 12:19 04.12.2020
5062 Clear 2 1025 30 10000 2.1 329 10:35 04.12.2020
5063 Clear 3 1024 28 10000 3.59 323 08:29 04.12.2020
5064 Clear 3 1032 19 10000 8 300 06:40 04.12.2020
5065 Clear 2 1035 24 10000 8 310 04:52 04.12.2020
5066 Clear -2 1030 41 10000 0.45 315 01:20 04.12.2020
5067 Clear -2 1028 40 10000 0.45 315 22:47 03.12.2020
5068 Clear -1 1029 40 10000 0.89 0 21:22 03.12.2020
5069 Clear -1 1029 40 10000 0.45 315 20:41 03.12.2020
5070 Clear -1 1030 42 10000 3.75 330 19:22 03.12.2020
5071 Clear -1 1030 43 10000 3.75 330 18:40 03.12.2020
5072 Clear 0 1030 43 10000 3.27 330 17:21 03.12.2020
5073 Clear 1 1031 39 10000 0.45 315 15:59 03.12.2020
5074 Clear 1 1031 38 10000 0.45 315 15:32 03.12.2020
5075 Clear 1 1031 38 10000 2.4 325 14:49 03.12.2020
5076 Clear 1 1031 37 10000 2.31 326 13:55 03.12.2020
5077 Clear 2 1038 36 10000 2.33 324 12:46 03.12.2020
5078 Clear 2 1030 37 10000 2.46 322 12:23 03.12.2020
5079 Clear 2 1030 34 10000 2.5 321 10:54 03.12.2020
5080 Clear 4 1029 29 10000 3.06 325 08:41 03.12.2020
5081 Clear 1 1040 24 10000 7 310 03:57 03.12.2020
5082 Clear -2 1034 39 10000 0.89 0 01:54 03.12.2020
5083 Clear -3 1033 44 10000 3.79 337 00:19 03.12.2020
5084 Clear -4 1039 57 10000 2 360 22:46 02.12.2020
5085 Clear -3 1032 41 10000 0.45 0 21:50 02.12.2020
5086 Clear -2 1040 42 10000 0.45 0 20:51 02.12.2020
5087 Clear -2 1033 42 10000 0.45 315 20:33 02.12.2020
5088 Clear -2 1033 42 10000 0.45 315 19:50 02.12.2020
5089 Clear -2 1033 43 10000 4.08 328 17:51 02.12.2020
5090 Clear -2 1033 41 10000 0.45 315 17:31 02.12.2020
5091 Clear -1 1033 39 10000 0.89 338 16:42 02.12.2020
5092 Clear 1 1033 37 10000 0.89 315 13:48 02.12.2020
5093 Clouds 2 1030 35 10000 4.47 325 11:33 02.12.2020
5094 Clouds 2 1029 36 10000 5.26 319 10:26 02.12.2020
5095 Clouds 3 1028 34 10000 1.34 0 07:51 02.12.2020
5096 Clouds -1 1029 53 10000 1.46 15 23:42 01.12.2020
5097 Clouds -1 1029 54 10000 1.22 357 22:21 01.12.2020
5098 Clouds -1 1029 54 10000 1.07 36 19:57 01.12.2020
5099 Clouds -1 1029 56 10000 1.07 36 19:33 01.12.2020
5100 Snow 0 1030 55 10000 1.06 26 17:27 01.12.2020
5101 Snow 0 1030 57 10000 1.17 34 15:24 01.12.2020
5102 Clouds 0 1030 55 10000 1.05 19 13:37 01.12.2020
5103 Clouds 0 1029 51 10000 0.41 127 11:44 01.12.2020
5104 Clouds 1 1029 49 10000 0.33 98 11:26 01.12.2020
5105 Clouds 1 1029 46 10000 0.33 98 10:32 01.12.2020
5106 Clouds 4 1029 38 10000 0.11 19 08:18 01.12.2020
5107 Clear 4 1037 27 10000 2 300 06:46 01.12.2020
5108 Clear -1 1034 52 10000 1.83 20 01:44 01.12.2020
5109 Clouds -2 1034 54 10000 1.35 23 00:52 01.12.2020
5110 Clouds -2 1033 55 10000 1.71 15 23:21 30.11.2020
5111 Clouds -2 1033 54 10000 0.89 315 22:42 30.11.2020
5112 Clouds -2 1033 55 10000 1.66 18 22:23 30.11.2020
5113 Clouds -2 1033 58 10000 1.38 23 20:47 30.11.2020
5114 Clouds -1 1033 55 10000 1.32 23 19:41 30.11.2020
5115 Clouds -1 1033 52 10000 1.43 14 18:22 30.11.2020
5116 Clouds -1 1033 50 10000 1.43 14 17:46 30.11.2020
5117 Clouds -1 1034 53 10000 0.92 14 16:54 30.11.2020
5118 Clouds 0 1034 54 10000 0.95 25 15:45 30.11.2020
5119 Clouds 0 1033 47 10000 1.19 31 14:24 30.11.2020
5120 Clouds 1 1033 53 10000 1.19 31 13:42 30.11.2020
5121 Clear 1 1033 50 10000 0.64 62 12:26 30.11.2020
5122 Clear 1 1032 48 10000 0.64 62 11:57 30.11.2020
5123 Clouds 2 1032 37 10000 0.9 60 10:25 30.11.2020
5124 Clouds 2 1031 35 10000 0.9 60 09:43 30.11.2020
5125 Clear 4 1038 23 10000 2 330 06:48 30.11.2020
5126 Clear -2 1033 47 10000 3.39 6 23:29 29.11.2020
5127 Clear -2 1032 47 10000 3.56 358 21:47 29.11.2020
5128 Clear -2 1032 47 10000 3.56 358 21:47 29.11.2020
5129 Clear -2 1032 47 10000 0.45 0 21:28 29.11.2020
5130 Clear -1 1032 44 10000 3.41 352 19:46 29.11.2020
5131 Clear -1 1032 42 10000 3.21 342 17:46 29.11.2020
5132 Clear -1 1032 42 10000 0.45 315 17:46 29.11.2020
5133 Clear 2 1031 37 10000 2.99 336 14:54 29.11.2020
5134 Clear 2 1029 34 10000 0.45 0 12:58 29.11.2020
5135 Clear 3 1028 33 10000 3.75 324 11:41 29.11.2020
5136 Clear 5 1027 31 10000 4.18 326 09:26 29.11.2020
5137 Clear 6 1026 32 10000 0.45 315 08:37 29.11.2020
5138 Clear 4 1027 39 10000 0.89 315 04:21 29.11.2020
5139 Clouds -3 1026 59 10000 0.66 3 23:19 28.11.2020
5140 Clouds -3 1026 58 10000 0.66 3 22:55 28.11.2020
5141 Clouds -1 1026 53 10000 0.41 347 20:27 28.11.2020
5142 Clouds -1 1026 51 10000 0.41 347 19:31 28.11.2020
5143 Clouds -1 1026 52 10000 0.42 344 18:59 28.11.2020
5144 Clouds -1 1026 51 10000 0.26 34 18:26 28.11.2020
5145 Clouds -1 1026 52 10000 0.26 34 17:40 28.11.2020
5146 Clouds -2 1026 57 10000 0.32 25 16:39 28.11.2020
5147 Clouds -1 1027 55 10000 0.3 156 14:31 28.11.2020
5148 Clouds 0 1027 39 10000 1.15 129 11:29 28.11.2020
5149 Clear 2 1026 34 10000 0.75 136 09:38 28.11.2020
5150 Clouds 1 1032 35 10000 0.89 0 03:56 28.11.2020
5151 Clouds 1 1033 37 10000 0.45 0 03:24 28.11.2020
5152 Clouds -1 1033 42 10000 2.52 8 00:49 28.11.2020
5153 Clouds -1 1032 42 10000 0.89 0 22:55 27.11.2020
5154 Clouds -1 1032 43 10000 0.45 315 21:27 27.11.2020
5155 Clouds -1 1033 44 10000 3.52 356 20:30 27.11.2020
5156 Clouds 0 1034 45 10000 0.45 0 19:25 27.11.2020
5157 Clouds 1 1033 44 10000 0.89 315 17:50 27.11.2020
5158 Clear 1 1033 41 10000 0.45 0 14:46 27.11.2020
5159 Clear 2 1032 40 10000 0.89 0 13:25 27.11.2020
5160 Clear 3 1032 39 10000 0.89 0 12:47 27.11.2020
5161 Clear 4 1031 39 10000 1.34 315 11:35 27.11.2020
5162 Clear 4 1031 38 10000 0.89 315 10:50 27.11.2020
5163 Clear 5 1030 37 10000 0.89 0 09:57 27.11.2020
5164 Clear 4 1030 35 10000 0.89 315 07:26 27.11.2020
5165 Clear 1 1030 46 10000 0.89 338 22:28 26.11.2020
5166 Clear 1 1030 47 10000 0.45 315 21:56 26.11.2020
5167 Clear 1 1029 47 10000 0.45 0 20:52 26.11.2020
5168 Clear 1 1029 49 10000 1.75 7 18:42 26.11.2020
5169 Clear 1 1029 56 10000 1.24 1 17:51 26.11.2020
5170 Clear 2 1028 57 10000 0.31 222 14:57 26.11.2020
5171 Clear 2 1027 57 10000 0.79 193 13:42 26.11.2020
5172 Clouds 3 1027 50 10000 0.97 178 12:42 26.11.2020
5173 Clouds 3 1026 49 10000 1.16 167 11:44 26.11.2020
5174 Clouds 4 1026 47 10000 1.38 162 10:35 26.11.2020
5175 Clouds 4 1026 46 10000 1.48 158 09:48 26.11.2020
5176 Clouds 4 1026 46 10000 1.64 168 09:29 26.11.2020
5177 Clouds 6 1026 42 10000 1.64 168 08:39 26.11.2020
5178 Clouds 7 1026 35 10000 2.69 174 06:49 26.11.2020
5179 Clear 2 1028 57 10000 0.63 63 22:59 25.11.2020
5180 Clear 2 1027 53 10000 0.97 94 20:46 25.11.2020
5181 Clear 3 1027 53 10000 1.13 85 19:55 25.11.2020
5182 Clouds 4 1027 50 10000 1.72 30 18:28 25.11.2020
5183 Clouds 5 1027 44 10000 1.79 23 16:44 25.11.2020
5184 Clouds 5 1027 42 10000 2.09 27 15:40 25.11.2020
5185 Clouds 6 1026 42 10000 3.16 34 13:57 25.11.2020
5186 Clouds 6 1026 41 10000 3.16 34 13:38 25.11.2020
5187 Clouds 6 1024 37 10000 3.68 26 11:45 25.11.2020
5188 Clouds 6 1024 36 10000 3.5 25 11:18 25.11.2020
5189 Clouds 6 1023 35 10000 2.44 13 09:18 25.11.2020
5190 Clouds 7 1023 33 10000 2.44 13 08:43 25.11.2020
5191 Clear 8 1024 36 10000 3.02 20 03:59 25.11.2020
5192 Clear 4 1024 46 10000 0.45 315 02:26 25.11.2020
5193 Clear 1 1023 65 10000 1.32 2 00:24 25.11.2020
5194 Clear 0 1023 65 10000 1.32 2 23:52 24.11.2020
5195 Clear 0 1022 62 10000 1.32 2 23:33 24.11.2020
5196 Clear 0 1022 67 10000 1.42 8 21:51 24.11.2020
5197 Clear 0 1022 67 10000 1.42 8 21:30 24.11.2020
5198 Clear 0 1022 64 10000 1.45 9 20:42 24.11.2020
5199 Clouds 0 1022 62 10000 1.4 11 18:56 24.11.2020
5200 Clouds 1 1022 62 10000 0.92 20 17:31 24.11.2020
5201 Clouds 1 1022 64 10000 0.92 20 16:50 24.11.2020
5202 Clouds 1 1022 64 10000 0.92 20 16:50 24.11.2020
5203 Clouds 1 1022 67 10000 0.92 20 16:31 24.11.2020
5204 Clouds 2 1022 64 10000 0.94 7 15:54 24.11.2020
5205 Clouds 2 1022 62 10000 0.94 11 15:18 24.11.2020
5206 Clouds 3 1021 59 10000 0.44 3 14:34 24.11.2020
5207 Clouds 4 1021 55 10000 0.33 136 12:50 24.11.2020
5208 Clouds 4 1021 55 10000 0.82 197 12:22 24.11.2020
5209 Clouds 4 1021 53 10000 0.82 197 11:53 24.11.2020
5210 Clouds 5 1021 49 10000 1.26 194 10:46 24.11.2020
5211 Clear 5 1020 44 10000 1.31 186 10:24 24.11.2020
5212 Clear 6 1020 40 10000 1.31 186 09:35 24.11.2020
5213 Clear 7 1020 37 10000 0.77 189 07:58 24.11.2020
5214 Clear 6 1030 26 10000 2 320 04:48 24.11.2020
5215 Clouds 1 1024 56 10000 0.98 345 22:35 23.11.2020
5216 Clouds 1 1024 55 10000 1.6 2 21:37 23.11.2020
5217 Clouds 1 1024 50 10000 1.56 358 20:54 23.11.2020
5218 Clouds 1 1024 50 10000 1.44 352 20:27 23.11.2020
5219 Clouds 1 1024 45 10000 1.39 340 19:24 23.11.2020
5220 Clouds 1 1024 47 10000 1.19 331 17:27 23.11.2020
5221 Clouds 2 1025 50 10000 1.19 331 16:37 23.11.2020
5222 Clouds 2 1025 55 10000 1.03 327 14:49 23.11.2020
5223 Clouds 2 1025 50 10000 1.12 324 13:33 23.11.2020
5224 Clouds 3 1025 47 10000 1.2 283 12:38 23.11.2020
5225 Clouds 3 1024 41 10000 1.09 290 11:49 23.11.2020
5226 Clouds 3 1024 40 10000 1.28 315 11:21 23.11.2020
5227 Clouds 5 1023 33 10000 1.6 333 09:42 23.11.2020
5228 Clouds 7 1024 32 10000 1.83 340 08:49 23.11.2020
5229 Clear 7 1024 29 10000 1.45 339 07:29 23.11.2020
5230 Clear 0 1028 38 10000 2.21 319 00:39 23.11.2020
5231 Clear -1 1028 42 10000 2.99 338 23:41 22.11.2020
5232 Clear 0 1028 39 10000 0.45 0 22:19 22.11.2020
5233 Clear 0 1028 36 10000 0.89 135 21:23 22.11.2020
5234 Clear 1 1029 36 10000 2.34 336 19:58 22.11.2020
5235 Clear 1 1030 36 10000 0.45 315 18:56 22.11.2020
5236 Clear 1 1030 37 10000 0.45 0 17:54 22.11.2020
5237 Clear 1 1030 37 10000 0.45 0 15:58 22.11.2020
5238 Clear 1 1030 36 10000 2.11 305 14:54 22.11.2020
5239 Clear 2 1029 36 10000 2.58 317 12:50 22.11.2020
5240 Clear 2 1029 36 10000 0.89 0 12:31 22.11.2020
5241 Clear 2 1029 36 10000 0.45 0 11:36 22.11.2020
5242 Clear 2 1029 36 10000 2.45 320 10:47 22.11.2020
5243 Clear 2 1028 35 10000 2.78 321 10:29 22.11.2020
5244 Clear 3 1031 37 10000 0.89 0 02:47 22.11.2020
5245 Clear -1 1029 48 10000 0.45 315 23:54 21.11.2020
5246 Clear 0 1028 49 10000 0.45 315 22:41 21.11.2020
5247 Clear 0 1027 49 10000 0.45 0 21:30 21.11.2020
5248 Clear 1 1027 50 10000 1.34 0 20:49 21.11.2020
5249 Clear 1 1028 51 10000 1.34 315 20:18 21.11.2020
5250 Clear 1 1028 52 10000 1.34 315 19:39 21.11.2020
5251 Clouds 2 1028 50 10000 1.34 338 18:50 21.11.2020
5252 Clouds 2 1027 56 10000 0.45 315 17:30 21.11.2020
5253 Clouds 3 1027 55 10000 0.89 0 16:44 21.11.2020
5254 Clouds 3 1027 56 10000 0.45 315 15:40 21.11.2020
5255 Rain 3 1026 58 10000 0.45 315 15:20 21.11.2020
5256 Rain 3 1026 64 10000 0.45 0 14:40 21.11.2020
5257 Clouds 4 1024 89 10000 1.39 60 12:44 21.11.2020
5258 Clouds 4 1024 90 10000 1.71 34 12:21 21.11.2020
5259 Clouds 3 1023 96 10000 1.71 34 11:36 21.11.2020
5260 Clouds 3 1023 99 10000 1.92 49 10:28 21.11.2020
5261 Clouds 4 1022 99 10000 2.07 35 08:52 21.11.2020
5262 Clouds 3 1022 99 158 1.57 39 08:19 21.11.2020
5263 Clouds 2 1022 99 10000 1.94 26 05:42 21.11.2020
5264 Rain 1 1023 97 6841 1.11 207 01:59 21.11.2020
5265 Rain 3 1021 65 10000 0.32 149 00:21 21.11.2020
5266 Clouds 3 1021 63 7660 0.55 60 22:45 20.11.2020
5267 Rain 3 1027 66 10000 0.85 93 21:44 20.11.2020
5268 Clear 3 1027 66 10000 0.41 139 21:21 20.11.2020
5269 Clear 3 1028 74 10000 1 0 19:55 20.11.2020
5270 Clear 3 1028 64 10000 1 60 18:54 20.11.2020
5271 Clear 3 1028 63 10000 1 60 17:59 20.11.2020
5272 Clear 4 1028 74 10000 1 70 17:29 20.11.2020
5273 Clear 3 1028 61 10000 1 0 16:47 20.11.2020
5274 Clear 4 1028 60 10000 1 70 15:59 20.11.2020
5275 Clear 4 1028 60 10000 1 70 15:59 20.11.2020
5276 Clouds 4 1022 52 10000 1.18 137 15:39 20.11.2020
5277 Clouds 4 1022 50 10000 1.68 173 13:51 20.11.2020
5278 Clouds 5 1022 48 10000 1.53 153 13:19 20.11.2020
5279 Clouds 5 1021 47 10000 1.8 166 12:40 20.11.2020
5280 Clouds 5 1021 44 10000 1.85 168 11:50 20.11.2020
5281 Clouds 6 1021 43 10000 2.05 178 11:21 20.11.2020
5282 Clouds 7 1020 42 10000 1.82 171 09:46 20.11.2020
5283 Clear 8 1020 37 10000 0.89 132 08:28 20.11.2020
5284 Clear 9 1020 36 10000 0.89 132 07:47 20.11.2020
5285 Clear 7 1022 40 10000 0.45 45 03:45 20.11.2020
5286 Clear 2 1022 50 10000 1.92 354 23:36 19.11.2020
5287 Clear 2 1021 51 10000 0.45 0 22:29 19.11.2020
5288 Clear 2 1027 63 10000 3 360 21:50 19.11.2020
5289 Clear 2 1021 50 10000 0.45 315 20:42 19.11.2020
5290 Clear 2 1021 49 10000 0.45 0 20:19 19.11.2020
5291 Clear 3 1020 47 10000 0.89 0 19:26 19.11.2020
5292 Clear 3 1019 46 10000 1.34 0 18:35 19.11.2020
5293 Clear 4 1018 47 10000 0.45 315 17:18 19.11.2020
5294 Clouds 5 1018 46 10000 1.34 0 16:25 19.11.2020
5295 Clouds 5 1017 47 10000 1.34 0 15:28 19.11.2020
5296 Clouds 6 1017 47 10000 0.89 0 13:49 19.11.2020
5297 Clouds 6 1016 46 10000 0.45 0 13:27 19.11.2020
5298 Clouds 6 1016 47 10000 1.36 69 12:51 19.11.2020
5299 Clouds 6 1015 58 10000 1.94 67 12:28 19.11.2020
5300 Clouds 7 1015 58 10000 1.94 67 11:40 19.11.2020
5301 Clouds 7 1015 60 10000 1.94 67 11:40 19.11.2020
5302 Clouds 7 1014 60 10000 2.2 67 11:20 19.11.2020
5303 Clouds 8 1013 58 10000 2.72 66 10:29 19.11.2020
5304 Clouds 8 1012 47 10000 2.72 66 09:47 19.11.2020
5305 Clouds 9 1012 45 10000 0.89 0 09:26 19.11.2020
5306 Clouds 10 1011 44 10000 2.94 10 08:20 19.11.2020
5307 Clouds 10 1010 43 10000 2.94 10 07:30 19.11.2020
5308 Clouds 6 1009 81 10000 3.4 47 01:46 19.11.2020
5309 Clouds 5 1009 88 10000 3.61 41 00:32 19.11.2020
5310 Clouds 6 1013 81 10000 0.45 315 23:31 18.11.2020
5311 Clouds 6 1007 77 10000 2.99 35 22:58 18.11.2020
5312 Clouds 6 1006 76 10000 3.04 29 22:27 18.11.2020
5313 Rain 6 1006 76 10000 3.04 29 21:43 18.11.2020
5314 Clouds 6 1006 75 10000 3.52 34 21:24 18.11.2020
5315 Clouds 7 1005 72 10000 3.52 34 20:31 18.11.2020
5316 Clouds 7 1005 70 10000 4.25 30 19:37 18.11.2020
5317 Clouds 7 1004 73 10000 4.51 45 18:58 18.11.2020
5318 Clouds 7 1004 73 10000 4.51 45 18:39 18.11.2020
5319 Clear 7 1009 63 10000 5 20 17:41 18.11.2020
5320 Clouds 7 1003 99 10000 4.66 42 16:26 18.11.2020
5321 Clouds 7 1003 99 10000 4.66 42 15:57 18.11.2020
5322 Clear 8 1007 75 10000 6 20 14:41 18.11.2020
5323 Clouds 9 1007 75 10000 5 20 13:46 18.11.2020
5324 Clouds 9 992 84 10000 0.45 225 13:21 18.11.2020
5325 Clouds 9 992 85 10000 0.89 270 12:42 18.11.2020
5326 Rain 8 1000 99 10000 2.93 35 11:42 18.11.2020
5327 Clouds 9 1000 99 10000 3.12 34 10:54 18.11.2020
5328 Rain 9 1000 99 10000 3.4 28 10:27 18.11.2020
5329 Rain 11 999 99 7051 4.04 11 08:23 18.11.2020
5330 Rain 11 1000 99 5313 3.85 5 06:37 18.11.2020
5331 Clouds 10 1005 99 10000 0.89 315 01:49 18.11.2020
5332 Rain 10 1005 99 10000 2.98 5 23:53 17.11.2020
5333 Rain 10 1006 99 10000 2.5 11 23:21 17.11.2020
5334 Clouds 10 1006 99 10000 2.63 10 22:29 17.11.2020
5335 Clouds 10 1007 99 10000 2.63 10 21:58 17.11.2020
5336 Clouds 10 1007 99 10000 2.63 10 21:39 17.11.2020
5337 Rain 10 1008 99 10000 3.14 11 20:55 17.11.2020
5338 Rain 10 1013 99 10000 2.82 15 20:27 17.11.2020
5339 Clouds 10 1008 99 10000 2.82 15 19:59 17.11.2020
5340 Rain 10 1009 99 10000 1.96 21 18:35 17.11.2020
5341 Rain 10 1010 99 10000 1.6 18 17:47 17.11.2020
5342 Rain 10 1010 99 10000 1.29 27 16:59 17.11.2020
5343 Clouds 10 1010 99 10000 1.74 22 16:20 17.11.2020
5344 Rain 10 1010 99 10000 1.74 22 15:45 17.11.2020
5345 Clouds 10 1011 99 10000 2.05 24 15:27 17.11.2020
5346 Rain 11 1011 99 10000 2.05 24 14:56 17.11.2020
5347 Rain 11 1011 99 10000 1.7 13 14:28 17.11.2020
5348 Rain 11 1011 99 10000 1.7 13 14:28 17.11.2020
5349 Rain 11 1011 97 10000 1.7 13 13:38 17.11.2020
5350 Rain 11 1011 96 10000 2.12 12 13:18 17.11.2020
5351 Rain 11 1011 94 10000 1.81 4 12:40 17.11.2020
5352 Rain 11 1011 94 10000 2.07 3 11:44 17.11.2020
5353 Rain 11 1011 93 10000 1.93 346 10:49 17.11.2020
5354 Clouds 11 1011 93 10000 1.68 352 10:23 17.11.2020
5355 Clouds 10 1011 95 10000 1.68 352 09:50 17.11.2020
5356 Mist 11 1017 81 3000 2 310 09:27 17.11.2020
5357 Rain 11 1017 81 2800 2 320 08:22 17.11.2020
5358 Mist 11 1017 76 3000 2 340 07:44 17.11.2020
5359 Mist 11 1018 81 3000 1 0 06:33 17.11.2020
5360 Clouds 9 1005 91 10000 0.73 64 03:31 17.11.2020
5361 Clouds 9 1005 91 10000 1.02 78 02:35 17.11.2020
5362 Rain 9 1014 99 10000 1.61 40 01:23 17.11.2020
5363 Clouds 9 1014 99 10000 1.61 40 00:50 17.11.2020
5364 Clouds 9 1014 99 10000 1.7 35 23:45 16.11.2020
5365 Clouds 9 1014 99 10000 1.99 49 23:23 16.11.2020
5366 Clouds 9 1014 99 10000 1.99 49 22:43 16.11.2020
5367 Clouds 9 1014 99 10000 2.22 68 22:20 16.11.2020
5368 Clouds 9 1014 99 10000 2.22 68 21:45 16.11.2020
5369 Clouds 9 1015 99 10000 1.76 63 21:24 16.11.2020
5370 Clouds 9 1016 99 10000 1.76 63 20:37 16.11.2020
5371 Clouds 9 1015 99 10000 1.89 83 20:19 16.11.2020
5372 Clouds 10 1016 88 10000 1.89 83 19:38 16.11.2020
5373 Clouds 10 1016 85 10000 2.21 99 19:19 16.11.2020
5374 Clouds 10 1016 82 10000 2.03 91 18:31 16.11.2020
5375 Clouds 11 1016 80 10000 2.16 101 17:47 16.11.2020
5376 Clouds 11 1016 76 10000 1.81 112 17:21 16.11.2020
5377 Clouds 11 1016 78 10000 1.81 112 16:53 16.11.2020
5378 Clouds 11 1016 77 10000 1.55 118 16:28 16.11.2020
5379 Clouds 11 1016 76 10000 1.55 118 15:51 16.11.2020
5380 Clouds 11 1017 76 10000 1.17 117 15:29 16.11.2020
5381 Clouds 11 1017 68 10000 1.17 117 14:55 16.11.2020
5382 Clouds 11 1017 67 10000 1.11 105 14:28 16.11.2020
5383 Clouds 11 1017 67 10000 0.99 74 13:31 16.11.2020
5384 Clouds 11 1017 66 10000 0.45 0 12:33 16.11.2020
5385 Clouds 11 1017 66 10000 0.44 59 11:44 16.11.2020
5386 Clouds 11 1018 66 10000 0.28 27 11:24 16.11.2020
5387 Clouds 11 1018 68 10000 0.28 27 10:47 16.11.2020
5388 Clouds 11 1018 68 10000 0.36 360 10:26 16.11.2020
5389 Clouds 11 1018 68 10000 0.36 360 09:53 16.11.2020
5390 Clouds 12 1018 67 10000 0.36 360 09:35 16.11.2020
5391 Clouds 12 1018 63 10000 0.16 13 08:49 16.11.2020
5392 Clouds 12 1019 65 10000 0.5 178 08:22 16.11.2020
5393 Clouds 12 1019 64 10000 0.5 178 07:34 16.11.2020
5394 Clouds 12 1019 65 10000 1.11 151 06:46 16.11.2020
5395 Clouds 12 1020 66 10000 1.34 135 05:49 16.11.2020
5396 Clouds 12 1022 64 10000 1.69 116 03:58 16.11.2020
5397 Clear 10 1023 70 10000 1.34 85 01:45 16.11.2020
5398 Clear 9 1023 72 10000 1.09 57 00:42 16.11.2020
5399 Clear 9 1022 75 10000 1.31 60 23:33 15.11.2020
5400 Clear 9 1022 76 10000 1.25 57 22:58 15.11.2020
5401 Clear 8 1022 78 10000 0.97 41 22:26 15.11.2020
5402 Clear 8 1022 81 10000 0.97 41 21:59 15.11.2020
5403 Clear 8 1022 80 10000 0.97 41 21:36 15.11.2020
5404 Clear 8 1022 81 10000 1.35 45 21:18 15.11.2020
5405 Clear 8 1022 80 10000 1.35 45 20:39 15.11.2020
5406 Clear 8 1022 80 10000 1.66 50 19:57 15.11.2020
5407 Clear 8 1022 81 10000 1.66 50 19:39 15.11.2020
5408 Clear 8 1022 81 10000 1.66 50 19:39 15.11.2020
5409 Clear 8 1021 81 10000 1.54 48 19:20 15.11.2020
5410 Clear 8 1021 83 10000 1.27 60 18:45 15.11.2020
5411 Clear 8 1021 82 10000 0.68 62 18:25 15.11.2020
5412 Clear 8 1021 81 10000 0.68 62 17:58 15.11.2020
5413 Clear 8 1021 80 10000 0.68 62 17:39 15.11.2020
5414 Clear 9 1021 77 10000 1 52 17:20 15.11.2020
5415 Clear 9 1020 77 10000 1 52 16:41 15.11.2020
5416 Clear 9 1020 76 10000 1.21 43 16:19 15.11.2020
5417 Clear 9 1020 75 10000 1.21 43 15:43 15.11.2020
5418 Clear 8 1026 86 6000 1.1 38 15:24 15.11.2020
5419 Clear 9 1027 46 6000 1 0 14:53 15.11.2020
5420 Clear 10 1020 71 10000 0.92 24 14:26 15.11.2020
5421 Clear 10 1020 70 10000 0.92 24 13:42 15.11.2020
5422 Clouds 10 1019 71 10000 0.31 5 13:21 15.11.2020
5423 Clouds 11 1019 69 10000 0.71 5 12:46 15.11.2020
5424 Clouds 11 1019 69 10000 0.71 5 12:46 15.11.2020
5425 Clouds 11 1019 66 10000 0.55 344 12:19 15.11.2020
5426 Clouds 11 1024 75 7000 1 0 11:44 15.11.2020
5427 Clouds 12 1018 66 10000 0.51 289 11:18 15.11.2020
5428 Clouds 13 1018 64 10000 0.51 289 10:51 15.11.2020
5429 Clouds 13 1018 65 10000 0.51 289 10:30 15.11.2020
5430 Clouds 14 1018 63 10000 0.68 240 09:52 15.11.2020
5431 Clouds 15 1018 57 10000 0.68 240 09:32 15.11.2020
5432 Clouds 15 1017 57 10000 1.07 219 08:55 15.11.2020
5433 Clouds 15 1017 55 10000 1.07 219 08:32 15.11.2020
5434 Clouds 16 1017 51 10000 0.91 211 07:44 15.11.2020
5435 Clouds 14 1025 50 7000 2 330 06:25 15.11.2020
5436 Clouds 13 1019 58 10000 1.06 19 04:53 15.11.2020
5437 Clouds 9 1020 75 10000 0.45 315 01:54 15.11.2020
5438 Clouds 7 1019 88 10000 1.02 6 00:30 15.11.2020
5439 Clouds 6 1019 89 10000 1.02 6 23:48 14.11.2020
5440 Clouds 6 1019 91 10000 1.09 17 22:55 14.11.2020
5441 Clouds 6 1019 91 10000 1.09 17 22:55 14.11.2020
5442 Clouds 6 1025 93 8000 1 0 22:37 14.11.2020
5443 Clear 6 1019 92 10000 1.08 14 22:18 14.11.2020
5444 Clear 6 1019 91 10000 1.08 14 21:39 14.11.2020
5445 Clear 7 1019 89 10000 1.14 14 21:20 14.11.2020
5446 Clear 7 1019 90 10000 1.14 14 20:42 14.11.2020
5447 Clear 7 1019 89 10000 0.98 20 20:23 14.11.2020
5448 Clear 7 1019 86 10000 0.98 20 19:36 14.11.2020
5449 Clouds 7 1019 88 10000 0.86 25 18:58 14.11.2020
5450 Clouds 7 1019 87 10000 0.91 29 18:39 14.11.2020
5451 Clouds 7 1019 87 10000 0.91 29 18:21 14.11.2020
5452 Clouds 7 1019 87 10000 0.91 29 17:44 14.11.2020
5453 Clear 7 1026 87 10000 1 0 17:26 14.11.2020
5454 Clouds 8 1020 84 10000 0.97 31 16:52 14.11.2020
5455 Clouds 8 1020 82 10000 1.29 27 16:31 14.11.2020
5456 Clouds 9 1020 83 10000 1.29 27 15:55 14.11.2020
5457 Clouds 9 1020 83 10000 1.29 27 15:31 14.11.2020
5458 Clouds 9 1020 81 10000 1.27 23 14:56 14.11.2020
5459 Clouds 9 1020 79 10000 1.27 23 14:30 14.11.2020
5460 Clouds 9 1020 80 10000 1.04 21 13:53 14.11.2020
5461 Clear 9 1026 75 10000 1 0 13:30 14.11.2020
5462 Clouds 10 1020 76 10000 0.77 21 12:56 14.11.2020
5463 Clouds 11 1019 73 10000 1.38 18 12:35 14.11.2020
5464 Clouds 11 1019 72 10000 1.17 13 11:56 14.11.2020
5465 Clouds 11 1019 72 10000 1.17 13 11:38 14.11.2020
5466 Clouds 11 1019 71 10000 0.87 22 10:59 14.11.2020
5467 Clouds 11 1019 71 10000 0.45 315 10:38 14.11.2020
5468 Clouds 12 1019 70 10000 0.37 54 10:20 14.11.2020
5469 Clouds 12 1019 69 10000 0.37 54 09:45 14.11.2020
5470 Clouds 12 1019 69 10000 0.34 135 09:26 14.11.2020
5471 Clouds 12 1019 67 10000 0.34 135 08:41 14.11.2020
5472 Clouds 13 1019 67 10000 0.46 152 08:22 14.11.2020
5473 Clouds 13 1019 66 10000 0.46 152 07:42 14.11.2020
5474 Clouds 13 1019 66 10000 0.46 152 07:42 14.11.2020
5475 Clouds 13 1019 63 10000 1.1 186 06:58 14.11.2020
5476 Clouds 13 1019 67 10000 0.97 174 06:21 14.11.2020
5477 Clouds 13 1020 65 10000 0.55 139 05:18 14.11.2020
5478 Clouds 11 1022 67 10000 0.8 81 03:21 14.11.2020
5479 Rain 8 1023 73 10000 0.76 89 00:28 14.11.2020
5480 Clouds 8 1022 75 10000 0.76 89 23:38 13.11.2020
5481 Clouds 8 1023 76 10000 0.88 93 23:19 13.11.2020
5482 Clouds 8 1022 76 10000 0.88 93 22:41 13.11.2020
5483 Clouds 8 1022 77 10000 0.96 85 22:22 13.11.2020
5484 Clouds 8 1022 77 10000 0.96 85 21:50 13.11.2020
5485 Clouds 8 1022 78 10000 0.97 89 21:27 13.11.2020
5486 Rain 8 1022 79 10000 0.97 89 20:54 13.11.2020
5487 Clouds 8 1022 78 10000 0.97 89 20:32 13.11.2020
5488 Clouds 8 1022 77 10000 0.94 96 19:58 13.11.2020
5489 Clouds 8 1022 76 10000 0.94 96 19:40 13.11.2020
5490 Clouds 8 1022 75 10000 0.75 138 19:22 13.11.2020
5491 Clouds 8 1023 74 10000 0.75 138 18:44 13.11.2020
5492 Clouds 9 1023 73 10000 0.96 176 17:47 13.11.2020
5493 Clouds 9 1023 72 10000 1.23 193 17:24 13.11.2020
5494 Clouds 9 1023 71 10000 1.23 193 16:59 13.11.2020
5495 Clouds 9 1023 71 10000 1.23 193 16:40 13.11.2020
5496 Clouds 9 1023 70 10000 1.43 194 16:20 13.11.2020
5497 Clouds 10 1023 68 10000 1.43 194 15:41 13.11.2020
5498 Clear 10 1024 66 10000 2.24 189 15:21 13.11.2020
5499 Clear 11 1024 60 10000 2.24 189 14:38 13.11.2020
5500 Clear 11 1024 58 10000 2.47 180 14:18 13.11.2020
5501 Clouds 11 1024 49 10000 2.44 170 13:32 13.11.2020
5502 Clear 11 1031 52 10000 1 80 12:59 13.11.2020
5503 Clear 11 1031 52 10000 2 90 12:41 13.11.2020
5504 Clear 11 1031 48 10000 1 90 12:23 13.11.2020
5505 Clouds 12 1024 44 10000 1.57 155 11:47 13.11.2020
5506 Clouds 13 1024 45 10000 1.31 161 11:23 13.11.2020
5507 Clouds 13 1024 42 10000 1.31 161 10:52 13.11.2020
5508 Clouds 14 1023 40 10000 1.21 166 10:33 13.11.2020
5509 Clouds 14 1024 39 10000 1.21 166 09:53 13.11.2020
5510 Clouds 15 1023 38 10000 1.21 166 09:32 13.11.2020
5511 Clouds 15 1024 36 10000 1.86 175 08:54 13.11.2020
5512 Clouds 16 1024 35 10000 1.86 175 08:30 13.11.2020
5513 Clouds 16 1024 33 10000 1.99 182 07:55 13.11.2020
5514 Clouds 16 1024 33 10000 1.99 182 07:36 13.11.2020
5515 Clear 16 1024 31 10000 1.84 185 07:18 13.11.2020
5516 Clear 17 1016 32 10000 0.45 90 06:37 13.11.2020
5517 Clear 16 1034 28 10000 3 150 05:42 13.11.2020
5518 Clear 14 1034 28 10000 1 0 04:24 13.11.2020
5519 Clear 7 1034 48 10000 2 350 01:43 13.11.2020
5520 Clear 9 1027 44 10000 1.46 22 00:37 13.11.2020
5521 Clear 9 1027 44 10000 1.65 22 23:59 12.11.2020
5522 Clear 9 1026 44 10000 1.65 22 23:36 12.11.2020
5523 Clear 9 1026 43 10000 1.88 19 23:18 12.11.2020
5524 Clear 9 1026 41 10000 1.88 19 22:41 12.11.2020
5525 Clear 9 1026 39 10000 1.94 17 22:20 12.11.2020
5526 Clear 8 1032 44 10000 3 340 21:41 12.11.2020
5527 Clear 8 1032 41 10000 3 340 21:23 12.11.2020
5528 Clear 9 1025 37 10000 1.89 14 20:57 12.11.2020
5529 Clear 9 1025 36 10000 1.89 14 20:38 12.11.2020
5530 Clear 9 1025 35 10000 1.9 10 20:18 12.11.2020
5531 Clear 9 1032 38 10000 3 330 19:42 12.11.2020
5532 Clear 9 1032 38 10000 3 340 19:24 12.11.2020
5533 Clear 9 1032 41 10000 3 350 18:48 12.11.2020
5534 Clear 10 1032 35 10000 3 340 18:22 12.11.2020
5535 Clear 10 1031 33 10000 3 330 17:45 12.11.2020
5536 Clear 10 1025 39 10000 2.67 10 17:26 12.11.2020
5537 Clear 10 1025 41 10000 2.67 10 16:46 12.11.2020
5538 Clear 11 1025 39 10000 2.8 13 16:25 12.11.2020
5539 Clear 12 1024 37 10000 2.8 13 15:56 12.11.2020
5540 Clear 13 1024 34 10000 2.8 13 15:32 12.11.2020
5541 Clear 14 1024 31 10000 2.83 17 14:59 12.11.2020
5542 Clear 14 1024 29 10000 2.83 17 14:41 12.11.2020
5543 Clear 14 1023 28 10000 2.84 24 14:21 12.11.2020
5544 Clear 12 1029 56 10000 2 20 13:46 12.11.2020
5545 Clear 12 1029 52 10000 2 10 13:21 12.11.2020
5546 Clear 13 1028 48 10000 2 340 12:50 12.11.2020
5547 Clear 13 1028 48 10000 2 340 12:28 12.11.2020
5548 Clear 13 1028 42 10000 2 330 11:59 12.11.2020
5549 Clear 14 1027 45 10000 1 40 11:40 12.11.2020
5550 Clear 15 1027 34 10000 1 330 11:22 12.11.2020
5551 Clear 16 1020 23 10000 2.75 0 10:41 12.11.2020
5552 Clear 17 1020 24 10000 3.08 345 10:22 12.11.2020
5553 Clear 19 1019 22 10000 3.08 345 09:40 12.11.2020
5554 Clear 20 1019 20 10000 0.45 0 09:20 12.11.2020
5555 Clear 20 1025 13 10000 4 330 08:41 12.11.2020
5556 Clear 20 1019 21 10000 4.32 341 08:21 12.11.2020
5557 Clear 21 1018 21 10000 0.89 45 07:59 12.11.2020
5558 Clear 20 1018 21 10000 0.89 315 07:39 12.11.2020
5559 Clear 21 1025 22 10000 4 10 06:58 12.11.2020
5560 Clear 21 1010 19 10000 0.45 270 06:40 12.11.2020
5561 Clear 19 1019 25 10000 0.89 0 04:39 12.11.2020
5562 Haze 13 1026 54 3000 3 350 03:20 12.11.2020
5563 Clouds 9 1019 65 10000 1.58 14 00:54 12.11.2020
5564 Clouds 9 1019 67 10000 1.32 22 23:47 11.11.2020
5565 Clouds 9 1018 68 10000 1.28 27 23:25 11.11.2020
5566 Clouds 9 1018 69 10000 1.28 27 22:57 11.11.2020
5567 Clouds 8 1024 80 7000 2 350 22:39 11.11.2020
5568 Clouds 8 1024 80 7000 1 0 22:19 11.11.2020
5569 Clouds 8 1025 75 7000 2 340 21:41 11.11.2020
5570 Clouds 7 1024 80 7000 2 340 21:23 11.11.2020
5571 Clouds 8 1024 80 7000 2 340 20:55 11.11.2020
5572 Clouds 8 1025 86 7000 1 330 20:37 11.11.2020
5573 Clouds 7 1025 86 7000 1 350 20:19 11.11.2020
5574 Clouds 7 1025 86 7000 1 0 19:48 11.11.2020
5575 Clouds 8 1025 86 7000 1 0 19:30 11.11.2020
5576 Clouds 8 1025 86 7000 1 0 19:30 11.11.2020
5577 Clouds 8 1025 80 6000 2 360 18:49 11.11.2020
5578 Clouds 8 1025 80 6000 2 360 18:28 11.11.2020
5579 Clouds 8 1025 86 6000 2 350 17:41 11.11.2020
5580 Clouds 8 1026 86 6000 2 350 17:22 11.11.2020
5581 Clouds 8 1026 86 6000 2 350 17:22 11.11.2020
5582 Clouds 8 1026 80 6000 1 0 16:50 11.11.2020
5583 Clouds 9 1019 65 10000 1.17 1 16:32 11.11.2020
5584 Clouds 9 1019 65 10000 1.17 1 16:32 11.11.2020
5585 Clouds 9 1019 64 10000 1.13 13 15:50 11.11.2020
5586 Clouds 9 1019 64 10000 1.21 21 15:27 11.11.2020
5587 Clouds 10 1019 65 10000 1.21 21 14:56 11.11.2020
5588 Clouds 10 1019 64 10000 1.21 21 14:35 11.11.2020
5589 Clear 10 1019 67 10000 1.37 21 13:57 11.11.2020
5590 Clear 10 1019 67 10000 1.37 21 13:35 11.11.2020
5591 Clear 10 1019 65 10000 1.54 18 12:48 11.11.2020
5592 Clear 10 1019 64 10000 1.65 13 12:21 11.11.2020
5593 Clear 11 1019 62 10000 1.65 13 11:49 11.11.2020
5594 Clear 11 1019 61 10000 1.65 13 11:30 11.11.2020
5595 Clear 11 1019 61 10000 1.65 13 11:30 11.11.2020
5596 Clouds 12 1018 58 10000 1.59 1 10:43 11.11.2020
5597 Clouds 12 1018 57 10000 1.08 336 10:24 11.11.2020
5598 Clouds 14 1018 50 10000 1.08 336 09:49 11.11.2020
5599 Clouds 14 1018 50 10000 0.94 256 09:28 11.11.2020
5600 Clouds 14 1018 47 10000 0.94 256 08:49 11.11.2020
5601 Clouds 14 1018 47 10000 1.11 223 08:29 11.11.2020
5602 Clouds 15 1018 44 10000 1.11 223 07:54 11.11.2020
5603 Clouds 15 1018 44 10000 1.11 223 07:36 11.11.2020
5604 Clouds 16 1019 40 10000 0.74 179 06:29 11.11.2020
5605 Clouds 14 1020 42 10000 0.58 102 04:47 11.11.2020
5606 Clouds 9 1022 55 10000 1.25 40 01:32 11.11.2020
5607 Clouds 8 1022 57 10000 1.07 39 00:42 11.11.2020
5608 Clouds 7 1021 58 10000 1.25 39 23:56 10.11.2020
5609 Clear 6 1021 57 10000 1.4 34 23:24 10.11.2020
5610 Clear 6 1021 58 10000 1.4 34 22:57 10.11.2020
5611 Clear 6 1021 57 10000 1.31 31 22:28 10.11.2020
5612 Clear 7 1021 59 10000 1.31 31 21:56 10.11.2020
5613 Clear 7 1021 60 10000 1.31 31 21:38 10.11.2020
5614 Clear 7 1021 60 10000 0.98 32 21:19 10.11.2020
5615 Clear 7 1021 58 10000 0.98 32 20:42 10.11.2020
5616 Clear 7 1021 58 10000 0.84 31 20:23 10.11.2020
5617 Clear 7 1021 56 10000 0.84 31 19:56 10.11.2020
5618 Clear 7 1021 56 10000 0.84 31 19:37 10.11.2020
5619 Clear 7 1021 56 10000 0.61 24 19:18 10.11.2020
5620 Clear 7 1021 57 10000 0.61 24 18:41 10.11.2020
5621 Clear 8 1021 58 10000 1.04 34 18:20 10.11.2020
5622 Clear 8 1021 58 10000 1.04 34 17:44 10.11.2020
5623 Clear 8 1021 61 10000 0.9 44 17:26 10.11.2020
5624 Clear 7 1028 69 10000 1 40 16:58 10.11.2020
5625 Clear 9 1021 56 10000 0.9 44 16:38 10.11.2020
5626 Clear 9 1021 57 10000 0.73 30 16:20 10.11.2020
5627 Clear 9 1021 57 10000 0.73 30 15:46 10.11.2020
5628 Clear 9 1021 58 10000 0.53 6 15:25 10.11.2020
5629 Clear 9 1021 56 10000 0.53 6 14:42 10.11.2020
5630 Clear 10 1021 54 10000 0.26 58 14:23 10.11.2020
5631 Clear 10 1021 53 10000 0.26 58 13:57 10.11.2020
5632 Clear 10 1021 48 10000 0.26 58 13:36 10.11.2020
5633 Clear 11 1020 45 10000 0.28 138 13:18 10.11.2020
5634 Clear 11 1020 43 10000 0.28 138 12:44 10.11.2020
5635 Clear 11 1027 60 10000 1 160 12:24 10.11.2020
5636 Clear 12 1020 41 10000 0.21 4 11:40 10.11.2020
5637 Clear 12 1020 40 10000 0.1 331 11:20 10.11.2020
5638 Clear 13 1019 39 10000 0.1 331 10:46 10.11.2020
5639 Clear 13 1019 37 10000 0.47 239 10:27 10.11.2020
5640 Clear 15 1019 34 10000 0.47 239 09:55 10.11.2020
5641 Clear 15 1019 32 10000 0.47 239 09:37 10.11.2020
5642 Clear 16 1019 31 10000 1.22 210 09:19 10.11.2020
5643 Clear 16 1019 29 10000 1.22 210 08:45 10.11.2020
5644 Clear 17 1019 27 10000 1.37 202 08:24 10.11.2020
5645 Clear 17 1019 27 10000 1.37 202 07:42 10.11.2020
5646 Clear 18 1019 26 10000 1.01 185 07:20 10.11.2020
5647 Clear 17 1011 26 10000 0.45 90 06:39 10.11.2020
5648 Clear 16 1028 24 10000 2 0 05:41 10.11.2020
5649 Clear 14 1029 26 10000 1 0 04:39 10.11.2020
5650 Clear 9 1029 56 10000 1 0 01:42 10.11.2020
5651 Clear 8 1022 51 10000 1.42 43 00:59 10.11.2020
5652 Clear 6 1022 55 10000 1.43 31 23:53 09.11.2020
5653 Clear 6 1021 54 10000 1.22 16 23:23 09.11.2020
5654 Clear 6 1027 51 10000 3 310 22:44 09.11.2020
5655 Clear 6 1027 51 10000 3 310 22:44 09.11.2020
5656 Clear 6 1027 51 10000 3 310 22:23 09.11.2020
5657 Clear 5 1027 64 10000 2 350 21:45 09.11.2020
5658 Clear 5 1027 64 10000 2 350 21:27 09.11.2020
5659 Clear 6 1027 55 10000 3 340 20:45 09.11.2020
5660 Clear 7 1021 51 10000 1.52 10 20:22 09.11.2020
5661 Clear 7 1021 51 10000 1.52 10 19:57 09.11.2020
5662 Clear 7 1021 49 10000 1.52 10 19:39 09.11.2020
5663 Clear 6 1027 74 10000 1 0 19:19 09.11.2020
5664 Clear 7 1021 51 10000 1.28 16 18:41 09.11.2020
5665 Clear 7 1027 69 10000 1 340 18:20 09.11.2020
5666 Clear 7 1027 64 10000 1 0 17:44 09.11.2020
5667 Clear 7 1027 69 10000 1 0 17:26 09.11.2020
5668 Clear 7 1027 59 10000 2 360 16:45 09.11.2020
5669 Clear 7 1027 64 10000 1 0 16:26 09.11.2020
5670 Clear 8 1027 60 10000 1 0 15:50 09.11.2020
5671 Clear 8 1027 60 10000 1 0 15:30 09.11.2020
5672 Clear 8 1026 64 10000 1 0 14:56 09.11.2020
5673 Clear 9 1020 42 10000 0.61 289 14:37 09.11.2020
5674 Clear 9 1020 45 10000 0.89 242 14:19 09.11.2020
5675 Clear 9 1020 46 10000 0.89 242 14:19 09.11.2020
5676 Clear 10 1019 38 10000 0.89 242 13:42 09.11.2020
5677 Clear 10 1019 38 10000 1.49 225 13:19 09.11.2020
5678 Clear 11 1019 36 10000 1.24 236 12:45 09.11.2020
5679 Clear 11 1019 35 10000 1.68 229 12:21 09.11.2020
5680 Clear 12 1018 34 10000 1.68 229 11:43 09.11.2020
5681 Clear 12 1018 33 10000 1.78 230 11:24 09.11.2020
5682 Clear 12 1018 33 10000 1.78 230 11:24 09.11.2020
5683 Clear 12 1018 33 10000 1.78 230 10:59 09.11.2020
5684 Clear 13 1025 32 10000 1.78 230 10:41 09.11.2020
5685 Clear 14 1017 31 10000 1.76 225 10:22 09.11.2020
5686 Clear 15 1017 29 10000 1.85 230 09:31 09.11.2020
5687 Clear 16 1017 28 10000 1.85 230 08:57 09.11.2020
5688 Clear 16 1017 27 10000 2.27 232 08:28 09.11.2020
5689 Clear 16 1017 27 10000 2.27 232 07:57 09.11.2020
5690 Clear 16 1017 25 10000 2.08 235 07:24 09.11.2020
5691 Clear 17 1025 17 10000 2 230 06:58 09.11.2020
5692 Clear 15 1026 17 10000 2 260 05:38 09.11.2020
5693 Clear 9 1028 36 10000 2 340 02:22 09.11.2020
5694 Clear 8 1028 51 10000 1 0 01:41 09.11.2020
5695 Clear 8 1021 40 10000 1.95 11 00:56 09.11.2020
5696 Clear 6 1021 40 10000 2.01 12 23:48 08.11.2020
5697 Clear 6 1021 43 10000 2.1 4 23:28 08.11.2020
5698 Clear 6 1021 43 10000 2.1 4 22:43 08.11.2020
5699 Clear 5 1027 45 10000 2 360 22:22 08.11.2020
5700 Clear 5 1028 55 10000 4 350 21:48 08.11.2020
5701 Clear 6 1028 55 10000 4 350 21:24 08.11.2020
5702 Clear 6 1028 51 10000 3 350 20:57 08.11.2020
5703 Clear 6 1028 59 10000 2 10 20:38 08.11.2020
5704 Clear 7 1021 36 10000 2.32 355 20:20 08.11.2020
5705 Clear 7 1021 36 10000 2.32 355 19:45 08.11.2020
5706 Clear 7 1021 36 10000 2.32 355 19:45 08.11.2020
5707 Clear 8 1021 37 10000 2.15 358 19:23 08.11.2020
5708 Clear 7 1028 59 10000 1 0 18:58 08.11.2020
5709 Clear 7 1028 51 10000 1 0 18:39 08.11.2020
5710 Clear 7 1028 64 10000 2 170 18:20 08.11.2020
5711 Clear 7 1028 64 10000 2 170 17:56 08.11.2020
5712 Clear 7 1028 55 10000 1 0 17:36 08.11.2020
5713 Clear 7 1027 55 10000 2 350 17:18 08.11.2020
5714 Clear 7 1027 48 10000 2 360 16:38 08.11.2020
5715 Clear 8 1027 48 10000 3 340 16:20 08.11.2020
5716 Clear 8 1027 48 10000 1 150 15:46 08.11.2020
5717 Clear 8 1027 48 10000 1 150 15:27 08.11.2020
5718 Clear 10 1027 25 10000 2 240 14:44 08.11.2020
5719 Clear 10 1020 35 10000 2.27 252 14:24 08.11.2020
5720 Clear 11 1019 34 10000 2.27 252 13:56 08.11.2020
5721 Clear 11 1019 33 10000 3.22 229 13:26 08.11.2020
5722 Clear 11 1019 33 10000 3.22 229 13:26 08.11.2020
5723 Clear 11 1019 32 10000 0.45 135 12:59 08.11.2020
5724 Clear 11 1027 23 10000 4 190 12:40 08.11.2020
5725 Clear 12 1026 22 10000 4 190 12:20 08.11.2020
5726 Clear 12 1026 22 10000 4 190 11:55 08.11.2020
5727 Clear 12 1020 31 10000 3.56 215 11:37 08.11.2020
5728 Clear 12 1020 30 10000 3.1 207 11:19 08.11.2020
5729 Clear 13 1020 28 10000 3.1 207 10:42 08.11.2020
5730 Clear 13 1020 28 10000 2.68 208 10:18 08.11.2020
5731 Clear 14 1020 26 10000 2.68 208 09:42 08.11.2020
5732 Clear 14 1020 26 10000 2.88 213 09:22 08.11.2020
5733 Clear 15 1020 25 10000 2.88 213 08:47 08.11.2020
5734 Clear 15 1020 24 10000 0.45 90 08:23 08.11.2020
5735 Clear 15 1020 23 10000 2.8 232 07:53 08.11.2020
5736 Clear 16 1020 22 10000 2.8 232 07:31 08.11.2020
5737 Clear 15 1029 14 10000 3 220 06:29 08.11.2020
5738 Clear 15 1029 15 10000 4 210 05:54 08.11.2020
5739 Clear 14 1031 16 10000 3 320 04:51 08.11.2020
5740 Clear 13 1032 17 10000 2 310 03:25 08.11.2020
5741 Clear 8 1031 22 10000 1 0 01:19 08.11.2020
5742 Clear 8 1031 22 10000 1 0 01:19 08.11.2020
5743 Clear 8 1031 20 10000 2 310 00:33 08.11.2020
5744 Clear 6 1024 36 10000 1.97 317 23:57 07.11.2020
5745 Clear 6 1024 34 10000 1.97 317 23:38 07.11.2020
5746 Clear 7 1024 34 10000 2.27 319 23:19 07.11.2020
5747 Clear 7 1024 33 10000 2.27 319 22:40 07.11.2020
5748 Clear 7 1023 34 10000 2.49 327 22:20 07.11.2020
5749 Clear 7 1023 31 10000 2.49 327 21:43 07.11.2020
5750 Clear 8 1023 30 10000 2.56 332 21:21 07.11.2020
5751 Clear 8 1023 30 10000 2.56 332 20:48 07.11.2020
5752 Clear 9 1023 31 10000 2.59 341 20:30 07.11.2020
5753 Clear 8 1023 31 10000 2.59 341 19:50 07.11.2020
5754 Clear 8 1023 27 10000 0.45 0 19:28 07.11.2020
5755 Clear 9 1023 26 10000 0.45 315 18:58 07.11.2020
5756 Clear 9 1023 27 10000 3.08 321 18:37 07.11.2020
5757 Clear 9 1029 14 10000 7 310 18:18 07.11.2020
5758 Clear 9 1022 27 10000 3.49 330 17:38 07.11.2020
5759 Clear 10 1022 24 10000 4.13 336 16:58 07.11.2020
5760 Clear 10 1022 24 10000 0.45 338 16:40 07.11.2020
5761 Clear 10 1022 25 10000 4.52 337 16:21 07.11.2020
5762 Clear 10 1021 24 10000 4.52 337 15:43 07.11.2020
5763 Clear 11 1027 12 10000 9 340 15:23 07.11.2020
5764 Clear 12 1027 13 10000 8 340 14:48 07.11.2020
5765 Clear 12 1027 13 10000 8 340 14:29 07.11.2020
5766 Clear 13 1026 13 10000 8 340 13:56 07.11.2020
5767 Clear 13 1026 15 10000 6 350 13:31 07.11.2020
5768 Clear 13 1025 15 10000 8 340 12:55 07.11.2020
5769 Clear 13 1025 17 10000 5 350 12:30 07.11.2020
5770 Clear 14 1023 12 10000 6 320 11:45 07.11.2020
5771 Clear 15 1017 20 10000 0.45 0 11:24 07.11.2020
5772 Clear 15 1022 12 10000 6 290 10:46 07.11.2020
5773 Clear 16 1016 20 10000 0.89 0 10:27 07.11.2020
5774 Clear 16 1015 19 10000 0.45 45 09:57 07.11.2020
5775 Clear 16 1021 11 10000 8 290 09:37 07.11.2020
5776 Clear 17 1020 10 10000 10 290 08:56 07.11.2020
5777 Clear 17 1020 10 10000 11 280 08:37 07.11.2020
5778 Clear 18 1013 19 10000 1.34 0 07:56 07.11.2020
5779 Clear 19 1013 19 10000 0.89 0 07:32 07.11.2020
5780 Clear 19 1013 19 10000 1.34 45 06:48 07.11.2020
5781 Clear 20 1020 13 10000 12 280 05:37 07.11.2020
5782 Clear 17 1021 18 10000 6 270 03:24 07.11.2020
5783 Clear 14 1021 23 10000 4 270 01:44 07.11.2020
5784 Clear 10 1021 23 10000 4 270 01:25 07.11.2020
5785 Clear 12 1014 31 10000 2.64 313 00:27 07.11.2020
5786 Clear 10 1019 48 10000 2.79 300 23:25 06.11.2020
5787 Clear 12 1019 36 10000 3 340 22:45 06.11.2020
5788 Clear 12 1019 36 10000 3 340 22:45 06.11.2020
5789 Clear 12 1019 29 10000 3 320 22:20 06.11.2020
5790 Clear 11 1019 29 10000 3 320 21:56 06.11.2020
5791 Clear 13 1018 20 10000 6 290 21:37 06.11.2020
5792 Clear 14 1018 19 10000 7 280 21:18 06.11.2020
5793 Clear 13 1012 27 10000 2.97 301 20:43 06.11.2020
5794 Clear 13 1012 29 10000 0.45 315 20:19 06.11.2020
5795 Clear 10 1018 60 10000 1 0 19:45 06.11.2020
5796 Clear 12 1018 60 10000 1 0 19:26 06.11.2020
5797 Clear 11 1018 64 10000 1 0 18:47 06.11.2020
5798 Clear 11 1018 64 10000 1 0 18:28 06.11.2020
5799 Clear 10 1017 56 10000 1 0 17:52 06.11.2020
5800 Clear 10 1017 56 10000 1 0 17:52 06.11.2020
5801 Clear 11 1017 56 10000 1 0 17:34 06.11.2020
5802 Clear 11 1017 60 10000 1 0 16:59 06.11.2020
5803 Clear 11 1017 64 10000 1 0 16:37 06.11.2020
5804 Clear 12 1017 60 10000 1 0 16:19 06.11.2020
5805 Clear 9 1017 60 10000 1 0 15:33 06.11.2020
5806 Clear 9 1017 60 10000 1 0 15:33 06.11.2020
5807 Clear 10 1017 52 10000 1 0 14:55 06.11.2020
5808 Clear 10 1017 45 10000 2 200 14:30 06.11.2020
5809 Clear 11 1010 48 10000 1.45 233 13:56 06.11.2020
5810 Clear 10 1016 52 10000 2 170 13:26 06.11.2020
5811 Clear 12 1010 46 10000 1.1 226 12:59 06.11.2020
5812 Clear 12 1010 44 10000 1.1 226 12:40 06.11.2020
5813 Clear 12 1016 36 10000 2 170 12:21 06.11.2020
5814 Clear 14 1009 38 10000 0.82 283 11:37 06.11.2020
5815 Clear 14 1009 39 10000 0.98 223 10:59 06.11.2020
5816 Clear 14 1009 35 10000 0.98 223 10:36 06.11.2020
5817 Clear 16 1008 34 10000 2.05 206 09:58 06.11.2020
5818 Clear 17 1008 29 10000 2.05 206 09:38 06.11.2020
5819 Clear 17 1008 28 10000 2.61 216 09:20 06.11.2020
5820 Clear 18 1008 25 10000 2.61 216 08:47 06.11.2020
5821 Clear 18 1008 25 10000 3.29 228 08:28 06.11.2020
5822 Clear 18 1008 25 10000 3.29 228 07:44 06.11.2020
5823 Clear 19 1016 11 10000 8 290 07:21 06.11.2020
5824 Clear 18 1016 12 10000 7 300 06:41 06.11.2020
5825 Clear 17 1017 14 10000 9 300 05:39 06.11.2020
5826 Clear 15 1012 28 10000 5.58 311 02:52 06.11.2020
5827 Clouds 10 1013 55 10000 3.61 337 00:34 06.11.2020
5828 Clouds 10 1009 47 10000 2.3 356 23:56 05.11.2020
5829 Clouds 9 1009 46 10000 2.26 17 23:26 05.11.2020
5830 Clouds 10 1009 46 10000 2.26 17 22:48 05.11.2020
5831 Mist 7 1018 93 4500 3 350 22:26 05.11.2020
5832 Clouds 8 1012 71 10000 2.07 5 21:57 05.11.2020
5833 Clouds 8 1011 71 10000 2.07 5 21:38 05.11.2020
5834 Clear 8 1011 69 10000 1.66 2 21:19 05.11.2020
5835 Clear 8 1012 69 10000 1.66 2 20:44 05.11.2020
5836 Clear 8 1011 72 10000 1.02 21 20:24 05.11.2020
5837 Clear 8 1012 70 10000 1.02 21 19:57 05.11.2020
5838 Clear 9 1012 67 10000 1.02 21 19:38 05.11.2020
5839 Clouds 9 1012 67 10000 1.1 7 19:18 05.11.2020
5840 Clouds 9 1012 68 10000 1.32 359 18:41 05.11.2020
5841 Clouds 9 1012 68 10000 0.85 353 18:22 05.11.2020
5842 Clouds 10 1012 68 10000 0.85 353 17:46 05.11.2020
5843 Clouds 10 1012 68 10000 0.82 334 17:25 05.11.2020
5844 Clouds 10 1012 67 10000 0.82 334 16:49 05.11.2020
5845 Clouds 10 1013 67 10000 0.5 323 16:28 05.11.2020
5846 Clouds 10 1013 68 10000 0.5 323 15:55 05.11.2020
5847 Clouds 10 1013 69 10000 0.5 323 15:36 05.11.2020
5848 Clouds 11 1013 66 10000 0.25 299 15:18 05.11.2020
5849 Clouds 11 1013 66 10000 0.25 299 14:42 05.11.2020
5850 Clouds 11 1013 67 10000 0.38 103 14:23 05.11.2020
5851 Clouds 11 1013 62 10000 0.38 103 13:40 05.11.2020
5852 Clouds 11 1013 65 10000 0.51 64 13:18 05.11.2020
5853 Clouds 12 1012 61 10000 0.35 51 12:42 05.11.2020
5854 Clouds 12 1012 58 10000 0.24 43 12:23 05.11.2020
5855 Clouds 13 1012 56 10000 0.24 43 11:43 05.11.2020
5856 Clouds 13 1012 53 10000 0.18 205 11:23 05.11.2020
5857 Clouds 13 1012 50 10000 0.18 205 10:49 05.11.2020
5858 Clouds 15 1012 49 10000 0.65 201 10:28 05.11.2020
5859 Clouds 13 1011 50 10000 0.65 201 10:28 05.11.2020
5860 Clouds 15 1011 44 10000 0.65 201 09:50 05.11.2020
5861 Clouds 16 1011 41 10000 1.3 188 09:25 05.11.2020
5862 Clouds 16 1011 40 10000 1.3 188 08:55 05.11.2020
5863 Clouds 16 1011 39 10000 1.3 188 08:36 05.11.2020
5864 Clouds 16 1011 38 10000 1.3 194 08:18 05.11.2020
5865 Clouds 16 1012 36 10000 1.28 191 07:28 05.11.2020
5866 Clouds 17 1012 34 10000 1.28 191 06:50 05.11.2020
5867 Clouds 15 1004 36 10000 0.45 135 06:32 05.11.2020
5868 Clear 11 1022 46 10000 1 0 03:45 05.11.2020
5869 Clouds 8 1012 37 10000 0.58 36 00:38 05.11.2020
5870 Clouds 7 1012 37 10000 1.19 28 00:18 05.11.2020
5871 Clouds 8 1011 37 10000 1.19 28 23:36 04.11.2020
5872 Clouds 7 1011 37 10000 1.37 15 23:18 04.11.2020
5873 Clouds 7 1014 56 10000 1.37 15 22:41 04.11.2020
5874 Clouds 7 1014 55 10000 1.3 23 22:21 04.11.2020
5875 Clouds 8 1011 36 10000 1.3 23 21:47 04.11.2020
5876 Clouds 7 1014 54 10000 1.06 25 21:27 04.11.2020
5877 Clouds 7 1014 53 10000 1.06 25 20:54 04.11.2020
5878 Clouds 6 1014 56 10000 1.06 25 20:35 04.11.2020
5879 Clear 6 1021 86 10000 2 360 19:59 04.11.2020
5880 Clear 6 1021 86 10000 2 350 19:40 04.11.2020
5881 Clear 5 1021 86 10000 2 350 19:22 04.11.2020
5882 Clear 6 1021 86 10000 1 360 18:41 04.11.2020
5883 Clear 5 1020 86 10000 1.27 32 18:22 04.11.2020
5884 Clear 7 1014 49 10000 1.27 32 17:47 04.11.2020
5885 Clear 9 1014 50 10000 0.85 41 17:27 04.11.2020
5886 Clear 7 1014 50 10000 0.85 41 16:46 04.11.2020
5887 Clear 8 1013 51 10000 1.48 24 16:27 04.11.2020
5888 Clear 8 1013 55 10000 1.48 24 15:59 04.11.2020
5889 Clear 8 1013 57 10000 1.48 24 15:40 04.11.2020
5890 Clear 8 1013 56 10000 1.61 15 15:20 04.11.2020
5891 Clear 8 1013 56 10000 1.61 15 14:44 04.11.2020
5892 Clear 7 1019 69 10000 1 0 14:24 04.11.2020
5893 Clear 8 1013 60 10000 1.52 20 13:51 04.11.2020
5894 Clear 8 1019 64 10000 1.51 25 13:21 04.11.2020
5895 Clear 9 1012 58 10000 1.42 27 12:58 04.11.2020
5896 Clear 9 1012 58 10000 1.42 27 12:58 04.11.2020
5897 Clear 9 1012 55 10000 1.42 27 12:40 04.11.2020
5898 Clear 9 1012 55 10000 1.42 27 12:40 04.11.2020
5899 Clear 9 1012 53 10000 1.66 23 12:21 04.11.2020
5900 Clear 9 1012 52 10000 1.66 23 11:44 04.11.2020
5901 Clear 10 1012 51 10000 1.09 18 11:21 04.11.2020
5902 Clear 11 1011 49 10000 1.09 18 10:49 04.11.2020
5903 Clear 12 1011 42 10000 0.16 326 10:24 04.11.2020
5904 Clear 13 1011 39 10000 0.16 326 09:55 04.11.2020
5905 Clear 14 1011 36 10000 0.8 271 09:28 04.11.2020
5906 Clear 14 1011 33 10000 0.8 271 08:49 04.11.2020
5907 Clear 15 1011 31 10000 1.08 247 08:23 04.11.2020
5908 Clear 15 1011 31 10000 1.08 247 07:57 04.11.2020
5909 Clear 15 1011 31 10000 1.08 247 07:31 04.11.2020
5910 Clear 15 1019 22 10000 3 190 06:59 04.11.2020
5911 Clear 14 1019 24 10000 2 0 06:39 04.11.2020
5912 Clear 13 1013 31 10000 0.38 156 04:59 04.11.2020
5913 Clear 9 1016 43 10000 0.45 338 02:31 04.11.2020
5914 Clear 7 1017 50 10000 1.11 60 01:38 04.11.2020
5915 Clear 4 1017 56 10000 0.84 46 23:59 03.11.2020
5916 Clear 4 1013 32 10000 0.65 21 23:26 03.11.2020
5917 Clear 4 1017 56 10000 0.65 21 22:55 03.11.2020
5918 Clear 4 1017 56 10000 0.65 21 22:37 03.11.2020
5919 Clear 6 1017 53 10000 0.42 25 22:18 03.11.2020
5920 Clear 5 1023 79 10000 0.42 25 21:41 03.11.2020
5921 Clear 5 1023 79 10000 0.37 20 21:23 03.11.2020
5922 Clear 5 1017 52 10000 0.37 20 20:48 03.11.2020
5923 Clear 6 1014 29 10000 0.33 11 20:27 03.11.2020
5924 Clear 6 1014 29 10000 0.33 11 19:55 03.11.2020
5925 Clear 6 1017 49 10000 0.33 11 19:37 03.11.2020
5926 Clear 7 1015 27 10000 0.25 292 19:18 03.11.2020
5927 Clear 6 1018 46 10000 0.27 48 18:40 03.11.2020
5928 Clear 4 1025 74 10000 0.18 344 18:19 03.11.2020
5929 Clear 4 1025 74 10000 1 360 17:45 03.11.2020
5930 Clear 8 1018 43 10000 0.23 319 17:27 03.11.2020
5931 Clear 6 1018 41 10000 0.23 319 16:51 03.11.2020
5932 Clear 7 1018 41 10000 0.53 245 16:30 03.11.2020
5933 Clear 6 1018 44 10000 0.53 245 15:53 03.11.2020
5934 Clear 7 1018 41 10000 1.36 221 15:30 03.11.2020
5935 Clear 6 1025 59 10000 1 60 14:57 03.11.2020
5936 Clear 6 1025 41 10000 1 50 14:38 03.11.2020
5937 Clear 8 1018 37 10000 1.7 216 14:19 03.11.2020
5938 Clear 8 1018 35 10000 1.7 216 13:40 03.11.2020
5939 Clear 9 1018 34 10000 2.51 209 13:21 03.11.2020
5940 Clear 10 1018 31 10000 2.51 209 12:44 03.11.2020
5941 Clear 11 1018 31 10000 2.83 208 12:21 03.11.2020
5942 Clear 10 1018 29 10000 2.83 208 11:46 03.11.2020
5943 Clear 11 1018 28 10000 2.46 207 11:23 03.11.2020
5944 Clear 12 1018 27 10000 2.46 207 10:55 03.11.2020
5945 Clear 11 1018 27 10000 2.46 207 10:37 03.11.2020
5946 Clear 12 1018 27 10000 3.12 206 10:18 03.11.2020
5947 Clear 13 1018 25 10000 3.12 206 09:44 03.11.2020
5948 Clear 13 1018 25 10000 3.21 225 09:22 03.11.2020
5949 Clear 13 1018 23 10000 3.21 225 08:48 03.11.2020
5950 Clear 14 1018 22 10000 2.84 255 08:29 03.11.2020
5951 Clear 14 1026 12 10000 5 270 07:41 03.11.2020
5952 Clear 15 1026 12 10000 6 300 07:19 03.11.2020
5953 Clear 13 1028 16 10000 2 0 06:21 03.11.2020
5954 Clear 13 1022 23 10000 2.65 308 04:34 03.11.2020
5955 Clear 6 1023 39 10000 1.15 280 00:44 03.11.2020
5956 Clear 5 1023 48 10000 1.57 280 00:20 03.11.2020
5957 Clear 3 1029 54 10000 3 10 23:43 02.11.2020
5958 Clear 4 1022 43 10000 1.77 288 23:20 02.11.2020
5959 Clear 5 1022 39 10000 1.77 288 22:43 02.11.2020
5960 Clear 4 1028 63 10000 1 330 22:24 02.11.2020
5961 Clear 4 1028 68 10000 2 360 21:39 02.11.2020
5962 Clear 4 1028 68 10000 1 340 21:21 02.11.2020
5963 Clear 4 1028 68 10000 1 340 20:55 02.11.2020
5964 Clear 4 1028 68 10000 1 0 20:37 02.11.2020
5965 Clear 6 1022 36 10000 1.46 332 20:18 02.11.2020
5966 Clear 6 1021 34 10000 1.46 332 19:43 02.11.2020
5967 Clear 6 1022 39 10000 1.29 340 19:24 02.11.2020
5968 Clear 7 1021 37 10000 1.21 312 18:42 02.11.2020
5969 Clear 7 1021 35 10000 1.25 320 18:21 02.11.2020
5970 Clear 7 1021 32 10000 1.25 320 17:58 02.11.2020
5971 Clear 7 1021 31 10000 1.25 320 17:40 02.11.2020
5972 Clear 5 1028 63 10000 1 0 17:20 02.11.2020
5973 Clear 5 1028 63 10000 1 0 17:20 02.11.2020
5974 Clear 7 1021 34 10000 1.54 333 16:41 02.11.2020
5975 Clear 7 1021 34 10000 2.35 342 16:23 02.11.2020
5976 Clear 7 1021 31 10000 2.35 342 15:42 02.11.2020
5977 Clear 8 1021 36 10000 3.15 353 15:24 02.11.2020
5978 Clear 8 1021 38 10000 3.15 353 14:57 02.11.2020
5979 Clear 8 1021 33 10000 3.72 360 14:21 02.11.2020
5980 Clear 8 1021 31 10000 3.72 360 13:58 02.11.2020
5981 Clear 8 1021 30 10000 3.72 360 13:40 02.11.2020
5982 Clear 8 1027 16 10000 3 20 13:21 02.11.2020
5983 Clear 9 1027 15 10000 5 360 12:33 02.11.2020
5984 Clear 10 1027 12 10000 5 330 11:59 02.11.2020
5985 Clear 10 1026 11 10000 7 330 11:39 02.11.2020
5986 Clear 10 1026 10 10000 7 330 11:19 02.11.2020
5987 Clear 11 1026 9 10000 7 320 10:43 02.11.2020
5988 Clear 12 1019 21 10000 4.68 334 10:21 02.11.2020
5989 Clear 12 1025 9 10000 7 300 09:51 02.11.2020
5990 Clear 13 1019 19 10000 0.89 0 09:24 02.11.2020
5991 Clear 13 1025 8 10000 9 300 08:46 02.11.2020
5992 Clear 13 1025 8 10000 9 300 08:26 02.11.2020
5993 Clear 13 1025 9 10000 7 330 07:53 02.11.2020
5994 Clear 13 1025 9 10000 7 330 07:25 02.11.2020
5995 Clear 14 1026 10 10000 9 340 06:36 02.11.2020
5996 Clear 12 1020 20 10000 1.34 45 03:55 02.11.2020
5997 Clouds 11 1020 25 10000 0.89 315 01:25 02.11.2020
5998 Clouds 11 1020 26 10000 5.91 314 00:36 02.11.2020
5999 Clouds 10 1019 25 10000 0.89 315 23:45 01.11.2020
6000 Clouds 11 1018 26 10000 5.51 305 23:25 01.11.2020
6001 Clouds 11 1018 26 10000 5.51 305 22:48 01.11.2020
6002 Clouds 12 1018 25 10000 2.53 309 22:27 01.11.2020
6003 Clouds 12 1018 25 10000 0.45 45 22:27 01.11.2020
6004 Clouds 12 1018 25 10000 0.45 135 21:59 01.11.2020
6005 Clouds 11 1018 24 10000 0.45 0 21:41 01.11.2020
6006 Clouds 13 1017 24 10000 0.45 0 21:23 01.11.2020
6007 Clouds 11 1017 27 10000 0.45 338 20:43 01.11.2020
6008 Clouds 11 1017 29 10000 1.83 6 20:25 01.11.2020
6009 Clouds 11 1017 36 10000 1.83 6 19:45 01.11.2020
6010 Clouds 11 1017 40 10000 1.52 24 19:26 01.11.2020
6011 Clouds 11 1017 40 10000 1.28 44 18:55 01.11.2020
6012 Clouds 11 1017 39 10000 1.52 24 18:37 01.11.2020
6013 Clouds 11 1017 39 10000 1.9 46 18:18 01.11.2020
6014 Clouds 11 1017 35 10000 1.9 46 17:43 01.11.2020
6015 Clear 11 1023 23 10000 1 0 17:25 01.11.2020
6016 Clear 11 1023 23 10000 1 0 17:25 01.11.2020
6017 Clear 10 1023 56 10000 2.28 46 16:42 01.11.2020
6018 Clear 10 1023 60 10000 1 0 16:24 01.11.2020
6019 Clear 10 1023 60 10000 1 0 15:55 01.11.2020
6020 Clear 10 1023 56 10000 1 30 15:37 01.11.2020
6021 Clear 10 1023 51 10000 1 140 15:18 01.11.2020
6022 Clear 11 1023 51 10000 1 0 14:45 01.11.2020
6023 Clear 11 1022 48 10000 2 350 14:22 01.11.2020
6024 Clear 12 1022 45 10000 2 360 13:50 01.11.2020
6025 Clear 12 1022 45 10000 2 360 13:32 01.11.2020
6026 Clear 12 1022 42 10000 1 0 12:58 01.11.2020
6027 Clear 12 1021 42 10000 2 160 12:38 01.11.2020
6028 Clouds 15 1014 29 10000 1.62 24 12:18 01.11.2020
6029 Clouds 15 1014 32 10000 1.62 24 11:46 01.11.2020
6030 Clouds 15 1014 30 10000 1.14 8 11:18 01.11.2020
6031 Clear 15 1020 13 10000 5 300 10:42 01.11.2020
6032 Clouds 17 1013 22 10000 1.88 339 10:23 01.11.2020
6033 Clouds 17 1013 20 10000 0.45 315 09:48 01.11.2020
6034 Clear 17 1013 20 10000 3.69 324 08:55 01.11.2020
6035 Clear 17 1013 19 10000 0.89 315 08:36 01.11.2020
6036 Clear 18 1013 19 10000 0.89 0 07:50 01.11.2020
6037 Clear 19 1013 16 10000 1.34 338 06:23 01.11.2020
6038 Clear 14 1017 26 10000 5.74 308 01:58 01.11.2020
6039 Clouds 13 1017 25 10000 5.38 311 01:23 01.11.2020
6040 Clouds 14 1015 23 10000 0.89 0 23:42 31.10.2020
6041 Clouds 14 1015 23 10000 1.34 0 23:23 31.10.2020
6042 Clear 13 1021 16 10000 7 310 22:44 31.10.2020
6043 Clouds 13 1014 28 10000 4.95 331 22:23 31.10.2020
6044 Clear 14 1021 16 10000 6 290 21:46 31.10.2020
6045 Clear 14 1021 17 10000 7 290 21:21 31.10.2020
6046 Clouds 14 1014 24 10000 0.45 315 20:41 31.10.2020
6047 Clouds 15 1014 24 10000 0.45 0 20:20 31.10.2020
6048 Clouds 15 1014 24 10000 0.89 0 19:44 31.10.2020
6049 Clouds 15 1014 24 10000 1.34 0 19:24 31.10.2020
6050 Clouds 15 1014 24 10000 0.45 293 18:59 31.10.2020
6051 Clouds 15 1014 24 10000 0.45 0 18:40 31.10.2020
6052 Clouds 15 1013 24 10000 0.45 0 17:47 31.10.2020
6053 Clouds 15 1013 23 10000 2.2 308 17:26 31.10.2020
6054 Clouds 13 1013 28 10000 2.2 308 16:56 31.10.2020
6055 Clouds 13 1013 31 10000 2.2 308 16:34 31.10.2020
6056 Clouds 14 1010 21 10000 2.63 304 15:55 31.10.2020
6057 Clouds 14 1010 21 10000 2.78 309 15:26 31.10.2020
6058 Clouds 14 1010 20 10000 2.78 309 14:55 31.10.2020
6059 Clouds 14 1010 20 10000 2.78 309 14:37 31.10.2020
6060 Clouds 15 1010 21 10000 2.84 318 14:18 31.10.2020
6061 Clouds 16 1009 20 10000 2.84 318 13:43 31.10.2020
6062 Clouds 17 1009 19 10000 2.59 329 13:20 31.10.2020
6063 Clouds 16 1009 17 10000 2.13 324 12:27 31.10.2020
6064 Clouds 16 1011 25 10000 2.13 324 11:47 31.10.2020
6065 Clouds 17 1008 16 10000 2.99 330 11:28 31.10.2020
6066 Clouds 18 1010 20 10000 2.99 330 10:54 31.10.2020
6067 Clouds 18 1010 18 10000 0.45 0 10:33 31.10.2020
6068 Clear 18 1010 22 10000 4 327 09:41 31.10.2020
6069 Clear 18 1010 20 10000 5.68 321 09:20 31.10.2020
6070 Clear 20 1010 18 10000 0.89 0 08:28 31.10.2020
6071 Clear 20 1010 17 10000 0.45 0 07:49 31.10.2020
6072 Clear 20 1010 16 10000 0.45 338 07:26 31.10.2020
6073 Clear 19 1010 17 10000 0.45 0 06:38 31.10.2020
6074 Clear 18 1013 33 10000 0.45 0 03:50 31.10.2020
6075 Clear 18 1013 36 10000 0.89 315 03:21 31.10.2020
6076 Clouds 12 1014 78 10000 0.84 322 01:29 31.10.2020
6077 Clouds 11 1011 55 10000 0.65 329 00:46 31.10.2020
6078 Clouds 11 1010 55 10000 0.41 281 23:50 30.10.2020
6079 Clouds 10 1019 93 7000 1 0 23:24 30.10.2020
6080 Clouds 12 1010 51 10000 0.55 169 22:45 30.10.2020
6081 Clouds 12 1010 51 10000 0.74 178 22:24 30.10.2020
6082 Clouds 12 1013 78 10000 0.74 178 21:52 30.10.2020
6083 Rain 11 1013 75 10000 0.74 178 21:30 30.10.2020
6084 Rain 11 1013 67 10000 1.2 184 20:59 30.10.2020
6085 Rain 11 1013 65 10000 1.2 184 20:39 30.10.2020
6086 Rain 11 1013 67 10000 2.03 189 20:20 30.10.2020
6087 Rain 12 1014 65 10000 2.03 189 19:46 30.10.2020
6088 Rain 12 1014 64 10000 2.62 193 19:19 30.10.2020
6089 Clouds 12 1014 63 10000 2.62 193 18:50 30.10.2020
6090 Rain 12 1014 61 10000 2.97 186 18:28 30.10.2020
6091 Clouds 12 1015 60 10000 2.97 186 17:49 30.10.2020
6092 Rain 12 1015 60 10000 3.11 187 17:24 30.10.2020
6093 Clouds 13 1015 60 10000 3.11 187 16:57 30.10.2020
6094 Clouds 13 1016 59 10000 3.11 187 16:37 30.10.2020
6095 Clouds 13 1016 58 10000 3.49 187 16:19 30.10.2020
6096 Rain 12 1017 57 10000 3.49 187 15:40 30.10.2020
6097 Clouds 14 1014 39 10000 3.55 194 15:20 30.10.2020
6098 Clouds 14 1016 56 10000 3.55 194 14:44 30.10.2020
6099 Clouds 14 1016 55 10000 3.75 195 14:25 30.10.2020
6100 Clouds 14 1017 57 10000 3.75 195 13:46 30.10.2020
6101 Clouds 14 1017 55 10000 3.94 190 13:21 30.10.2020
6102 Clouds 15 1017 53 10000 3.56 188 12:54 30.10.2020
6103 Clouds 14 1017 51 10000 3.47 187 12:23 30.10.2020
6104 Clouds 15 1017 50 10000 3.47 187 11:56 30.10.2020
6105 Clouds 15 1017 49 10000 3.21 181 11:23 30.10.2020
6106 Clouds 15 1017 48 10000 3.21 181 10:56 30.10.2020
6107 Clouds 16 1017 48 10000 3.21 181 10:37 30.10.2020
6108 Clouds 16 1017 46 10000 3.12 179 10:19 30.10.2020
6109 Clouds 17 1017 42 10000 3.12 179 09:42 30.10.2020
6110 Clouds 17 1017 42 10000 3.61 186 09:20 30.10.2020
6111 Clouds 18 1017 39 10000 3.23 196 08:36 30.10.2020
6112 Clouds 18 1015 27 10000 3.23 196 08:18 30.10.2020
6113 Clouds 18 1015 27 10000 3.23 196 08:18 30.10.2020
6114 Clouds 18 1018 38 10000 3.23 196 07:45 30.10.2020
6115 Clouds 18 1017 34 10000 3.05 202 07:26 30.10.2020
6116 Clouds 19 1019 35 10000 2.56 202 06:20 30.10.2020
6117 Clear 16 1021 35 10000 0.89 191 04:23 30.10.2020
6118 Clear 12 1022 58 10000 1.04 38 01:39 30.10.2020
6119 Clear 9 1022 68 10000 1.1 22 00:31 30.10.2020
6120 Clear 9 1018 40 10000 1.1 22 23:47 29.10.2020
6121 Clear 9 1018 40 10000 0.85 7 23:29 29.10.2020
6122 Clear 8 1028 45 10000 0.85 7 22:48 29.10.2020
6123 Clear 8 1028 45 10000 0.69 11 22:27 29.10.2020
6124 Clear 9 1028 80 10000 2 360 21:51 29.10.2020
6125 Clear 9 1028 80 10000 2 360 21:26 29.10.2020
6126 Clear 8 1028 44 10000 2 350 20:59 29.10.2020
6127 Clear 8 1028 44 10000 2 360 20:39 29.10.2020
6128 Clear 9 1028 44 10000 2 360 20:18 29.10.2020
6129 Clear 11 1021 59 10000 0.73 356 19:39 29.10.2020
6130 Clear 9 1028 43 10000 2 350 19:20 29.10.2020
6131 Clear 11 1021 60 10000 0.69 322 18:46 29.10.2020
6132 Clear 9 1028 40 10000 2 360 18:26 29.10.2020
6133 Clear 11 1021 59 10000 0.62 307 17:43 29.10.2020
6134 Clear 10 1027 86 10000 1 50 17:24 29.10.2020
6135 Clear 10 1027 86 10000 1 50 16:55 29.10.2020
6136 Clear 9 1027 86 10000 1 0 16:37 29.10.2020
6137 Clear 12 1021 63 10000 0.63 236 16:18 29.10.2020
6138 Clear 11 1020 65 10000 0.63 236 15:41 29.10.2020
6139 Clear 11 1020 66 10000 0.98 207 15:22 29.10.2020
6140 Clear 11 1020 63 10000 0.98 207 14:59 29.10.2020
6141 Clear 11 1020 62 10000 0.98 207 14:40 29.10.2020
6142 Clear 12 1020 60 10000 1.12 182 14:19 29.10.2020
6143 Clear 12 1020 56 10000 1.12 182 13:45 29.10.2020
6144 Clear 12 1020 55 10000 0.95 180 13:24 29.10.2020
6145 Clear 13 1019 49 10000 0.49 176 12:43 29.10.2020
6146 Clear 13 1019 47 10000 0.22 107 12:19 29.10.2020
6147 Clear 14 1019 45 10000 0.22 107 11:48 29.10.2020
6148 Clear 13 1025 65 10000 1 80 11:26 29.10.2020
6149 Clouds 16 1019 47 10000 0.27 9 10:57 29.10.2020
6150 Clouds 16 1018 47 10000 0.27 9 10:36 29.10.2020
6151 Clouds 16 1018 40 10000 0.61 273 10:18 29.10.2020
6152 Clouds 17 1018 35 10000 0.61 273 09:42 29.10.2020
6153 Clouds 18 1018 33 10000 1.04 252 09:19 29.10.2020
6154 Clouds 18 1018 30 10000 1.04 252 08:40 29.10.2020
6155 Clouds 19 1018 30 10000 1.04 252 08:19 29.10.2020
6156 Clouds 19 1018 28 10000 1.04 252 07:48 29.10.2020
6157 Clear 19 1026 25 10000 2 290 06:58 29.10.2020
6158 Clear 18 1026 25 10000 1 0 06:24 29.10.2020
6159 Clear 16 1028 32 10000 2 360 04:47 29.10.2020
6160 Clouds 12 1021 45 10000 0.8 44 02:18 29.10.2020
6161 Clouds 10 1020 47 10000 0.64 50 00:38 29.10.2020
6162 Clouds 11 1017 30 10000 0.68 34 00:18 29.10.2020
6163 Clouds 12 1017 29 10000 0.77 30 23:23 28.10.2020
6164 Clear 9 1027 86 10000 0.77 30 22:59 28.10.2020
6165 Clear 9 1027 86 10000 0.77 30 22:41 28.10.2020
6166 Clear 8 1027 86 10000 0.94 24 22:22 28.10.2020
6167 Clear 9 1027 80 10000 1 350 21:44 28.10.2020
6168 Clear 9 1027 80 10000 1 350 21:25 28.10.2020
6169 Clear 9 1027 34 10000 1 0 20:43 28.10.2020
6170 Clear 9 1027 80 10000 2 350 20:23 28.10.2020
6171 Clear 9 1027 80 10000 2 350 19:53 28.10.2020
6172 Clouds 11 1017 32 10000 1.4 16 19:31 28.10.2020
6173 Clear 10 1027 74 10000 2 350 18:52 28.10.2020
6174 Clear 11 1027 65 10000 1 0 18:22 28.10.2020
6175 Clear 11 1027 65 10000 1 0 17:59 28.10.2020
6176 Clear 11 1027 69 10000 1 90 17:41 28.10.2020
6177 Clear 11 1027 69 10000 1 0 17:21 28.10.2020
6178 Clear 11 1027 69 10000 1 0 16:47 28.10.2020
6179 Clear 11 1027 69 10000 1 0 16:28 28.10.2020
6180 Clear 9 1027 65 10000 1 0 15:41 28.10.2020
6181 Clouds 12 1020 40 10000 1.51 207 15:19 28.10.2020
6182 Clear 11 1026 56 10000 1 0 14:46 28.10.2020
6183 Clouds 14 1020 35 10000 1.72 206 14:27 28.10.2020
6184 Clouds 14 1019 32 10000 1.67 197 12:59 28.10.2020
6185 Clouds 14 1019 31 10000 1.55 192 12:36 28.10.2020
6186 Clouds 15 1019 30 10000 1.41 173 12:18 28.10.2020
6187 Clouds 14 1019 30 10000 1.41 173 11:42 28.10.2020
6188 Clouds 16 1019 28 10000 1.16 163 11:21 28.10.2020
6189 Clouds 15 1019 28 10000 1.16 163 10:53 28.10.2020
6190 Clouds 15 1019 27 10000 1.16 163 10:33 28.10.2020
6191 Clouds 17 1019 25 10000 0.92 178 09:48 28.10.2020
6192 Clouds 17 1019 25 10000 1.05 195 09:25 28.10.2020
6193 Clouds 18 1019 22 10000 1.05 195 08:56 28.10.2020
6194 Clouds 19 1019 23 10000 1.05 195 08:37 28.10.2020
6195 Clouds 19 1019 22 10000 0.53 213 08:18 28.10.2020
6196 Clouds 20 1011 20 10000 0.45 90 07:41 28.10.2020
6197 Clouds 20 1011 18 10000 0.64 3 07:19 28.10.2020
6198 Clouds 20 1011 19 10000 0.53 236 06:39 28.10.2020
6199 Clear 19 1028 11 10000 2 310 05:48 28.10.2020
6200 Clouds 18 1021 21 10000 1.37 11 04:52 28.10.2020
6201 Clear 16 1029 14 10000 2 340 04:23 28.10.2020
6202 Clear 12 1030 30 10000 2 340 02:25 28.10.2020
6203 Clouds 11 1019 27 10000 1.86 21 00:39 28.10.2020
6204 Clouds 10 1019 26 10000 1.9 16 23:51 27.10.2020
6205 Clouds 10 1019 26 10000 1.97 11 23:22 27.10.2020
6206 Clear 9 1028 69 10000 3 340 22:55 27.10.2020
6207 Clear 10 1028 64 10000 2 340 22:37 27.10.2020
6208 Clear 10 1028 60 10000 2 330 22:18 27.10.2020
6209 Clear 10 1028 60 10000 2 330 21:54 27.10.2020
6210 Clear 10 1027 74 10000 1 0 21:36 27.10.2020
6211 Clear 10 1028 64 10000 3 360 21:18 27.10.2020
6212 Clouds 11 1021 42 10000 1.83 8 20:36 27.10.2020
6213 Clear 10 1028 69 10000 3 350 20:18 27.10.2020
6214 Clear 10 1028 74 10000 3 350 19:39 27.10.2020
6215 Clear 10 1028 74 10000 2 360 19:20 27.10.2020
6216 Clear 10 1028 74 10000 2 360 18:58 27.10.2020
6217 Clear 11 1028 60 10000 1 0 18:39 27.10.2020
6218 Clear 11 1028 56 10000 1 0 18:18 27.10.2020
6219 Clear 9 1028 64 10000 2 340 17:42 27.10.2020
6220 Clear 10 1028 69 10000 1 10 17:21 27.10.2020
6221 Clear 10 1028 69 10000 1 10 17:21 27.10.2020
6222 Clear 10 1028 69 10000 1 10 17:21 27.10.2020
6223 Clear 10 1027 42 10000 3 330 16:48 27.10.2020
6224 Clouds 12 1021 41 10000 1.19 307 16:25 27.10.2020
6225 Clear 11 1027 34 10000 2 320 15:48 27.10.2020
6226 Clouds 14 1018 26 10000 1.19 307 15:30 27.10.2020
6227 Clouds 11 1012 35 10000 1.19 297 14:55 27.10.2020
6228 Clouds 11 1020 46 10000 1.19 297 14:37 27.10.2020
6229 Clouds 13 1017 24 10000 1.15 293 14:19 27.10.2020
6230 Clear 11 1026 52 10000 1 0 13:33 27.10.2020
6231 Clear 11 1026 52 10000 2 200 12:58 27.10.2020
6232 Clear 11 1026 48 10000 2 180 12:38 27.10.2020
6233 Clouds 15 1019 34 10000 1.09 261 12:20 27.10.2020
6234 Clouds 14 1019 31 10000 1.09 261 11:42 27.10.2020
6235 Clouds 14 1019 30 10000 0.92 258 11:22 27.10.2020
6236 Clouds 14 1018 29 10000 0.92 258 10:47 27.10.2020
6237 Clouds 15 1018 26 10000 0.63 301 10:26 27.10.2020
6238 Clouds 17 1018 24 10000 0.63 301 09:46 27.10.2020
6239 Clouds 17 1018 22 10000 1.3 345 09:25 27.10.2020
6240 Clouds 18 1018 22 10000 1.3 345 08:39 27.10.2020
6241 Clouds 18 1017 18 10000 1.85 355 08:19 27.10.2020
6242 Clouds 19 1017 18 10000 1.85 355 07:45 27.10.2020
6243 Clouds 19 1018 17 10000 2.13 355 07:25 27.10.2020
6244 Clouds 18 1010 17 10000 2.48 352 06:22 27.10.2020
6245 Clouds 17 1019 18 10000 0.89 0 05:52 27.10.2020
6246 Clouds 17 1019 18 10000 0.89 315 05:34 27.10.2020
6247 Clouds 16 1020 20 10000 0.89 315 04:44 27.10.2020
6248 Clouds 14 1021 23 10000 0.45 315 02:33 27.10.2020
6249 Clouds 12 1021 27 10000 1.34 0 00:57 27.10.2020
6250 Clear 11 1020 28 10000 0.89 0 23:44 26.10.2020
6251 Clear 11 1019 27 10000 0.89 0 23:22 26.10.2020
6252 Clear 9 1025 47 10000 2 40 22:47 26.10.2020
6253 Clear 12 1016 19 10000 4.87 2 22:26 26.10.2020
6254 Clear 13 1018 25 10000 1.34 0 21:49 26.10.2020
6255 Clear 13 1018 24 10000 0.89 0 21:21 26.10.2020
6256 Clear 13 1018 24 10000 0.89 0 20:58 26.10.2020
6257 Clear 11 1025 26 10000 4 360 20:39 26.10.2020
6258 Clear 13 1018 23 10000 0.45 315 20:19 26.10.2020
6259 Clear 12 1018 22 10000 0.89 315 19:47 26.10.2020
6260 Clear 14 1018 21 10000 0.89 0 19:23 26.10.2020
6261 Clear 13 1017 21 10000 0.89 0 18:44 26.10.2020
6262 Clear 14 1017 22 10000 0.45 315 18:24 26.10.2020
6263 Clear 14 1017 21 10000 0.45 315 17:59 26.10.2020
6264 Clear 14 1017 22 10000 0.89 338 17:39 26.10.2020
6265 Clear 15 1016 21 10000 1.34 315 17:21 26.10.2020
6266 Clear 15 1016 21 10000 0.45 315 16:40 26.10.2020
6267 Clear 15 1016 22 10000 0.45 0 16:21 26.10.2020
6268 Clear 17 1016 21 10000 0.89 0 15:42 26.10.2020
6269 Clear 17 1016 21 10000 5.48 356 15:22 26.10.2020
6270 Clear 18 1015 22 10000 5.48 356 14:53 26.10.2020
6271 Clear 18 1015 23 10000 0.89 0 14:32 26.10.2020
6272 Clear 18 1020 18 10000 6 320 13:44 26.10.2020
6273 Clear 20 1013 23 10000 1.34 315 13:24 26.10.2020
6274 Clear 19 1013 23 10000 5.49 352 12:52 26.10.2020
6275 Clear 19 1013 23 10000 5.77 346 12:30 26.10.2020
6276 Clear 20 1012 23 10000 5.2 343 11:57 26.10.2020
6277 Clear 20 1011 23 10000 0.45 90 11:39 26.10.2020
6278 Clear 20 1011 23 10000 5.2 343 11:39 26.10.2020
6279 Clear 21 1011 24 10000 5.19 334 11:21 26.10.2020
6280 Clear 21 1008 27 10000 5.19 334 10:48 26.10.2020
6281 Clear 21 1008 30 10000 4.6 315 10:26 26.10.2020
6282 Clear 22 1010 43 10000 4.6 315 09:55 26.10.2020
6283 Clear 24 1008 26 10000 4.4 289 09:29 26.10.2020
6284 Clear 22 1010 39 10000 4.4 289 08:54 26.10.2020
6285 Clear 22 1010 37 10000 4.08 281 08:24 26.10.2020
6286 Clear 23 1010 32 10000 4.08 281 07:38 26.10.2020
6287 Clear 23 1010 32 10000 4.08 281 07:38 26.10.2020
6288 Clear 23 1010 32 10000 4.08 281 07:38 26.10.2020
6289 Clouds 24 1010 31 10000 2.11 278 07:20 26.10.2020
6290 Clouds 22 1011 34 10000 0.67 270 05:31 26.10.2020
6291 Clouds 21 1012 41 10000 0.19 71 04:19 26.10.2020
6292 Clouds 18 1013 50 10000 0.6 38 03:21 26.10.2020
6293 Clouds 15 1011 43 10000 1.17 22 01:34 26.10.2020
6294 Clouds 13 1010 45 10000 1.58 22 00:35 26.10.2020
6295 Clouds 12 1010 45 10000 1.51 22 23:47 25.10.2020
6296 Clouds 13 1009 44 10000 0.88 24 23:28 25.10.2020
6297 Clouds 13 1009 43 10000 0.88 24 22:47 25.10.2020
6298 Clouds 13 1009 43 10000 0.43 33 22:28 25.10.2020
6299 Clouds 13 1009 42 10000 0.43 33 21:51 25.10.2020
6300 Clouds 13 1009 42 10000 0.43 33 21:31 25.10.2020
6301 Clouds 13 1012 71 10000 0.68 38 20:59 25.10.2020
6302 Clouds 13 1009 43 10000 0.68 38 20:41 25.10.2020
6303 Clouds 14 1009 43 10000 1.07 34 20:23 25.10.2020
6304 Clouds 14 1009 43 10000 1.07 34 19:55 25.10.2020
6305 Clouds 14 1009 43 10000 1.07 34 19:37 25.10.2020
6306 Clouds 13 1012 68 10000 1.49 36 19:18 25.10.2020
6307 Clouds 14 1012 69 10000 1.7 34 18:41 25.10.2020
6308 Clouds 14 1012 67 10000 1.22 25 18:22 25.10.2020
6309 Clouds 13 1012 66 10000 1.22 25 17:55 25.10.2020
6310 Clouds 13 1012 66 10000 1.22 25 17:37 25.10.2020
6311 Clouds 14 1012 68 10000 0.78 39 17:18 25.10.2020
6312 Clouds 13 1011 66 10000 0.78 39 16:43 25.10.2020
6313 Clouds 13 1011 66 10000 0.69 39 16:23 25.10.2020
6314 Clouds 13 1012 65 10000 0.69 39 15:47 25.10.2020
6315 Clouds 13 1012 65 10000 0.69 39 15:47 25.10.2020
6316 Clouds 15 1009 40 10000 0.79 55 15:27 25.10.2020
6317 Clouds 12 1018 81 6000 1 0 14:53 25.10.2020
6318 Clouds 13 1018 81 6000 1 0 14:29 25.10.2020
6319 Clouds 15 1012 58 10000 0.03 288 13:45 25.10.2020
6320 Clear 15 1011 54 10000 0.42 31 13:24 25.10.2020
6321 Clear 15 1011 55 10000 0.42 31 12:56 25.10.2020
6322 Clear 16 1011 54 10000 0.66 15 12:38 25.10.2020
6323 Clear 16 1011 53 10000 0.79 337 12:18 25.10.2020
6324 Clear 17 1011 50 10000 0.79 337 11:42 25.10.2020
6325 Clear 17 1011 50 10000 0.62 342 11:19 25.10.2020
6326 Clear 17 1010 49 10000 0.62 342 10:46 25.10.2020
6327 Clear 17 1010 46 10000 0.26 282 10:26 25.10.2020
6328 Clear 18 1010 42 10000 0.26 282 09:52 25.10.2020
6329 Clear 19 1009 39 10000 0.56 206 09:23 25.10.2020
6330 Clear 19 1009 37 10000 0.56 206 08:59 25.10.2020
6331 Clear 20 1009 37 10000 0.56 206 08:40 25.10.2020
6332 Clear 20 1009 37 10000 0.7 203 08:22 25.10.2020
6333 Clear 21 1009 33 10000 0.7 203 07:44 25.10.2020
6334 Clouds 22 1009 31 10000 0.79 100 06:53 25.10.2020
6335 Clouds 20 1002 30 10000 0.77 63 06:28 25.10.2020
6336 Clouds 21 1010 36 10000 1.1 57 05:22 25.10.2020
6337 Clouds 20 1011 37 10000 1.1 57 04:50 25.10.2020
6338 Clouds 13 1013 55 10000 1.79 25 02:37 25.10.2020
6339 Clouds 11 1012 66 10000 1.12 31 00:54 25.10.2020
6340 Clouds 11 1012 65 10000 0.97 38 00:29 25.10.2020
6341 Clouds 11 1012 64 10000 0.97 38 23:57 24.10.2020
6342 Clouds 11 1012 64 10000 0.97 38 23:36 24.10.2020
6343 Clouds 11 1012 64 10000 1 2 22:59 24.10.2020
6344 Clouds 10 1012 64 10000 1 2 22:41 24.10.2020
6345 Clouds 11 1012 62 10000 1.28 15 22:22 24.10.2020
6346 Clouds 11 1012 63 10000 1.28 15 21:55 24.10.2020
6347 Clouds 11 1012 64 10000 1.28 15 21:36 24.10.2020
6348 Clouds 11 1012 64 10000 0.36 324 21:18 24.10.2020
6349 Clouds 11 1012 65 10000 0.36 324 20:42 24.10.2020
6350 Clouds 11 1012 63 10000 0.19 252 20:20 24.10.2020
6351 Clouds 10 1012 60 10000 0.28 338 19:41 24.10.2020
6352 Clouds 10 1012 60 10000 0.46 293 19:23 24.10.2020
6353 Clouds 11 1012 58 10000 0.46 293 18:51 24.10.2020
6354 Clear 10 1019 70 10000 2 90 18:31 24.10.2020
6355 Clear 10 1019 75 10000 0.49 250 17:46 24.10.2020
6356 Clear 10 1019 75 10000 0.85 218 17:26 24.10.2020
6357 Clear 11 1019 81 10000 1 0 16:57 24.10.2020
6358 Clouds 12 1012 50 10000 0.85 218 16:39 24.10.2020
6359 Clouds 13 1012 46 10000 1.24 212 15:58 24.10.2020
6360 Clouds 13 1012 45 10000 1.24 212 15:38 24.10.2020
6361 Clouds 15 1012 44 10000 1.46 206 15:18 24.10.2020
6362 Clouds 15 1012 42 10000 1.4 203 14:39 24.10.2020
6363 Clear 15 1012 42 10000 1.57 190 14:21 24.10.2020
6364 Clear 14 1012 41 10000 1.57 190 13:44 24.10.2020
6365 Clear 15 1012 40 10000 1.38 183 13:20 24.10.2020
6366 Clear 15 1012 39 10000 1.38 183 12:41 24.10.2020
6367 Clear 17 1012 35 10000 1.24 188 12:20 24.10.2020
6368 Clear 16 1012 34 10000 1.24 188 11:50 24.10.2020
6369 Clear 17 1012 31 10000 1.61 208 11:23 24.10.2020
6370 Clear 19 1012 28 10000 1.61 208 10:47 24.10.2020
6371 Clear 19 1011 28 10000 2.17 211 10:27 24.10.2020
6372 Clear 20 1011 28 10000 2.17 211 09:48 24.10.2020
6373 Clear 20 1011 28 10000 0.45 135 09:27 24.10.2020
6374 Clear 20 1012 25 10000 0.45 180 08:58 24.10.2020
6375 Clear 20 1020 18 10000 3 200 08:19 24.10.2020
6376 Clear 20 1020 20 10000 2 230 07:51 24.10.2020
6377 Clear 19 1021 20 10000 2 0 07:21 24.10.2020
6378 Clear 18 1022 20 10000 2 0 06:51 24.10.2020
6379 Clear 18 1023 23 10000 2 300 05:47 24.10.2020
6380 Clear 12 1017 52 10000 0.33 308 02:26 24.10.2020
6381 Clear 8 1023 69 10000 2 350 00:57 24.10.2020
6382 Clear 9 1014 36 10000 0.49 355 00:37 24.10.2020
6383 Clear 9 1014 36 10000 0.49 355 00:37 24.10.2020
6384 Clear 9 1014 35 10000 0.82 3 00:19 24.10.2020
6385 Clear 9 1014 35 10000 0.82 3 23:43 23.10.2020
6386 Clear 9 1014 35 10000 1.04 15 23:22 23.10.2020
6387 Clear 8 1023 86 10000 2 360 22:42 23.10.2020
6388 Clear 8 1023 43 10000 2 360 22:22 23.10.2020
6389 Clear 8 1023 43 10000 2 360 21:59 23.10.2020
6390 Clear 8 1023 43 10000 1 0 21:39 23.10.2020
6391 Clear 8 1023 86 10000 1 320 21:21 23.10.2020
6392 Clear 8 1023 86 10000 0.91 359 20:39 23.10.2020
6393 Clear 11 1013 34 10000 0.55 343 20:20 23.10.2020
6394 Clear 11 1013 32 10000 0.55 343 19:48 23.10.2020
6395 Clear 11 1014 31 10000 0.58 320 19:29 23.10.2020
6396 Clear 11 1013 30 10000 0.58 320 18:49 23.10.2020
6397 Clear 11 1013 29 10000 0.58 320 18:30 23.10.2020
6398 Clear 8 1022 69 10000 1 60 17:47 23.10.2020
6399 Clear 10 1022 69 10000 1 60 17:22 23.10.2020
6400 Clear 11 1022 69 10000 1 0 16:56 23.10.2020
6401 Clear 11 1022 69 10000 1 0 16:56 23.10.2020
6402 Clear 11 1022 56 10000 2 190 16:35 23.10.2020
6403 Clear 13 1022 42 10000 2 200 15:59 23.10.2020
6404 Clear 13 1022 39 10000 2 190 15:40 23.10.2020
6405 Clear 13 1022 52 10000 1 0 15:20 23.10.2020
6406 Clear 14 1012 23 10000 1.84 216 14:49 23.10.2020
6407 Clear 14 1021 30 10000 3 190 14:30 23.10.2020
6408 Clear 15 1012 23 10000 1.92 214 13:44 23.10.2020
6409 Clear 15 1012 23 10000 2.23 213 13:24 23.10.2020
6410 Clear 15 1012 22 10000 2.23 213 12:52 23.10.2020
6411 Clear 15 1021 24 10000 4 210 12:31 23.10.2020
6412 Clear 16 1014 32 10000 2.35 209 11:59 23.10.2020
6413 Clear 15 1021 21 10000 4 200 11:41 23.10.2020
6414 Clear 17 1011 21 10000 2.3 204 11:20 23.10.2020
6415 Clear 18 1014 28 10000 2.3 204 10:39 23.10.2020
6416 Clear 18 1014 28 10000 1.42 212 10:20 23.10.2020
6417 Clear 18 1014 28 10000 1.42 212 09:43 23.10.2020
6418 Clear 18 1006 25 10000 1.34 135 09:23 23.10.2020
6419 Clear 18 1006 22 10000 0.89 45 08:52 23.10.2020
6420 Clear 18 1006 24 10000 0.89 135 08:28 23.10.2020
6421 Clear 18 1016 24 10000 0.89 45 07:27 23.10.2020
6422 Clear 17 1024 19 10000 5 280 06:52 23.10.2020
6423 Clear 17 1017 25 10000 1.34 0 06:20 23.10.2020
6424 Clear 13 1026 24 10000 2 340 04:42 23.10.2020
6425 Clear 8 1026 45 10000 1.18 347 02:32 23.10.2020
6426 Clear 7 1019 45 10000 1.37 350 00:56 23.10.2020
6427 Clear 7 1019 45 10000 1.37 350 00:33 23.10.2020
6428 Clear 7 1019 42 10000 1.65 356 23:40 22.10.2020
6429 Clear 7 1019 42 10000 1.87 353 23:19 22.10.2020
6430 Clear 8 1019 42 10000 1.87 353 22:47 22.10.2020
6431 Clear 8 1019 38 10000 2.01 352 22:26 22.10.2020
6432 Clear 8 1019 37 10000 2.01 352 21:58 22.10.2020
6433 Clear 6 1025 55 10000 2.01 352 21:39 22.10.2020
6434 Clear 7 1025 51 10000 1 40 21:20 22.10.2020
6435 Clear 8 1025 33 10000 2 360 20:44 22.10.2020
6436 Clear 8 1025 33 10000 2 360 20:25 22.10.2020
6437 Clear 10 1010 29 10000 0.45 270 19:44 22.10.2020
6438 Clear 10 1010 30 10000 2.9 359 19:21 22.10.2020
6439 Clear 9 1025 28 10000 3 360 18:58 22.10.2020
6440 Clear 9 1025 33 10000 3 350 18:37 22.10.2020
6441 Clear 11 1015 21 10000 3.54 2 18:18 22.10.2020
6442 Clear 11 1015 20 10000 3.54 2 17:43 22.10.2020
6443 Clear 11 1018 27 10000 1.34 315 17:20 22.10.2020
6444 Clear 11 1018 26 10000 0.89 0 16:45 22.10.2020
6445 Clear 11 1018 26 10000 4.19 358 16:24 22.10.2020
6446 Clear 11 1024 18 10000 7 320 15:49 22.10.2020
6447 Clear 11 1024 18 10000 7 320 15:27 22.10.2020
6448 Clear 12 1024 17 10000 7 330 14:55 22.10.2020
6449 Clear 12 1023 17 10000 6 320 14:36 22.10.2020
6450 Clear 12 1023 18 10000 6 330 14:18 22.10.2020
6451 Clear 12 1022 18 10000 5 320 13:41 22.10.2020
6452 Clear 13 1022 17 10000 4 310 13:22 22.10.2020
6453 Clear 15 1022 15 10000 4 300 12:31 22.10.2020
6454 Clear 15 1012 18 10000 4.54 342 11:58 22.10.2020
6455 Clear 14 1021 13 10000 6 310 11:38 22.10.2020
6456 Clear 16 1012 17 10000 4.2 336 11:18 22.10.2020
6457 Clear 16 1014 23 10000 4.2 336 10:46 22.10.2020
6458 Clear 16 1014 20 10000 1.34 0 10:24 22.10.2020
6459 Clear 16 1021 10 10000 9 320 09:42 22.10.2020
6460 Clear 16 1021 9 10000 9 330 09:21 22.10.2020
6461 Clear 17 1021 9 10000 10 330 08:41 22.10.2020
6462 Clear 16 1021 10 10000 8 310 08:23 22.10.2020
6463 Clear 16 1014 18 10000 1.34 315 07:43 22.10.2020
6464 Clear 16 1015 19 10000 0.89 0 07:18 22.10.2020
6465 Clear 17 1015 19 10000 0.45 315 06:41 22.10.2020
6466 Clear 16 1015 20 10000 0.89 315 06:23 22.10.2020
6467 Clear 15 1016 22 10000 1.34 45 05:38 22.10.2020
6468 Clear 14 1016 25 10000 1.34 315 03:25 22.10.2020
6469 Clear 10 1015 32 10000 0.45 315 00:50 22.10.2020
6470 Clear 10 1012 22 10000 2.99 333 00:21 22.10.2020
6471 Clear 10 1015 34 10000 0.45 338 23:42 21.10.2020
6472 Clear 10 1015 39 10000 2.52 342 22:59 21.10.2020
6473 Clear 10 1015 38 10000 2.52 342 22:37 21.10.2020
6474 Clear 10 1014 36 10000 2.23 1 22:19 21.10.2020
6475 Clear 10 1014 43 10000 2.23 1 21:45 21.10.2020
6476 Clear 10 1014 42 10000 1.63 11 21:20 21.10.2020
6477 Clear 10 1014 44 10000 1.63 11 20:57 21.10.2020
6478 Clear 10 1013 47 10000 1.63 11 20:39 21.10.2020
6479 Clear 10 1011 27 10000 1.72 20 20:18 21.10.2020
6480 Clear 9 1013 46 10000 1.82 13 19:40 21.10.2020
6481 Clear 10 1013 44 10000 2.14 19 19:22 21.10.2020
6482 Clear 10 1013 47 10000 2.14 19 18:49 21.10.2020
6483 Clear 11 1013 42 10000 2.6 23 18:27 21.10.2020
6484 Clear 9 1013 44 10000 2.6 23 17:50 21.10.2020
6485 Clear 12 1013 42 10000 2.78 23 17:22 21.10.2020
6486 Clear 9 1019 74 10000 1 50 16:58 21.10.2020
6487 Clear 9 1019 64 10000 1 350 16:38 21.10.2020
6488 Clear 9 1019 65 10000 1 0 16:19 21.10.2020
6489 Clear 11 1012 38 10000 2.71 17 15:45 21.10.2020
6490 Clear 11 1012 34 10000 2.73 14 15:21 21.10.2020
6491 Clear 10 1018 52 10000 2.73 14 14:49 21.10.2020
6492 Clear 12 1012 32 10000 2.84 11 14:29 21.10.2020
6493 Clear 11 1018 52 10000 1 0 13:57 21.10.2020
6494 Clear 11 1018 39 10000 1 0 13:39 21.10.2020
6495 Clear 12 1018 34 10000 1 0 13:20 21.10.2020
6496 Clear 15 1011 25 10000 2.47 1 12:38 21.10.2020
6497 Clear 16 1011 25 10000 2.97 338 12:19 21.10.2020
6498 Clear 16 1011 22 10000 2.97 338 11:41 21.10.2020
6499 Clear 16 1011 21 10000 4.3 322 11:20 21.10.2020
6500 Clear 16 1010 19 10000 0.89 0 10:47 21.10.2020
6501 Clear 17 1010 18 10000 0.45 0 10:26 21.10.2020
6502 Clear 17 1010 18 10000 1.34 0 09:57 21.10.2020
6503 Clear 17 1010 18 10000 0.89 315 09:35 21.10.2020
6504 Clouds 17 1010 18 10000 0.45 0 08:57 21.10.2020
6505 Clouds 17 1010 17 10000 0.45 0 08:39 21.10.2020
6506 Clouds 18 1011 18 10000 0.45 45 08:21 21.10.2020
6507 Clear 18 1011 18 10000 5.56 312 07:38 21.10.2020
6508 Clear 17 1012 18 10000 1.34 0 06:55 21.10.2020
6509 Clear 16 1012 19 10000 0.89 0 06:32 21.10.2020
6510 Clear 14 1013 23 10000 0.45 90 04:47 21.10.2020
6511 Clear 12 1014 29 10000 1.34 0 02:26 21.10.2020
6512 Clear 12 1012 32 10000 1.34 315 23:55 20.10.2020
6513 Clear 12 1012 32 10000 0.89 0 23:20 20.10.2020
6514 Clear 13 1011 30 10000 1.34 0 22:36 20.10.2020
6515 Clear 13 1011 30 10000 2.24 315 22:18 20.10.2020
6516 Clear 14 1011 29 10000 1.34 0 21:45 20.10.2020
6517 Clear 14 1007 21 10000 7.58 315 21:18 20.10.2020
6518 Clear 15 1010 23 10000 0.45 45 20:42 20.10.2020
6519 Clouds 15 1007 22 10000 6.03 321 20:23 20.10.2020
6520 Clouds 15 1010 65 10000 7.75 321 19:44 20.10.2020
6521 Mist 15 1016 76 5000 2 300 19:22 20.10.2020
6522 Mist 14 1016 76 5000 2 310 18:56 20.10.2020
6523 Mist 14 1016 76 5000 2 310 18:37 20.10.2020
6524 Mist 15 1016 76 5000 4 290 17:50 20.10.2020
6525 Mist 15 1016 76 5000 4 290 17:32 20.10.2020
6526 Mist 14 1016 93 4500 2 100 16:56 20.10.2020
6527 Mist 15 1016 93 4500 2 100 16:38 20.10.2020
6528 Mist 15 1016 87 4500 2 110 16:20 20.10.2020
6529 Mist 16 1016 93 4500 1 0 15:41 20.10.2020
6530 Mist 15 1016 93 3500 1 0 15:22 20.10.2020
6531 Clouds 17 1010 71 10000 2.93 197 14:44 20.10.2020
6532 Mist 16 1017 93 2900 1 0 14:24 20.10.2020
6533 Mist 16 1017 81 3500 1 10 13:57 20.10.2020
6534 Mist 16 1017 87 3500 2 120 13:38 20.10.2020
6535 Mist 16 1017 81 3500 2 360 13:19 20.10.2020
6536 Mist 16 1017 81 3500 1 0 12:46 20.10.2020
6537 Mist 16 1017 81 3500 1 0 12:28 20.10.2020
6538 Haze 17 1018 72 2700 2.5 205 11:46 20.10.2020
6539 Haze 18 1018 72 2700 3.13 201 11:27 20.10.2020
6540 Haze 18 1018 63 2800 1 140 10:40 20.10.2020
6541 Haze 18 1018 63 2800 1 140 10:22 20.10.2020
6542 Haze 19 1018 51 3200 1 0 09:44 20.10.2020
6543 Haze 19 1018 51 3200 1 0 09:19 20.10.2020
6544 Haze 19 1019 51 3500 3 160 08:39 20.10.2020
6545 Haze 19 1020 51 3700 3 140 07:54 20.10.2020
6546 Clouds 19 1013 58 10000 2.33 207 07:26 20.10.2020
6547 Clouds 19 1013 57 10000 2.33 207 06:57 20.10.2020
6548 Clouds 18 1014 55 10000 1.9 199 06:19 20.10.2020
6549 Clouds 17 1016 64 10000 0.73 149 03:59 20.10.2020
6550 Clouds 14 1017 67 10000 0.42 120 02:30 20.10.2020
6551 Clouds 12 1016 71 10000 0.52 44 01:22 20.10.2020
6552 Clouds 11 1023 93 8000 1 50 00:50 20.10.2020
6553 Clouds 11 1023 93 8000 1 50 00:24 20.10.2020
6554 Clouds 11 1023 93 8000 1 0 23:49 19.10.2020
6555 Clouds 11 1023 93 8000 1 10 23:24 19.10.2020
6556 Clouds 12 1023 93 8000 1 10 22:54 19.10.2020
6557 Clear 12 1023 93 8000 1 0 22:26 19.10.2020
6558 Clear 12 1023 87 8000 1 350 21:50 19.10.2020
6559 Clear 12 1023 87 8000 1 340 21:24 19.10.2020
6560 Clear 12 1023 87 8000 1 340 20:59 19.10.2020
6561 Clear 12 1023 93 8000 1 0 20:39 19.10.2020
6562 Clear 12 1023 93 8000 1 0 20:39 19.10.2020
6563 Clear 12 1023 93 8000 1 0 20:18 19.10.2020
6564 Clear 13 1023 87 8000 2 350 19:42 19.10.2020
6565 Clear 13 1023 87 8000 1 0 19:19 19.10.2020
6566 Clear 14 1023 93 8000 1 70 18:49 19.10.2020
6567 Clear 14 1023 87 8000 1 40 18:20 19.10.2020
6568 Clear 14 1024 81 8000 1 0 17:47 19.10.2020
6569 Clear 14 1024 81 8000 1 70 17:26 19.10.2020
6570 Clear 15 1023 87 8000 1 80 16:53 19.10.2020
6571 Clear 15 1023 87 8000 1 80 16:29 19.10.2020
6572 Clear 18 1014 38 10000 1.23 216 15:47 19.10.2020
6573 Clear 18 1014 37 10000 1.71 209 15:26 19.10.2020
6574 Clear 17 1016 58 10000 1.71 209 14:57 19.10.2020
6575 Clear 18 1016 56 10000 1.71 209 14:36 19.10.2020
6576 Clear 18 1016 53 10000 1.53 195 14:18 19.10.2020
6577 Clear 18 1016 51 10000 1.53 195 13:42 19.10.2020
6578 Clear 19 1015 50 10000 1.65 190 13:22 19.10.2020
6579 Clear 19 1015 47 10000 1.65 190 12:43 19.10.2020
6580 Clear 19 1013 30 10000 1.71 194 12:25 19.10.2020
6581 Clear 20 1015 43 10000 1.71 194 11:48 19.10.2020
6582 Clear 21 1015 40 10000 2.03 200 11:22 19.10.2020
6583 Clear 21 1015 37 10000 2.03 200 10:44 19.10.2020
6584 Clear 22 1015 34 10000 2.45 199 10:24 19.10.2020
6585 Clear 22 1015 33 10000 0.45 135 09:57 19.10.2020
6586 Clear 22 1015 31 10000 2.45 199 09:36 19.10.2020
6587 Clear 23 1015 30 10000 2.46 195 09:18 19.10.2020
6588 Clear 23 1015 26 10000 2.46 195 08:41 19.10.2020
6589 Clear 23 1015 24 10000 2.17 193 08:20 19.10.2020
6590 Clear 23 1008 26 10000 0.45 270 07:21 19.10.2020
6591 Clear 21 1024 20 10000 1 0 06:40 19.10.2020
6592 Clear 18 1025 33 10000 2 300 05:20 19.10.2020
6593 Clear 16 1019 42 10000 1.11 29 03:45 19.10.2020
6594 Clear 14 1018 60 10000 1.72 16 01:42 19.10.2020
6595 Clear 10 1024 86 10000 2 340 00:42 19.10.2020
6596 Clear 11 1024 86 10000 2 360 23:56 18.10.2020
6597 Clear 11 1024 86 10000 2 350 23:38 18.10.2020
6598 Clear 11 1024 86 10000 2 340 23:19 18.10.2020
6599 Clear 12 1015 43 10000 1.63 30 22:44 18.10.2020
6600 Clear 11 1024 93 10000 3 350 22:19 18.10.2020
6601 Clear 11 1024 93 10000 1 340 21:42 18.10.2020
6602 Clear 11 1024 93 10000 1 0 21:21 18.10.2020
6603 Clear 12 1024 93 10000 1.45 31 20:45 18.10.2020
6604 Clear 12 1024 93 10000 1.34 29 20:24 18.10.2020
6605 Clear 12 1024 93 10000 1.34 29 19:50 18.10.2020
6606 Clear 12 1024 93 10000 1.15 27 19:27 18.10.2020
6607 Clear 13 1024 81 10000 3 350 18:51 18.10.2020
6608 Clear 13 1024 81 10000 3 350 18:31 18.10.2020
6609 Rain 13 1024 87 10000 3 350 17:59 18.10.2020
6610 Rain 13 1024 87 10000 1 70 17:41 18.10.2020
6611 Rain 14 1024 87 10000 1 0 17:22 18.10.2020
6612 Clear 14 1023 75 10000 1 0 16:43 18.10.2020
6613 Clear 15 1023 75 10000 1 0 16:24 18.10.2020
6614 Rain 16 1023 70 10000 1 0 15:43 18.10.2020
6615 Clear 16 1023 70 10000 2 70 15:21 18.10.2020
6616 Clear 16 1023 70 10000 2 70 14:58 18.10.2020
6617 Clear 18 1016 49 10000 1.55 228 14:31 18.10.2020
6618 Clear 18 1016 45 10000 2.09 207 13:59 18.10.2020
6619 Clear 17 1013 28 10000 1.72 207 13:40 18.10.2020
6620 Clear 18 1015 43 10000 1.81 186 13:22 18.10.2020
6621 Clear 18 1015 41 10000 1.81 186 12:43 18.10.2020
6622 Clear 18 1015 39 10000 1.63 165 12:23 18.10.2020
6623 Clear 19 1014 36 10000 1.63 165 11:47 18.10.2020
6624 Clear 20 1014 34 10000 1.81 154 11:29 18.10.2020
6625 Clear 21 1014 31 10000 1.81 154 10:59 18.10.2020
6626 Clear 21 1014 30 10000 1.81 154 10:39 18.10.2020
6627 Clear 22 1014 28 10000 1.88 136 10:18 18.10.2020
6628 Clear 22 1014 27 10000 1.88 136 09:44 18.10.2020
6629 Clear 22 1014 27 10000 1.82 109 09:20 18.10.2020
6630 Clear 22 1014 26 10000 1.82 109 08:52 18.10.2020
6631 Clear 22 1021 19 10000 2 0 08:26 18.10.2020
6632 Clear 22 1022 21 10000 2 70 07:51 18.10.2020
6633 Clear 21 1016 27 10000 2 48 05:57 18.10.2020
6634 Clear 17 1018 37 10000 2.6 43 03:55 18.10.2020
6635 Clear 16 1018 45 10000 2.77 35 02:54 18.10.2020
6636 Clear 14 1014 37 10000 2.65 32 01:33 18.10.2020
6637 Clear 10 1022 93 10000 1 0 00:46 18.10.2020
6638 Clear 10 1022 93 10000 1 0 00:22 18.10.2020
6639 Clear 10 1022 80 10000 2 340 23:41 17.10.2020
6640 Clear 11 1021 80 10000 2 340 23:21 17.10.2020
6641 Clear 11 1021 80 10000 2 340 22:57 17.10.2020
6642 Clear 11 1021 86 10000 1 0 22:38 17.10.2020
6643 Clear 12 1021 80 10000 2 360 22:18 17.10.2020
6644 Clear 12 1021 80 10000 2 360 21:43 17.10.2020
6645 Clear 12 1021 80 10000 2 350 21:21 17.10.2020
6646 Clear 12 1021 75 10000 2 350 20:46 17.10.2020
6647 Clouds 12 1021 80 10000 1 0 20:21 17.10.2020
6648 Clear 12 1021 86 10000 1 0 19:45 17.10.2020
6649 Clear 12 1021 86 10000 1.51 357 19:23 17.10.2020
6650 Clear 13 1021 86 10000 1 50 18:47 17.10.2020
6651 Clear 13 1021 86 10000 1 50 18:28 17.10.2020
6652 Clear 13 1021 75 10000 1 20 17:57 17.10.2020
6653 Clear 14 1021 75 10000 1.05 323 17:38 17.10.2020
6654 Clear 14 1021 70 10000 1 0 17:19 17.10.2020
6655 Clear 12 1021 61 10000 1 0 16:42 17.10.2020
6656 Clear 13 1021 65 10000 1 60 16:19 17.10.2020
6657 Clear 16 1014 39 10000 2.08 230 15:43 17.10.2020
6658 Clear 17 1014 36 10000 2.58 216 15:22 17.10.2020
6659 Clear 18 1013 34 10000 2.58 216 14:57 17.10.2020
6660 Clear 17 1013 34 10000 2.58 216 14:38 17.10.2020
6661 Clear 19 1013 32 10000 2.15 204 14:19 17.10.2020
6662 Clear 19 1013 33 10000 2.15 204 13:44 17.10.2020
6663 Clear 19 1011 22 10000 1.9 196 13:25 17.10.2020
6664 Clear 19 1012 30 10000 1.9 196 12:58 17.10.2020
6665 Clear 20 1012 29 10000 1.9 196 12:38 17.10.2020
6666 Clear 20 1012 29 10000 1.91 193 12:18 17.10.2020
6667 Clear 21 1012 27 10000 1.91 193 11:37 17.10.2020
6668 Clear 21 1012 27 10000 2.38 196 11:18 17.10.2020
6669 Clear 22 1012 22 10000 2.69 207 10:31 17.10.2020
6670 Clear 23 1012 22 10000 2.69 207 09:51 17.10.2020
6671 Clear 23 1012 22 10000 2.69 207 09:32 17.10.2020
6672 Clear 24 1012 20 10000 2.5 215 08:56 17.10.2020
6673 Clear 24 1004 18 10000 2.68 45 08:25 17.10.2020
6674 Clear 23 1005 21 10000 1.34 45 07:44 17.10.2020
6675 Clear 23 1005 21 10000 1.79 45 07:24 17.10.2020
6676 Clear 20 1023 22 10000 1 0 05:36 17.10.2020
6677 Clear 14 1017 47 10000 0.54 275 02:30 17.10.2020
6678 Clear 15 1014 38 10000 0.54 275 01:59 17.10.2020
6679 Clear 9 1023 38 10000 1 350 00:48 17.10.2020
6680 Clear 8 1023 38 10000 0.71 264 23:57 16.10.2020
6681 Clear 9 1023 93 10000 0.75 262 23:24 16.10.2020
6682 Clear 9 1023 93 10000 0.75 262 22:45 16.10.2020
6683 Clear 9 1023 93 10000 1.02 252 22:24 16.10.2020
6684 Clear 10 1023 93 10000 1 350 21:56 16.10.2020
6685 Clear 10 1023 93 10000 1 360 21:37 16.10.2020
6686 Clear 10 1024 86 10000 2 360 21:19 16.10.2020
6687 Clear 11 1024 86 10000 1 0 20:41 16.10.2020
6688 Clear 11 1024 86 10000 1 0 20:23 16.10.2020
6689 Clear 13 1017 47 10000 1.75 234 19:44 16.10.2020
6690 Clear 13 1017 47 10000 2.3 228 19:26 16.10.2020
6691 Clear 14 1017 40 10000 2.3 228 18:54 16.10.2020
6692 Clear 14 1017 41 10000 2.3 228 18:33 16.10.2020
6693 Clear 15 1015 24 10000 2.52 231 17:47 16.10.2020
6694 Clear 15 1017 40 10000 2.49 237 17:29 16.10.2020
6695 Clear 15 1017 38 10000 2.49 237 16:54 16.10.2020
6696 Clear 14 1017 42 10000 2.49 237 16:36 16.10.2020
6697 Rain 16 1017 36 10000 2.41 239 16:18 16.10.2020
6698 Clear 16 1017 36 10000 2.58 229 15:24 16.10.2020
6699 Rain 15 1017 34 10000 2.58 229 14:44 16.10.2020
6700 Rain 16 1017 33 10000 2.45 237 14:20 16.10.2020
6701 Clear 15 1017 31 10000 2.45 237 13:58 16.10.2020
6702 Clear 15 1017 29 10000 2.12 251 13:39 16.10.2020
6703 Clear 17 1017 29 10000 1.91 277 13:21 16.10.2020
6704 Clear 17 1017 29 10000 1.91 277 12:50 16.10.2020
6705 Clear 17 1016 28 10000 2.34 292 12:23 16.10.2020
6706 Clear 18 1016 25 10000 2.34 292 11:49 16.10.2020
6707 Clear 19 1016 24 10000 3.7 301 11:29 16.10.2020
6708 Clear 19 1016 22 10000 3.7 301 10:58 16.10.2020
6709 Clear 20 1016 24 10000 3.7 301 10:38 16.10.2020
6710 Clear 20 1016 19 10000 4.3